<?xml version='1.0' encoding='UTF-8'?><gpx version="1.1" creator="JPX - https://github.com/jenetics/jpx" xmlns="http://www.topografix.com/GPX/1/1"><trk><trkseg><trkpt lat="40.72649164775909" lon="17.579435833608937"><ele>240.0</ele><time>2026-04-28T13:24:35.999Z</time></trkpt><trkpt lat="40.726425728218025" lon="17.579430467803213"><ele>240.0</ele><time>2026-04-28T13:24:52Z</time></trkpt><trkpt lat="40.72633525248325" lon="17.57938109506086"><ele>240.0</ele><time>2026-04-28T13:24:57Z</time></trkpt><trkpt lat="40.72627536377503" lon="17.57934102957142"><ele>240.0</ele><time>2026-04-28T13:24:59Z</time></trkpt><trkpt lat="40.726208412721384" lon="17.57932123733318"><ele>240.0</ele><time>2026-04-28T13:25:01Z</time></trkpt><trkpt lat="40.726135380339784" lon="17.579247313394"><ele>240.0</ele><time>2026-04-28T13:25:03Z</time></trkpt><trkpt lat="40.726060771757965" lon="17.5792270070651"><ele>240.33333333333334</ele><time>2026-04-28T13:25:07Z</time></trkpt><trkpt lat="40.72601097395988" lon="17.579145192954368"><ele>240.66666666666669</ele><time>2026-04-28T13:25:12.999Z</time></trkpt><trkpt lat="40.72601823894786" lon="17.579043514690436"><ele>241.0</ele><time>2026-04-28T13:25:15.999Z</time></trkpt><trkpt lat="40.725976713532624" lon="17.57893162969822"><ele>241.33333333333334</ele><time>2026-04-28T13:25:18.999Z</time></trkpt><trkpt lat="40.72590360726587" lon="17.578872025865117"><ele>241.66666666666669</ele><time>2026-04-28T13:25:21.999Z</time></trkpt><trkpt lat="40.725846295855774" lon="17.578825332529917"><ele>242.0</ele><time>2026-04-28T13:25:23.999Z</time></trkpt><trkpt lat="40.72576220581113" lon="17.578765504864514"><ele>242.00000000000003</ele><time>2026-04-28T13:25:26.999Z</time></trkpt><trkpt lat="40.72569535715777" lon="17.57875211762715"><ele>242.0</ele><time>2026-04-28T13:25:28.999Z</time></trkpt><trkpt lat="40.725609945873735" lon="17.578704049020626"><ele>242.0</ele><time>2026-04-28T13:25:31.999Z</time></trkpt><trkpt lat="40.72561819934507" lon="17.57858857231973"><ele>242.0</ele><time>2026-04-28T13:25:34.999Z</time></trkpt><trkpt lat="40.72565566140274" lon="17.578486073598164"><ele>242.00000000000003</ele><time>2026-04-28T13:25:37.999Z</time></trkpt><trkpt lat="40.7256817130416" lon="17.578374878141865"><ele>242.0</ele><time>2026-04-28T13:25:40.999Z</time></trkpt><trkpt lat="40.72563549081663" lon="17.57830592124823"><ele>242.33333333333334</ele><time>2026-04-28T13:25:45.999Z</time></trkpt><trkpt lat="40.72558361044411" lon="17.57825688735366"><ele>242.66666666666669</ele><time>2026-04-28T13:25:47.999Z</time></trkpt><trkpt lat="40.72551680787653" lon="17.5782372914796"><ele>243.0</ele><time>2026-04-28T13:25:49.999Z</time></trkpt><trkpt lat="40.72542881471454" lon="17.578187630752115"><ele>243.33333333333331</ele><time>2026-04-28T13:25:52.999Z</time></trkpt><trkpt lat="40.72536433506371" lon="17.57813185913062"><ele>243.66666666666666</ele><time>2026-04-28T13:25:55.999Z</time></trkpt><trkpt lat="40.72529672293926" lon="17.578062764033504"><ele>244.0</ele><time>2026-04-28T13:26:00.999Z</time></trkpt><trkpt lat="40.72523695621423" lon="17.578032077071967"><ele>243.99999999999997</ele><time>2026-04-28T13:26:02.999Z</time></trkpt><trkpt lat="40.72517424374109" lon="17.57800396087346"><ele>244.0</ele><time>2026-04-28T13:26:04.999Z</time></trkpt><trkpt lat="40.72510985183928" lon="17.577977609034626"><ele>244.0</ele><time>2026-04-28T13:26:06.999Z</time></trkpt><trkpt lat="40.725024767127884" lon="17.577924725695688"><ele>244.0</ele><time>2026-04-28T13:26:09.998Z</time></trkpt><trkpt lat="40.72496193800197" lon="17.57790115768592"><ele>243.99999999999997</ele><time>2026-04-28T13:26:11.998Z</time></trkpt><trkpt lat="40.724883804267634" lon="17.577853810207994"><ele>244.0</ele><time>2026-04-28T13:26:14.998Z</time></trkpt><trkpt lat="40.72480741689219" lon="17.577804260722424"><ele>244.33333333333331</ele><time>2026-04-28T13:26:17.998Z</time></trkpt><trkpt lat="40.7247243917796" lon="17.57775697790502"><ele>244.66666666666666</ele><time>2026-04-28T13:26:20.998Z</time></trkpt><trkpt lat="40.72464925414203" lon="17.5777204903015"><ele>245.0</ele><time>2026-04-28T13:26:23.998Z</time></trkpt><trkpt lat="40.72456526416494" lon="17.577670972842924"><ele>245.33333333333331</ele><time>2026-04-28T13:26:26.998Z</time></trkpt><trkpt lat="40.72449500366222" lon="17.577627580012468"><ele>245.66666666666666</ele><time>2026-04-28T13:26:29.998Z</time></trkpt><trkpt lat="40.724431065097995" lon="17.57758966602983"><ele>246.0</ele><time>2026-04-28T13:26:32.998Z</time></trkpt><trkpt lat="40.72435645764308" lon="17.577549976363876"><ele>246.0</ele><time>2026-04-28T13:26:34.998Z</time></trkpt><trkpt lat="40.72429848731152" lon="17.577501635946128"><ele>246.0</ele><time>2026-04-28T13:26:36.998Z</time></trkpt><trkpt lat="40.72420817825198" lon="17.577485793904934"><ele>246.0</ele><time>2026-04-28T13:26:38.998Z</time></trkpt><trkpt lat="40.72414382372159" lon="17.57746465734297"><ele>246.0</ele><time>2026-04-28T13:26:39.998Z</time></trkpt><trkpt lat="40.724037728265984" lon="17.57745963721569"><ele>246.0</ele><time>2026-04-28T13:26:42Z</time></trkpt><trkpt lat="40.7239476851099" lon="17.577422760910224"><ele>246.0</ele><time>2026-04-28T13:26:44Z</time></trkpt><trkpt lat="40.72389853065839" lon="17.57733004991781"><ele>246.0</ele><time>2026-04-28T13:26:45Z</time></trkpt><trkpt lat="40.72379953554423" lon="17.5772935553177"><ele>246.0</ele><time>2026-04-28T13:26:47Z</time></trkpt><trkpt lat="40.72372503818509" lon="17.57726609182507"><ele>246.0</ele><time>2026-04-28T13:26:48Z</time></trkpt><trkpt lat="40.7236364170383" lon="17.577233421575635"><ele>246.0</ele><time>2026-04-28T13:26:50Z</time></trkpt><trkpt lat="40.72357444884015" lon="17.5772110471815"><ele>246.0</ele><time>2026-04-28T13:26:51Z</time></trkpt><trkpt lat="40.723511612700456" lon="17.57718804176751"><ele>246.0</ele><time>2026-04-28T13:26:52Z</time></trkpt><trkpt lat="40.723577787507146" lon="17.577147790925036"><ele>246.0</ele><time>2026-04-28T13:26:54Z</time></trkpt><trkpt lat="40.72360158732797" lon="17.577042474375073"><ele>246.0</ele><time>2026-04-28T13:26:56Z</time></trkpt><trkpt lat="40.72362345970311" lon="17.576942258240155"><ele>246.0</ele><time>2026-04-28T13:26:58Z</time></trkpt><trkpt lat="40.72364263145549" lon="17.576851577564092"><ele>246.0</ele><time>2026-04-28T13:27:00Z</time></trkpt><trkpt lat="40.72366216228636" lon="17.576758900139676"><ele>246.0</ele><time>2026-04-28T13:27:02Z</time></trkpt><trkpt lat="40.72367938923005" lon="17.57667586127647"><ele>246.0</ele><time>2026-04-28T13:27:04Z</time></trkpt><trkpt lat="40.72352263544053" lon="17.57655236954271"><ele>245.16666666666666</ele><time>2026-04-28T13:27:08Z</time></trkpt><trkpt lat="40.7234582856821" lon="17.57651661854307"><ele>244.33333333333331</ele><time>2026-04-28T13:27:11Z</time></trkpt><trkpt lat="40.723388943316294" lon="17.576511078768306"><ele>243.5</ele><time>2026-04-28T13:27:14Z</time></trkpt><trkpt lat="40.72329779334395" lon="17.576511162346307"><ele>242.66666666666666</ele><time>2026-04-28T13:27:17Z</time></trkpt><trkpt lat="40.723220235846014" lon="17.576502455007585"><ele>241.83333333333331</ele><time>2026-04-28T13:27:19Z</time></trkpt><trkpt lat="40.72314348788693" lon="17.5764847209042"><ele>241.0</ele><time>2026-04-28T13:27:21Z</time></trkpt><trkpt lat="40.72306955336333" lon="17.5764710004066"><ele>241.0</ele><time>2026-04-28T13:27:22.999Z</time></trkpt><trkpt lat="40.72298276274515" lon="17.576463144466715"><ele>241.00000000000003</ele><time>2026-04-28T13:27:24.999Z</time></trkpt><trkpt lat="40.72288682091495" lon="17.576428715591387"><ele>241.00000000000003</ele><time>2026-04-28T13:27:26.999Z</time></trkpt><trkpt lat="40.72280323303997" lon="17.576394218350647"><ele>241.0</ele><time>2026-04-28T13:27:28.999Z</time></trkpt><trkpt lat="40.72270893848623" lon="17.576360811884506"><ele>241.0</ele><time>2026-04-28T13:27:30.999Z</time></trkpt><trkpt lat="40.72267012053337" lon="17.576199112272924"><ele>240.0</ele><time>2026-04-28T13:27:32.999Z</time></trkpt><trkpt lat="40.722723486602945" lon="17.576042508369568"><ele>239.00000000000003</ele><time>2026-04-28T13:27:34.999Z</time></trkpt><trkpt lat="40.72272691572877" lon="17.575947611020734"><ele>238.00000000000003</ele><time>2026-04-28T13:27:35.999Z</time></trkpt><trkpt lat="40.72272530811883" lon="17.575827669142914"><ele>237.0</ele><time>2026-04-28T13:27:37.999Z</time></trkpt><trkpt lat="40.7227276364356" lon="17.575717730720914"><ele>236.0</ele><time>2026-04-28T13:27:39.999Z</time></trkpt><trkpt lat="40.72265482369587" lon="17.57561852749901"><ele>236.00000000000003</ele><time>2026-04-28T13:27:41.999Z</time></trkpt><trkpt lat="40.72259531508509" lon="17.575590983855374"><ele>236.0</ele><time>2026-04-28T13:27:43.999Z</time></trkpt><trkpt lat="40.72254671376686" lon="17.57564451210574"><ele>236.0</ele><time>2026-04-28T13:27:45.999Z</time></trkpt><trkpt lat="40.72252048754124" lon="17.5757203699287"><ele>236.0</ele><time>2026-04-28T13:27:47.999Z</time></trkpt><trkpt lat="40.72246707409719" lon="17.57580321507584"><ele>236.00000000000003</ele><time>2026-04-28T13:27:50.999Z</time></trkpt><trkpt lat="40.72235876098915" lon="17.57564356021174"><ele>236.0</ele><time>2026-04-28T13:28:31.998Z</time></trkpt><trkpt lat="40.72241373707146" lon="17.575599143733243"><ele>236.0</ele><time>2026-04-28T13:29:04Z</time></trkpt><trkpt lat="40.722456068579426" lon="17.57552686549998"><ele>236.0</ele><time>2026-04-28T13:29:09Z</time></trkpt><trkpt lat="40.72249460767139" lon="17.575459736307568"><ele>236.0</ele><time>2026-04-28T13:29:13Z</time></trkpt><trkpt lat="40.72255869578882" lon="17.575453245551465"><ele>236.0</ele><time>2026-04-28T13:29:17Z</time></trkpt><trkpt lat="40.722571203502945" lon="17.57553750220379"><ele>236.0</ele><time>2026-04-28T13:29:31.999Z</time></trkpt><trkpt lat="40.722572261966654" lon="17.57562496262677"><ele>236.0</ele><time>2026-04-28T13:29:36.999Z</time></trkpt><trkpt lat="40.72254022255028" lon="17.57569998819308"><ele>236.0</ele><time>2026-04-28T13:29:40.999Z</time></trkpt><trkpt lat="40.72249361381191" lon="17.57563413829876"><ele>236.0</ele><time>2026-04-28T13:30:08.999Z</time></trkpt><trkpt lat="40.722558227437816" lon="17.575591187881603"><ele>236.0</ele><time>2026-04-28T13:30:13.999Z</time></trkpt><trkpt lat="40.72263441857472" lon="17.575566159222983"><ele>236.0</ele><time>2026-04-28T13:30:18.999Z</time></trkpt><trkpt lat="40.72269683811242" lon="17.575522938177954"><ele>236.0</ele><time>2026-04-28T13:30:24.998Z</time></trkpt><trkpt lat="40.72263785468015" lon="17.575560166450362"><ele>236.0</ele><time>2026-04-28T13:30:32.998Z</time></trkpt><trkpt lat="40.72261861014028" lon="17.575651803293546"><ele>236.0</ele><time>2026-04-28T13:30:37.998Z</time></trkpt><trkpt lat="40.72256515815561" lon="17.575713245660893"><ele>236.0</ele><time>2026-04-28T13:30:42.998Z</time></trkpt><trkpt lat="40.72249740247557" lon="17.57575370175202"><ele>236.00000000000003</ele><time>2026-04-28T13:30:48.998Z</time></trkpt><trkpt lat="40.722462053132425" lon="17.57567454279444"><ele>236.0</ele><time>2026-04-28T13:31:14Z</time></trkpt><trkpt lat="40.722412191248935" lon="17.575603487281725"><ele>236.0</ele><time>2026-04-28T13:32:42.998Z</time></trkpt><trkpt lat="40.72245891599162" lon="17.575535624293988"><ele>236.0</ele><time>2026-04-28T13:32:49.998Z</time></trkpt><trkpt lat="40.72250237837413" lon="17.575463770176793"><ele>236.00000000000003</ele><time>2026-04-28T13:32:52.998Z</time></trkpt><trkpt lat="40.72256227789424" lon="17.575374989535288"><ele>236.0</ele><time>2026-04-28T13:32:55.998Z</time></trkpt><trkpt lat="40.72263941378526" lon="17.575338873136122"><ele>235.66666666666669</ele><time>2026-04-28T13:33:00Z</time></trkpt><trkpt lat="40.72274380881382" lon="17.57530520112675"><ele>235.33333333333334</ele><time>2026-04-28T13:33:04Z</time></trkpt><trkpt lat="40.72281733608199" lon="17.575249908952312"><ele>235.0</ele><time>2026-04-28T13:33:07Z</time></trkpt><trkpt lat="40.722868711952096" lon="17.57516231191262"><ele>234.66666666666669</ele><time>2026-04-28T13:33:10Z</time></trkpt><trkpt lat="40.72292800676869" lon="17.575085118916363"><ele>234.33333333333334</ele><time>2026-04-28T13:33:13Z</time></trkpt><trkpt lat="40.72298715074564" lon="17.57499740291923"><ele>234.0</ele><time>2026-04-28T13:33:16Z</time></trkpt><trkpt lat="40.723053349867705" lon="17.574911022873778"><ele>234.0</ele><time>2026-04-28T13:33:19Z</time></trkpt><trkpt lat="40.72312141877635" lon="17.574829480138174"><ele>234.0</ele><time>2026-04-28T13:33:22Z</time></trkpt><trkpt lat="40.72317780041395" lon="17.57473303093228"><ele>234.0</ele><time>2026-04-28T13:33:25Z</time></trkpt><trkpt lat="40.7232190600652" lon="17.574669796959224"><ele>234.0</ele><time>2026-04-28T13:33:27Z</time></trkpt><trkpt lat="40.72327102544784" lon="17.574610168725552"><ele>234.0</ele><time>2026-04-28T13:33:29Z</time></trkpt><trkpt lat="40.72333043372676" lon="17.57451128770355"><ele>234.0</ele><time>2026-04-28T13:33:32Z</time></trkpt><trkpt lat="40.723379431406215" lon="17.574453789137856"><ele>233.83333333333334</ele><time>2026-04-28T13:33:34Z</time></trkpt><trkpt lat="40.723428106729834" lon="17.574390231984488"><ele>233.66666666666669</ele><time>2026-04-28T13:33:36Z</time></trkpt><trkpt lat="40.72346878915733" lon="17.57431852216598"><ele>233.5</ele><time>2026-04-28T13:33:38Z</time></trkpt><trkpt lat="40.7235290588908" lon="17.574245218853235"><ele>233.33333333333334</ele><time>2026-04-28T13:33:41Z</time></trkpt><trkpt lat="40.723610698135836" lon="17.574276232640667"><ele>233.16666666666669</ele><time>2026-04-28T13:33:43.999Z</time></trkpt><trkpt lat="40.72368797013635" lon="17.574309447853857"><ele>233.0</ele><time>2026-04-28T13:33:46.999Z</time></trkpt><trkpt lat="40.72378710931079" lon="17.574328231653084"><ele>234.0</ele><time>2026-04-28T13:33:52.999Z</time></trkpt><trkpt lat="40.72385936284926" lon="17.57433817685165"><ele>235.0</ele><time>2026-04-28T13:33:55.999Z</time></trkpt><trkpt lat="40.72397321498274" lon="17.574321751249954"><ele>236.0</ele><time>2026-04-28T13:33:57.999Z</time></trkpt><trkpt lat="40.72407872103913" lon="17.57430551398223"><ele>237.0</ele><time>2026-04-28T13:33:59.999Z</time></trkpt><trkpt lat="40.72414145581084" lon="17.57432199526627"><ele>238.0</ele><time>2026-04-28T13:34:01.999Z</time></trkpt><trkpt lat="40.72433445462569" lon="17.574314861207693"><ele>237.85714285714286</ele><time>2026-04-28T13:34:10.999Z</time></trkpt><trkpt lat="40.724411804866335" lon="17.574305876497053"><ele>237.71428571428572</ele><time>2026-04-28T13:34:12.999Z</time></trkpt><trkpt lat="40.72447665316686" lon="17.57428864381692"><ele>237.57142857142856</ele><time>2026-04-28T13:34:14.999Z</time></trkpt><trkpt lat="40.72455471099328" lon="17.574282338618985"><ele>237.42857142857142</ele><time>2026-04-28T13:34:16.999Z</time></trkpt><trkpt lat="40.72462249708746" lon="17.574264166212004"><ele>237.28571428571428</ele><time>2026-04-28T13:34:18.999Z</time></trkpt><trkpt lat="40.72469143013677" lon="17.574247429065785"><ele>237.1428571428571</ele><time>2026-04-28T13:34:20.999Z</time></trkpt><trkpt lat="40.72476333752918" lon="17.574234804119325"><ele>236.99999999999997</ele><time>2026-04-28T13:34:22.999Z</time></trkpt><trkpt lat="40.724832738236174" lon="17.574240519053838"><ele>236.99999999999997</ele><time>2026-04-28T13:34:24.999Z</time></trkpt><trkpt lat="40.72490387044314" lon="17.574230721183284"><ele>237.0</ele><time>2026-04-28T13:34:26.999Z</time></trkpt><trkpt lat="40.72497913674779" lon="17.57422241343531"><ele>236.99999999999997</ele><time>2026-04-28T13:34:28.999Z</time></trkpt><trkpt lat="40.72505661562144" lon="17.574218948063432"><ele>236.99999999999997</ele><time>2026-04-28T13:34:30.999Z</time></trkpt><trkpt lat="40.72512817766899" lon="17.574205600099642"><ele>237.0</ele><time>2026-04-28T13:34:32.999Z</time></trkpt><trkpt lat="40.72519549489114" lon="17.574209124514155"><ele>236.99999999999997</ele><time>2026-04-28T13:34:34.999Z</time></trkpt><trkpt lat="40.72526808002977" lon="17.574235064611774"><ele>236.99999999999997</ele><time>2026-04-28T13:34:36.998Z</time></trkpt><trkpt lat="40.72535800408729" lon="17.574258180922378"><ele>236.83333333333334</ele><time>2026-04-28T13:34:38.998Z</time></trkpt><trkpt lat="40.72544098055523" lon="17.57429670501037"><ele>236.66666666666669</ele><time>2026-04-28T13:34:40.998Z</time></trkpt><trkpt lat="40.72548689996085" lon="17.574365834330752"><ele>236.5</ele><time>2026-04-28T13:34:42.998Z</time></trkpt><trkpt lat="40.725489189128886" lon="17.57448022358591"><ele>236.33333333333334</ele><time>2026-04-28T13:34:45.998Z</time></trkpt><trkpt lat="40.725483130358995" lon="17.574585665187424"><ele>236.16666666666669</ele><time>2026-04-28T13:34:47.998Z</time></trkpt><trkpt lat="40.72550885234104" lon="17.574689644555587"><ele>236.0</ele><time>2026-04-28T13:34:49.998Z</time></trkpt><trkpt lat="40.72557596962498" lon="17.574745853927674"><ele>236.33333333333334</ele><time>2026-04-28T13:34:51.998Z</time></trkpt><trkpt lat="40.72564595465605" lon="17.574774231563982"><ele>236.66666666666669</ele><time>2026-04-28T13:34:53.998Z</time></trkpt><trkpt lat="40.72575701431083" lon="17.574805642001014"><ele>237.0</ele><time>2026-04-28T13:34:56.998Z</time></trkpt><trkpt lat="40.72581618207816" lon="17.574872013741583"><ele>237.33333333333331</ele><time>2026-04-28T13:34:58.998Z</time></trkpt><trkpt lat="40.72586569148491" lon="17.57481790823587"><ele>237.66666666666666</ele><time>2026-04-28T13:35:02.998Z</time></trkpt><trkpt lat="40.72593224657902" lon="17.574820183460645"><ele>238.0</ele><time>2026-04-28T13:35:06Z</time></trkpt><trkpt lat="40.72600804308087" lon="17.574845539866402"><ele>238.16666666666666</ele><time>2026-04-28T13:35:09Z</time></trkpt><trkpt lat="40.72608680750215" lon="17.574889328047597"><ele>238.33333333333331</ele><time>2026-04-28T13:35:12Z</time></trkpt><trkpt lat="40.72614106905281" lon="17.574945842673852"><ele>238.5</ele><time>2026-04-28T13:35:14Z</time></trkpt><trkpt lat="40.726203755221" lon="17.574957840765425"><ele>238.66666666666669</ele><time>2026-04-28T13:35:16Z</time></trkpt><trkpt lat="40.726264723957186" lon="17.57504075259344"><ele>238.83333333333334</ele><time>2026-04-28T13:35:19Z</time></trkpt><trkpt lat="40.72635210710647" lon="17.574986563657713"><ele>239.0</ele><time>2026-04-28T13:35:21Z</time></trkpt><trkpt lat="40.726410208175196" lon="17.574933783957043"><ele>239.00000000000003</ele><time>2026-04-28T13:35:24Z</time></trkpt><trkpt lat="40.72640622196155" lon="17.57484291820856"><ele>239.0</ele><time>2026-04-28T13:35:26Z</time></trkpt><trkpt lat="40.72640320685871" lon="17.574752952364978"><ele>239.00000000000003</ele><time>2026-04-28T13:35:28Z</time></trkpt><trkpt lat="40.72642796054448" lon="17.57466754905868"><ele>239.00000000000003</ele><time>2026-04-28T13:35:30Z</time></trkpt><trkpt lat="40.72646393757624" lon="17.574579576077078"><ele>239.0</ele><time>2026-04-28T13:35:32Z</time></trkpt><trkpt lat="40.72649873865606" lon="17.57450187237007"><ele>239.00000000000003</ele><time>2026-04-28T13:35:34Z</time></trkpt><trkpt lat="40.72651952073744" lon="17.57441245398631"><ele>239.00000000000003</ele><time>2026-04-28T13:35:36Z</time></trkpt><trkpt lat="40.72654482562665" lon="17.574332805846673"><ele>239.00000000000003</ele><time>2026-04-28T13:35:38Z</time></trkpt><trkpt lat="40.726581049364995" lon="17.57424285588226"><ele>239.0</ele><time>2026-04-28T13:35:40Z</time></trkpt><trkpt lat="40.726671793310494" lon="17.574252694559597"><ele>239.0</ele><time>2026-04-28T13:35:42.999Z</time></trkpt><trkpt lat="40.72677168193459" lon="17.574315050899216"><ele>239.0</ele><time>2026-04-28T13:35:44.999Z</time></trkpt><trkpt lat="40.72684311496238" lon="17.574343508421954"><ele>239.00000000000003</ele><time>2026-04-28T13:35:46.999Z</time></trkpt><trkpt lat="40.72692201512424" lon="17.574344090232774"><ele>239.0</ele><time>2026-04-28T13:35:48.999Z</time></trkpt><trkpt lat="40.72697944414022" lon="17.574447662415604"><ele>239.00000000000003</ele><time>2026-04-28T13:35:50.999Z</time></trkpt><trkpt lat="40.727071134495134" lon="17.574495244754402"><ele>239.0</ele><time>2026-04-28T13:35:53.999Z</time></trkpt><trkpt lat="40.727130281049256" lon="17.574529417583634"><ele>239.0</ele><time>2026-04-28T13:35:55.999Z</time></trkpt><trkpt lat="40.7272114682839" lon="17.574579167198944"><ele>239.0</ele><time>2026-04-28T13:35:58.999Z</time></trkpt><trkpt lat="40.72726907407602" lon="17.574624748733367"><ele>239.00000000000003</ele><time>2026-04-28T13:36:00.999Z</time></trkpt><trkpt lat="40.72734162493455" lon="17.57466468254458"><ele>239.0</ele><time>2026-04-28T13:36:02.999Z</time></trkpt><trkpt lat="40.727391547042025" lon="17.574726148951896"><ele>239.00000000000003</ele><time>2026-04-28T13:36:05.999Z</time></trkpt><trkpt lat="40.7274654604392" lon="17.574805947261517"><ele>239.0</ele><time>2026-04-28T13:36:08.999Z</time></trkpt><trkpt lat="40.72752999912508" lon="17.574873634126362"><ele>239.0</ele><time>2026-04-28T13:36:11.999Z</time></trkpt><trkpt lat="40.72759350598115" lon="17.574936465995822"><ele>239.0</ele><time>2026-04-28T13:36:16.999Z</time></trkpt><trkpt lat="40.727513182109035" lon="17.57494464607646"><ele>239.00000000000003</ele><time>2026-04-28T13:36:27.999Z</time></trkpt><trkpt lat="40.727619699421425" lon="17.574962889321792"><ele>239.0</ele><time>2026-04-28T13:36:50.998Z</time></trkpt><trkpt lat="40.72755452494564" lon="17.574980190542902"><ele>239.00000000000003</ele><time>2026-04-28T13:39:28Z</time></trkpt><trkpt lat="40.72751810266195" lon="17.574910526673275"><ele>239.0</ele><time>2026-04-28T13:40:26.999Z</time></trkpt><trkpt lat="40.727546069733414" lon="17.57483485623076"><ele>239.00000000000003</ele><time>2026-04-28T13:40:39.999Z</time></trkpt><trkpt lat="40.727578183475174" lon="17.5747414826672"><ele>239.00000000000003</ele><time>2026-04-28T13:40:42.999Z</time></trkpt><trkpt lat="40.727646043967404" lon="17.574655531923632"><ele>239.0</ele><time>2026-04-28T13:40:45.999Z</time></trkpt><trkpt lat="40.72768146105314" lon="17.574579641133024"><ele>239.00000000000003</ele><time>2026-04-28T13:40:47.999Z</time></trkpt><trkpt lat="40.727721733235214" lon="17.574503540139858"><ele>239.00000000000003</ele><time>2026-04-28T13:40:49.999Z</time></trkpt><trkpt lat="40.72775570572635" lon="17.574431758809116"><ele>238.33333333333334</ele><time>2026-04-28T13:40:52.999Z</time></trkpt><trkpt lat="40.72779164355291" lon="17.574342664512923"><ele>237.66666666666669</ele><time>2026-04-28T13:40:56.998Z</time></trkpt><trkpt lat="40.7278417473346" lon="17.574256540616602"><ele>237.0</ele><time>2026-04-28T13:40:59.998Z</time></trkpt><trkpt lat="40.72787684888379" lon="17.57416160295479"><ele>236.33333333333331</ele><time>2026-04-28T13:41:02.998Z</time></trkpt><trkpt lat="40.72790304673943" lon="17.57408405008188"><ele>235.66666666666666</ele><time>2026-04-28T13:41:06.998Z</time></trkpt><trkpt lat="40.72793493851949" lon="17.57398053085877"><ele>235.0</ele><time>2026-04-28T13:41:10.998Z</time></trkpt><trkpt lat="40.727984444474416" lon="17.573875580360575"><ele>234.99999999999997</ele><time>2026-04-28T13:41:13.998Z</time></trkpt><trkpt lat="40.72802667572885" lon="17.573760905352362"><ele>235.0</ele><time>2026-04-28T13:41:16.998Z</time></trkpt><trkpt lat="40.7280760844853" lon="17.573652864223693"><ele>235.0</ele><time>2026-04-28T13:41:19.998Z</time></trkpt><trkpt lat="40.7281080781941" lon="17.57358113526995"><ele>235.0</ele><time>2026-04-28T13:41:21.998Z</time></trkpt><trkpt lat="40.72814883353267" lon="17.573472950473867"><ele>234.99999999999997</ele><time>2026-04-28T13:41:24.998Z</time></trkpt><trkpt lat="40.72817405740649" lon="17.573391289961084"><ele>235.0</ele><time>2026-04-28T13:41:27Z</time></trkpt><trkpt lat="40.72820379059296" lon="17.5733076918324"><ele>234.66666666666666</ele><time>2026-04-28T13:41:29Z</time></trkpt><trkpt lat="40.7282309355234" lon="17.57321416894962"><ele>234.33333333333331</ele><time>2026-04-28T13:41:31Z</time></trkpt><trkpt lat="40.72825792703641" lon="17.573113182755765"><ele>234.0</ele><time>2026-04-28T13:41:33Z</time></trkpt><trkpt lat="40.728279745782714" lon="17.573016267397172"><ele>233.66666666666669</ele><time>2026-04-28T13:41:35Z</time></trkpt><trkpt lat="40.728312556616295" lon="17.572918698136075"><ele>233.33333333333334</ele><time>2026-04-28T13:41:37Z</time></trkpt><trkpt lat="40.72832705582842" lon="17.572816423542456"><ele>233.0</ele><time>2026-04-28T13:41:39Z</time></trkpt><trkpt lat="40.72833154088979" lon="17.572711928731067"><ele>232.66666666666669</ele><time>2026-04-28T13:41:41Z</time></trkpt><trkpt lat="40.72831994839481" lon="17.572628608244237"><ele>232.33333333333334</ele><time>2026-04-28T13:41:43Z</time></trkpt><trkpt lat="40.72830205492902" lon="17.57254034014379"><ele>232.0</ele><time>2026-04-28T13:41:45Z</time></trkpt><trkpt lat="40.728289055838864" lon="17.572426891356884"><ele>231.66666666666669</ele><time>2026-04-28T13:41:48Z</time></trkpt><trkpt lat="40.728293806169496" lon="17.57234335416863"><ele>231.33333333333334</ele><time>2026-04-28T13:41:50Z</time></trkpt><trkpt lat="40.72829562499957" lon="17.572241464074434"><ele>231.0</ele><time>2026-04-28T13:41:52Z</time></trkpt><trkpt lat="40.72828917547317" lon="17.572124283275684"><ele>231.20000000000002</ele><time>2026-04-28T13:41:54Z</time></trkpt><trkpt lat="40.728288674646755" lon="17.572008990474895"><ele>231.40000000000003</ele><time>2026-04-28T13:41:56Z</time></trkpt><trkpt lat="40.728296998130105" lon="17.571895366701415"><ele>231.6</ele><time>2026-04-28T13:41:58Z</time></trkpt><trkpt lat="40.7283017691514" lon="17.571766954479873"><ele>231.8</ele><time>2026-04-28T13:41:59.999Z</time></trkpt><trkpt lat="40.728312868702936" lon="17.571624886515668"><ele>232.0</ele><time>2026-04-28T13:42:01.999Z</time></trkpt><trkpt lat="40.72830301210863" lon="17.571482899463753"><ele>232.0</ele><time>2026-04-28T13:42:03.999Z</time></trkpt><trkpt lat="40.72830349067181" lon="17.57133443828929"><ele>232.0</ele><time>2026-04-28T13:42:05.999Z</time></trkpt><trkpt lat="40.72830654992658" lon="17.571201221988915"><ele>232.0</ele><time>2026-04-28T13:42:07.999Z</time></trkpt><trkpt lat="40.72830092410886" lon="17.571056276171785"><ele>232.0</ele><time>2026-04-28T13:42:09.999Z</time></trkpt><trkpt lat="40.72828894725466" lon="17.570928857289864"><ele>232.0</ele><time>2026-04-28T13:42:11.999Z</time></trkpt><trkpt lat="40.72829287516339" lon="17.570802894768917"><ele>232.16666666666666</ele><time>2026-04-28T13:42:13.999Z</time></trkpt><trkpt lat="40.728291985235565" lon="17.570710867770998"><ele>232.33333333333331</ele><time>2026-04-28T13:42:15.999Z</time></trkpt><trkpt lat="40.72830019469922" lon="17.570599929556717"><ele>232.5</ele><time>2026-04-28T13:42:17.999Z</time></trkpt><trkpt lat="40.72831066191479" lon="17.570494649965706"><ele>232.66666666666669</ele><time>2026-04-28T13:42:19.999Z</time></trkpt><trkpt lat="40.728293295605205" lon="17.57038808880048"><ele>232.83333333333334</ele><time>2026-04-28T13:42:21.999Z</time></trkpt><trkpt lat="40.72829921000678" lon="17.570271393573982"><ele>233.0</ele><time>2026-04-28T13:42:23.999Z</time></trkpt><trkpt lat="40.728316331320755" lon="17.570157144366544"><ele>233.0</ele><time>2026-04-28T13:42:25.999Z</time></trkpt><trkpt lat="40.7283167215966" lon="17.570037781438902"><ele>233.0</ele><time>2026-04-28T13:42:27.999Z</time></trkpt><trkpt lat="40.72831384076565" lon="17.569905312799975"><ele>233.0</ele><time>2026-04-28T13:42:29.999Z</time></trkpt><trkpt lat="40.72831263774525" lon="17.569772339115573"><ele>233.0</ele><time>2026-04-28T13:42:31.999Z</time></trkpt><trkpt lat="40.728318694397615" lon="17.56963817342558"><ele>233.0</ele><time>2026-04-28T13:42:33.999Z</time></trkpt><trkpt lat="40.72826243377025" lon="17.569508989589664"><ele>232.60000000000002</ele><time>2026-04-28T13:42:35.999Z</time></trkpt><trkpt lat="40.7282241444714" lon="17.569378351015043"><ele>232.20000000000002</ele><time>2026-04-28T13:42:37.999Z</time></trkpt><trkpt lat="40.72819084830533" lon="17.56926718331242"><ele>231.8</ele><time>2026-04-28T13:42:39.999Z</time></trkpt><trkpt lat="40.72815768741026" lon="17.569147416094733"><ele>231.4</ele><time>2026-04-28T13:42:41.999Z</time></trkpt><trkpt lat="40.728118223728316" lon="17.56904034794678"><ele>231.0</ele><time>2026-04-28T13:42:43.999Z</time></trkpt><trkpt lat="40.72809678447575" lon="17.568915254597776"><ele>231.0</ele><time>2026-04-28T13:42:45.999Z</time></trkpt><trkpt lat="40.72806139763266" lon="17.56880445721869"><ele>231.00000000000003</ele><time>2026-04-28T13:42:47.999Z</time></trkpt><trkpt lat="40.728049772830886" lon="17.56867657744355"><ele>231.00000000000003</ele><time>2026-04-28T13:42:49.999Z</time></trkpt><trkpt lat="40.72802920588657" lon="17.56855272993026"><ele>231.0</ele><time>2026-04-28T13:42:51.999Z</time></trkpt><trkpt lat="40.7280117928734" lon="17.568436101185057"><ele>231.0</ele><time>2026-04-28T13:42:53.999Z</time></trkpt><trkpt lat="40.728005786256006" lon="17.568316176193417"><ele>231.16666666666666</ele><time>2026-04-28T13:42:55.999Z</time></trkpt><trkpt lat="40.72799153702381" lon="17.568200485037345"><ele>231.33333333333331</ele><time>2026-04-28T13:42:57.999Z</time></trkpt><trkpt lat="40.727973665478984" lon="17.568088433066944"><ele>231.5</ele><time>2026-04-28T13:42:59.999Z</time></trkpt><trkpt lat="40.72794228987201" lon="17.567976666128434"><ele>231.66666666666666</ele><time>2026-04-28T13:43:01.998Z</time></trkpt><trkpt lat="40.72790946756354" lon="17.56786648491055"><ele>231.83333333333331</ele><time>2026-04-28T13:43:03.998Z</time></trkpt><trkpt lat="40.72787717671992" lon="17.567752667265697"><ele>232.0</ele><time>2026-04-28T13:43:05.998Z</time></trkpt><trkpt lat="40.72785208774823" lon="17.567652932375115"><ele>231.99999999999997</ele><time>2026-04-28T13:43:07.998Z</time></trkpt><trkpt lat="40.72781305676962" lon="17.567564815889902"><ele>232.0</ele><time>2026-04-28T13:43:09.998Z</time></trkpt><trkpt lat="40.727767029123015" lon="17.56748374760018"><ele>232.0</ele><time>2026-04-28T13:43:11.998Z</time></trkpt><trkpt lat="40.72772797754408" lon="17.56740149849782"><ele>232.0</ele><time>2026-04-28T13:43:13.998Z</time></trkpt><trkpt lat="40.727671563285284" lon="17.567329763923098"><ele>231.99999999999997</ele><time>2026-04-28T13:43:15.998Z</time></trkpt><trkpt lat="40.727607662208214" lon="17.567259782135952"><ele>232.0</ele><time>2026-04-28T13:43:17.998Z</time></trkpt><trkpt lat="40.727507982701496" lon="17.567147969889252"><ele>231.99999999999997</ele><time>2026-04-28T13:43:19.998Z</time></trkpt><trkpt lat="40.72745560191291" lon="17.567093443484175"><ele>232.0</ele><time>2026-04-28T13:43:20.998Z</time></trkpt><trkpt lat="40.72736838525555" lon="17.566984279182915"><ele>232.0</ele><time>2026-04-28T13:43:22.998Z</time></trkpt><trkpt lat="40.72731131850312" lon="17.56688633944315"><ele>232.0</ele><time>2026-04-28T13:43:24.998Z</time></trkpt><trkpt lat="40.72727197789711" lon="17.566808022159897"><ele>231.99999999999997</ele><time>2026-04-28T13:43:26.998Z</time></trkpt><trkpt lat="40.72723318730844" lon="17.56671064258602"><ele>232.0</ele><time>2026-04-28T13:43:28.998Z</time></trkpt><trkpt lat="40.727197846812814" lon="17.56659818471402"><ele>232.66666666666666</ele><time>2026-04-28T13:43:31Z</time></trkpt><trkpt lat="40.72719054077055" lon="17.566481857540374"><ele>233.33333333333331</ele><time>2026-04-28T13:43:33Z</time></trkpt><trkpt lat="40.72720964777001" lon="17.566370147388845"><ele>234.0</ele><time>2026-04-28T13:43:35Z</time></trkpt><trkpt lat="40.727242570321394" lon="17.566266900068616"><ele>234.66666666666669</ele><time>2026-04-28T13:43:37Z</time></trkpt><trkpt lat="40.72729719897742" lon="17.56617158134182"><ele>235.33333333333334</ele><time>2026-04-28T13:43:39Z</time></trkpt><trkpt lat="40.72735497457465" lon="17.566078585668418"><ele>236.0</ele><time>2026-04-28T13:43:41Z</time></trkpt><trkpt lat="40.72741539760005" lon="17.56600046201529"><ele>236.00000000000003</ele><time>2026-04-28T13:43:43Z</time></trkpt><trkpt lat="40.727476865323695" lon="17.565934294929963"><ele>236.0</ele><time>2026-04-28T13:43:45Z</time></trkpt><trkpt lat="40.7275436543477" lon="17.565871488217454"><ele>236.0</ele><time>2026-04-28T13:43:47Z</time></trkpt><trkpt lat="40.72761139140166" lon="17.565809379667648"><ele>236.0</ele><time>2026-04-28T13:43:49Z</time></trkpt><trkpt lat="40.72768367150188" lon="17.565754160864493"><ele>236.00000000000003</ele><time>2026-04-28T13:43:51Z</time></trkpt><trkpt lat="40.72775933437085" lon="17.56569158212495"><ele>236.0</ele><time>2026-04-28T13:43:53Z</time></trkpt><trkpt lat="40.72784225888469" lon="17.565630828309512"><ele>236.00000000000003</ele><time>2026-04-28T13:43:55Z</time></trkpt><trkpt lat="40.7279255629931" lon="17.565545769088985"><ele>236.0</ele><time>2026-04-28T13:43:57Z</time></trkpt><trkpt lat="40.72801361905844" lon="17.565449568636993"><ele>236.0</ele><time>2026-04-28T13:43:59Z</time></trkpt><trkpt lat="40.72805676054051" lon="17.565388530421476"><ele>236.0</ele><time>2026-04-28T13:43:59.999Z</time></trkpt><trkpt lat="40.72810136781066" lon="17.565318196451067"><ele>236.00000000000003</ele><time>2026-04-28T13:44:00.999Z</time></trkpt><trkpt lat="40.7281415504839" lon="17.56523904698177"><ele>236.0</ele><time>2026-04-28T13:44:01.999Z</time></trkpt><trkpt lat="40.728175590235125" lon="17.565153728349397"><ele>235.33333333333334</ele><time>2026-04-28T13:44:02.999Z</time></trkpt><trkpt lat="40.72820793423811" lon="17.565066000518403"><ele>234.66666666666669</ele><time>2026-04-28T13:44:03.999Z</time></trkpt><trkpt lat="40.72823279249282" lon="17.564958500125112"><ele>234.0</ele><time>2026-04-28T13:44:04.999Z</time></trkpt><trkpt lat="40.72825001140167" lon="17.56485041763911"><ele>233.33333333333331</ele><time>2026-04-28T13:44:05.999Z</time></trkpt><trkpt lat="40.72825417461281" lon="17.56474027567709"><ele>232.66666666666666</ele><time>2026-04-28T13:44:06.999Z</time></trkpt><trkpt lat="40.72824804102451" lon="17.56461798658723"><ele>232.0</ele><time>2026-04-28T13:44:07.999Z</time></trkpt><trkpt lat="40.728242409223895" lon="17.564499694439696"><ele>231.33333333333331</ele><time>2026-04-28T13:44:08.999Z</time></trkpt><trkpt lat="40.7282302949688" lon="17.564383617896794"><ele>230.66666666666666</ele><time>2026-04-28T13:44:09.999Z</time></trkpt><trkpt lat="40.728226770721434" lon="17.564273047086147"><ele>230.0</ele><time>2026-04-28T13:44:10.999Z</time></trkpt><trkpt lat="40.728231779550356" lon="17.56416857678946"><ele>229.33333333333331</ele><time>2026-04-28T13:44:11.999Z</time></trkpt><trkpt lat="40.728236816310464" lon="17.56406665822277"><ele>228.66666666666666</ele><time>2026-04-28T13:44:12.999Z</time></trkpt><trkpt lat="40.72823291840976" lon="17.563959148249786"><ele>228.0</ele><time>2026-04-28T13:44:13.999Z</time></trkpt><trkpt lat="40.728235110921965" lon="17.56384748420664"><ele>228.0</ele><time>2026-04-28T13:44:14.999Z</time></trkpt><trkpt lat="40.728251703447036" lon="17.56372077754092"><ele>228.0</ele><time>2026-04-28T13:44:15.999Z</time></trkpt><trkpt lat="40.728229974634495" lon="17.56359986602528"><ele>228.0</ele><time>2026-04-28T13:44:16.999Z</time></trkpt><trkpt lat="40.7282183680253" lon="17.563480903874005"><ele>228.0</ele><time>2026-04-28T13:44:17.999Z</time></trkpt><trkpt lat="40.72819938877183" lon="17.563359228609567"><ele>228.0</ele><time>2026-04-28T13:44:18.999Z</time></trkpt><trkpt lat="40.72817389984557" lon="17.563239006498467"><ele>226.60000000000002</ele><time>2026-04-28T13:44:19.999Z</time></trkpt><trkpt lat="40.728162736631276" lon="17.5631064254543"><ele>225.20000000000002</ele><time>2026-04-28T13:44:20.999Z</time></trkpt><trkpt lat="40.72814221694326" lon="17.563000967698578"><ele>223.8</ele><time>2026-04-28T13:44:21.999Z</time></trkpt><trkpt lat="40.728120304559866" lon="17.562888352410816"><ele>222.4</ele><time>2026-04-28T13:44:22.999Z</time></trkpt><trkpt lat="40.72808416841179" lon="17.562780919754836"><ele>221.0</ele><time>2026-04-28T13:44:23.999Z</time></trkpt><trkpt lat="40.72806595126496" lon="17.562661149730932"><ele>220.60000000000002</ele><time>2026-04-28T13:44:24.999Z</time></trkpt><trkpt lat="40.728038382839586" lon="17.562532468894993"><ele>220.20000000000002</ele><time>2026-04-28T13:44:25.999Z</time></trkpt><trkpt lat="40.72801909919612" lon="17.56241900287361"><ele>219.79999999999998</ele><time>2026-04-28T13:44:26.999Z</time></trkpt><trkpt lat="40.728012441553744" lon="17.562289464065874"><ele>219.39999999999998</ele><time>2026-04-28T13:44:27.999Z</time></trkpt><trkpt lat="40.728001854696544" lon="17.56215911908596"><ele>219.0</ele><time>2026-04-28T13:44:28.999Z</time></trkpt><trkpt lat="40.72798892790045" lon="17.562039985473476"><ele>219.0</ele><time>2026-04-28T13:44:29.999Z</time></trkpt><trkpt lat="40.72799926640983" lon="17.561915983252515"><ele>219.0</ele><time>2026-04-28T13:44:30.999Z</time></trkpt><trkpt lat="40.72802702518951" lon="17.56180112178909"><ele>219.0</ele><time>2026-04-28T13:44:31.999Z</time></trkpt><trkpt lat="40.72801602331207" lon="17.561681900538222"><ele>219.0</ele><time>2026-04-28T13:44:32.999Z</time></trkpt><trkpt lat="40.728028983882695" lon="17.56158022359572"><ele>219.0</ele><time>2026-04-28T13:44:33.999Z</time></trkpt><trkpt lat="40.7279976464419" lon="17.561486249835294"><ele>219.0</ele><time>2026-04-28T13:44:34.999Z</time></trkpt><trkpt lat="40.72797717721732" lon="17.561399942493594"><ele>219.0</ele><time>2026-04-28T13:44:35.999Z</time></trkpt><trkpt lat="40.72795147607386" lon="17.56131949543096"><ele>219.0</ele><time>2026-04-28T13:44:36.999Z</time></trkpt><trkpt lat="40.72790299591688" lon="17.561186798056397"><ele>219.0</ele><time>2026-04-28T13:44:38.999Z</time></trkpt><trkpt lat="40.727855872644895" lon="17.561075161802076"><ele>219.0</ele><time>2026-04-28T13:44:40.999Z</time></trkpt><trkpt lat="40.727822041070745" lon="17.560976273592072"><ele>219.0</ele><time>2026-04-28T13:44:42.999Z</time></trkpt><trkpt lat="40.72779847992993" lon="17.560885523452246"><ele>219.0</ele><time>2026-04-28T13:44:44.999Z</time></trkpt><trkpt lat="40.727721583112874" lon="17.560810279243665"><ele>219.2857142857143</ele><time>2026-04-28T13:44:46.999Z</time></trkpt><trkpt lat="40.72775102103265" lon="17.560734495357575"><ele>219.57142857142856</ele><time>2026-04-28T13:44:47.999Z</time></trkpt><trkpt lat="40.727741693632304" lon="17.56064240269803"><ele>219.85714285714286</ele><time>2026-04-28T13:44:49.999Z</time></trkpt><trkpt lat="40.72777466222483" lon="17.56055740199878"><ele>220.14285714285717</ele><time>2026-04-28T13:44:51.999Z</time></trkpt><trkpt lat="40.72780960971798" lon="17.560478068592428"><ele>220.42857142857144</ele><time>2026-04-28T13:44:53.999Z</time></trkpt><trkpt lat="40.727841345298955" lon="17.560395107233777"><ele>220.71428571428572</ele><time>2026-04-28T13:44:55.999Z</time></trkpt><trkpt lat="40.72788115217651" lon="17.56032328790938"><ele>221.0</ele><time>2026-04-28T13:44:57.999Z</time></trkpt><trkpt lat="40.72791461549554" lon="17.560240592968103"><ele>221.66666666666669</ele><time>2026-04-28T13:44:59.999Z</time></trkpt><trkpt lat="40.72794609225307" lon="17.560153507354062"><ele>222.33333333333334</ele><time>2026-04-28T13:45:01.999Z</time></trkpt><trkpt lat="40.72798224546093" lon="17.56006130747168"><ele>223.0</ele><time>2026-04-28T13:45:03.999Z</time></trkpt><trkpt lat="40.728018813633604" lon="17.559970372095425"><ele>223.66666666666669</ele><time>2026-04-28T13:45:05.999Z</time></trkpt><trkpt lat="40.72805618730871" lon="17.55987672079125"><ele>224.33333333333334</ele><time>2026-04-28T13:45:07.998Z</time></trkpt><trkpt lat="40.72809260906733" lon="17.559782084832904"><ele>225.0</ele><time>2026-04-28T13:45:09.998Z</time></trkpt><trkpt lat="40.72812976193988" lon="17.559705678271587"><ele>225.0</ele><time>2026-04-28T13:45:11.998Z</time></trkpt><trkpt lat="40.72816627116887" lon="17.55961919851596"><ele>225.0</ele><time>2026-04-28T13:45:13.998Z</time></trkpt><trkpt lat="40.72819760886289" lon="17.55953510712803"><ele>225.0</ele><time>2026-04-28T13:45:15.998Z</time></trkpt><trkpt lat="40.72823889755769" lon="17.55944266475916"><ele>225.0</ele><time>2026-04-28T13:45:17.998Z</time></trkpt><trkpt lat="40.72827539450416" lon="17.559352136126346"><ele>225.0</ele><time>2026-04-28T13:45:19.998Z</time></trkpt><trkpt lat="40.7283109297965" lon="17.559265073453382"><ele>225.0</ele><time>2026-04-28T13:45:21.998Z</time></trkpt><trkpt lat="40.72834845654576" lon="17.55917637170313"><ele>225.83333333333334</ele><time>2026-04-28T13:45:23.998Z</time></trkpt><trkpt lat="40.7283808775244" lon="17.55908614118873"><ele>226.66666666666669</ele><time>2026-04-28T13:45:25.998Z</time></trkpt><trkpt lat="40.72840881788482" lon="17.559000358650568"><ele>227.5</ele><time>2026-04-28T13:45:27.998Z</time></trkpt><trkpt lat="40.72844751410702" lon="17.558924871401587"><ele>228.33333333333334</ele><time>2026-04-28T13:45:29.998Z</time></trkpt><trkpt lat="40.72847836232682" lon="17.558845917098893"><ele>229.16666666666669</ele><time>2026-04-28T13:45:31.998Z</time></trkpt><trkpt lat="40.72851765913659" lon="17.55877110659512"><ele>230.0</ele><time>2026-04-28T13:45:33.998Z</time></trkpt><trkpt lat="40.72858245613859" lon="17.55866498511657"><ele>231.00000000000003</ele><time>2026-04-28T13:45:37Z</time></trkpt><trkpt lat="40.728607960428" lon="17.558568065348474"><ele>232.0</ele><time>2026-04-28T13:45:39Z</time></trkpt><trkpt lat="40.72864160448399" lon="17.558470706823044"><ele>233.0</ele><time>2026-04-28T13:45:41Z</time></trkpt><trkpt lat="40.72867399105008" lon="17.55838422048785"><ele>234.0</ele><time>2026-04-28T13:45:43Z</time></trkpt><trkpt lat="40.72870180927417" lon="17.558289592608123"><ele>235.00000000000003</ele><time>2026-04-28T13:45:45Z</time></trkpt><trkpt lat="40.72872204738203" lon="17.55819971931708"><ele>236.0</ele><time>2026-04-28T13:45:47Z</time></trkpt><trkpt lat="40.72873630063807" lon="17.558097418853592"><ele>236.0</ele><time>2026-04-28T13:45:49Z</time></trkpt><trkpt lat="40.72874384438184" lon="17.558009185524668"><ele>236.0</ele><time>2026-04-28T13:45:51Z</time></trkpt><trkpt lat="40.72874580321097" lon="17.557923457883547"><ele>236.0</ele><time>2026-04-28T13:45:53Z</time></trkpt><trkpt lat="40.72874402016103" lon="17.557825270938395"><ele>236.0</ele><time>2026-04-28T13:45:55Z</time></trkpt><trkpt lat="40.72874856266532" lon="17.557732475183585"><ele>236.0</ele><time>2026-04-28T13:45:57Z</time></trkpt><trkpt lat="40.728767684870135" lon="17.557644988295475"><ele>236.0</ele><time>2026-04-28T13:45:59Z</time></trkpt><trkpt lat="40.728806987560944" lon="17.55755086055376"><ele>236.0</ele><time>2026-04-28T13:46:01Z</time></trkpt><trkpt lat="40.72885610777924" lon="17.557485159635124"><ele>236.00000000000003</ele><time>2026-04-28T13:46:03Z</time></trkpt><trkpt lat="40.72891441722178" lon="17.557428985943332"><ele>236.0</ele><time>2026-04-28T13:46:05Z</time></trkpt><trkpt lat="40.72898042023321" lon="17.55737173545089"><ele>236.0</ele><time>2026-04-28T13:46:07Z</time></trkpt><trkpt lat="40.72904585472347" lon="17.557317566332944"><ele>236.0</ele><time>2026-04-28T13:46:09Z</time></trkpt><trkpt lat="40.729116389438516" lon="17.55728664300493"><ele>236.00000000000003</ele><time>2026-04-28T13:46:11Z</time></trkpt><trkpt lat="40.72918700250171" lon="17.557235435153785"><ele>236.0</ele><time>2026-04-28T13:46:13Z</time></trkpt><trkpt lat="40.72926141758332" lon="17.557176424330915"><ele>236.00000000000003</ele><time>2026-04-28T13:46:15Z</time></trkpt><trkpt lat="40.7293333734384" lon="17.55714915211718"><ele>236.0</ele><time>2026-04-28T13:46:17Z</time></trkpt><trkpt lat="40.72940505881331" lon="17.557096905058323"><ele>236.0</ele><time>2026-04-28T13:46:19Z</time></trkpt><trkpt lat="40.72947420448142" lon="17.557039649109424"><ele>236.0</ele><time>2026-04-28T13:46:20.999Z</time></trkpt><trkpt lat="40.72954059067021" lon="17.556999431564847"><ele>236.00000000000003</ele><time>2026-04-28T13:46:22.999Z</time></trkpt><trkpt lat="40.72960644833708" lon="17.55695511209738"><ele>236.0</ele><time>2026-04-28T13:46:24.999Z</time></trkpt><trkpt lat="40.729669025211834" lon="17.556906088836172"><ele>236.85714285714283</ele><time>2026-04-28T13:46:26.999Z</time></trkpt><trkpt lat="40.729730912452226" lon="17.556865063702098"><ele>237.71428571428572</ele><time>2026-04-28T13:46:28.999Z</time></trkpt><trkpt lat="40.72979442687059" lon="17.556828636480905"><ele>238.57142857142856</ele><time>2026-04-28T13:46:30.999Z</time></trkpt><trkpt lat="40.72985452621525" lon="17.556791435020298"><ele>239.42857142857142</ele><time>2026-04-28T13:46:32.999Z</time></trkpt><trkpt lat="40.72991223500665" lon="17.556752972990978"><ele>240.28571428571428</ele><time>2026-04-28T13:46:34.999Z</time></trkpt><trkpt lat="40.72997005730118" lon="17.55671531239222"><ele>241.14285714285714</ele><time>2026-04-28T13:46:36.999Z</time></trkpt><trkpt lat="40.73003030971531" lon="17.556674283488434"><ele>242.0</ele><time>2026-04-28T13:46:38.999Z</time></trkpt><trkpt lat="40.730082845601025" lon="17.556618219800512"><ele>242.0</ele><time>2026-04-28T13:46:40.999Z</time></trkpt><trkpt lat="40.73012664084051" lon="17.556547823554254"><ele>241.99999999999997</ele><time>2026-04-28T13:46:42.999Z</time></trkpt><trkpt lat="40.73016540346096" lon="17.55647888676171"><ele>242.0</ele><time>2026-04-28T13:46:44.999Z</time></trkpt><trkpt lat="40.73019502398807" lon="17.556388121083042"><ele>242.0</ele><time>2026-04-28T13:46:46.999Z</time></trkpt><trkpt lat="40.73022767479144" lon="17.556305779627902"><ele>241.99999999999997</ele><time>2026-04-28T13:46:48.999Z</time></trkpt><trkpt lat="40.7302539800102" lon="17.556221935333895"><ele>242.0</ele><time>2026-04-28T13:46:50.999Z</time></trkpt><trkpt lat="40.73028263655767" lon="17.556136033250752"><ele>242.0</ele><time>2026-04-28T13:46:52.999Z</time></trkpt><trkpt lat="40.73031449557492" lon="17.556048061512758"><ele>243.57142857142856</ele><time>2026-04-28T13:46:54.999Z</time></trkpt><trkpt lat="40.730344847777985" lon="17.555965409732977"><ele>245.1428571428571</ele><time>2026-04-28T13:46:56.999Z</time></trkpt><trkpt lat="40.73037332297269" lon="17.555881597145454"><ele>246.71428571428572</ele><time>2026-04-28T13:46:58.999Z</time></trkpt><trkpt lat="40.73040384107853" lon="17.55579699141826"><ele>248.28571428571428</ele><time>2026-04-28T13:47:00.999Z</time></trkpt><trkpt lat="40.73043487922744" lon="17.555708970726133"><ele>249.85714285714286</ele><time>2026-04-28T13:47:02.999Z</time></trkpt><trkpt lat="40.73046489223012" lon="17.55561706672843"><ele>251.42857142857144</ele><time>2026-04-28T13:47:04.999Z</time></trkpt><trkpt lat="40.730495376240725" lon="17.555524056383806"><ele>253.00000000000003</ele><time>2026-04-28T13:47:06.999Z</time></trkpt><trkpt lat="40.73053281850121" lon="17.555437416812154"><ele>252.5714285714286</ele><time>2026-04-28T13:47:08.999Z</time></trkpt><trkpt lat="40.73056143400789" lon="17.555341320342144"><ele>252.14285714285717</ele><time>2026-04-28T13:47:10.999Z</time></trkpt><trkpt lat="40.73059503541428" lon="17.555260535775194"><ele>251.71428571428572</ele><time>2026-04-28T13:47:12.999Z</time></trkpt><trkpt lat="40.73062581958014" lon="17.55518450488568"><ele>251.2857142857143</ele><time>2026-04-28T13:47:14.999Z</time></trkpt><trkpt lat="40.730658770888304" lon="17.555107126484256"><ele>250.8571428571429</ele><time>2026-04-28T13:47:16.999Z</time></trkpt><trkpt lat="40.73069308211406" lon="17.555035671095617"><ele>250.42857142857142</ele><time>2026-04-28T13:47:18.999Z</time></trkpt><trkpt lat="40.730736773759176" lon="17.554962251631228"><ele>250.0</ele><time>2026-04-28T13:47:20.999Z</time></trkpt><trkpt lat="40.730777209309615" lon="17.55489197488223"><ele>250.0</ele><time>2026-04-28T13:47:22.999Z</time></trkpt><trkpt lat="40.730822005588664" lon="17.554821857124395"><ele>250.0</ele><time>2026-04-28T13:47:24.998Z</time></trkpt><trkpt lat="40.73086498169737" lon="17.554747132403122"><ele>250.0</ele><time>2026-04-28T13:47:26.998Z</time></trkpt><trkpt lat="40.730909247044295" lon="17.55467171723013"><ele>250.0</ele><time>2026-04-28T13:47:28.998Z</time></trkpt><trkpt lat="40.73095402920193" lon="17.554590735146267"><ele>250.0</ele><time>2026-04-28T13:47:30.998Z</time></trkpt><trkpt lat="40.73099407752392" lon="17.55450750379805"><ele>250.0</ele><time>2026-04-28T13:47:32.998Z</time></trkpt><trkpt lat="40.73102800645527" lon="17.554423165314944"><ele>250.0</ele><time>2026-04-28T13:47:34.998Z</time></trkpt><trkpt lat="40.73106876270985" lon="17.554340639562174"><ele>251.14285714285714</ele><time>2026-04-28T13:47:36.998Z</time></trkpt><trkpt lat="40.73110914190269" lon="17.55425021847779"><ele>252.28571428571428</ele><time>2026-04-28T13:47:38.998Z</time></trkpt><trkpt lat="40.73114770702925" lon="17.554180633433685"><ele>253.42857142857142</ele><time>2026-04-28T13:47:40.998Z</time></trkpt><trkpt lat="40.73119175504179" lon="17.55411446926539"><ele>254.57142857142856</ele><time>2026-04-28T13:47:43Z</time></trkpt><trkpt lat="40.73122843696759" lon="17.554044661183358"><ele>255.71428571428572</ele><time>2026-04-28T13:47:45Z</time></trkpt><trkpt lat="40.731269746306666" lon="17.553967854569315"><ele>256.85714285714283</ele><time>2026-04-28T13:47:47Z</time></trkpt><trkpt lat="40.731318601994474" lon="17.553898742403042"><ele>258.0</ele><time>2026-04-28T13:47:49Z</time></trkpt><trkpt lat="40.73136160151777" lon="17.553834970879763"><ele>258.0</ele><time>2026-04-28T13:47:51Z</time></trkpt><trkpt lat="40.73141247797572" lon="17.553772506731484"><ele>258.0</ele><time>2026-04-28T13:47:53Z</time></trkpt><trkpt lat="40.73145731531775" lon="17.553712382918178"><ele>258.0</ele><time>2026-04-28T13:47:55Z</time></trkpt><trkpt lat="40.731545682914465" lon="17.553654516228253"><ele>258.0</ele><time>2026-04-28T13:47:58Z</time></trkpt><trkpt lat="40.73163260419951" lon="17.553622687219598"><ele>258.0</ele><time>2026-04-28T13:48:01Z</time></trkpt><trkpt lat="40.731695756635446" lon="17.55363908148775"><ele>258.0</ele><time>2026-04-28T13:48:03Z</time></trkpt><trkpt lat="40.7317546696451" lon="17.553675532172296"><ele>258.0</ele><time>2026-04-28T13:48:05Z</time></trkpt><trkpt lat="40.73182520503329" lon="17.553757627223867"><ele>258.0</ele><time>2026-04-28T13:48:08Z</time></trkpt><trkpt lat="40.73186984904831" lon="17.553824689288327"><ele>258.0</ele><time>2026-04-28T13:48:10Z</time></trkpt><trkpt lat="40.73194349298822" lon="17.553915249448163"><ele>258.0</ele><time>2026-04-28T13:48:13Z</time></trkpt><trkpt lat="40.732001369649375" lon="17.55395106157117"><ele>258.0</ele><time>2026-04-28T13:48:15Z</time></trkpt><trkpt lat="40.73206541794388" lon="17.553968430132922"><ele>258.0</ele><time>2026-04-28T13:48:17Z</time></trkpt><trkpt lat="40.73213471440485" lon="17.553941604309262"><ele>258.71428571428567</ele><time>2026-04-28T13:48:19Z</time></trkpt><trkpt lat="40.73218120576549" lon="17.553883505730177"><ele>259.42857142857144</ele><time>2026-04-28T13:48:21Z</time></trkpt><trkpt lat="40.73221408388413" lon="17.55380605855298"><ele>260.1428571428571</ele><time>2026-04-28T13:48:23Z</time></trkpt><trkpt lat="40.732245890401586" lon="17.55372946912515"><ele>260.85714285714283</ele><time>2026-04-28T13:48:25Z</time></trkpt><trkpt lat="40.73227650723444" lon="17.553647501280896"><ele>261.57142857142856</ele><time>2026-04-28T13:48:27Z</time></trkpt><trkpt lat="40.732303511761685" lon="17.55357012521485"><ele>262.2857142857143</ele><time>2026-04-28T13:48:28.999Z</time></trkpt><trkpt lat="40.732331520127005" lon="17.553487749006617"><ele>263.0</ele><time>2026-04-28T13:48:30.999Z</time></trkpt><trkpt lat="40.73236385073982" lon="17.553406644947646"><ele>263.2857142857143</ele><time>2026-04-28T13:48:32.999Z</time></trkpt><trkpt lat="40.73238929003198" lon="17.553321063893833"><ele>263.57142857142856</ele><time>2026-04-28T13:48:34.999Z</time></trkpt><trkpt lat="40.73242439052817" lon="17.55319783652732"><ele>263.85714285714283</ele><time>2026-04-28T13:48:37.999Z</time></trkpt><trkpt lat="40.73244785503764" lon="17.553117443489253"><ele>264.1428571428571</ele><time>2026-04-28T13:48:39.999Z</time></trkpt><trkpt lat="40.732456475843136" lon="17.553017938971447"><ele>264.42857142857144</ele><time>2026-04-28T13:48:41.999Z</time></trkpt><trkpt lat="40.732464360457186" lon="17.552930787446595"><ele>264.71428571428567</ele><time>2026-04-28T13:48:43.999Z</time></trkpt><trkpt lat="40.7324690855773" lon="17.552836518769105"><ele>265.0</ele><time>2026-04-28T13:48:45.999Z</time></trkpt><trkpt lat="40.7324833282482" lon="17.552750392482977"><ele>265.2857142857143</ele><time>2026-04-28T13:48:47.999Z</time></trkpt><trkpt lat="40.73251528358292" lon="17.552672906406812"><ele>265.57142857142856</ele><time>2026-04-28T13:48:49.999Z</time></trkpt><trkpt lat="40.73256499495578" lon="17.55256510268973"><ele>265.8571428571429</ele><time>2026-04-28T13:48:52.999Z</time></trkpt><trkpt lat="40.73258081580144" lon="17.552484586870527"><ele>266.1428571428571</ele><time>2026-04-28T13:48:54.999Z</time></trkpt><trkpt lat="40.73258991993511" lon="17.552391572429777"><ele>266.42857142857144</ele><time>2026-04-28T13:48:56.999Z</time></trkpt><trkpt lat="40.73259974568921" lon="17.5523093413748"><ele>266.7142857142857</ele><time>2026-04-28T13:48:58.999Z</time></trkpt><trkpt lat="40.73260391883993" lon="17.552212090477017"><ele>267.0</ele><time>2026-04-28T13:49:00.999Z</time></trkpt><trkpt lat="40.73261534949476" lon="17.55212128287532"><ele>267.14285714285717</ele><time>2026-04-28T13:49:02.999Z</time></trkpt><trkpt lat="40.73263282189779" lon="17.552026452868308"><ele>267.2857142857143</ele><time>2026-04-28T13:49:04.999Z</time></trkpt><trkpt lat="40.7326533747121" lon="17.5519298089181"><ele>267.42857142857144</ele><time>2026-04-28T13:49:06.999Z</time></trkpt><trkpt lat="40.73267834795017" lon="17.551836441769996"><ele>267.57142857142856</ele><time>2026-04-28T13:49:08.999Z</time></trkpt><trkpt lat="40.7327081784467" lon="17.551745362347656"><ele>267.7142857142857</ele><time>2026-04-28T13:49:10.999Z</time></trkpt><trkpt lat="40.73273259858127" lon="17.55165927200003"><ele>267.8571428571429</ele><time>2026-04-28T13:49:12.999Z</time></trkpt><trkpt lat="40.732759067295476" lon="17.551581499056184"><ele>268.0</ele><time>2026-04-28T13:49:14.999Z</time></trkpt><trkpt lat="40.732790187869234" lon="17.551503122348976"><ele>269.0</ele><time>2026-04-28T13:49:16.999Z</time></trkpt><trkpt lat="40.732827929880386" lon="17.551425728817044"><ele>270.0</ele><time>2026-04-28T13:49:18.999Z</time></trkpt><trkpt lat="40.7328675339126" lon="17.551355377408452"><ele>271.0</ele><time>2026-04-28T13:49:20.999Z</time></trkpt><trkpt lat="40.73292032141492" lon="17.551288103499136"><ele>272.0</ele><time>2026-04-28T13:49:22.999Z</time></trkpt><trkpt lat="40.73298063474626" lon="17.551233619165043"><ele>273.0</ele><time>2026-04-28T13:49:24.999Z</time></trkpt><trkpt lat="40.73304030444815" lon="17.55120219630425"><ele>274.0</ele><time>2026-04-28T13:49:26.999Z</time></trkpt><trkpt lat="40.73309899570397" lon="17.551125409165678"><ele>275.0</ele><time>2026-04-28T13:49:28.999Z</time></trkpt><trkpt lat="40.73316314612828" lon="17.551062722770872"><ele>275.1666666666667</ele><time>2026-04-28T13:49:30.998Z</time></trkpt><trkpt lat="40.73322328090311" lon="17.551011991858722"><ele>275.33333333333337</ele><time>2026-04-28T13:49:32.998Z</time></trkpt><trkpt lat="40.73328355811047" lon="17.55095286719271"><ele>275.5</ele><time>2026-04-28T13:49:34.998Z</time></trkpt><trkpt lat="40.73334858894104" lon="17.550902388661925"><ele>275.6666666666667</ele><time>2026-04-28T13:49:36.998Z</time></trkpt><trkpt lat="40.73341049305593" lon="17.550832693054755"><ele>275.8333333333333</ele><time>2026-04-28T13:49:38.998Z</time></trkpt><trkpt lat="40.73346966628226" lon="17.550773513051674"><ele>276.0</ele><time>2026-04-28T13:49:40.998Z</time></trkpt><trkpt lat="40.73353660240898" lon="17.550715289462158"><ele>276.5</ele><time>2026-04-28T13:49:42.998Z</time></trkpt><trkpt lat="40.73359845071279" lon="17.550682559847193"><ele>277.0</ele><time>2026-04-28T13:49:44.998Z</time></trkpt><trkpt lat="40.7336746159537" lon="17.55063565426299"><ele>277.5</ele><time>2026-04-28T13:49:46.998Z</time></trkpt><trkpt lat="40.73375006344117" lon="17.55057792642286"><ele>278.0</ele><time>2026-04-28T13:49:49Z</time></trkpt><trkpt lat="40.73382370153816" lon="17.55051679247026"><ele>278.5</ele><time>2026-04-28T13:49:51Z</time></trkpt><trkpt lat="40.733886463345335" lon="17.55044485612263"><ele>279.0</ele><time>2026-04-28T13:49:53Z</time></trkpt><trkpt lat="40.73392865256972" lon="17.550355208001164"><ele>279.1666666666667</ele><time>2026-04-28T13:49:55Z</time></trkpt><trkpt lat="40.733961647143516" lon="17.550255946710074"><ele>279.3333333333333</ele><time>2026-04-28T13:49:57Z</time></trkpt><trkpt lat="40.73397826137548" lon="17.550159511594195"><ele>279.5</ele><time>2026-04-28T13:49:59Z</time></trkpt><trkpt lat="40.73398411110206" lon="17.550051071271152"><ele>279.66666666666663</ele><time>2026-04-28T13:50:01Z</time></trkpt><trkpt lat="40.73399068580415" lon="17.549947647345263"><ele>279.8333333333333</ele><time>2026-04-28T13:50:03Z</time></trkpt><trkpt lat="40.73398655685236" lon="17.549847545677626"><ele>280.0</ele><time>2026-04-28T13:50:05Z</time></trkpt><trkpt lat="40.73396465263833" lon="17.54974438934175"><ele>280.0</ele><time>2026-04-28T13:50:07Z</time></trkpt><trkpt lat="40.733937402984324" lon="17.549638585323336"><ele>280.0</ele><time>2026-04-28T13:50:09Z</time></trkpt><trkpt lat="40.73392027375664" lon="17.54952608529641"><ele>280.0</ele><time>2026-04-28T13:50:11Z</time></trkpt><trkpt lat="40.73390210817924" lon="17.54940552423764"><ele>280.0</ele><time>2026-04-28T13:50:13Z</time></trkpt><trkpt lat="40.73389229027857" lon="17.54928927699372"><ele>280.0</ele><time>2026-04-28T13:50:15Z</time></trkpt><trkpt lat="40.733886402509626" lon="17.54916785722566"><ele>280.0</ele><time>2026-04-28T13:50:17Z</time></trkpt><trkpt lat="40.73387565210365" lon="17.54905846598651"><ele>280.0</ele><time>2026-04-28T13:50:19Z</time></trkpt><trkpt lat="40.733866683142864" lon="17.54894400787684"><ele>280.0</ele><time>2026-04-28T13:50:21Z</time></trkpt><trkpt lat="40.73385729454575" lon="17.548830053072603"><ele>280.0</ele><time>2026-04-28T13:50:23Z</time></trkpt><trkpt lat="40.73384685523349" lon="17.548702846547215"><ele>280.0</ele><time>2026-04-28T13:50:25Z</time></trkpt><trkpt lat="40.73383366468504" lon="17.54858155899009"><ele>280.0</ele><time>2026-04-28T13:50:27Z</time></trkpt><trkpt lat="40.73382717971798" lon="17.54847093855083"><ele>280.0</ele><time>2026-04-28T13:50:29Z</time></trkpt><trkpt lat="40.733817130878336" lon="17.548353758642047"><ele>279.8</ele><time>2026-04-28T13:50:31Z</time></trkpt><trkpt lat="40.733790673473884" lon="17.548233606272213"><ele>279.6</ele><time>2026-04-28T13:50:33Z</time></trkpt><trkpt lat="40.73374964480848" lon="17.548106107101834"><ele>279.4</ele><time>2026-04-28T13:50:34.999Z</time></trkpt><trkpt lat="40.733715112769474" lon="17.547976345952282"><ele>279.2</ele><time>2026-04-28T13:50:36.999Z</time></trkpt><trkpt lat="40.73370524671717" lon="17.547842713521238"><ele>279.0</ele><time>2026-04-28T13:50:38.999Z</time></trkpt><trkpt lat="40.733746219520164" lon="17.547687801215382"><ele>278.3333333333333</ele><time>2026-04-28T13:50:40.999Z</time></trkpt><trkpt lat="40.73378149822748" lon="17.54761174544036"><ele>277.6666666666667</ele><time>2026-04-28T13:50:41.999Z</time></trkpt><trkpt lat="40.73382586675425" lon="17.547538963717678"><ele>277.0</ele><time>2026-04-28T13:50:42.999Z</time></trkpt><trkpt lat="40.73386724383119" lon="17.547454554759042"><ele>276.33333333333337</ele><time>2026-04-28T13:50:43.999Z</time></trkpt><trkpt lat="40.73391037412089" lon="17.547364076610027"><ele>275.6666666666667</ele><time>2026-04-28T13:50:44.999Z</time></trkpt><trkpt lat="40.73396071907359" lon="17.54728202190682"><ele>275.0</ele><time>2026-04-28T13:50:45.999Z</time></trkpt><trkpt lat="40.734011026206666" lon="17.547188622596078"><ele>275.0</ele><time>2026-04-28T13:50:46.999Z</time></trkpt><trkpt lat="40.73406421776573" lon="17.54708559942604"><ele>275.0</ele><time>2026-04-28T13:50:47.999Z</time></trkpt><trkpt lat="40.73411862326773" lon="17.54697113602884"><ele>275.0</ele><time>2026-04-28T13:50:48.999Z</time></trkpt><trkpt lat="40.73417658297796" lon="17.54687444918888"><ele>275.0</ele><time>2026-04-28T13:50:49.999Z</time></trkpt><trkpt lat="40.73424416331079" lon="17.54679030203072"><ele>275.0</ele><time>2026-04-28T13:50:50.999Z</time></trkpt><trkpt lat="40.73431649087701" lon="17.5467132898618"><ele>274.6</ele><time>2026-04-28T13:50:51.999Z</time></trkpt><trkpt lat="40.73439513586463" lon="17.546649984394875"><ele>274.2</ele><time>2026-04-28T13:50:52.999Z</time></trkpt><trkpt lat="40.73447783426588" lon="17.546603634225875"><ele>273.8</ele><time>2026-04-28T13:50:53.999Z</time></trkpt><trkpt lat="40.73456977040846" lon="17.546571624011005"><ele>273.4</ele><time>2026-04-28T13:50:54.999Z</time></trkpt><trkpt lat="40.734661292729065" lon="17.546585261643852"><ele>273.0</ele><time>2026-04-28T13:50:55.999Z</time></trkpt><trkpt lat="40.73474906813357" lon="17.54657109853286"><ele>273.0</ele><time>2026-04-28T13:50:56.999Z</time></trkpt><trkpt lat="40.73483394629153" lon="17.54653729478401"><ele>273.0</ele><time>2026-04-28T13:50:57.999Z</time></trkpt><trkpt lat="40.73489866319904" lon="17.546507025133312"><ele>273.0</ele><time>2026-04-28T13:50:58.999Z</time></trkpt><trkpt lat="40.734970245521986" lon="17.54648078213107"><ele>273.0</ele><time>2026-04-28T13:50:59.999Z</time></trkpt><trkpt lat="40.735026111929876" lon="17.546435707345893"><ele>273.0</ele><time>2026-04-28T13:51:00.999Z</time></trkpt><trkpt lat="40.73507363424896" lon="17.546378248666368"><ele>273.0</ele><time>2026-04-28T13:51:01.999Z</time></trkpt><trkpt lat="40.73512376578513" lon="17.54632094168016"><ele>273.0</ele><time>2026-04-28T13:51:02.999Z</time></trkpt><trkpt lat="40.73520340552581" lon="17.54622276045724"><ele>272.8333333333333</ele><time>2026-04-28T13:51:04.999Z</time></trkpt><trkpt lat="40.73524841097679" lon="17.546160876543418"><ele>272.6666666666667</ele><time>2026-04-28T13:51:05.999Z</time></trkpt><trkpt lat="40.73531698850473" lon="17.546049544579436"><ele>272.5</ele><time>2026-04-28T13:51:07.999Z</time></trkpt><trkpt lat="40.735349340757224" lon="17.545971352780466"><ele>272.33333333333337</ele><time>2026-04-28T13:51:08.999Z</time></trkpt><trkpt lat="40.73536841399506" lon="17.545847046198396"><ele>272.1666666666667</ele><time>2026-04-28T13:51:10.999Z</time></trkpt><trkpt lat="40.73537680790059" lon="17.545740030281852"><ele>272.0</ele><time>2026-04-28T13:51:13.999Z</time></trkpt><trkpt lat="40.73531907820497" lon="17.545675650786254"><ele>272.0</ele><time>2026-04-28T13:51:15.999Z</time></trkpt><trkpt lat="40.73529570004493" lon="17.5455689996909"><ele>272.0</ele><time>2026-04-28T13:51:18.999Z</time></trkpt><trkpt lat="40.735266341077356" lon="17.545457363819203"><ele>272.0</ele><time>2026-04-28T13:51:21.999Z</time></trkpt><trkpt lat="40.7352386220095" lon="17.54536432180485"><ele>272.0</ele><time>2026-04-28T13:51:23.999Z</time></trkpt><trkpt lat="40.73520558727311" lon="17.5452676013002"><ele>272.0</ele><time>2026-04-28T13:51:25.999Z</time></trkpt><trkpt lat="40.735168714340716" lon="17.545159461990437"><ele>272.0</ele><time>2026-04-28T13:51:27.999Z</time></trkpt><trkpt lat="40.73513082740071" lon="17.545040495876787"><ele>271.5</ele><time>2026-04-28T13:51:29.999Z</time></trkpt><trkpt lat="40.735115767522956" lon="17.544899534424513"><ele>271.0</ele><time>2026-04-28T13:51:31.999Z</time></trkpt><trkpt lat="40.73507326492226" lon="17.544763140275045"><ele>270.5</ele><time>2026-04-28T13:51:33.999Z</time></trkpt><trkpt lat="40.73507158918153" lon="17.54460870397061"><ele>270.0</ele><time>2026-04-28T13:51:35.998Z</time></trkpt><trkpt lat="40.73505898969788" lon="17.54445816217218"><ele>269.8</ele><time>2026-04-28T13:51:37.998Z</time></trkpt><trkpt lat="40.73504864334397" lon="17.544318099881362"><ele>269.6</ele><time>2026-04-28T13:51:39.998Z</time></trkpt><trkpt lat="40.73502402516055" lon="17.54418416601845"><ele>269.4</ele><time>2026-04-28T13:51:41.998Z</time></trkpt><trkpt lat="40.73502751503338" lon="17.544032197131315"><ele>269.2</ele><time>2026-04-28T13:51:43.998Z</time></trkpt><trkpt lat="40.73502080926191" lon="17.543941482033777"><ele>269.0</ele><time>2026-04-28T13:51:44.998Z</time></trkpt><trkpt lat="40.73501351940714" lon="17.54384892437733"><ele>269.0</ele><time>2026-04-28T13:51:45.998Z</time></trkpt><trkpt lat="40.73500410838282" lon="17.543750387193466"><ele>269.0</ele><time>2026-04-28T13:51:46.998Z</time></trkpt><trkpt lat="40.734989745234635" lon="17.54363796428712"><ele>269.0</ele><time>2026-04-28T13:51:47.998Z</time></trkpt><trkpt lat="40.734973973366536" lon="17.543522116158144"><ele>269.0</ele><time>2026-04-28T13:51:48.998Z</time></trkpt><trkpt lat="40.73495851718626" lon="17.543396304766382"><ele>269.0</ele><time>2026-04-28T13:51:49.998Z</time></trkpt><trkpt lat="40.73493330868104" lon="17.543281999459598"><ele>269.0</ele><time>2026-04-28T13:51:50.998Z</time></trkpt><trkpt lat="40.734925274842624" lon="17.543154556617743"><ele>268.5</ele><time>2026-04-28T13:51:51.998Z</time></trkpt><trkpt lat="40.73492920123232" lon="17.54303144617889"><ele>268.0</ele><time>2026-04-28T13:51:52.998Z</time></trkpt><trkpt lat="40.734925907386526" lon="17.54290421897714"><ele>267.5</ele><time>2026-04-28T13:51:53.998Z</time></trkpt><trkpt lat="40.734952371307955" lon="17.542792331265716"><ele>267.0</ele><time>2026-04-28T13:51:55Z</time></trkpt><trkpt lat="40.73496498809413" lon="17.54267342633353"><ele>266.5</ele><time>2026-04-28T13:51:56Z</time></trkpt><trkpt lat="40.734977117399524" lon="17.54258222819554"><ele>266.0</ele><time>2026-04-28T13:51:57Z</time></trkpt><trkpt lat="40.734997436493714" lon="17.54249133070475"><ele>265.33333333333337</ele><time>2026-04-28T13:51:58Z</time></trkpt><trkpt lat="40.735035222113204" lon="17.542408153036256"><ele>264.6666666666667</ele><time>2026-04-28T13:51:59Z</time></trkpt><trkpt lat="40.73509810411826" lon="17.542328477147596"><ele>264.0</ele><time>2026-04-28T13:52:00Z</time></trkpt><trkpt lat="40.73517947174167" lon="17.542277521720692"><ele>263.3333333333333</ele><time>2026-04-28T13:52:01Z</time></trkpt><trkpt lat="40.73524522350549" lon="17.54218578316307"><ele>262.66666666666663</ele><time>2026-04-28T13:52:02Z</time></trkpt><trkpt lat="40.73531905063514" lon="17.5421267411386"><ele>262.0</ele><time>2026-04-28T13:52:03Z</time></trkpt><trkpt lat="40.7353791142639" lon="17.542074827508387"><ele>261.6</ele><time>2026-04-28T13:52:04Z</time></trkpt><trkpt lat="40.73543717728143" lon="17.5420176284142"><ele>261.2</ele><time>2026-04-28T13:52:05Z</time></trkpt><trkpt lat="40.73553000332592" lon="17.54193045009984"><ele>260.8</ele><time>2026-04-28T13:52:07Z</time></trkpt><trkpt lat="40.73560557145752" lon="17.54187140034238"><ele>260.4</ele><time>2026-04-28T13:52:09Z</time></trkpt><trkpt lat="40.73566184920836" lon="17.541815583275113"><ele>260.0</ele><time>2026-04-28T13:52:11Z</time></trkpt><trkpt lat="40.735656519742086" lon="17.54166442482068"><ele>260.0</ele><time>2026-04-28T13:52:13Z</time></trkpt><trkpt lat="40.735673274759904" lon="17.541573724519964"><ele>260.0</ele><time>2026-04-28T13:52:15Z</time></trkpt><trkpt lat="40.73567305991055" lon="17.541486622892414"><ele>260.0</ele><time>2026-04-28T13:52:17Z</time></trkpt><trkpt lat="40.73565604165112" lon="17.54140615812724"><ele>260.0</ele><time>2026-04-28T13:52:19Z</time></trkpt><trkpt lat="40.735594507276886" lon="17.54132887815442"><ele>260.0</ele><time>2026-04-28T13:52:22Z</time></trkpt><trkpt lat="40.735600215728525" lon="17.54119378648621"><ele>260.0</ele><time>2026-04-28T13:52:24Z</time></trkpt><trkpt lat="40.735566343174405" lon="17.541113987490206"><ele>260.14285714285717</ele><time>2026-04-28T13:52:26Z</time></trkpt><trkpt lat="40.735509222634356" lon="17.541009657677378"><ele>260.2857142857143</ele><time>2026-04-28T13:52:29Z</time></trkpt><trkpt lat="40.73547653226104" lon="17.540928188406898"><ele>260.42857142857144</ele><time>2026-04-28T13:52:31Z</time></trkpt><trkpt lat="40.735452417574734" lon="17.540840735868976"><ele>260.57142857142856</ele><time>2026-04-28T13:52:33Z</time></trkpt><trkpt lat="40.73543417528254" lon="17.540754147771715"><ele>260.7142857142857</ele><time>2026-04-28T13:52:35Z</time></trkpt><trkpt lat="40.73540713430186" lon="17.54067011684559"><ele>260.8571428571429</ele><time>2026-04-28T13:52:37Z</time></trkpt><trkpt lat="40.73538793329677" lon="17.540575790310516"><ele>261.0</ele><time>2026-04-28T13:52:39Z</time></trkpt><trkpt lat="40.7354318748788" lon="17.54047116947395"><ele>261.0</ele><time>2026-04-28T13:52:41Z</time></trkpt><trkpt lat="40.73545183473506" lon="17.540386325931028"><ele>261.0</ele><time>2026-04-28T13:52:42.999Z</time></trkpt><trkpt lat="40.73546957205086" lon="17.540302410412156"><ele>261.0</ele><time>2026-04-28T13:52:44.999Z</time></trkpt><trkpt lat="40.73551066964937" lon="17.540216268783038"><ele>261.0</ele><time>2026-04-28T13:52:46.999Z</time></trkpt><trkpt lat="40.735544810843706" lon="17.540123443273792"><ele>261.0</ele><time>2026-04-28T13:52:48.999Z</time></trkpt><trkpt lat="40.73558565784379" lon="17.540014936462907"><ele>261.0</ele><time>2026-04-28T13:52:51.999Z</time></trkpt><trkpt lat="40.735624476975886" lon="17.539911816514387"><ele>261.5</ele><time>2026-04-28T13:52:54.999Z</time></trkpt><trkpt lat="40.73564518891965" lon="17.539809652890465"><ele>262.0</ele><time>2026-04-28T13:52:57.999Z</time></trkpt><trkpt lat="40.73568375986296" lon="17.539711917266764"><ele>262.5</ele><time>2026-04-28T13:53:00.999Z</time></trkpt><trkpt lat="40.73572048977863" lon="17.539600710277753"><ele>263.0</ele><time>2026-04-28T13:53:03.999Z</time></trkpt><trkpt lat="40.73574869200704" lon="17.53949325319123"><ele>263.5</ele><time>2026-04-28T13:53:06.999Z</time></trkpt><trkpt lat="40.73578292934036" lon="17.539411988313674"><ele>264.0</ele><time>2026-04-28T13:53:09.999Z</time></trkpt><trkpt lat="40.73579906756843" lon="17.53932486860327"><ele>264.0</ele><time>2026-04-28T13:53:13.999Z</time></trkpt><trkpt lat="40.73586034229279" lon="17.539296552804625"><ele>264.0</ele><time>2026-04-28T13:53:39.999Z</time></trkpt><trkpt lat="40.73583125439705" lon="17.539216738029165"><ele>264.0</ele><time>2026-04-28T13:56:03.998Z</time></trkpt><trkpt lat="40.735861943792095" lon="17.53913155236007"><ele>264.0</ele><time>2026-04-28T13:56:10Z</time></trkpt><trkpt lat="40.73586640528301" lon="17.53901503383035"><ele>264.0</ele><time>2026-04-28T13:56:13Z</time></trkpt><trkpt lat="40.735864787738876" lon="17.538911338989465"><ele>264.0</ele><time>2026-04-28T13:56:15Z</time></trkpt><trkpt lat="40.73585867253347" lon="17.53879344311661"><ele>263.6666666666667</ele><time>2026-04-28T13:56:17Z</time></trkpt><trkpt lat="40.735855898667396" lon="17.538680176848317"><ele>263.3333333333333</ele><time>2026-04-28T13:56:19Z</time></trkpt><trkpt lat="40.73583344823557" lon="17.53858746834825"><ele>263.0</ele><time>2026-04-28T13:56:21Z</time></trkpt><trkpt lat="40.73581824158475" lon="17.53850465814768"><ele>262.66666666666663</ele><time>2026-04-28T13:56:24Z</time></trkpt><trkpt lat="40.73579790074306" lon="17.538409813600257"><ele>262.3333333333333</ele><time>2026-04-28T13:56:27Z</time></trkpt><trkpt lat="40.73582806679268" lon="17.538293002262797"><ele>262.0</ele><time>2026-04-28T13:56:29Z</time></trkpt><trkpt lat="40.73584404025935" lon="17.538162708532717"><ele>262.0</ele><time>2026-04-28T13:56:31Z</time></trkpt><trkpt lat="40.735930571462475" lon="17.538069496498533"><ele>262.0</ele><time>2026-04-28T13:56:33Z</time></trkpt><trkpt lat="40.7360022728822" lon="17.537975114564418"><ele>262.0</ele><time>2026-04-28T13:56:35Z</time></trkpt><trkpt lat="40.73605411111538" lon="17.537845329008277"><ele>262.0</ele><time>2026-04-28T13:56:37Z</time></trkpt><trkpt lat="40.73608694851575" lon="17.537722174873462"><ele>262.0</ele><time>2026-04-28T13:56:39Z</time></trkpt><trkpt lat="40.73616619578413" lon="17.537665560746326"><ele>260.4</ele><time>2026-04-28T13:56:41Z</time></trkpt><trkpt lat="40.736216065483866" lon="17.537552594558694"><ele>258.79999999999995</ele><time>2026-04-28T13:56:43Z</time></trkpt><trkpt lat="40.736297437861616" lon="17.53746920682735"><ele>257.2</ele><time>2026-04-28T13:56:45Z</time></trkpt><trkpt lat="40.73639053722473" lon="17.537398791124712"><ele>255.6</ele><time>2026-04-28T13:56:47Z</time></trkpt><trkpt lat="40.7364839326632" lon="17.537365581470528"><ele>254.0</ele><time>2026-04-28T13:56:49Z</time></trkpt><trkpt lat="40.73656533176161" lon="17.537325606940247"><ele>254.0</ele><time>2026-04-28T13:56:50.999Z</time></trkpt><trkpt lat="40.736586222008796" lon="17.53724466305879"><ele>254.0</ele><time>2026-04-28T13:56:53.999Z</time></trkpt><trkpt lat="40.736585505245365" lon="17.537159677767278"><ele>254.0</ele><time>2026-04-28T13:56:59.999Z</time></trkpt><trkpt lat="40.73660758313699" lon="17.537078499753132"><ele>254.0</ele><time>2026-04-28T13:57:01.999Z</time></trkpt><trkpt lat="40.73667406301681" lon="17.537073059045543"><ele>254.0</ele><time>2026-04-28T13:57:03.999Z</time></trkpt><trkpt lat="40.736729904856" lon="17.537130566494394"><ele>254.0</ele><time>2026-04-28T13:57:05.999Z</time></trkpt><trkpt lat="40.73679565996053" lon="17.53712815838186"><ele>254.0</ele><time>2026-04-28T13:57:07.999Z</time></trkpt><trkpt lat="40.73685645283142" lon="17.53708839458855"><ele>254.66666666666669</ele><time>2026-04-28T13:57:09.999Z</time></trkpt><trkpt lat="40.73694134602845" lon="17.537049624754637"><ele>255.33333333333334</ele><time>2026-04-28T13:57:11.999Z</time></trkpt><trkpt lat="40.73700763130966" lon="17.536977408015755"><ele>256.0</ele><time>2026-04-28T13:57:13.999Z</time></trkpt><trkpt lat="40.73709262437458" lon="17.536913016281915"><ele>256.6666666666667</ele><time>2026-04-28T13:57:16.999Z</time></trkpt><trkpt lat="40.73716886479334" lon="17.536876116023667"><ele>257.3333333333333</ele><time>2026-04-28T13:57:18.999Z</time></trkpt><trkpt lat="40.73723951125791" lon="17.53687089949769"><ele>258.0</ele><time>2026-04-28T13:57:20.999Z</time></trkpt><trkpt lat="40.737303119654946" lon="17.53686036027414"><ele>258.0</ele><time>2026-04-28T13:57:22.999Z</time></trkpt><trkpt lat="40.7373884194408" lon="17.5368414107765"><ele>258.0</ele><time>2026-04-28T13:57:25.999Z</time></trkpt><trkpt lat="40.73746262593895" lon="17.536883849088703"><ele>258.0</ele><time>2026-04-28T13:57:28.999Z</time></trkpt><trkpt lat="40.7375138753098" lon="17.53693349481399"><ele>258.0</ele><time>2026-04-28T13:57:30.999Z</time></trkpt><trkpt lat="40.73760274232863" lon="17.53696406430934"><ele>258.0</ele><time>2026-04-28T13:57:33.999Z</time></trkpt><trkpt lat="40.737644471052754" lon="17.53686123173378"><ele>258.0</ele><time>2026-04-28T13:57:37.999Z</time></trkpt><trkpt lat="40.737658064191194" lon="17.53677153084504"><ele>258.0</ele><time>2026-04-28T13:57:40.999Z</time></trkpt><trkpt lat="40.73769856811981" lon="17.53668723982793"><ele>258.0</ele><time>2026-04-28T13:57:43.999Z</time></trkpt><trkpt lat="40.73772701329936" lon="17.5366043884693"><ele>258.0</ele><time>2026-04-28T13:57:47.999Z</time></trkpt><trkpt lat="40.73773174970954" lon="17.536489126546876"><ele>258.0</ele><time>2026-04-28T13:57:51.999Z</time></trkpt><trkpt lat="40.73774631632433" lon="17.53637442015332"><ele>258.0</ele><time>2026-04-28T13:57:55.998Z</time></trkpt><trkpt lat="40.737708223980135" lon="17.53628982438502"><ele>258.0</ele><time>2026-04-28T13:57:57.998Z</time></trkpt><trkpt lat="40.73765852925656" lon="17.536226651130313"><ele>259.3333333333333</ele><time>2026-04-28T13:58:00.998Z</time></trkpt><trkpt lat="40.73763395215146" lon="17.536127107583468"><ele>260.6666666666667</ele><time>2026-04-28T13:58:04.998Z</time></trkpt><trkpt lat="40.73759707330991" lon="17.536028722396395"><ele>262.0</ele><time>2026-04-28T13:58:07.998Z</time></trkpt><trkpt lat="40.73754999332463" lon="17.53596502986401"><ele>263.33333333333337</ele><time>2026-04-28T13:58:11.998Z</time></trkpt><trkpt lat="40.7375534732037" lon="17.53588115632028"><ele>264.6666666666667</ele><time>2026-04-28T13:58:16Z</time></trkpt><trkpt lat="40.73759725855868" lon="17.53577991528141"><ele>266.0</ele><time>2026-04-28T13:58:19Z</time></trkpt><trkpt lat="40.73761602086649" lon="17.53567083300154"><ele>266.0</ele><time>2026-04-28T13:58:21Z</time></trkpt><trkpt lat="40.737614780655655" lon="17.535560320058277"><ele>266.0</ele><time>2026-04-28T13:58:24Z</time></trkpt><trkpt lat="40.73761155721109" lon="17.535445628201362"><ele>266.0</ele><time>2026-04-28T13:58:26Z</time></trkpt><trkpt lat="40.737590633224904" lon="17.53533725455987"><ele>266.0</ele><time>2026-04-28T13:58:28Z</time></trkpt><trkpt lat="40.73761081447447" lon="17.53522349585092"><ele>266.0</ele><time>2026-04-28T13:58:30Z</time></trkpt><trkpt lat="40.7376681319375" lon="17.535136523814966"><ele>266.0</ele><time>2026-04-28T13:58:32Z</time></trkpt><trkpt lat="40.737705202761354" lon="17.535042860499072"><ele>265.0</ele><time>2026-04-28T13:58:34Z</time></trkpt><trkpt lat="40.73775529188799" lon="17.534983369193387"><ele>264.0</ele><time>2026-04-28T13:58:36Z</time></trkpt><trkpt lat="40.73779597953629" lon="17.53491507354749"><ele>263.0</ele><time>2026-04-28T13:58:38Z</time></trkpt><trkpt lat="40.73780284718203" lon="17.534807113998358"><ele>262.0</ele><time>2026-04-28T13:58:42Z</time></trkpt><trkpt lat="40.73787413494809" lon="17.534722749850676"><ele>261.0</ele><time>2026-04-28T13:58:44Z</time></trkpt><trkpt lat="40.73794547561124" lon="17.534654268617093"><ele>260.0</ele><time>2026-04-28T13:58:47Z</time></trkpt><trkpt lat="40.737991898539036" lon="17.534590413902286"><ele>260.33333333333337</ele><time>2026-04-28T13:58:50Z</time></trkpt><trkpt lat="40.738021636014565" lon="17.534451983260762"><ele>260.6666666666667</ele><time>2026-04-28T13:58:52Z</time></trkpt><trkpt lat="40.73802002123401" lon="17.534333680086092"><ele>261.0</ele><time>2026-04-28T13:58:54Z</time></trkpt><trkpt lat="40.738008397290194" lon="17.534243730498712"><ele>261.3333333333333</ele><time>2026-04-28T13:58:55.999Z</time></trkpt><trkpt lat="40.73799863186228" lon="17.534147440687246"><ele>261.66666666666663</ele><time>2026-04-28T13:58:57.999Z</time></trkpt><trkpt lat="40.73798168465009" lon="17.534050308077564"><ele>262.0</ele><time>2026-04-28T13:58:59.999Z</time></trkpt><trkpt lat="40.73795593372981" lon="17.53395694776224"><ele>262.0</ele><time>2026-04-28T13:59:01.999Z</time></trkpt><trkpt lat="40.73793382872767" lon="17.533867302465843"><ele>262.0</ele><time>2026-04-28T13:59:03.999Z</time></trkpt><trkpt lat="40.73789334282943" lon="17.533750060861426"><ele>262.0</ele><time>2026-04-28T13:59:06.999Z</time></trkpt><trkpt lat="40.73790614509458" lon="17.533667616380566"><ele>262.0</ele><time>2026-04-28T13:59:09.999Z</time></trkpt><trkpt lat="40.73788247711123" lon="17.533589175809993"><ele>262.0</ele><time>2026-04-28T13:59:11.999Z</time></trkpt><trkpt lat="40.73786574232463" lon="17.53346393908225"><ele>262.0</ele><time>2026-04-28T13:59:14.999Z</time></trkpt><trkpt lat="40.73783469132436" lon="17.533364892693132"><ele>261.8571428571429</ele><time>2026-04-28T13:59:17.999Z</time></trkpt><trkpt lat="40.737766049046485" lon="17.533333095921144"><ele>261.7142857142857</ele><time>2026-04-28T13:59:20.999Z</time></trkpt><trkpt lat="40.73769781426651" lon="17.533296649102084"><ele>261.57142857142856</ele><time>2026-04-28T13:59:23.999Z</time></trkpt><trkpt lat="40.73766323997288" lon="17.53322637152831"><ele>261.42857142857144</ele><time>2026-04-28T13:59:26.999Z</time></trkpt><trkpt lat="40.73766927402556" lon="17.533131795916383"><ele>261.2857142857143</ele><time>2026-04-28T13:59:31.999Z</time></trkpt><trkpt lat="40.737674102285276" lon="17.53304853903045"><ele>261.14285714285717</ele><time>2026-04-28T13:59:35.999Z</time></trkpt><trkpt lat="40.7376794992331" lon="17.532958354217776"><ele>261.0</ele><time>2026-04-28T13:59:40.999Z</time></trkpt><trkpt lat="40.73769576507739" lon="17.532870273819263"><ele>264.5</ele><time>2026-04-28T13:59:46.999Z</time></trkpt><trkpt lat="40.737707044853835" lon="17.532777023799202"><ele>268.0</ele><time>2026-04-28T13:59:49.999Z</time></trkpt><trkpt lat="40.73766057002352" lon="17.532664658664594"><ele>271.5</ele><time>2026-04-28T13:59:52.999Z</time></trkpt><trkpt lat="40.73759774135519" lon="17.53255758466985"><ele>275.0</ele><time>2026-04-28T13:59:55.999Z</time></trkpt><trkpt lat="40.73753568957422" lon="17.53248113882955"><ele>278.5</ele><time>2026-04-28T13:59:57.999Z</time></trkpt><trkpt lat="40.73747413303443" lon="17.532406231361797"><ele>282.0</ele><time>2026-04-28T13:59:59.998Z</time></trkpt><trkpt lat="40.737426872472305" lon="17.532324362235123"><ele>282.0</ele><time>2026-04-28T14:00:01.998Z</time></trkpt><trkpt lat="40.73737935670729" lon="17.532231995717893"><ele>282.0</ele><time>2026-04-28T14:00:03.998Z</time></trkpt><trkpt lat="40.73735958141774" lon="17.53214817303279"><ele>282.0</ele><time>2026-04-28T14:00:05.998Z</time></trkpt><trkpt lat="40.7373458562026" lon="17.53205415557413"><ele>282.0</ele><time>2026-04-28T14:00:07.998Z</time></trkpt><trkpt lat="40.737337193258604" lon="17.531963313339357"><ele>282.0</ele><time>2026-04-28T14:00:09.998Z</time></trkpt><trkpt lat="40.737304869319054" lon="17.531845649389258"><ele>282.0</ele><time>2026-04-28T14:00:12.998Z</time></trkpt><trkpt lat="40.737298181866194" lon="17.531752898144443"><ele>282.1666666666667</ele><time>2026-04-28T14:00:14.998Z</time></trkpt><trkpt lat="40.73734192733891" lon="17.53166591729355"><ele>282.3333333333333</ele><time>2026-04-28T14:00:16.998Z</time></trkpt><trkpt lat="40.73740103240813" lon="17.531607628473335"><ele>282.5</ele><time>2026-04-28T14:00:19Z</time></trkpt><trkpt lat="40.73745149841711" lon="17.531528141847733"><ele>282.66666666666663</ele><time>2026-04-28T14:00:21Z</time></trkpt><trkpt lat="40.73746675002533" lon="17.531426841037533"><ele>282.8333333333333</ele><time>2026-04-28T14:00:23Z</time></trkpt><trkpt lat="40.73745467625708" lon="17.53132929445077"><ele>283.0</ele><time>2026-04-28T14:00:25Z</time></trkpt><trkpt lat="40.73742583403321" lon="17.53123097301563"><ele>283.3333333333333</ele><time>2026-04-28T14:00:27Z</time></trkpt><trkpt lat="40.73740614079996" lon="17.53113472847239"><ele>283.66666666666663</ele><time>2026-04-28T14:00:29Z</time></trkpt><trkpt lat="40.737394111555616" lon="17.531011151396065"><ele>284.0</ele><time>2026-04-28T14:00:31Z</time></trkpt><trkpt lat="40.73735846537226" lon="17.53091740689643"><ele>284.3333333333333</ele><time>2026-04-28T14:00:33Z</time></trkpt><trkpt lat="40.73731671707048" lon="17.53081841114338"><ele>284.6666666666667</ele><time>2026-04-28T14:00:35Z</time></trkpt><trkpt lat="40.7372762129467" lon="17.530718848663167"><ele>285.0</ele><time>2026-04-28T14:00:37Z</time></trkpt><trkpt lat="40.737238142073906" lon="17.530628971899628"><ele>285.0</ele><time>2026-04-28T14:00:39Z</time></trkpt><trkpt lat="40.73720751405678" lon="17.530552044745075"><ele>285.0</ele><time>2026-04-28T14:00:41Z</time></trkpt><trkpt lat="40.73717894612267" lon="17.530458081891076"><ele>285.0</ele><time>2026-04-28T14:00:43Z</time></trkpt><trkpt lat="40.73719635710414" lon="17.530336308802937"><ele>285.0</ele><time>2026-04-28T14:00:46Z</time></trkpt><trkpt lat="40.737235630004044" lon="17.530263384746966"><ele>285.0</ele><time>2026-04-28T14:00:48Z</time></trkpt><trkpt lat="40.73728615798506" lon="17.530210211735206"><ele>285.0</ele><time>2026-04-28T14:00:50Z</time></trkpt><trkpt lat="40.73733042266216" lon="17.53013796978336"><ele>285.0</ele><time>2026-04-28T14:00:52Z</time></trkpt><trkpt lat="40.737372663030186" lon="17.530052509136727"><ele>285.5</ele><time>2026-04-28T14:00:54Z</time></trkpt><trkpt lat="40.7374260341914" lon="17.529959658377148"><ele>286.0</ele><time>2026-04-28T14:00:56Z</time></trkpt><trkpt lat="40.73747369615666" lon="17.52987970757728"><ele>286.5</ele><time>2026-04-28T14:00:58Z</time></trkpt><trkpt lat="40.73753148987463" lon="17.529794400084974"><ele>287.0</ele><time>2026-04-28T14:00:59.999Z</time></trkpt><trkpt lat="40.737611439792026" lon="17.5297139600408"><ele>287.5</ele><time>2026-04-28T14:01:01.999Z</time></trkpt><trkpt lat="40.7376827332738" lon="17.529638386787347"><ele>288.0</ele><time>2026-04-28T14:01:03.999Z</time></trkpt><trkpt lat="40.73774219626833" lon="17.529545143898893"><ele>287.0</ele><time>2026-04-28T14:01:05.999Z</time></trkpt><trkpt lat="40.73778966611957" lon="17.52944532291092"><ele>286.0</ele><time>2026-04-28T14:01:07.999Z</time></trkpt><trkpt lat="40.73781971156112" lon="17.529314777022545"><ele>285.0</ele><time>2026-04-28T14:01:09.999Z</time></trkpt><trkpt lat="40.73781106564652" lon="17.52920522830233"><ele>284.0</ele><time>2026-04-28T14:01:11.999Z</time></trkpt><trkpt lat="40.73778218560083" lon="17.529094315509454"><ele>283.0</ele><time>2026-04-28T14:01:13.999Z</time></trkpt><trkpt lat="40.73774683574989" lon="17.529009803945822"><ele>282.0</ele><time>2026-04-28T14:01:15.999Z</time></trkpt><trkpt lat="40.73777907879647" lon="17.528906744010023"><ele>282.0</ele><time>2026-04-28T14:01:18.999Z</time></trkpt><trkpt lat="40.737765053983715" lon="17.528806596227877"><ele>282.0</ele><time>2026-04-28T14:01:21.999Z</time></trkpt><trkpt lat="40.737751471446934" lon="17.528722894429794"><ele>282.0</ele><time>2026-04-28T14:01:23.999Z</time></trkpt><trkpt lat="40.7377578793344" lon="17.528608589467577"><ele>282.0</ele><time>2026-04-28T14:01:26.999Z</time></trkpt><trkpt lat="40.73781592026543" lon="17.528529904103678"><ele>282.0</ele><time>2026-04-28T14:01:28.999Z</time></trkpt><trkpt lat="40.737857894661275" lon="17.528450057443287"><ele>282.0</ele><time>2026-04-28T14:01:30.999Z</time></trkpt><trkpt lat="40.73790035140282" lon="17.528382391577196"><ele>282.0</ele><time>2026-04-28T14:01:32.999Z</time></trkpt><trkpt lat="40.737966148289196" lon="17.528432573802082"><ele>282.0</ele><time>2026-04-28T14:01:35.999Z</time></trkpt><trkpt lat="40.73802125552279" lon="17.52851886285651"><ele>282.0</ele><time>2026-04-28T14:01:37.999Z</time></trkpt><trkpt lat="40.738068569340314" lon="17.528598294689623"><ele>282.0</ele><time>2026-04-28T14:01:39.999Z</time></trkpt><trkpt lat="40.73812393276374" lon="17.528677322080906"><ele>282.0</ele><time>2026-04-28T14:01:41.999Z</time></trkpt><trkpt lat="40.73820124808948" lon="17.528742794465668"><ele>282.0</ele><time>2026-04-28T14:01:43.999Z</time></trkpt><trkpt lat="40.73825408282075" lon="17.528818673335902"><ele>282.0</ele><time>2026-04-28T14:01:45.999Z</time></trkpt><trkpt lat="40.738329575095705" lon="17.52887728529336"><ele>282.0</ele><time>2026-04-28T14:01:47.999Z</time></trkpt><trkpt lat="40.73842805018227" lon="17.52894267539472"><ele>282.0</ele><time>2026-04-28T14:01:49.999Z</time></trkpt><trkpt lat="40.738490764109734" lon="17.528963429839347"><ele>282.0</ele><time>2026-04-28T14:01:50.999Z</time></trkpt><trkpt lat="40.73857733319824" lon="17.528999584077916"><ele>282.0</ele><time>2026-04-28T14:01:52.999Z</time></trkpt><trkpt lat="40.738619523785005" lon="17.529075560942047"><ele>282.0</ele><time>2026-04-28T14:01:54.999Z</time></trkpt><trkpt lat="40.73868189579147" lon="17.529121147155156"><ele>279.8333333333333</ele><time>2026-04-28T14:01:56.999Z</time></trkpt><trkpt lat="40.73873250273352" lon="17.529218438578503"><ele>277.6666666666667</ele><time>2026-04-28T14:01:58.999Z</time></trkpt><trkpt lat="40.73879119115517" lon="17.529250356985468"><ele>275.5</ele><time>2026-04-28T14:02:01.999Z</time></trkpt><trkpt lat="40.738883521292216" lon="17.529200373895478"><ele>273.33333333333337</ele><time>2026-04-28T14:02:04.998Z</time></trkpt><trkpt lat="40.738923218786326" lon="17.529094168017338"><ele>271.1666666666667</ele><time>2026-04-28T14:02:07.998Z</time></trkpt><trkpt lat="40.7389921414022" lon="17.529031131333518"><ele>269.0</ele><time>2026-04-28T14:02:09.998Z</time></trkpt><trkpt lat="40.7390429455556" lon="17.52909430372576"><ele>269.0</ele><time>2026-04-28T14:02:13.998Z</time></trkpt><trkpt lat="40.739012578668145" lon="17.529173243774956"><ele>269.0</ele><time>2026-04-28T14:02:15.998Z</time></trkpt><trkpt lat="40.73896726576757" lon="17.529304698691544"><ele>269.0</ele><time>2026-04-28T14:02:17.998Z</time></trkpt><trkpt lat="40.73898242569939" lon="17.529414411204026"><ele>269.0</ele><time>2026-04-28T14:02:19.998Z</time></trkpt><trkpt lat="40.73903189977273" lon="17.529501719485978"><ele>269.0</ele><time>2026-04-28T14:02:21.998Z</time></trkpt><trkpt lat="40.739058460592545" lon="17.52958113282714"><ele>269.0</ele><time>2026-04-28T14:02:23.998Z</time></trkpt><trkpt lat="40.73908716040088" lon="17.52968056311418"><ele>266.59999999999997</ele><time>2026-04-28T14:02:26Z</time></trkpt><trkpt lat="40.73906489378014" lon="17.529791769129094"><ele>264.2</ele><time>2026-04-28T14:02:28Z</time></trkpt><trkpt lat="40.739056912242134" lon="17.529930048585662"><ele>261.79999999999995</ele><time>2026-04-28T14:02:30Z</time></trkpt><trkpt lat="40.73908811937859" lon="17.530043771228016"><ele>259.4</ele><time>2026-04-28T14:02:32Z</time></trkpt><trkpt lat="40.73908764256016" lon="17.530155864971142"><ele>257.0</ele><time>2026-04-28T14:02:34Z</time></trkpt><trkpt lat="40.739111340808364" lon="17.530297771698066"><ele>255.66666666666669</ele><time>2026-04-28T14:02:36Z</time></trkpt><trkpt lat="40.73912657023875" lon="17.530436663417237"><ele>254.33333333333334</ele><time>2026-04-28T14:02:38Z</time></trkpt><trkpt lat="40.73915748718408" lon="17.530517007054215"><ele>253.0</ele><time>2026-04-28T14:02:40Z</time></trkpt><trkpt lat="40.73915795324467" lon="17.530628069144594"><ele>251.66666666666669</ele><time>2026-04-28T14:02:42Z</time></trkpt><trkpt lat="40.73917440268684" lon="17.53072710063167"><ele>250.33333333333334</ele><time>2026-04-28T14:02:44Z</time></trkpt><trkpt lat="40.73919289810545" lon="17.530856056291114"><ele>249.0</ele><time>2026-04-28T14:02:47Z</time></trkpt><trkpt lat="40.73921293707594" lon="17.530936516696826"><ele>249.0</ele><time>2026-04-28T14:02:49Z</time></trkpt><trkpt lat="40.73919582417732" lon="17.53104881417423"><ele>248.99999999999997</ele><time>2026-04-28T14:02:51Z</time></trkpt><trkpt lat="40.7391884036755" lon="17.531131647399146"><ele>248.99999999999997</ele><time>2026-04-28T14:02:52Z</time></trkpt><trkpt lat="40.7391712857892" lon="17.531265150230684"><ele>249.0</ele><time>2026-04-28T14:02:54Z</time></trkpt><trkpt lat="40.73914317581745" lon="17.531392112269938"><ele>249.0</ele><time>2026-04-28T14:02:56Z</time></trkpt><trkpt lat="40.739114469262724" lon="17.53151771638909"><ele>246.79999999999998</ele><time>2026-04-28T14:02:58Z</time></trkpt><trkpt lat="40.73910175399371" lon="17.53164937629113"><ele>244.59999999999997</ele><time>2026-04-28T14:03:00Z</time></trkpt><trkpt lat="40.73908526974558" lon="17.531774906667692"><ele>242.4</ele><time>2026-04-28T14:03:02Z</time></trkpt><trkpt lat="40.73909375743213" lon="17.531909848028217"><ele>240.2</ele><time>2026-04-28T14:03:03.999Z</time></trkpt><trkpt lat="40.73908871034083" lon="17.532006213414935"><ele>238.0</ele><time>2026-04-28T14:03:06.999Z</time></trkpt><trkpt lat="40.73917865589435" lon="17.531947758627183"><ele>238.0</ele><time>2026-04-28T14:03:16.999Z</time></trkpt><trkpt lat="40.739222753295316" lon="17.531874805146135"><ele>238.0</ele><time>2026-04-28T14:03:18.999Z</time></trkpt><trkpt lat="40.73921701846504" lon="17.531766678360423"><ele>238.0</ele><time>2026-04-28T14:03:21.999Z</time></trkpt><trkpt lat="40.73927970896632" lon="17.53174445699982"><ele>238.0</ele><time>2026-04-28T14:03:28.999Z</time></trkpt><trkpt lat="40.73934850464731" lon="17.531772759814217"><ele>238.0</ele><time>2026-04-28T14:03:35.999Z</time></trkpt><trkpt lat="40.7394227012413" lon="17.53174507860939"><ele>238.0</ele><time>2026-04-28T14:03:40.999Z</time></trkpt><trkpt lat="40.73940754006219" lon="17.53165706208814"><ele>238.0</ele><time>2026-04-28T14:03:43.999Z</time></trkpt><trkpt lat="40.73939886946888" lon="17.531564872771575"><ele>233.57142857142858</ele><time>2026-04-28T14:03:46.999Z</time></trkpt><trkpt lat="40.73945501698819" lon="17.531496055327672"><ele>229.14285714285714</ele><time>2026-04-28T14:03:50.999Z</time></trkpt><trkpt lat="40.73952839577826" lon="17.531517936651277"><ele>224.71428571428572</ele><time>2026-04-28T14:03:55.999Z</time></trkpt><trkpt lat="40.73958839175094" lon="17.531573456524168"><ele>220.28571428571428</ele><time>2026-04-28T14:04:16.998Z</time></trkpt><trkpt lat="40.739634846976834" lon="17.531511402329272"><ele>215.85714285714286</ele><time>2026-04-28T14:04:19.998Z</time></trkpt><trkpt lat="40.7395955718673" lon="17.531442555413143"><ele>211.42857142857144</ele><time>2026-04-28T14:04:24.998Z</time></trkpt><trkpt lat="40.73958236125815" lon="17.53134194409828"><ele>207.0</ele><time>2026-04-28T14:04:39Z</time></trkpt><trkpt lat="40.73960150697688" lon="17.53123492577969"><ele>208.57142857142858</ele><time>2026-04-28T14:04:50Z</time></trkpt><trkpt lat="40.73961219183747" lon="17.53114809557884"><ele>210.14285714285714</ele><time>2026-04-28T14:04:54Z</time></trkpt><trkpt lat="40.73960369786344" lon="17.531052000967875"><ele>211.71428571428572</ele><time>2026-04-28T14:04:59Z</time></trkpt><trkpt lat="40.739650488638404" lon="17.530994531266447"><ele>213.28571428571428</ele><time>2026-04-28T14:05:03Z</time></trkpt><trkpt lat="40.739712140043835" lon="17.530943256137423"><ele>214.85714285714286</ele><time>2026-04-28T14:05:07Z</time></trkpt><trkpt lat="40.73973591856693" lon="17.530854837059557"><ele>216.42857142857144</ele><time>2026-04-28T14:05:10Z</time></trkpt><trkpt lat="40.7397335354469" lon="17.53074505945125"><ele>218.0</ele><time>2026-04-28T14:05:14Z</time></trkpt><trkpt lat="40.7397467484468" lon="17.53065319053195"><ele>218.0</ele><time>2026-04-28T14:05:17.999Z</time></trkpt><trkpt lat="40.73973528732291" lon="17.530549812780734"><ele>218.0</ele><time>2026-04-28T14:05:20.999Z</time></trkpt><trkpt lat="40.73974074756405" lon="17.530464346135346"><ele>218.0</ele><time>2026-04-28T14:05:23.999Z</time></trkpt><trkpt lat="40.73975571708172" lon="17.53035404026232"><ele>218.0</ele><time>2026-04-28T14:05:27.999Z</time></trkpt><trkpt lat="40.739760164874234" lon="17.530256756789417"><ele>218.0</ele><time>2026-04-28T14:05:31.999Z</time></trkpt><trkpt lat="40.73972813540283" lon="17.530177294520193"><ele>218.0</ele><time>2026-04-28T14:05:39.999Z</time></trkpt><trkpt lat="40.73978534437093" lon="17.530138438718932"><ele>218.0</ele><time>2026-04-28T14:06:15.999Z</time></trkpt><trkpt lat="40.73987187911817" lon="17.53010412416764"><ele>218.00000000000003</ele><time>2026-04-28T14:06:23.998Z</time></trkpt><trkpt lat="40.73993893979889" lon="17.53015183374478"><ele>218.0</ele><time>2026-04-28T14:06:25.998Z</time></trkpt><trkpt lat="40.73998285631633" lon="17.53023702521875"><ele>218.0</ele><time>2026-04-28T14:06:28.998Z</time></trkpt><trkpt lat="40.74006028039932" lon="17.530334343333607"><ele>218.0</ele><time>2026-04-28T14:06:33.998Z</time></trkpt><trkpt lat="40.74013485756544" lon="17.530408309589436"><ele>218.00000000000003</ele><time>2026-04-28T14:06:37Z</time></trkpt><trkpt lat="40.74019939514073" lon="17.530413557644856"><ele>218.0</ele><time>2026-04-28T14:06:41Z</time></trkpt><trkpt lat="40.74027123516591" lon="17.53040198161818"><ele>215.00000000000003</ele><time>2026-04-28T14:06:46Z</time></trkpt><trkpt lat="40.74033751419107" lon="17.530398066725233"><ele>212.0</ele><time>2026-04-28T14:06:49Z</time></trkpt><trkpt lat="40.74036526658157" lon="17.530473042337217"><ele>209.0</ele><time>2026-04-28T14:06:51Z</time></trkpt><trkpt lat="40.740413329806344" lon="17.530549074418808"><ele>206.0</ele><time>2026-04-28T14:06:55Z</time></trkpt><trkpt lat="40.74044675456015" lon="17.530635455950513"><ele>203.00000000000003</ele><time>2026-04-28T14:06:58Z</time></trkpt><trkpt lat="40.74049080968782" lon="17.530743153511402"><ele>200.0</ele><time>2026-04-28T14:07:01Z</time></trkpt><trkpt lat="40.74058577748083" lon="17.530749774031438"><ele>200.00000000000003</ele><time>2026-04-28T14:07:04Z</time></trkpt><trkpt lat="40.74067572885479" lon="17.53069310186057"><ele>200.0</ele><time>2026-04-28T14:07:06Z</time></trkpt><trkpt lat="40.74075777625044" lon="17.5306532021533"><ele>200.0</ele><time>2026-04-28T14:07:08Z</time></trkpt><trkpt lat="40.74085004408017" lon="17.530606764929043"><ele>200.0</ele><time>2026-04-28T14:07:10Z</time></trkpt><trkpt lat="40.74092546887624" lon="17.530575373819048"><ele>200.00000000000003</ele><time>2026-04-28T14:07:12Z</time></trkpt><trkpt lat="40.741001229621084" lon="17.530534915315357"><ele>200.0</ele><time>2026-04-28T14:07:15Z</time></trkpt><trkpt lat="40.74109972090558" lon="17.53053265784306"><ele>198.0</ele><time>2026-04-28T14:07:18Z</time></trkpt><trkpt lat="40.74117064195601" lon="17.530524502735407"><ele>196.0</ele><time>2026-04-28T14:07:20Z</time></trkpt><trkpt lat="40.74123630914803" lon="17.530510079582466"><ele>194.0</ele><time>2026-04-28T14:07:22Z</time></trkpt><trkpt lat="40.7413083613104" lon="17.530505910647943"><ele>192.0</ele><time>2026-04-28T14:07:24Z</time></trkpt><trkpt lat="40.741415116209986" lon="17.530467341344924"><ele>190.0</ele><time>2026-04-28T14:07:26.999Z</time></trkpt><trkpt lat="40.741545120920634" lon="17.530447627917304"><ele>190.0</ele><time>2026-04-28T14:07:28.999Z</time></trkpt><trkpt lat="40.74162730054136" lon="17.530430792162115"><ele>190.0</ele><time>2026-04-28T14:07:29.999Z</time></trkpt><trkpt lat="40.741740601098904" lon="17.530417035827423"><ele>190.0</ele><time>2026-04-28T14:07:31.999Z</time></trkpt><trkpt lat="40.74181258074545" lon="17.530437179596916"><ele>190.0</ele><time>2026-04-28T14:07:32.999Z</time></trkpt><trkpt lat="40.7419153554607" lon="17.530452255316945"><ele>190.0</ele><time>2026-04-28T14:07:34.999Z</time></trkpt><trkpt lat="40.74196804384976" lon="17.53040628802717"><ele>190.0</ele><time>2026-04-28T14:07:35.999Z</time></trkpt><trkpt lat="40.74206916345232" lon="17.530356090598236"><ele>190.4</ele><time>2026-04-28T14:07:38.999Z</time></trkpt><trkpt lat="40.742181440949146" lon="17.53031675035227"><ele>190.8</ele><time>2026-04-28T14:07:40.999Z</time></trkpt><trkpt lat="40.742300630013936" lon="17.530286490201377"><ele>191.2</ele><time>2026-04-28T14:07:42.999Z</time></trkpt><trkpt lat="40.74237609277171" lon="17.530290522309667"><ele>191.6</ele><time>2026-04-28T14:07:43.999Z</time></trkpt><trkpt lat="40.742439459325716" lon="17.530240570892744"><ele>192.0</ele><time>2026-04-28T14:07:44.999Z</time></trkpt><trkpt lat="40.74253110953685" lon="17.530186708592915"><ele>192.0</ele><time>2026-04-28T14:07:46.999Z</time></trkpt><trkpt lat="40.742640544924065" lon="17.530111505065378"><ele>192.0</ele><time>2026-04-28T14:07:48.999Z</time></trkpt><trkpt lat="40.742707839001746" lon="17.530076391912694"><ele>192.0</ele><time>2026-04-28T14:07:49.999Z</time></trkpt><trkpt lat="40.74277233511535" lon="17.53002879929001"><ele>192.0</ele><time>2026-04-28T14:07:50.999Z</time></trkpt><trkpt lat="40.74287039262007" lon="17.52993448852032"><ele>192.0</ele><time>2026-04-28T14:07:52.999Z</time></trkpt><trkpt lat="40.742967255871996" lon="17.52985562862375"><ele>192.39999999999998</ele><time>2026-04-28T14:07:54.999Z</time></trkpt><trkpt lat="40.743072724599074" lon="17.529769682853413"><ele>192.79999999999998</ele><time>2026-04-28T14:07:56.999Z</time></trkpt><trkpt lat="40.74314574658592" lon="17.529736943738182"><ele>193.2</ele><time>2026-04-28T14:07:57.999Z</time></trkpt><trkpt lat="40.74320051909844" lon="17.52969240666348"><ele>193.6</ele><time>2026-04-28T14:07:58.999Z</time></trkpt><trkpt lat="40.74330305358908" lon="17.529589072583153"><ele>194.0</ele><time>2026-04-28T14:08:00.999Z</time></trkpt><trkpt lat="40.74340551937448" lon="17.529520203732613"><ele>194.00000000000003</ele><time>2026-04-28T14:08:02.999Z</time></trkpt><trkpt lat="40.74347823874613" lon="17.529462520528448"><ele>194.0</ele><time>2026-04-28T14:08:04.999Z</time></trkpt><trkpt lat="40.7435360554063" lon="17.52942426660759"><ele>194.0</ele><time>2026-04-28T14:08:05.999Z</time></trkpt><trkpt lat="40.74360013425194" lon="17.52938054893578"><ele>194.0</ele><time>2026-04-28T14:08:06.999Z</time></trkpt><trkpt lat="40.743710767671985" lon="17.529318279693396"><ele>194.00000000000003</ele><time>2026-04-28T14:08:08.999Z</time></trkpt><trkpt lat="40.743769747812756" lon="17.5292555149655"><ele>194.0</ele><time>2026-04-28T14:08:10.999Z</time></trkpt><trkpt lat="40.74388494587293" lon="17.529231190884996"><ele>190.2</ele><time>2026-04-28T14:08:12.999Z</time></trkpt><trkpt lat="40.74398714293225" lon="17.52922983984641"><ele>186.39999999999998</ele><time>2026-04-28T14:08:14.999Z</time></trkpt><trkpt lat="40.74407243572339" lon="17.5291874182037"><ele>182.6</ele><time>2026-04-28T14:08:16.999Z</time></trkpt><trkpt lat="40.74413371608353" lon="17.529098353219084"><ele>178.8</ele><time>2026-04-28T14:08:18.999Z</time></trkpt><trkpt lat="40.74423778076227" lon="17.52910654718043"><ele>175.0</ele><time>2026-04-28T14:08:20.999Z</time></trkpt><trkpt lat="40.74433834316179" lon="17.52902751444512"><ele>172.4</ele><time>2026-04-28T14:08:22.999Z</time></trkpt><trkpt lat="40.74443106267817" lon="17.528956262146558"><ele>169.8</ele><time>2026-04-28T14:08:24.999Z</time></trkpt><trkpt lat="40.74448100192034" lon="17.528892252692895"><ele>167.2</ele><time>2026-04-28T14:08:27.999Z</time></trkpt><trkpt lat="40.74456417150503" lon="17.528875797167053"><ele>164.6</ele><time>2026-04-28T14:08:29.999Z</time></trkpt><trkpt lat="40.74466842066936" lon="17.52880908130237"><ele>162.0</ele><time>2026-04-28T14:08:31.998Z</time></trkpt><trkpt lat="40.74474821498313" lon="17.52873918019175"><ele>163.83333333333334</ele><time>2026-04-28T14:08:33.998Z</time></trkpt><trkpt lat="40.74476615460229" lon="17.52865613940481"><ele>165.66666666666666</ele><time>2026-04-28T14:08:36.998Z</time></trkpt><trkpt lat="40.74482302013289" lon="17.528605369932478"><ele>167.5</ele><time>2026-04-28T14:08:38.998Z</time></trkpt><trkpt lat="40.744903524321764" lon="17.528603498821802"><ele>169.33333333333331</ele><time>2026-04-28T14:08:40.998Z</time></trkpt><trkpt lat="40.7450120521804" lon="17.528513456948183"><ele>171.16666666666666</ele><time>2026-04-28T14:08:43Z</time></trkpt><trkpt lat="40.745077314106474" lon="17.52850726667829"><ele>173.0</ele><time>2026-04-28T14:08:44Z</time></trkpt><trkpt lat="40.745147237159756" lon="17.52848716214849"><ele>170.4</ele><time>2026-04-28T14:08:45Z</time></trkpt><trkpt lat="40.74522094267487" lon="17.528464916353137"><ele>167.8</ele><time>2026-04-28T14:08:46Z</time></trkpt><trkpt lat="40.74530727393412" lon="17.52843307830257"><ele>165.2</ele><time>2026-04-28T14:08:47Z</time></trkpt><trkpt lat="40.74540261243614" lon="17.52835222656447"><ele>162.6</ele><time>2026-04-28T14:08:49Z</time></trkpt><trkpt lat="40.745508549807845" lon="17.52829047283086"><ele>160.0</ele><time>2026-04-28T14:08:51Z</time></trkpt><trkpt lat="40.74556411454171" lon="17.528250497153216"><ele>160.0</ele><time>2026-04-28T14:08:52Z</time></trkpt><trkpt lat="40.74567445619997" lon="17.52818609000851"><ele>160.0</ele><time>2026-04-28T14:08:54Z</time></trkpt><trkpt lat="40.74577535280107" lon="17.52810125998207"><ele>160.0</ele><time>2026-04-28T14:08:56Z</time></trkpt><trkpt lat="40.745857408859024" lon="17.528027607100277"><ele>160.0</ele><time>2026-04-28T14:08:58Z</time></trkpt><trkpt lat="40.74591644906353" lon="17.52797008390382"><ele>160.0</ele><time>2026-04-28T14:09:00Z</time></trkpt><trkpt lat="40.74597576325776" lon="17.527916524696835"><ele>160.0</ele><time>2026-04-28T14:09:02Z</time></trkpt><trkpt lat="40.746043858551666" lon="17.527870085079982"><ele>160.0</ele><time>2026-04-28T14:09:04Z</time></trkpt><trkpt lat="40.74611592691896" lon="17.527807436646697"><ele>160.0</ele><time>2026-04-28T14:09:06Z</time></trkpt><trkpt lat="40.74618193249283" lon="17.527760064205182"><ele>160.0</ele><time>2026-04-28T14:09:08Z</time></trkpt><trkpt lat="40.7462492911008" lon="17.52773186570813"><ele>160.0</ele><time>2026-04-28T14:09:11Z</time></trkpt><trkpt lat="40.74632235079122" lon="17.527761783286678"><ele>160.0</ele><time>2026-04-28T14:09:15Z</time></trkpt><trkpt lat="40.74639499845282" lon="17.52774093008328"><ele>160.0</ele><time>2026-04-28T14:09:19Z</time></trkpt><trkpt lat="40.746466740720706" lon="17.527696842772237"><ele>160.0</ele><time>2026-04-28T14:09:21Z</time></trkpt><trkpt lat="40.74654549701984" lon="17.527635316958502"><ele>160.0</ele><time>2026-04-28T14:09:23Z</time></trkpt><trkpt lat="40.746629804724996" lon="17.527594249245304"><ele>160.0</ele><time>2026-04-28T14:09:26Z</time></trkpt><trkpt lat="40.74670621885108" lon="17.52753610509443"><ele>160.0</ele><time>2026-04-28T14:09:28Z</time></trkpt><trkpt lat="40.74673149033271" lon="17.52743248962823"><ele>160.0</ele><time>2026-04-28T14:09:29.999Z</time></trkpt><trkpt lat="40.746765957324264" lon="17.527304447539418"><ele>160.0</ele><time>2026-04-28T14:09:33.999Z</time></trkpt><trkpt lat="40.7468213700795" lon="17.527249184942214"><ele>160.0</ele><time>2026-04-28T14:09:35.999Z</time></trkpt><trkpt lat="40.7468941109714" lon="17.52720946713768"><ele>160.0</ele><time>2026-04-28T14:09:38.999Z</time></trkpt><trkpt lat="40.74696840429602" lon="17.527136491936236"><ele>160.0</ele><time>2026-04-28T14:09:40.999Z</time></trkpt><trkpt lat="40.74703716548792" lon="17.52709688340028"><ele>160.0</ele><time>2026-04-28T14:09:42.999Z</time></trkpt><trkpt lat="40.747130612862854" lon="17.52713150723081"><ele>160.0</ele><time>2026-04-28T14:09:44.999Z</time></trkpt><trkpt lat="40.74721114695912" lon="17.527098222223934"><ele>159.66666666666669</ele><time>2026-04-28T14:09:46.999Z</time></trkpt><trkpt lat="40.74723191599603" lon="17.527012774091034"><ele>159.33333333333334</ele><time>2026-04-28T14:09:48.999Z</time></trkpt><trkpt lat="40.74732052502435" lon="17.526961778172424"><ele>159.0</ele><time>2026-04-28T14:09:50.999Z</time></trkpt><trkpt lat="40.747394887294796" lon="17.52700948125957"><ele>158.66666666666666</ele><time>2026-04-28T14:09:52.999Z</time></trkpt><trkpt lat="40.7474801778496" lon="17.52698116510925"><ele>158.33333333333331</ele><time>2026-04-28T14:09:55.999Z</time></trkpt><trkpt lat="40.74753159782288" lon="17.52693311134098"><ele>158.0</ele><time>2026-04-28T14:09:56.999Z</time></trkpt><trkpt lat="40.7476159954641" lon="17.52688497367347"><ele>158.00000000000003</ele><time>2026-04-28T14:09:58.999Z</time></trkpt><trkpt lat="40.74768166879232" lon="17.526836504509944"><ele>158.0</ele><time>2026-04-28T14:10:00.999Z</time></trkpt><trkpt lat="40.74774383766125" lon="17.52680110330868"><ele>158.0</ele><time>2026-04-28T14:10:05.999Z</time></trkpt><trkpt lat="40.74783008408463" lon="17.526813826436403"><ele>158.0</ele><time>2026-04-28T14:10:07.999Z</time></trkpt><trkpt lat="40.747888599614726" lon="17.526777850674225"><ele>158.0</ele><time>2026-04-28T14:10:09.999Z</time></trkpt><trkpt lat="40.7479472461478" lon="17.52671863152506"><ele>158.00000000000003</ele><time>2026-04-28T14:10:11.999Z</time></trkpt><trkpt lat="40.74801340169973" lon="17.526689081594082"><ele>158.0</ele><time>2026-04-28T14:10:13.999Z</time></trkpt><trkpt lat="40.748078163501084" lon="17.526684905422748"><ele>155.66666666666666</ele><time>2026-04-28T14:10:17.999Z</time></trkpt><trkpt lat="40.74815766541324" lon="17.526680272646015"><ele>153.33333333333331</ele><time>2026-04-28T14:10:21.999Z</time></trkpt><trkpt lat="40.748246611407204" lon="17.526686861901474"><ele>151.0</ele><time>2026-04-28T14:10:25.999Z</time></trkpt><trkpt lat="40.74830735027262" lon="17.52670880470259"><ele>148.66666666666666</ele><time>2026-04-28T14:10:27.999Z</time></trkpt><trkpt lat="40.74835643798499" lon="17.52663129339126"><ele>146.33333333333334</ele><time>2026-04-28T14:10:29.999Z</time></trkpt><trkpt lat="40.748452546787796" lon="17.52657074150674"><ele>144.0</ele><time>2026-04-28T14:10:31.998Z</time></trkpt><trkpt lat="40.748530632240346" lon="17.526457633125087"><ele>143.0</ele><time>2026-04-28T14:10:33.998Z</time></trkpt><trkpt lat="40.748579663667684" lon="17.52635214708039"><ele>142.0</ele><time>2026-04-28T14:10:35.998Z</time></trkpt><trkpt lat="40.74864090346835" lon="17.52624663065966"><ele>141.0</ele><time>2026-04-28T14:10:37.998Z</time></trkpt><trkpt lat="40.74867370152133" lon="17.526115599345914"><ele>140.0</ele><time>2026-04-28T14:10:39.998Z</time></trkpt><trkpt lat="40.74873204500452" lon="17.526036260904863"><ele>139.0</ele><time>2026-04-28T14:10:41.998Z</time></trkpt><trkpt lat="40.748772446985036" lon="17.525960565203352"><ele>139.0</ele><time>2026-04-28T14:10:43.998Z</time></trkpt><trkpt lat="40.74882133414087" lon="17.525901606996946"><ele>139.0</ele><time>2026-04-28T14:10:46.998Z</time></trkpt><trkpt lat="40.7488127193486" lon="17.525799825748688"><ele>139.0</ele><time>2026-04-28T14:10:49Z</time></trkpt><trkpt lat="40.748865028447995" lon="17.525698468815015"><ele>139.0</ele><time>2026-04-28T14:10:52Z</time></trkpt><trkpt lat="40.74891124438779" lon="17.52560818910912"><ele>139.0</ele><time>2026-04-28T14:10:54Z</time></trkpt><trkpt lat="40.748907337737705" lon="17.52549955366139"><ele>139.0</ele><time>2026-04-28T14:10:56Z</time></trkpt><trkpt lat="40.74888903421008" lon="17.525384617359034"><ele>139.83333333333334</ele><time>2026-04-28T14:10:59Z</time></trkpt><trkpt lat="40.748849332213986" lon="17.52528891160772"><ele>140.66666666666669</ele><time>2026-04-28T14:11:01Z</time></trkpt><trkpt lat="40.74880974516286" lon="17.52522116122261"><ele>141.5</ele><time>2026-04-28T14:11:04Z</time></trkpt><trkpt lat="40.748835595907344" lon="17.52513337597266"><ele>142.33333333333334</ele><time>2026-04-28T14:11:06Z</time></trkpt><trkpt lat="40.748841841042214" lon="17.52503539648845"><ele>143.16666666666666</ele><time>2026-04-28T14:11:09Z</time></trkpt><trkpt lat="40.748849057864255" lon="17.52491112789063"><ele>144.0</ele><time>2026-04-28T14:11:12Z</time></trkpt><trkpt lat="40.74886277659458" lon="17.524818949300634"><ele>144.00000000000003</ele><time>2026-04-28T14:11:14Z</time></trkpt><trkpt lat="40.748894193680485" lon="17.524728243192804"><ele>144.0</ele><time>2026-04-28T14:11:17Z</time></trkpt><trkpt lat="40.74884839288554" lon="17.52464181972688"><ele>144.0</ele><time>2026-04-28T14:11:21Z</time></trkpt><trkpt lat="40.748792858052845" lon="17.52458273794689"><ele>144.0</ele><time>2026-04-28T14:11:41.999Z</time></trkpt><trkpt lat="40.74877244473036" lon="17.524502862837913"><ele>144.0</ele><time>2026-04-28T14:11:44.999Z</time></trkpt><trkpt lat="40.74874133609868" lon="17.524404064470026"><ele>144.00000000000003</ele><time>2026-04-28T14:11:48.999Z</time></trkpt><trkpt lat="40.748745279445856" lon="17.524301922461497"><ele>144.0</ele><time>2026-04-28T14:11:51.999Z</time></trkpt><trkpt lat="40.74874067261328" lon="17.524217090306408"><ele>144.16666666666666</ele><time>2026-04-28T14:11:53.999Z</time></trkpt><trkpt lat="40.74873343513877" lon="17.524107108500136"><ele>144.33333333333334</ele><time>2026-04-28T14:11:56.999Z</time></trkpt><trkpt lat="40.748707721973005" lon="17.524023853429018"><ele>144.5</ele><time>2026-04-28T14:11:59.999Z</time></trkpt><trkpt lat="40.748648326367906" lon="17.524052277629448"><ele>144.66666666666669</ele><time>2026-04-28T14:12:01.999Z</time></trkpt><trkpt lat="40.74860644401846" lon="17.524150693312187"><ele>144.83333333333334</ele><time>2026-04-28T14:12:03.999Z</time></trkpt><trkpt lat="40.74855932409678" lon="17.52424113118183"><ele>145.0</ele><time>2026-04-28T14:12:05.999Z</time></trkpt><trkpt lat="40.74849999047879" lon="17.52437618768711"><ele>147.66666666666669</ele><time>2026-04-28T14:12:07.999Z</time></trkpt><trkpt lat="40.748446664074365" lon="17.524487198365158"><ele>150.33333333333334</ele><time>2026-04-28T14:12:09.999Z</time></trkpt><trkpt lat="40.74840308048152" lon="17.524597470799986"><ele>153.0</ele><time>2026-04-28T14:12:11.999Z</time></trkpt><trkpt lat="40.74838632041439" lon="17.524706620284597"><ele>155.66666666666666</ele><time>2026-04-28T14:12:13.999Z</time></trkpt><trkpt lat="40.748369564169316" lon="17.524826218774496"><ele>158.33333333333331</ele><time>2026-04-28T14:12:15.999Z</time></trkpt><trkpt lat="40.74833513400961" lon="17.524918218039357"><ele>161.0</ele><time>2026-04-28T14:12:17.999Z</time></trkpt><trkpt lat="40.748302982492376" lon="17.525033347267502"><ele>161.0</ele><time>2026-04-28T14:12:19.999Z</time></trkpt><trkpt lat="40.74826226830129" lon="17.525138103190596"><ele>161.0</ele><time>2026-04-28T14:12:21.999Z</time></trkpt><trkpt lat="40.748189875363" lon="17.52516786908875"><ele>161.0</ele><time>2026-04-28T14:12:23.999Z</time></trkpt><trkpt lat="40.74812672721554" lon="17.525106185401484"><ele>161.0</ele><time>2026-04-28T14:12:26.999Z</time></trkpt><trkpt lat="40.74806038545194" lon="17.525032908071378"><ele>161.0</ele><time>2026-04-28T14:12:29.999Z</time></trkpt><trkpt lat="40.7480450448134" lon="17.52492085001483"><ele>161.0</ele><time>2026-04-28T14:12:41.998Z</time></trkpt><trkpt lat="40.74808821657295" lon="17.524809506934734"><ele>161.0</ele><time>2026-04-28T14:12:45.998Z</time></trkpt><trkpt lat="40.748112237953706" lon="17.524717927628608"><ele>161.0</ele><time>2026-04-28T14:12:47.998Z</time></trkpt><trkpt lat="40.74814662427885" lon="17.52462583684004"><ele>161.0</ele><time>2026-04-28T14:12:49.998Z</time></trkpt><trkpt lat="40.748186787442584" lon="17.524529764159944"><ele>161.0</ele><time>2026-04-28T14:12:51.998Z</time></trkpt><trkpt lat="40.748212601213396" lon="17.524428204421213"><ele>161.0</ele><time>2026-04-28T14:12:54Z</time></trkpt><trkpt lat="40.748236023039" lon="17.5243400088324"><ele>161.0</ele><time>2026-04-28T14:12:56Z</time></trkpt><trkpt lat="40.74825064565767" lon="17.52422024891121"><ele>161.8</ele><time>2026-04-28T14:12:59Z</time></trkpt><trkpt lat="40.74830551955624" lon="17.52410908573398"><ele>162.60000000000002</ele><time>2026-04-28T14:13:02Z</time></trkpt><trkpt lat="40.74834820026876" lon="17.52400775302122"><ele>163.4</ele><time>2026-04-28T14:13:04Z</time></trkpt><trkpt lat="40.74842564550437" lon="17.52388844313789"><ele>164.2</ele><time>2026-04-28T14:13:06Z</time></trkpt><trkpt lat="40.74847352474228" lon="17.52379430180392"><ele>165.0</ele><time>2026-04-28T14:13:08Z</time></trkpt><trkpt lat="40.748509676765" lon="17.523710268509177"><ele>162.83333333333334</ele><time>2026-04-28T14:13:10Z</time></trkpt><trkpt lat="40.74854826060815" lon="17.523642437413507"><ele>160.66666666666666</ele><time>2026-04-28T14:13:12Z</time></trkpt><trkpt lat="40.7485878576981" lon="17.52353085721945"><ele>158.5</ele><time>2026-04-28T14:13:15Z</time></trkpt><trkpt lat="40.74861144516059" lon="17.523440069177685"><ele>156.33333333333331</ele><time>2026-04-28T14:13:17Z</time></trkpt><trkpt lat="40.74863914904343" lon="17.523340055873998"><ele>154.16666666666666</ele><time>2026-04-28T14:13:19Z</time></trkpt><trkpt lat="40.748682001483104" lon="17.523274490516556"><ele>152.0</ele><time>2026-04-28T14:13:21Z</time></trkpt><trkpt lat="40.748728383090864" lon="17.523184658010294"><ele>152.0</ele><time>2026-04-28T14:13:23Z</time></trkpt><trkpt lat="40.748779062148664" lon="17.52310236859852"><ele>152.0</ele><time>2026-04-28T14:13:25Z</time></trkpt><trkpt lat="40.74880728460636" lon="17.523012296506785"><ele>152.0</ele><time>2026-04-28T14:13:27Z</time></trkpt><trkpt lat="40.74883661387117" lon="17.52292841496844"><ele>152.0</ele><time>2026-04-28T14:13:29Z</time></trkpt><trkpt lat="40.74887329851202" lon="17.522852162598554"><ele>152.0</ele><time>2026-04-28T14:13:31Z</time></trkpt><trkpt lat="40.748912033911374" lon="17.52277890567601"><ele>152.0</ele><time>2026-04-28T14:13:33Z</time></trkpt><trkpt lat="40.748954131833386" lon="17.522709282353162"><ele>152.0</ele><time>2026-04-28T14:13:35Z</time></trkpt><trkpt lat="40.748987786326396" lon="17.52262613465408"><ele>151.16666666666666</ele><time>2026-04-28T14:13:37Z</time></trkpt><trkpt lat="40.74904744869157" lon="17.52255261273353"><ele>150.33333333333331</ele><time>2026-04-28T14:13:40Z</time></trkpt><trkpt lat="40.749105884280276" lon="17.52251142653959"><ele>149.5</ele><time>2026-04-28T14:13:41.999Z</time></trkpt><trkpt lat="40.749180985050984" lon="17.522429807395124"><ele>148.66666666666666</ele><time>2026-04-28T14:13:43.999Z</time></trkpt><trkpt lat="40.74923545639565" lon="17.522356551750136"><ele>147.83333333333334</ele><time>2026-04-28T14:13:45.999Z</time></trkpt><trkpt lat="40.749320509870735" lon="17.52232339221392"><ele>147.0</ele><time>2026-04-28T14:13:47.999Z</time></trkpt><trkpt lat="40.7493783006779" lon="17.522252269982662"><ele>147.0</ele><time>2026-04-28T14:13:49.999Z</time></trkpt><trkpt lat="40.74944954221678" lon="17.522166219385102"><ele>147.0</ele><time>2026-04-28T14:13:51.999Z</time></trkpt><trkpt lat="40.74950935564341" lon="17.52208844737168"><ele>147.0</ele><time>2026-04-28T14:13:53.999Z</time></trkpt><trkpt lat="40.749555760794436" lon="17.521987645579266"><ele>147.0</ele><time>2026-04-28T14:13:55.999Z</time></trkpt><trkpt lat="40.74960604763389" lon="17.521915563308387"><ele>147.0</ele><time>2026-04-28T14:13:57.999Z</time></trkpt><trkpt lat="40.74966364132091" lon="17.52184313686404"><ele>147.0</ele><time>2026-04-28T14:14:00.999Z</time></trkpt><trkpt lat="40.74974680733212" lon="17.5217994788122"><ele>148.33333333333334</ele><time>2026-04-28T14:14:03.999Z</time></trkpt><trkpt lat="40.74981288396692" lon="17.521776947920383"><ele>149.66666666666666</ele><time>2026-04-28T14:14:06.999Z</time></trkpt><trkpt lat="40.74990746321199" lon="17.521812752869202"><ele>151.0</ele><time>2026-04-28T14:14:08.999Z</time></trkpt><trkpt lat="40.749978649221326" lon="17.52180453430385"><ele>152.33333333333331</ele><time>2026-04-28T14:14:10.999Z</time></trkpt><trkpt lat="40.75004462865822" lon="17.521742918931206"><ele>153.66666666666666</ele><time>2026-04-28T14:14:12.999Z</time></trkpt><trkpt lat="40.75015858613811" lon="17.521683668806478"><ele>155.0</ele><time>2026-04-28T14:14:16.999Z</time></trkpt><trkpt lat="40.75026110587558" lon="17.521607169474656"><ele>155.0</ele><time>2026-04-28T14:14:18.999Z</time></trkpt><trkpt lat="40.7503129113019" lon="17.521558369333928"><ele>155.0</ele><time>2026-04-28T14:14:19.999Z</time></trkpt><trkpt lat="40.75037225909211" lon="17.521467376363145"><ele>155.0</ele><time>2026-04-28T14:14:21.999Z</time></trkpt><trkpt lat="40.75040038924954" lon="17.52137529288901"><ele>155.0</ele><time>2026-04-28T14:14:24.999Z</time></trkpt><trkpt lat="40.750403946266864" lon="17.52128235053526"><ele>155.0</ele><time>2026-04-28T14:14:26.999Z</time></trkpt><trkpt lat="40.7504023284585" lon="17.521157263875995"><ele>155.0</ele><time>2026-04-28T14:14:29.999Z</time></trkpt><trkpt lat="40.75037506215554" lon="17.521066489499038"><ele>155.71428571428572</ele><time>2026-04-28T14:14:32.999Z</time></trkpt><trkpt lat="40.7503113649021" lon="17.52100253132388"><ele>156.42857142857142</ele><time>2026-04-28T14:14:35.999Z</time></trkpt><trkpt lat="40.750255389033164" lon="17.520924961994922"><ele>157.14285714285714</ele><time>2026-04-28T14:14:38.999Z</time></trkpt><trkpt lat="40.75019356590588" lon="17.52087443793678"><ele>157.85714285714286</ele><time>2026-04-28T14:14:40.998Z</time></trkpt><trkpt lat="40.75014769886528" lon="17.520817054316524"><ele>158.57142857142858</ele><time>2026-04-28T14:14:50.998Z</time></trkpt><trkpt lat="40.750098870745916" lon="17.520737979777472"><ele>159.28571428571428</ele><time>2026-04-28T14:14:53.998Z</time></trkpt><trkpt lat="40.750041707114754" lon="17.520681173280433"><ele>160.0</ele><time>2026-04-28T14:14:56.998Z</time></trkpt><trkpt lat="40.74996952958073" lon="17.520630873560034"><ele>160.33333333333334</ele><time>2026-04-28T14:15:01Z</time></trkpt><trkpt lat="40.74989086588344" lon="17.520584500869777"><ele>160.66666666666669</ele><time>2026-04-28T14:15:04Z</time></trkpt><trkpt lat="40.74981590902402" lon="17.52056196466481"><ele>161.0</ele><time>2026-04-28T14:15:08Z</time></trkpt><trkpt lat="40.749757195236185" lon="17.520512822194956"><ele>161.33333333333334</ele><time>2026-04-28T14:15:11Z</time></trkpt><trkpt lat="40.74968892244985" lon="17.52048317657299"><ele>161.66666666666666</ele><time>2026-04-28T14:15:14Z</time></trkpt><trkpt lat="40.74961094150603" lon="17.520419378334957"><ele>162.0</ele><time>2026-04-28T14:15:17Z</time></trkpt><trkpt lat="40.74953913764921" lon="17.520365729303983"><ele>162.0</ele><time>2026-04-28T14:15:20Z</time></trkpt><trkpt lat="40.749465356467844" lon="17.520307874608495"><ele>162.0</ele><time>2026-04-28T14:15:23Z</time></trkpt><trkpt lat="40.74940091951882" lon="17.520269470598137"><ele>162.0</ele><time>2026-04-28T14:15:26Z</time></trkpt><trkpt lat="40.74933433254035" lon="17.520202020123833"><ele>162.0</ele><time>2026-04-28T14:15:29Z</time></trkpt><trkpt lat="40.74926786533446" lon="17.520143275519622"><ele>162.0</ele><time>2026-04-28T14:15:32Z</time></trkpt><trkpt lat="40.74919526507025" lon="17.52007833157677"><ele>162.0</ele><time>2026-04-28T14:15:35Z</time></trkpt><trkpt lat="40.749115589590716" lon="17.520018805890075"><ele>163.5</ele><time>2026-04-28T14:15:38Z</time></trkpt><trkpt lat="40.749031422008116" lon="17.51996147039721"><ele>165.0</ele><time>2026-04-28T14:15:41Z</time></trkpt><trkpt lat="40.74894893879603" lon="17.51992347987112"><ele>166.5</ele><time>2026-04-28T14:15:43.999Z</time></trkpt><trkpt lat="40.7488666528859" lon="17.519878523750283"><ele>168.0</ele><time>2026-04-28T14:15:46.999Z</time></trkpt><trkpt lat="40.748781569769335" lon="17.51985309393224"><ele>169.5</ele><time>2026-04-28T14:15:49.999Z</time></trkpt><trkpt lat="40.74870915975418" lon="17.51982359611495"><ele>171.0</ele><time>2026-04-28T14:15:52.999Z</time></trkpt><trkpt lat="40.748647676160395" lon="17.519793315096543"><ele>170.99999999999997</ele><time>2026-04-28T14:15:54.999Z</time></trkpt><trkpt lat="40.74857710959508" lon="17.519750896530965"><ele>171.0</ele><time>2026-04-28T14:15:57.999Z</time></trkpt><trkpt lat="40.748519247180404" lon="17.51967644834623"><ele>171.0</ele><time>2026-04-28T14:16:00.999Z</time></trkpt><trkpt lat="40.74847521910564" lon="17.519616609909686"><ele>171.0</ele><time>2026-04-28T14:16:02.999Z</time></trkpt><trkpt lat="40.748420379146594" lon="17.51954733746056"><ele>171.0</ele><time>2026-04-28T14:16:04.999Z</time></trkpt><trkpt lat="40.74836838435399" lon="17.519480973386173"><ele>170.99999999999997</ele><time>2026-04-28T14:16:06.999Z</time></trkpt><trkpt lat="40.74830878276042" lon="17.51941754799536"><ele>171.0</ele><time>2026-04-28T14:16:08.999Z</time></trkpt><trkpt lat="40.748247842972695" lon="17.51935121327918"><ele>170.83333333333334</ele><time>2026-04-28T14:16:10.999Z</time></trkpt><trkpt lat="40.74820012626698" lon="17.519290698126024"><ele>170.66666666666666</ele><time>2026-04-28T14:16:12.999Z</time></trkpt><trkpt lat="40.748143918138986" lon="17.519234671807652"><ele>170.5</ele><time>2026-04-28T14:16:14.999Z</time></trkpt><trkpt lat="40.74807219455614" lon="17.519151959101425"><ele>170.33333333333331</ele><time>2026-04-28T14:16:17.999Z</time></trkpt><trkpt lat="40.74803446237377" lon="17.519078483631183"><ele>170.16666666666666</ele><time>2026-04-28T14:16:19.999Z</time></trkpt><trkpt lat="40.74799450883765" lon="17.518941965249457"><ele>170.0</ele><time>2026-04-28T14:16:21.999Z</time></trkpt><trkpt lat="40.74793160435932" lon="17.518823620440084"><ele>169.6</ele><time>2026-04-28T14:16:23.999Z</time></trkpt><trkpt lat="40.74785289086376" lon="17.518727213771022"><ele>169.2</ele><time>2026-04-28T14:16:25.999Z</time></trkpt><trkpt lat="40.74777371381624" lon="17.518625541769055"><ele>168.8</ele><time>2026-04-28T14:16:27.999Z</time></trkpt><trkpt lat="40.74767677749172" lon="17.518584147355313"><ele>168.4</ele><time>2026-04-28T14:16:29.999Z</time></trkpt><trkpt lat="40.7475813540133" lon="17.51853935587566"><ele>168.0</ele><time>2026-04-28T14:16:31.999Z</time></trkpt><trkpt lat="40.74748352778687" lon="17.518510953113907"><ele>168.0</ele><time>2026-04-28T14:16:33.999Z</time></trkpt><trkpt lat="40.747438254511025" lon="17.51843198601519"><ele>168.0</ele><time>2026-04-28T14:16:35.999Z</time></trkpt><trkpt lat="40.74741652125274" lon="17.518330040710055"><ele>168.0</ele><time>2026-04-28T14:16:37.999Z</time></trkpt><trkpt lat="40.747404453466466" lon="17.51820553904601"><ele>168.0</ele><time>2026-04-28T14:16:39.999Z</time></trkpt><trkpt lat="40.74734165556088" lon="17.51809754727721"><ele>168.0</ele><time>2026-04-28T14:16:42.998Z</time></trkpt><trkpt lat="40.74729633238503" lon="17.518036501058173"><ele>168.0</ele><time>2026-04-28T14:16:44.998Z</time></trkpt><trkpt lat="40.74721810664754" lon="17.517941665440674"><ele>166.16666666666666</ele><time>2026-04-28T14:16:47.998Z</time></trkpt><trkpt lat="40.74716945368933" lon="17.517872612720033"><ele>164.33333333333334</ele><time>2026-04-28T14:16:49.998Z</time></trkpt><trkpt lat="40.74709776975375" lon="17.517838869036808"><ele>162.5</ele><time>2026-04-28T14:16:51.998Z</time></trkpt><trkpt lat="40.74705572263552" lon="17.517771063809068"><ele>160.66666666666669</ele><time>2026-04-28T14:16:53.998Z</time></trkpt><trkpt lat="40.747083471294516" lon="17.517685258126168"><ele>158.83333333333334</ele><time>2026-04-28T14:16:55.998Z</time></trkpt><trkpt lat="40.74708630630349" lon="17.517567227073506"><ele>157.0</ele><time>2026-04-28T14:16:58.998Z</time></trkpt><trkpt lat="40.74706095823654" lon="17.517452352490288"><ele>157.0</ele><time>2026-04-28T14:17:01.998Z</time></trkpt><trkpt lat="40.747019493819465" lon="17.5173395634639"><ele>157.0</ele><time>2026-04-28T14:17:05Z</time></trkpt><trkpt lat="40.74697319714436" lon="17.517272847305335"><ele>157.0</ele><time>2026-04-28T14:17:07Z</time></trkpt><trkpt lat="40.746887859910146" lon="17.517282250500912"><ele>157.0</ele><time>2026-04-28T14:17:10Z</time></trkpt><trkpt lat="40.74682318083234" lon="17.51733517742152"><ele>157.0</ele><time>2026-04-28T14:17:13Z</time></trkpt><trkpt lat="40.746756198005635" lon="17.51728047200176"><ele>157.0</ele><time>2026-04-28T14:17:16Z</time></trkpt><trkpt lat="40.746695462341314" lon="17.517226281431935"><ele>158.0</ele><time>2026-04-28T14:17:19Z</time></trkpt><trkpt lat="40.74661250248152" lon="17.517144748627537"><ele>159.0</ele><time>2026-04-28T14:17:22Z</time></trkpt><trkpt lat="40.746559166049295" lon="17.517064491136235"><ele>160.0</ele><time>2026-04-28T14:17:25Z</time></trkpt><trkpt lat="40.74650324792967" lon="17.517019674368075"><ele>161.0</ele><time>2026-04-28T14:17:27Z</time></trkpt><trkpt lat="40.74643639614395" lon="17.516956497074542"><ele>162.0</ele><time>2026-04-28T14:17:30Z</time></trkpt><trkpt lat="40.74637684647839" lon="17.516895180427642"><ele>163.0</ele><time>2026-04-28T14:17:32Z</time></trkpt><trkpt lat="40.74632023545779" lon="17.51684571660958"><ele>163.0</ele><time>2026-04-28T14:17:35Z</time></trkpt><trkpt lat="40.74627403214753" lon="17.516779833053807"><ele>163.0</ele><time>2026-04-28T14:17:38Z</time></trkpt><trkpt lat="40.74622564481738" lon="17.516715778208294"><ele>163.0</ele><time>2026-04-28T14:17:40Z</time></trkpt><trkpt lat="40.74617880246416" lon="17.516655849854267"><ele>163.0</ele><time>2026-04-28T14:17:42Z</time></trkpt><trkpt lat="40.74611599326213" lon="17.516562395411697"><ele>163.0</ele><time>2026-04-28T14:17:45Z</time></trkpt><trkpt lat="40.74607006209906" lon="17.51650270051535"><ele>163.0</ele><time>2026-04-28T14:17:46.999Z</time></trkpt><trkpt lat="40.74606607783331" lon="17.5164009240889"><ele>163.0</ele><time>2026-04-28T14:17:49.999Z</time></trkpt><trkpt lat="40.74605445253674" lon="17.516317019848156"><ele>164.5</ele><time>2026-04-28T14:17:51.999Z</time></trkpt><trkpt lat="40.745989286244914" lon="17.516241895832668"><ele>166.0</ele><time>2026-04-28T14:17:54.999Z</time></trkpt><trkpt lat="40.74592506913782" lon="17.516161275540814"><ele>167.5</ele><time>2026-04-28T14:18:00.999Z</time></trkpt><trkpt lat="40.7458678453835" lon="17.516067317974827"><ele>169.0</ele><time>2026-04-28T14:18:04.999Z</time></trkpt><trkpt lat="40.74580340422859" lon="17.51599098244635"><ele>170.5</ele><time>2026-04-28T14:18:07.999Z</time></trkpt><trkpt lat="40.745749409343645" lon="17.51594651384774"><ele>172.0</ele><time>2026-04-28T14:18:09.999Z</time></trkpt><trkpt lat="40.745685838152255" lon="17.515847527549994"><ele>172.0</ele><time>2026-04-28T14:18:12.999Z</time></trkpt><trkpt lat="40.74562833508855" lon="17.51580275521728"><ele>172.0</ele><time>2026-04-28T14:18:14.999Z</time></trkpt><trkpt lat="40.745585762056805" lon="17.51572794324978"><ele>172.0</ele><time>2026-04-28T14:18:16.999Z</time></trkpt><trkpt lat="40.74553132248863" lon="17.51566016203627"><ele>172.0</ele><time>2026-04-28T14:18:18.999Z</time></trkpt><trkpt lat="40.74546112564141" lon="17.515610432021035"><ele>172.0</ele><time>2026-04-28T14:18:20.999Z</time></trkpt><trkpt lat="40.74537936872381" lon="17.515586918257707"><ele>172.0</ele><time>2026-04-28T14:18:22.999Z</time></trkpt><trkpt lat="40.745295710020656" lon="17.515612296382624"><ele>174.0</ele><time>2026-04-28T14:18:24.999Z</time></trkpt><trkpt lat="40.74521058427964" lon="17.51558202516111"><ele>176.0</ele><time>2026-04-28T14:18:27.999Z</time></trkpt><trkpt lat="40.74514728471523" lon="17.51555105041158"><ele>178.0</ele><time>2026-04-28T14:18:29.999Z</time></trkpt><trkpt lat="40.74512684607788" lon="17.515471729248997"><ele>180.0</ele><time>2026-04-28T14:18:33.999Z</time></trkpt><trkpt lat="40.7450646443595" lon="17.515492693974632"><ele>182.0</ele><time>2026-04-28T14:18:41.999Z</time></trkpt><trkpt lat="40.745005062781836" lon="17.515571889255074"><ele>184.0</ele><time>2026-04-28T14:18:47.998Z</time></trkpt><trkpt lat="40.74491970996726" lon="17.515575219387106"><ele>184.0</ele><time>2026-04-28T14:18:51.998Z</time></trkpt><trkpt lat="40.744851202099895" lon="17.515615571187332"><ele>184.0</ele><time>2026-04-28T14:18:55.998Z</time></trkpt><trkpt lat="40.74477926716482" lon="17.51563083021932"><ele>184.0</ele><time>2026-04-28T14:18:58.998Z</time></trkpt><trkpt lat="40.744705593006465" lon="17.515638421987585"><ele>184.0</ele><time>2026-04-28T14:19:01.998Z</time></trkpt><trkpt lat="40.74464245317265" lon="17.51564915374829"><ele>184.0</ele><time>2026-04-28T14:19:04.998Z</time></trkpt><trkpt lat="40.7445811416717" lon="17.515668855722076"><ele>184.0</ele><time>2026-04-28T14:19:07.998Z</time></trkpt><trkpt lat="40.744515884077806" lon="17.51567521647337"><ele>184.0</ele><time>2026-04-28T14:19:09.998Z</time></trkpt><trkpt lat="40.74446439104236" lon="17.515724178756486"><ele>184.0</ele><time>2026-04-28T14:19:12Z</time></trkpt><trkpt lat="40.74438919916446" lon="17.51570532309221"><ele>184.0</ele><time>2026-04-28T14:19:15Z</time></trkpt><trkpt lat="40.74430174246546" lon="17.51572775383463"><ele>184.0</ele><time>2026-04-28T14:19:18Z</time></trkpt><trkpt lat="40.744224155125586" lon="17.51572327105531"><ele>184.0</ele><time>2026-04-28T14:19:21Z</time></trkpt><trkpt lat="40.74416415030673" lon="17.515780744406765"><ele>184.0</ele><time>2026-04-28T14:19:25Z</time></trkpt><trkpt lat="40.7441001567537" lon="17.51583557061124"><ele>184.0</ele><time>2026-04-28T14:19:29Z</time></trkpt><trkpt lat="40.74407403714524" lon="17.51591343729971"><ele>186.14285714285714</ele><time>2026-04-28T14:20:02.999Z</time></trkpt><trkpt lat="40.744108820889736" lon="17.515991908553925"><ele>188.28571428571428</ele><time>2026-04-28T14:20:32.999Z</time></trkpt><trkpt lat="40.74413891256925" lon="17.516077779484633"><ele>190.42857142857142</ele><time>2026-04-28T14:20:40.999Z</time></trkpt><trkpt lat="40.74416137789679" lon="17.516169945189965"><ele>192.57142857142856</ele><time>2026-04-28T14:20:44.999Z</time></trkpt><trkpt lat="40.744194142092276" lon="17.51626424169206"><ele>194.71428571428572</ele><time>2026-04-28T14:20:47.998Z</time></trkpt><trkpt lat="40.744206476846095" lon="17.516362319643328"><ele>196.85714285714283</ele><time>2026-04-28T14:20:50.998Z</time></trkpt><trkpt lat="40.74423303680876" lon="17.516460841431634"><ele>199.0</ele><time>2026-04-28T14:20:53.998Z</time></trkpt><trkpt lat="40.74426382976777" lon="17.516547924354356"><ele>198.99999999999997</ele><time>2026-04-28T14:20:56.998Z</time></trkpt><trkpt lat="40.744302033657675" lon="17.516658572325007"><ele>199.0</ele><time>2026-04-28T14:20:59.998Z</time></trkpt><trkpt lat="40.744322394749354" lon="17.516757643549692"><ele>199.0</ele><time>2026-04-28T14:21:02.998Z</time></trkpt><trkpt lat="40.74435340016528" lon="17.516867777138046"><ele>199.0</ele><time>2026-04-28T14:21:05.998Z</time></trkpt><trkpt lat="40.744384485275084" lon="17.516978571042102"><ele>198.99999999999997</ele><time>2026-04-28T14:21:08.998Z</time></trkpt><trkpt lat="40.7444178129625" lon="17.51708816816515"><ele>199.0</ele><time>2026-04-28T14:21:11.998Z</time></trkpt><trkpt lat="40.74444206320051" lon="17.517204245716165"><ele>198.99999999999997</ele><time>2026-04-28T14:21:15.998Z</time></trkpt><trkpt lat="40.744468471348576" lon="17.517285433382398"><ele>199.0</ele><time>2026-04-28T14:21:19Z</time></trkpt><trkpt lat="40.74449585542344" lon="17.51738468882965"><ele>199.0</ele><time>2026-04-28T14:21:22Z</time></trkpt><trkpt lat="40.74451407942331" lon="17.5174731103814"><ele>199.0</ele><time>2026-04-28T14:21:25Z</time></trkpt><trkpt lat="40.7445320673981" lon="17.51757698167522"><ele>198.99999999999997</ele><time>2026-04-28T14:21:28Z</time></trkpt><trkpt lat="40.74457312311991" lon="17.517671802274815"><ele>199.0</ele><time>2026-04-28T14:21:31Z</time></trkpt><trkpt lat="40.744595763052054" lon="17.517762153218214"><ele>198.99999999999997</ele><time>2026-04-28T14:21:34Z</time></trkpt><trkpt lat="40.744628394728586" lon="17.517849748118103"><ele>199.0</ele><time>2026-04-28T14:21:37Z</time></trkpt><trkpt lat="40.74465080408875" lon="17.51794869498827"><ele>199.0</ele><time>2026-04-28T14:21:40Z</time></trkpt><trkpt lat="40.74467215797176" lon="17.51805489937857"><ele>199.0</ele><time>2026-04-28T14:21:43Z</time></trkpt><trkpt lat="40.744694411382405" lon="17.5181428054239"><ele>198.99999999999997</ele><time>2026-04-28T14:21:46Z</time></trkpt><trkpt lat="40.74472116028985" lon="17.518241952855835"><ele>199.0</ele><time>2026-04-28T14:21:49Z</time></trkpt><trkpt lat="40.74475554211876" lon="17.518337466163914"><ele>201.28571428571428</ele><time>2026-04-28T14:21:52Z</time></trkpt><trkpt lat="40.7447596846297" lon="17.51842045335717"><ele>203.57142857142856</ele><time>2026-04-28T14:21:54.999Z</time></trkpt><trkpt lat="40.744788660264916" lon="17.51850197593892"><ele>205.85714285714283</ele><time>2026-04-28T14:21:57.999Z</time></trkpt><trkpt lat="40.74481317348439" lon="17.518589017477748"><ele>208.14285714285714</ele><time>2026-04-28T14:22:00.999Z</time></trkpt><trkpt lat="40.744831003477245" lon="17.51867634908296"><ele>210.42857142857144</ele><time>2026-04-28T14:22:03.999Z</time></trkpt><trkpt lat="40.74485643771426" lon="17.518782627471147"><ele>212.7142857142857</ele><time>2026-04-28T14:22:07.999Z</time></trkpt><trkpt lat="40.7449067485356" lon="17.51886528111674"><ele>215.0</ele><time>2026-04-28T14:22:10.999Z</time></trkpt><trkpt lat="40.74492743778188" lon="17.51896003087766"><ele>218.16666666666669</ele><time>2026-04-28T14:22:14.999Z</time></trkpt><trkpt lat="40.74498104079757" lon="17.519086206127785"><ele>221.33333333333334</ele><time>2026-04-28T14:22:18.999Z</time></trkpt><trkpt lat="40.74502620600176" lon="17.519202480622507"><ele>224.5</ele><time>2026-04-28T14:22:22.999Z</time></trkpt><trkpt lat="40.744970132240276" lon="17.519255198774342"><ele>227.66666666666669</ele><time>2026-04-28T14:22:28.999Z</time></trkpt><trkpt lat="40.74491254068544" lon="17.519198275795766"><ele>230.83333333333334</ele><time>2026-04-28T14:22:31.999Z</time></trkpt><trkpt lat="40.74484532162466" lon="17.519187059381476"><ele>234.0</ele><time>2026-04-28T14:22:44.999Z</time></trkpt><trkpt lat="40.74478117792542" lon="17.51915200794947"><ele>234.0</ele><time>2026-04-28T14:22:48.999Z</time></trkpt><trkpt lat="40.74477151120045" lon="17.519243582452745"><ele>234.0</ele><time>2026-04-28T14:22:52.998Z</time></trkpt><trkpt lat="40.744817885735884" lon="17.51930646818841"><ele>234.0</ele><time>2026-04-28T14:22:54.998Z</time></trkpt><trkpt lat="40.74488541545432" lon="17.519392335448952"><ele>234.0</ele><time>2026-04-28T14:22:57.998Z</time></trkpt><trkpt lat="40.744941430180546" lon="17.519454881519234"><ele>234.0</ele><time>2026-04-28T14:22:59.998Z</time></trkpt><trkpt lat="40.74500510359775" lon="17.519540926061538"><ele>234.0</ele><time>2026-04-28T14:23:02.998Z</time></trkpt><trkpt lat="40.74507516621264" lon="17.519602388781124"><ele>236.0</ele><time>2026-04-28T14:23:05.998Z</time></trkpt><trkpt lat="40.74512997391875" lon="17.519657397678337"><ele>238.00000000000003</ele><time>2026-04-28T14:23:08.998Z</time></trkpt><trkpt lat="40.7451640077247" lon="17.519733603466335"><ele>240.0</ele><time>2026-04-28T14:23:11.998Z</time></trkpt><trkpt lat="40.745171983730934" lon="17.519819357095574"><ele>242.0</ele><time>2026-04-28T14:23:14.998Z</time></trkpt><trkpt lat="40.74514762070523" lon="17.51989885592741"><ele>244.00000000000003</ele><time>2026-04-28T14:23:19.998Z</time></trkpt><trkpt lat="40.74508178308396" lon="17.519888101021056"><ele>246.0</ele><time>2026-04-28T14:23:23Z</time></trkpt><trkpt lat="40.745026075656966" lon="17.519829619889023"><ele>248.0</ele><time>2026-04-28T14:23:26Z</time></trkpt><trkpt lat="40.74495212916352" lon="17.519794873994343"><ele>248.0</ele><time>2026-04-28T14:23:29Z</time></trkpt><trkpt lat="40.74488399652055" lon="17.519763874270353"><ele>248.00000000000003</ele><time>2026-04-28T14:23:32Z</time></trkpt><trkpt lat="40.744823709044574" lon="17.519718069297987"><ele>248.0</ele><time>2026-04-28T14:23:35Z</time></trkpt><trkpt lat="40.74474571781713" lon="17.51970956190424"><ele>248.0</ele><time>2026-04-28T14:23:39Z</time></trkpt><trkpt lat="40.744739591871976" lon="17.519794392027546"><ele>248.00000000000003</ele><time>2026-04-28T14:23:42Z</time></trkpt><trkpt lat="40.744776453734794" lon="17.519880782097825"><ele>248.0</ele><time>2026-04-28T14:23:45Z</time></trkpt><trkpt lat="40.74479333882273" lon="17.519980072347195"><ele>248.0</ele><time>2026-04-28T14:23:49Z</time></trkpt><trkpt lat="40.744785020587855" lon="17.520079202435106"><ele>248.00000000000003</ele><time>2026-04-28T14:23:52Z</time></trkpt><trkpt lat="40.744773103160036" lon="17.520168272458996"><ele>248.0</ele><time>2026-04-28T14:23:56Z</time></trkpt><trkpt lat="40.74476309024084" lon="17.5202637129667"><ele>248.0</ele><time>2026-04-28T14:23:59Z</time></trkpt><trkpt lat="40.744739874518324" lon="17.5203692742352"><ele>248.0</ele><time>2026-04-28T14:24:02.999Z</time></trkpt><trkpt lat="40.74471478229579" lon="17.520449908657845"><ele>248.00000000000003</ele><time>2026-04-28T14:24:05.999Z</time></trkpt><trkpt lat="40.74467083670187" lon="17.520530300011917"><ele>248.0</ele><time>2026-04-28T14:24:08.999Z</time></trkpt><trkpt lat="40.74461359589414" lon="17.520620348332375"><ele>249.33333333333334</ele><time>2026-04-28T14:24:11.999Z</time></trkpt><trkpt lat="40.744557096906156" lon="17.52067686486947"><ele>250.66666666666669</ele><time>2026-04-28T14:24:13.999Z</time></trkpt><trkpt lat="40.74447974921396" lon="17.520713939277922"><ele>252.0</ele><time>2026-04-28T14:24:17.999Z</time></trkpt><trkpt lat="40.7444194269107" lon="17.520766831048164"><ele>253.33333333333331</ele><time>2026-04-28T14:24:19.999Z</time></trkpt><trkpt lat="40.74434331778824" lon="17.52082019012326"><ele>254.66666666666666</ele><time>2026-04-28T14:24:23.999Z</time></trkpt><trkpt lat="40.74426778442556" lon="17.520859986388423"><ele>256.0</ele><time>2026-04-28T14:24:26.999Z</time></trkpt><trkpt lat="40.74418153312732" lon="17.520885026186313"><ele>258.3333333333333</ele><time>2026-04-28T14:24:29.999Z</time></trkpt><trkpt lat="40.74408276109707" lon="17.52091107680496"><ele>260.66666666666663</ele><time>2026-04-28T14:24:32.999Z</time></trkpt><trkpt lat="40.74401888831924" lon="17.52093314658826"><ele>263.0</ele><time>2026-04-28T14:24:34.999Z</time></trkpt><trkpt lat="40.74395043821636" lon="17.520946069862745"><ele>265.3333333333333</ele><time>2026-04-28T14:24:36.999Z</time></trkpt><trkpt lat="40.74388776999202" lon="17.520969969605186"><ele>267.6666666666667</ele><time>2026-04-28T14:24:38.999Z</time></trkpt><trkpt lat="40.74380398596039" lon="17.521003925239985"><ele>270.0</ele><time>2026-04-28T14:24:42.999Z</time></trkpt><trkpt lat="40.74374018401354" lon="17.52101763478708"><ele>270.0</ele><time>2026-04-28T14:24:46.999Z</time></trkpt><trkpt lat="40.74370273138689" lon="17.52095042471343"><ele>270.0</ele><time>2026-04-28T14:24:48.999Z</time></trkpt><trkpt lat="40.743659344525305" lon="17.520884930201564"><ele>270.0</ele><time>2026-04-28T14:24:51.999Z</time></trkpt><trkpt lat="40.743658681727936" lon="17.52077980913356"><ele>270.0</ele><time>2026-04-28T14:24:54.999Z</time></trkpt><trkpt lat="40.74363087409045" lon="17.520680982857137"><ele>270.0</ele><time>2026-04-28T14:24:58.998Z</time></trkpt><trkpt lat="40.743618828607396" lon="17.520599421670315"><ele>270.0</ele><time>2026-04-28T14:25:15.998Z</time></trkpt><trkpt lat="40.74353239520895" lon="17.520572353792293"><ele>270.0</ele><time>2026-04-28T14:25:19.998Z</time></trkpt><trkpt lat="40.743478622474655" lon="17.520476749525667"><ele>270.6666666666667</ele><time>2026-04-28T14:25:22.998Z</time></trkpt><trkpt lat="40.7434287153286" lon="17.520407559007"><ele>271.3333333333333</ele><time>2026-04-28T14:25:25.998Z</time></trkpt><trkpt lat="40.74340019266688" lon="17.52031452206492"><ele>272.0</ele><time>2026-04-28T14:25:29Z</time></trkpt><trkpt lat="40.74334873069702" lon="17.520227911243364"><ele>272.66666666666663</ele><time>2026-04-28T14:25:34Z</time></trkpt><trkpt lat="40.74333832680321" lon="17.520135115635448"><ele>273.3333333333333</ele><time>2026-04-28T14:25:37Z</time></trkpt><trkpt lat="40.743263482808686" lon="17.52014762587352"><ele>274.0</ele><time>2026-04-28T14:25:40Z</time></trkpt><trkpt lat="40.743188573070206" lon="17.520151284004854"><ele>275.0</ele><time>2026-04-28T14:25:43Z</time></trkpt><trkpt lat="40.74310703289091" lon="17.520155661545665"><ele>276.0</ele><time>2026-04-28T14:25:46Z</time></trkpt><trkpt lat="40.74301680081787" lon="17.52018413432086"><ele>277.0</ele><time>2026-04-28T14:25:49Z</time></trkpt><trkpt lat="40.742954361338164" lon="17.520204822948372"><ele>278.0</ele><time>2026-04-28T14:25:51Z</time></trkpt><trkpt lat="40.74278791057766" lon="17.520309449332785"><ele>279.0</ele><time>2026-04-28T14:25:54Z</time></trkpt><trkpt lat="40.74266515363671" lon="17.520423536032453"><ele>279.0</ele><time>2026-04-28T14:25:55Z</time></trkpt><trkpt lat="40.74260226446844" lon="17.52047651133112"><ele>279.0</ele><time>2026-04-28T14:25:57Z</time></trkpt><trkpt lat="40.742536591139974" lon="17.520486777711245"><ele>279.0</ele><time>2026-04-28T14:25:59Z</time></trkpt><trkpt lat="40.74245183274031" lon="17.52048979151205"><ele>279.0</ele><time>2026-04-28T14:26:07.999Z</time></trkpt><trkpt lat="40.742373385040686" lon="17.520498204663756"><ele>279.0</ele><time>2026-04-28T14:26:09.999Z</time></trkpt><trkpt lat="40.7422989387102" lon="17.520509926910943"><ele>279.0</ele><time>2026-04-28T14:26:11.999Z</time></trkpt><trkpt lat="40.74221043458093" lon="17.520475344332333"><ele>279.6666666666667</ele><time>2026-04-28T14:26:13.999Z</time></trkpt><trkpt lat="40.74219287114135" lon="17.520392921057983"><ele>280.3333333333333</ele><time>2026-04-28T14:26:17.999Z</time></trkpt><trkpt lat="40.742202856565484" lon="17.52027037386138"><ele>281.0</ele><time>2026-04-28T14:26:20.999Z</time></trkpt><trkpt lat="40.74221870937409" lon="17.520165765926475"><ele>281.66666666666663</ele><time>2026-04-28T14:26:24.999Z</time></trkpt><trkpt lat="40.74221040965522" lon="17.520073956020155"><ele>282.3333333333333</ele><time>2026-04-28T14:26:26.999Z</time></trkpt><trkpt lat="40.74217414162031" lon="17.51999656667613"><ele>283.0</ele><time>2026-04-28T14:26:29.999Z</time></trkpt><trkpt lat="40.742102358728324" lon="17.519964101905934"><ele>283.0</ele><time>2026-04-28T14:26:32.999Z</time></trkpt><trkpt lat="40.74205165263025" lon="17.51990308606353"><ele>283.0</ele><time>2026-04-28T14:26:35.999Z</time></trkpt><trkpt lat="40.74199211378994" lon="17.51983484035208"><ele>283.0</ele><time>2026-04-28T14:26:38.999Z</time></trkpt><trkpt lat="40.741946458026" lon="17.519743499882246"><ele>283.0</ele><time>2026-04-28T14:26:40.999Z</time></trkpt><trkpt lat="40.74189391302146" lon="17.519654987803353"><ele>283.0</ele><time>2026-04-28T14:26:43.999Z</time></trkpt><trkpt lat="40.74184605031114" lon="17.519593480399656"><ele>283.0</ele><time>2026-04-28T14:26:45.999Z</time></trkpt><trkpt lat="40.74178042833497" lon="17.519519143826628"><ele>286.16666666666663</ele><time>2026-04-28T14:26:48.999Z</time></trkpt><trkpt lat="40.74173884458031" lon="17.519453079936422"><ele>289.3333333333333</ele><time>2026-04-28T14:26:50.999Z</time></trkpt><trkpt lat="40.7416769885584" lon="17.519401814084247"><ele>292.5</ele><time>2026-04-28T14:26:53.999Z</time></trkpt><trkpt lat="40.74162266051572" lon="17.519310588373436"><ele>295.6666666666667</ele><time>2026-04-28T14:26:57.999Z</time></trkpt><trkpt lat="40.74155414863816" lon="17.519235671461505"><ele>298.83333333333337</ele><time>2026-04-28T14:27:00.999Z</time></trkpt><trkpt lat="40.7415116028289" lon="17.519155880624073"><ele>302.0</ele><time>2026-04-28T14:27:03.998Z</time></trkpt><trkpt lat="40.74146992241355" lon="17.51905158494926"><ele>302.0</ele><time>2026-04-28T14:27:07.998Z</time></trkpt><trkpt lat="40.74141316094914" lon="17.518970780012452"><ele>302.0</ele><time>2026-04-28T14:27:11.998Z</time></trkpt><trkpt lat="40.741432567680405" lon="17.518861062349956"><ele>302.0</ele><time>2026-04-28T14:27:15.998Z</time></trkpt><trkpt lat="40.74144943274517" lon="17.51877241612388"><ele>302.0</ele><time>2026-04-28T14:27:18.998Z</time></trkpt><trkpt lat="40.74144059088961" lon="17.518665875726875"><ele>302.0</ele><time>2026-04-28T14:27:21.998Z</time></trkpt><trkpt lat="40.74146022313855" lon="17.518578166478942"><ele>302.0</ele><time>2026-04-28T14:27:24.998Z</time></trkpt><trkpt lat="40.74147921877946" lon="17.518490491441824"><ele>303.0</ele><time>2026-04-28T14:27:27.998Z</time></trkpt><trkpt lat="40.74153296199008" lon="17.518401542058932"><ele>304.0</ele><time>2026-04-28T14:27:30.998Z</time></trkpt><trkpt lat="40.741548664075026" lon="17.51830512973817"><ele>305.0</ele><time>2026-04-28T14:27:32.998Z</time></trkpt><trkpt lat="40.741577926178245" lon="17.518227980877036"><ele>306.0</ele><time>2026-04-28T14:27:36Z</time></trkpt><trkpt lat="40.7415866736178" lon="17.51812714761826"><ele>307.0</ele><time>2026-04-28T14:27:39Z</time></trkpt><trkpt lat="40.74156585002578" lon="17.51802009815603"><ele>308.0</ele><time>2026-04-28T14:27:42Z</time></trkpt><trkpt lat="40.74155309319882" lon="17.51791417403505"><ele>308.0</ele><time>2026-04-28T14:27:45Z</time></trkpt><trkpt lat="40.74152373197947" lon="17.517832497960857"><ele>308.0</ele><time>2026-04-28T14:27:48Z</time></trkpt><trkpt lat="40.74146526169327" lon="17.517767102307708"><ele>308.0</ele><time>2026-04-28T14:27:50Z</time></trkpt><trkpt lat="40.74139715546309" lon="17.517700036685376"><ele>308.0</ele><time>2026-04-28T14:27:53Z</time></trkpt><trkpt lat="40.74131771457824" lon="17.517697230773194"><ele>308.0</ele><time>2026-04-28T14:27:56Z</time></trkpt><trkpt lat="40.74124738892623" lon="17.51763615879614"><ele>308.0</ele><time>2026-04-28T14:27:59Z</time></trkpt><trkpt lat="40.741177027371315" lon="17.517554136810393"><ele>308.0</ele><time>2026-04-28T14:28:02Z</time></trkpt><trkpt lat="40.741104956702614" lon="17.51750242203063"><ele>308.0</ele><time>2026-04-28T14:28:05Z</time></trkpt><trkpt lat="40.74103438849719" lon="17.517421605056523"><ele>308.0</ele><time>2026-04-28T14:28:08Z</time></trkpt><trkpt lat="40.74099714444683" lon="17.51735005146621"><ele>308.0</ele><time>2026-04-28T14:28:10Z</time></trkpt><trkpt lat="40.740965011013806" lon="17.517247270781898"><ele>308.0</ele><time>2026-04-28T14:28:12.999Z</time></trkpt><trkpt lat="40.740927819322955" lon="17.517144620336907"><ele>308.0</ele><time>2026-04-28T14:28:15.999Z</time></trkpt><trkpt lat="40.74086722878713" lon="17.517055047617617"><ele>308.83333333333337</ele><time>2026-04-28T14:28:18.999Z</time></trkpt><trkpt lat="40.740843613192865" lon="17.516973060793877"><ele>309.6666666666667</ele><time>2026-04-28T14:28:20.999Z</time></trkpt><trkpt lat="40.740799707547815" lon="17.516893170509572"><ele>310.5</ele><time>2026-04-28T14:28:22.999Z</time></trkpt><trkpt lat="40.740730544125746" lon="17.516854667858336"><ele>311.3333333333333</ele><time>2026-04-28T14:28:25.999Z</time></trkpt><trkpt lat="40.74065422441512" lon="17.516795481241676"><ele>312.16666666666663</ele><time>2026-04-28T14:28:28.999Z</time></trkpt><trkpt lat="40.740588523409315" lon="17.516741075177904"><ele>313.0</ele><time>2026-04-28T14:28:31.999Z</time></trkpt><trkpt lat="40.74050719088845" lon="17.516724386654282"><ele>313.0</ele><time>2026-04-28T14:28:33.999Z</time></trkpt><trkpt lat="40.74043648931421" lon="17.516752274710033"><ele>313.0</ele><time>2026-04-28T14:28:35.999Z</time></trkpt><trkpt lat="40.740351010235734" lon="17.51669873268051"><ele>313.0</ele><time>2026-04-28T14:28:38.999Z</time></trkpt><trkpt lat="40.74027345439313" lon="17.516679962910786"><ele>313.0</ele><time>2026-04-28T14:28:40.999Z</time></trkpt><trkpt lat="40.74024058426404" lon="17.516592991130477"><ele>313.0</ele><time>2026-04-28T14:28:43.999Z</time></trkpt><trkpt lat="40.74017822684863" lon="17.51654841169252"><ele>313.0</ele><time>2026-04-28T14:28:46.999Z</time></trkpt><trkpt lat="40.74018602267359" lon="17.516429856993195"><ele>313.0</ele><time>2026-04-28T14:28:49.999Z</time></trkpt><trkpt lat="40.74024858807602" lon="17.51633561757308"><ele>313.0</ele><time>2026-04-28T14:28:51.999Z</time></trkpt><trkpt lat="40.74029117862861" lon="17.516252647504555"><ele>313.0</ele><time>2026-04-28T14:28:53.999Z</time></trkpt><trkpt lat="40.74033716778039" lon="17.51619077185855"><ele>313.0</ele><time>2026-04-28T14:28:55.999Z</time></trkpt><trkpt lat="40.74038996885574" lon="17.516140351085255"><ele>313.0</ele><time>2026-04-28T14:28:57.999Z</time></trkpt><trkpt lat="40.74045857607021" lon="17.516064128540446"><ele>313.0</ele><time>2026-04-28T14:29:00.999Z</time></trkpt><trkpt lat="40.74050861988413" lon="17.51598818636705"><ele>311.7142857142857</ele><time>2026-04-28T14:29:03.999Z</time></trkpt><trkpt lat="40.740546143033185" lon="17.51591285472113"><ele>310.42857142857144</ele><time>2026-04-28T14:29:06.999Z</time></trkpt><trkpt lat="40.74055173211523" lon="17.515803244682576"><ele>309.1428571428571</ele><time>2026-04-28T14:29:09.999Z</time></trkpt><trkpt lat="40.74057470628786" lon="17.515716366920543"><ele>307.8571428571429</ele><time>2026-04-28T14:29:16.998Z</time></trkpt><trkpt lat="40.74050969367115" lon="17.515678487379834"><ele>306.5714285714286</ele><time>2026-04-28T14:29:48Z</time></trkpt><trkpt lat="40.74044840912123" lon="17.5156260954321"><ele>305.2857142857143</ele><time>2026-04-28T14:29:59Z</time></trkpt><trkpt lat="40.7403939238598" lon="17.515688524445014"><ele>304.0</ele><time>2026-04-28T14:30:03Z</time></trkpt><trkpt lat="40.74033583618832" lon="17.515751121576955"><ele>304.0</ele><time>2026-04-28T14:30:07Z</time></trkpt><trkpt lat="40.740255333714714" lon="17.515790046171023"><ele>304.0</ele><time>2026-04-28T14:30:12Z</time></trkpt><trkpt lat="40.740179713856584" lon="17.51578812376789"><ele>304.0</ele><time>2026-04-28T14:30:16Z</time></trkpt><trkpt lat="40.740095443603025" lon="17.51579988845453"><ele>304.0</ele><time>2026-04-28T14:30:18.999Z</time></trkpt><trkpt lat="40.740032924263176" lon="17.51577972736895"><ele>304.0</ele><time>2026-04-28T14:30:21.999Z</time></trkpt><trkpt lat="40.740012515801546" lon="17.51567956958131"><ele>304.0</ele><time>2026-04-28T14:30:25.999Z</time></trkpt><trkpt lat="40.739997666934705" lon="17.515592724832143"><ele>304.3333333333333</ele><time>2026-04-28T14:30:29.999Z</time></trkpt><trkpt lat="40.73993210902282" lon="17.51552497238454"><ele>304.66666666666663</ele><time>2026-04-28T14:30:32.999Z</time></trkpt><trkpt lat="40.73985870273032" lon="17.515471746809204"><ele>305.0</ele><time>2026-04-28T14:30:35.999Z</time></trkpt><trkpt lat="40.73980180918225" lon="17.515398215202016"><ele>305.3333333333333</ele><time>2026-04-28T14:30:38.999Z</time></trkpt><trkpt lat="40.739776757447856" lon="17.515303915733167"><ele>305.6666666666667</ele><time>2026-04-28T14:30:41.999Z</time></trkpt><trkpt lat="40.739726491448984" lon="17.515224462349252"><ele>306.0</ele><time>2026-04-28T14:30:45.999Z</time></trkpt><trkpt lat="40.73970234008756" lon="17.51513362535663"><ele>306.0</ele><time>2026-04-28T14:30:48.999Z</time></trkpt><trkpt lat="40.739622937922" lon="17.515071223141636"><ele>306.0</ele><time>2026-04-28T14:30:51.999Z</time></trkpt><trkpt lat="40.7395687377544" lon="17.51502243681163"><ele>306.0</ele><time>2026-04-28T14:30:53.999Z</time></trkpt><trkpt lat="40.73947975340171" lon="17.515049005247942"><ele>306.0</ele><time>2026-04-28T14:30:56.999Z</time></trkpt><trkpt lat="40.73939561457427" lon="17.515014186946676"><ele>306.0</ele><time>2026-04-28T14:30:59.999Z</time></trkpt><trkpt lat="40.73933325470492" lon="17.51504113815185"><ele>306.0</ele><time>2026-04-28T14:31:01.999Z</time></trkpt><trkpt lat="40.73924502415644" lon="17.515044018620284"><ele>306.8333333333333</ele><time>2026-04-28T14:31:04.999Z</time></trkpt><trkpt lat="40.73918460094363" lon="17.514958798283356"><ele>307.6666666666667</ele><time>2026-04-28T14:31:07.999Z</time></trkpt><trkpt lat="40.73910019957321" lon="17.514922345874144"><ele>308.5</ele><time>2026-04-28T14:31:10.999Z</time></trkpt><trkpt lat="40.739050724705606" lon="17.51485271543098"><ele>309.33333333333337</ele><time>2026-04-28T14:31:13.999Z</time></trkpt><trkpt lat="40.738986135538426" lon="17.514820081880124"><ele>310.1666666666667</ele><time>2026-04-28T14:31:16.999Z</time></trkpt><trkpt lat="40.73900628678716" lon="17.51472612081753"><ele>311.0</ele><time>2026-04-28T14:31:19.999Z</time></trkpt><trkpt lat="40.738977774478855" lon="17.514636486822855"><ele>310.2857142857143</ele><time>2026-04-28T14:31:23.998Z</time></trkpt><trkpt lat="40.73893055277317" lon="17.514569980399575"><ele>309.5714285714286</ele><time>2026-04-28T14:31:28.998Z</time></trkpt><trkpt lat="40.73887321264427" lon="17.514505750398033"><ele>308.8571428571429</ele><time>2026-04-28T14:31:31.998Z</time></trkpt><trkpt lat="40.7388105092763" lon="17.514493788177653"><ele>308.1428571428571</ele><time>2026-04-28T14:31:34.998Z</time></trkpt><trkpt lat="40.73873815253751" lon="17.514491487037617"><ele>307.42857142857144</ele><time>2026-04-28T14:31:40.998Z</time></trkpt><trkpt lat="40.738672596012485" lon="17.514430400051285"><ele>306.7142857142857</ele><time>2026-04-28T14:31:47Z</time></trkpt><trkpt lat="40.73860037582647" lon="17.514405106173417"><ele>306.0</ele><time>2026-04-28T14:31:51Z</time></trkpt><trkpt lat="40.73851701145924" lon="17.514413914899198"><ele>305.8333333333333</ele><time>2026-04-28T14:31:55Z</time></trkpt><trkpt lat="40.738496413243865" lon="17.514495938315417"><ele>305.6666666666667</ele><time>2026-04-28T14:31:58Z</time></trkpt><trkpt lat="40.73847123912248" lon="17.514595982602817"><ele>305.5</ele><time>2026-04-28T14:32:01Z</time></trkpt><trkpt lat="40.7384105955847" lon="17.514645816542235"><ele>305.33333333333337</ele><time>2026-04-28T14:32:04Z</time></trkpt><trkpt lat="40.73833658128056" lon="17.514696371689528"><ele>305.1666666666667</ele><time>2026-04-28T14:32:10Z</time></trkpt><trkpt lat="40.73824590415263" lon="17.514743922481998"><ele>305.0</ele><time>2026-04-28T14:32:13Z</time></trkpt><trkpt lat="40.73815056315492" lon="17.514746588561938"><ele>305.0</ele><time>2026-04-28T14:32:16Z</time></trkpt><trkpt lat="40.73808370390631" lon="17.514777289266778"><ele>305.0</ele><time>2026-04-28T14:32:20Z</time></trkpt><trkpt lat="40.738052631275245" lon="17.514852000114875"><ele>305.0</ele><time>2026-04-28T14:32:23Z</time></trkpt><trkpt lat="40.738015608747965" lon="17.51493635754262"><ele>305.0</ele><time>2026-04-28T14:32:25.999Z</time></trkpt><trkpt lat="40.73796197849104" lon="17.514989314067847"><ele>305.0</ele><time>2026-04-28T14:32:28.999Z</time></trkpt><trkpt lat="40.737889316538116" lon="17.514992920424987"><ele>305.0</ele><time>2026-04-28T14:32:31.999Z</time></trkpt><trkpt lat="40.73781577510383" lon="17.51495570642927"><ele>305.0</ele><time>2026-04-28T14:32:35.999Z</time></trkpt><trkpt lat="40.737780754370604" lon="17.514886469633307"><ele>304.33333333333337</ele><time>2026-04-28T14:32:38.999Z</time></trkpt><trkpt lat="40.73770345461167" lon="17.51493293257646"><ele>303.6666666666667</ele><time>2026-04-28T14:32:41.999Z</time></trkpt><trkpt lat="40.737600650888226" lon="17.51498988718095"><ele>303.0</ele><time>2026-04-28T14:32:43.999Z</time></trkpt><trkpt lat="40.7375185501906" lon="17.514985848801448"><ele>302.3333333333333</ele><time>2026-04-28T14:32:44.999Z</time></trkpt><trkpt lat="40.73744725800081" lon="17.51496032241839"><ele>301.66666666666663</ele><time>2026-04-28T14:32:45.999Z</time></trkpt><trkpt lat="40.737378115877654" lon="17.51493429810011"><ele>301.0</ele><time>2026-04-28T14:32:46.999Z</time></trkpt><trkpt lat="40.737264305601066" lon="17.51490702646676"><ele>301.0</ele><time>2026-04-28T14:32:48.999Z</time></trkpt><trkpt lat="40.7371682431921" lon="17.51487838344022"><ele>301.0</ele><time>2026-04-28T14:32:50.999Z</time></trkpt><trkpt lat="40.737100226594904" lon="17.51485273085998"><ele>301.0</ele><time>2026-04-28T14:32:54.999Z</time></trkpt><trkpt lat="40.73704001218313" lon="17.514892074787998"><ele>301.0</ele><time>2026-04-28T14:32:58.999Z</time></trkpt><trkpt lat="40.73705126234795" lon="17.514992777674266"><ele>301.0</ele><time>2026-04-28T14:33:05.999Z</time></trkpt><trkpt lat="40.73701252071541" lon="17.515109573176026"><ele>301.0</ele><time>2026-04-28T14:33:08.999Z</time></trkpt><trkpt lat="40.73697366276962" lon="17.515177709300414"><ele>301.0</ele><time>2026-04-28T14:33:10.999Z</time></trkpt><trkpt lat="40.73693500591075" lon="17.51525880170031"><ele>301.0</ele><time>2026-04-28T14:33:12.999Z</time></trkpt><trkpt lat="40.73689287000405" lon="17.51535002714842"><ele>301.0</ele><time>2026-04-28T14:33:14.999Z</time></trkpt><trkpt lat="40.7368501951786" lon="17.515427721579336"><ele>301.0</ele><time>2026-04-28T14:33:16.999Z</time></trkpt><trkpt lat="40.73682145833495" lon="17.51551944684708"><ele>301.0</ele><time>2026-04-28T14:33:18.999Z</time></trkpt><trkpt lat="40.73679394459386" lon="17.51559848323183"><ele>301.0</ele><time>2026-04-28T14:33:20.999Z</time></trkpt><trkpt lat="40.73675691727394" lon="17.515709872915565"><ele>301.3333333333333</ele><time>2026-04-28T14:33:23.999Z</time></trkpt><trkpt lat="40.73672567039944" lon="17.515790204617772"><ele>301.66666666666663</ele><time>2026-04-28T14:33:26.999Z</time></trkpt><trkpt lat="40.736666912735956" lon="17.515734466060692"><ele>302.0</ele><time>2026-04-28T14:34:09Z</time></trkpt><trkpt lat="40.73666765175361" lon="17.51562647016695"><ele>302.3333333333333</ele><time>2026-04-28T14:34:11Z</time></trkpt><trkpt lat="40.7366721097646" lon="17.515530892702504"><ele>302.6666666666667</ele><time>2026-04-28T14:34:13Z</time></trkpt><trkpt lat="40.7366765084424" lon="17.515436540286185"><ele>303.0</ele><time>2026-04-28T14:34:15Z</time></trkpt><trkpt lat="40.736685529901635" lon="17.51532431654283"><ele>303.0</ele><time>2026-04-28T14:34:17Z</time></trkpt><trkpt lat="40.73669925296673" lon="17.51521983449624"><ele>303.0</ele><time>2026-04-28T14:34:19Z</time></trkpt><trkpt lat="40.736709405610014" lon="17.51510829499112"><ele>303.0</ele><time>2026-04-28T14:34:21Z</time></trkpt><trkpt lat="40.73672211241917" lon="17.514985365446005"><ele>303.0</ele><time>2026-04-28T14:34:23Z</time></trkpt><trkpt lat="40.73673853531416" lon="17.51486231868752"><ele>303.0</ele><time>2026-04-28T14:34:25Z</time></trkpt><trkpt lat="40.73675362262616" lon="17.514737039356636"><ele>303.0</ele><time>2026-04-28T14:34:27Z</time></trkpt><trkpt lat="40.736777818526996" lon="17.514606158744325"><ele>303.0</ele><time>2026-04-28T14:34:29Z</time></trkpt><trkpt lat="40.7367986070489" lon="17.5144768391721"><ele>303.0</ele><time>2026-04-28T14:34:31Z</time></trkpt><trkpt lat="40.73682894548472" lon="17.514329600584254"><ele>303.0</ele><time>2026-04-28T14:34:33Z</time></trkpt><trkpt lat="40.73686773975815" lon="17.514176534546053"><ele>303.0</ele><time>2026-04-28T14:34:34.999Z</time></trkpt><trkpt lat="40.736909052583854" lon="17.51401835377953"><ele>302.0</ele><time>2026-04-28T14:34:36.999Z</time></trkpt><trkpt lat="40.73696717953941" lon="17.513871232562533"><ele>301.0</ele><time>2026-04-28T14:34:38.999Z</time></trkpt><trkpt lat="40.73699515843179" lon="17.513785914731418"><ele>300.0</ele><time>2026-04-28T14:34:39.999Z</time></trkpt><trkpt lat="40.737056183835094" lon="17.513634522395222"><ele>299.0</ele><time>2026-04-28T14:34:41.999Z</time></trkpt><trkpt lat="40.737087579922026" lon="17.51355687873138"><ele>298.0</ele><time>2026-04-28T14:34:42.999Z</time></trkpt><trkpt lat="40.73712122410795" lon="17.513477138233547"><ele>297.42857142857144</ele><time>2026-04-28T14:34:43.999Z</time></trkpt><trkpt lat="40.737153815796546" lon="17.513400367836006"><ele>296.85714285714283</ele><time>2026-04-28T14:34:44.999Z</time></trkpt><trkpt lat="40.73718370840225" lon="17.51332360875748"><ele>296.2857142857143</ele><time>2026-04-28T14:34:45.999Z</time></trkpt><trkpt lat="40.73721887731454" lon="17.51324971959017"><ele>295.7142857142857</ele><time>2026-04-28T14:34:46.999Z</time></trkpt><trkpt lat="40.73725820104494" lon="17.513177932682883"><ele>295.1428571428571</ele><time>2026-04-28T14:34:47.999Z</time></trkpt><trkpt lat="40.737297484493546" lon="17.513102602474984"><ele>294.57142857142856</ele><time>2026-04-28T14:34:48.999Z</time></trkpt><trkpt lat="40.73733215868657" lon="17.513033145306668"><ele>294.0</ele><time>2026-04-28T14:34:49.999Z</time></trkpt><trkpt lat="40.73737051359703" lon="17.51295685223519"><ele>293.42857142857144</ele><time>2026-04-28T14:34:50.999Z</time></trkpt><trkpt lat="40.73740591581933" lon="17.51287765250174"><ele>292.8571428571429</ele><time>2026-04-28T14:34:51.999Z</time></trkpt><trkpt lat="40.73744982891855" lon="17.51279919076125"><ele>292.2857142857143</ele><time>2026-04-28T14:34:52.999Z</time></trkpt><trkpt lat="40.73748924579069" lon="17.512719592421618"><ele>291.7142857142857</ele><time>2026-04-28T14:34:53.999Z</time></trkpt><trkpt lat="40.73753179336481" lon="17.512638333779247"><ele>291.14285714285717</ele><time>2026-04-28T14:34:54.999Z</time></trkpt><trkpt lat="40.73757348275413" lon="17.5125524809774"><ele>290.57142857142856</ele><time>2026-04-28T14:34:55.999Z</time></trkpt><trkpt lat="40.7376186228638" lon="17.51246436635791"><ele>290.0</ele><time>2026-04-28T14:34:56.999Z</time></trkpt><trkpt lat="40.737658656331796" lon="17.51238076193497"><ele>290.0</ele><time>2026-04-28T14:34:57.999Z</time></trkpt><trkpt lat="40.73770134081836" lon="17.512283271758704"><ele>290.0</ele><time>2026-04-28T14:34:58.999Z</time></trkpt><trkpt lat="40.73774173193668" lon="17.51219158498967"><ele>290.0</ele><time>2026-04-28T14:34:59.999Z</time></trkpt><trkpt lat="40.73778792715127" lon="17.51210253591924"><ele>290.0</ele><time>2026-04-28T14:35:00.999Z</time></trkpt><trkpt lat="40.737836511153915" lon="17.512014086974133"><ele>290.0</ele><time>2026-04-28T14:35:01.999Z</time></trkpt><trkpt lat="40.737888383947656" lon="17.511931131678875"><ele>290.0</ele><time>2026-04-28T14:35:02.999Z</time></trkpt><trkpt lat="40.73793973125251" lon="17.51183649143937"><ele>290.0</ele><time>2026-04-28T14:35:03.999Z</time></trkpt><trkpt lat="40.737985589186884" lon="17.51173867991609"><ele>290.0</ele><time>2026-04-28T14:35:04.999Z</time></trkpt><trkpt lat="40.738028700407284" lon="17.511645406445844"><ele>290.0</ele><time>2026-04-28T14:35:05.999Z</time></trkpt><trkpt lat="40.73807710682347" lon="17.51155012664856"><ele>290.0</ele><time>2026-04-28T14:35:06.999Z</time></trkpt><trkpt lat="40.73812199211796" lon="17.51146093844207"><ele>290.0</ele><time>2026-04-28T14:35:07.999Z</time></trkpt><trkpt lat="40.7381731686801" lon="17.51136337959141"><ele>290.0</ele><time>2026-04-28T14:35:08.999Z</time></trkpt><trkpt lat="40.73821541607052" lon="17.511261173978298"><ele>288.6666666666667</ele><time>2026-04-28T14:35:09.999Z</time></trkpt><trkpt lat="40.73826624595804" lon="17.511163718390147"><ele>287.33333333333337</ele><time>2026-04-28T14:35:10.999Z</time></trkpt><trkpt lat="40.73830979599771" lon="17.511071076654602"><ele>286.0</ele><time>2026-04-28T14:35:11.999Z</time></trkpt><trkpt lat="40.73835769321457" lon="17.51097181252584"><ele>284.6666666666667</ele><time>2026-04-28T14:35:12.999Z</time></trkpt><trkpt lat="40.738406616823134" lon="17.510888578983522"><ele>283.3333333333333</ele><time>2026-04-28T14:35:13.999Z</time></trkpt><trkpt lat="40.73845593518091" lon="17.510785654065284"><ele>282.0</ele><time>2026-04-28T14:35:14.999Z</time></trkpt><trkpt lat="40.73850238506152" lon="17.510689890577773"><ele>282.0</ele><time>2026-04-28T14:35:15.999Z</time></trkpt><trkpt lat="40.73854882258473" lon="17.510597011019858"><ele>282.0</ele><time>2026-04-28T14:35:16.999Z</time></trkpt><trkpt lat="40.73859027813052" lon="17.510520178628514"><ele>282.0</ele><time>2026-04-28T14:35:17.999Z</time></trkpt><trkpt lat="40.73863156642956" lon="17.51043233115707"><ele>282.0</ele><time>2026-04-28T14:35:18.999Z</time></trkpt><trkpt lat="40.73867119838266" lon="17.51035351419295"><ele>282.0</ele><time>2026-04-28T14:35:19.999Z</time></trkpt><trkpt lat="40.73870952380818" lon="17.51027099022129"><ele>282.0</ele><time>2026-04-28T14:35:20.999Z</time></trkpt><trkpt lat="40.73874859354184" lon="17.510186487056615"><ele>280.42857142857144</ele><time>2026-04-28T14:35:21.999Z</time></trkpt><trkpt lat="40.73879113396959" lon="17.510093601837717"><ele>278.85714285714283</ele><time>2026-04-28T14:35:22.999Z</time></trkpt><trkpt lat="40.738833995014986" lon="17.51001607872248"><ele>277.2857142857143</ele><time>2026-04-28T14:35:23.999Z</time></trkpt><trkpt lat="40.73887771180964" lon="17.509934458155957"><ele>275.7142857142857</ele><time>2026-04-28T14:35:24.999Z</time></trkpt><trkpt lat="40.73891334135729" lon="17.509860288773936"><ele>274.14285714285717</ele><time>2026-04-28T14:35:25.999Z</time></trkpt><trkpt lat="40.73895449787991" lon="17.50978906044124"><ele>272.57142857142856</ele><time>2026-04-28T14:35:27.999Z</time></trkpt><trkpt lat="40.73901455081394" lon="17.509739491715347"><ele>271.0</ele><time>2026-04-28T14:35:29.999Z</time></trkpt><trkpt lat="40.73908482757786" lon="17.5098035950335"><ele>271.0</ele><time>2026-04-28T14:35:31.999Z</time></trkpt><trkpt lat="40.73918265564055" lon="17.509878914422007"><ele>271.0</ele><time>2026-04-28T14:35:33.999Z</time></trkpt><trkpt lat="40.73923772574237" lon="17.50995745973091"><ele>271.0</ele><time>2026-04-28T14:35:35.999Z</time></trkpt><trkpt lat="40.73930087190465" lon="17.51000680250773"><ele>271.0</ele><time>2026-04-28T14:35:39.999Z</time></trkpt><trkpt lat="40.739339353682524" lon="17.51009443155176"><ele>271.0</ele><time>2026-04-28T14:35:45.998Z</time></trkpt><trkpt lat="40.73940145527516" lon="17.510135563483377"><ele>271.0</ele><time>2026-04-28T14:35:48.998Z</time></trkpt><trkpt lat="40.73942811309425" lon="17.510231350485423"><ele>269.16666666666663</ele><time>2026-04-28T14:35:51.998Z</time></trkpt><trkpt lat="40.73949171749464" lon="17.51032878588228"><ele>267.3333333333333</ele><time>2026-04-28T14:35:56.998Z</time></trkpt><trkpt lat="40.739555953433836" lon="17.510356952969907"><ele>265.5</ele><time>2026-04-28T14:36:07Z</time></trkpt><trkpt lat="40.739622679339234" lon="17.510394867242265"><ele>263.6666666666667</ele><time>2026-04-28T14:36:12Z</time></trkpt><trkpt lat="40.7396962987318" lon="17.510441575860973"><ele>261.83333333333337</ele><time>2026-04-28T14:36:16Z</time></trkpt><trkpt lat="40.73972040532183" lon="17.51053013692095"><ele>260.0</ele><time>2026-04-28T14:36:19Z</time></trkpt><trkpt lat="40.73978418819066" lon="17.51059115140659"><ele>260.00000000000006</ele><time>2026-04-28T14:36:22Z</time></trkpt><trkpt lat="40.739846153875206" lon="17.510649827314452"><ele>260.0</ele><time>2026-04-28T14:36:25Z</time></trkpt><trkpt lat="40.73991307212782" lon="17.510700031213037"><ele>260.0</ele><time>2026-04-28T14:36:29Z</time></trkpt><trkpt lat="40.739974221264085" lon="17.510770365891556"><ele>260.0</ele><time>2026-04-28T14:36:33Z</time></trkpt><trkpt lat="40.740014994419205" lon="17.510835387672255"><ele>260.0</ele><time>2026-04-28T14:36:36Z</time></trkpt><trkpt lat="40.74006539226606" lon="17.51090411246883"><ele>260.00000000000006</ele><time>2026-04-28T14:36:40Z</time></trkpt><trkpt lat="40.740133982981774" lon="17.510912945048013"><ele>260.0</ele><time>2026-04-28T14:36:43.999Z</time></trkpt><trkpt lat="40.740194128586936" lon="17.51097125608116"><ele>260.00000000000006</ele><time>2026-04-28T14:36:48.999Z</time></trkpt><trkpt lat="40.74019847231163" lon="17.51107190662581"><ele>260.0</ele><time>2026-04-28T14:36:53.999Z</time></trkpt><trkpt lat="40.74023588320089" lon="17.511166930092912"><ele>260.0</ele><time>2026-04-28T14:36:57.999Z</time></trkpt><trkpt lat="40.74022847644542" lon="17.511255441510972"><ele>260.0</ele><time>2026-04-28T14:37:00.999Z</time></trkpt><trkpt lat="40.74024061143658" lon="17.51135457198305"><ele>260.0</ele><time>2026-04-28T14:37:03.999Z</time></trkpt><trkpt lat="40.740217838375486" lon="17.51144509433599"><ele>260.00000000000006</ele><time>2026-04-28T14:37:06.999Z</time></trkpt><trkpt lat="40.74022480390013" lon="17.511528264711036"><ele>260.0</ele><time>2026-04-28T14:37:10.999Z</time></trkpt><trkpt lat="40.74024649802649" lon="17.511639550960876"><ele>255.83333333333334</ele><time>2026-04-28T14:37:13.999Z</time></trkpt><trkpt lat="40.74026033877171" lon="17.511721210620696"><ele>251.66666666666669</ele><time>2026-04-28T14:37:16.999Z</time></trkpt><trkpt lat="40.740316691623185" lon="17.511822239998835"><ele>247.5</ele><time>2026-04-28T14:37:19.999Z</time></trkpt><trkpt lat="40.7403149158909" lon="17.51193336337153"><ele>243.33333333333331</ele><time>2026-04-28T14:37:21.999Z</time></trkpt><trkpt lat="40.74024926289456" lon="17.511984434157633"><ele>239.16666666666666</ele><time>2026-04-28T14:37:24.999Z</time></trkpt><trkpt lat="40.74025911907185" lon="17.51209186320448"><ele>235.0</ele><time>2026-04-28T14:37:27.999Z</time></trkpt><trkpt lat="40.74024073654111" lon="17.512183943135792"><ele>234.99999999999997</ele><time>2026-04-28T14:37:29.999Z</time></trkpt><trkpt lat="40.74023952685787" lon="17.512286028209743"><ele>235.0</ele><time>2026-04-28T14:37:34.999Z</time></trkpt><trkpt lat="40.74022981370618" lon="17.51237863664442"><ele>235.0</ele><time>2026-04-28T14:37:37.999Z</time></trkpt><trkpt lat="40.74020005856812" lon="17.512505350951315"><ele>235.0</ele><time>2026-04-28T14:37:40.999Z</time></trkpt><trkpt lat="40.74015756360387" lon="17.51259146379887"><ele>234.99999999999997</ele><time>2026-04-28T14:37:43.999Z</time></trkpt><trkpt lat="40.74015177042167" lon="17.5126926532563"><ele>235.0</ele><time>2026-04-28T14:37:47.999Z</time></trkpt><trkpt lat="40.740130183593905" lon="17.512781485070708"><ele>240.57142857142856</ele><time>2026-04-28T14:37:50.999Z</time></trkpt><trkpt lat="40.74009657943414" lon="17.512855162992146"><ele>246.1428571428571</ele><time>2026-04-28T14:37:55.998Z</time></trkpt><trkpt lat="40.740102082209525" lon="17.512940013761046"><ele>251.71428571428572</ele><time>2026-04-28T14:38:08Z</time></trkpt><trkpt lat="40.740120080926495" lon="17.51304294096141"><ele>257.2857142857143</ele><time>2026-04-28T14:38:11Z</time></trkpt><trkpt lat="40.74017248054207" lon="17.513135441180395"><ele>262.8571428571429</ele><time>2026-04-28T14:38:14Z</time></trkpt><trkpt lat="40.74014668455206" lon="17.513236386705174"><ele>268.42857142857144</ele><time>2026-04-28T14:38:17Z</time></trkpt><trkpt lat="40.74013509102667" lon="17.513320340732136"><ele>274.0</ele><time>2026-04-28T14:38:22Z</time></trkpt><trkpt lat="40.740134014052174" lon="17.513419673857854"><ele>274.8333333333333</ele><time>2026-04-28T14:38:54.999Z</time></trkpt><trkpt lat="40.740196764551435" lon="17.513469836481754"><ele>275.66666666666663</ele><time>2026-04-28T14:38:59.999Z</time></trkpt><trkpt lat="40.74026792385456" lon="17.513534395956395"><ele>276.5</ele><time>2026-04-28T14:39:04.999Z</time></trkpt><trkpt lat="40.740304499794604" lon="17.51360695311233"><ele>277.3333333333333</ele><time>2026-04-28T14:39:08.999Z</time></trkpt><trkpt lat="40.74037606613018" lon="17.51358476179085"><ele>278.1666666666667</ele><time>2026-04-28T14:39:13.999Z</time></trkpt><trkpt lat="40.74041937306856" lon="17.51367269948089"><ele>279.0</ele><time>2026-04-28T14:39:17.999Z</time></trkpt><trkpt lat="40.74049537037179" lon="17.51375097712088"><ele>275.6666666666667</ele><time>2026-04-28T14:39:21.999Z</time></trkpt><trkpt lat="40.74056566469984" lon="17.513747182146385"><ele>272.3333333333333</ele><time>2026-04-28T14:39:23.999Z</time></trkpt><trkpt lat="40.74061881712829" lon="17.51380464221851"><ele>269.0</ele><time>2026-04-28T14:39:25.999Z</time></trkpt><trkpt lat="40.74066494923623" lon="17.513884411098392"><ele>265.66666666666663</ele><time>2026-04-28T14:39:27.999Z</time></trkpt><trkpt lat="40.74073712742852" lon="17.513957637791094"><ele>262.3333333333333</ele><time>2026-04-28T14:39:31.999Z</time></trkpt><trkpt lat="40.74079247557804" lon="17.51404558791087"><ele>259.0</ele><time>2026-04-28T14:39:35.999Z</time></trkpt><trkpt lat="40.740811722609706" lon="17.514142769615297"><ele>259.0</ele><time>2026-04-28T14:39:39.999Z</time></trkpt><trkpt lat="40.74084457786421" lon="17.5142256093137"><ele>259.0</ele><time>2026-04-28T14:39:42.999Z</time></trkpt><trkpt lat="40.74088975919636" lon="17.51428812620431"><ele>259.0</ele><time>2026-04-28T14:39:45.999Z</time></trkpt><trkpt lat="40.74095582841368" lon="17.514290692294114"><ele>259.0</ele><time>2026-04-28T14:39:49.999Z</time></trkpt><trkpt lat="40.741008476917074" lon="17.514401031467887"><ele>259.0</ele><time>2026-04-28T14:40:20Z</time></trkpt><trkpt lat="40.74100825875108" lon="17.514306396116385"><ele>259.0</ele><time>2026-04-28T14:43:33.999Z</time></trkpt><trkpt lat="40.74094397932633" lon="17.514312415174217"><ele>259.0</ele><time>2026-04-28T14:43:58.999Z</time></trkpt><trkpt lat="40.74087235052525" lon="17.514308662103943"><ele>259.0</ele><time>2026-04-28T14:44:16.998Z</time></trkpt><trkpt lat="40.740819317180495" lon="17.51424183722647"><ele>259.0</ele><time>2026-04-28T14:44:28Z</time></trkpt><trkpt lat="40.74079284340695" lon="17.514152643235718"><ele>259.0</ele><time>2026-04-28T14:44:33Z</time></trkpt><trkpt lat="40.74080110550801" lon="17.514069319882697"><ele>259.0</ele><time>2026-04-28T14:44:36Z</time></trkpt><trkpt lat="40.74075251323547" lon="17.514003073491335"><ele>259.0</ele><time>2026-04-28T14:44:39Z</time></trkpt><trkpt lat="40.740697269115586" lon="17.513915268965"><ele>259.0</ele><time>2026-04-28T14:44:43Z</time></trkpt><trkpt lat="40.74072209571704" lon="17.51382287401801"><ele>259.0</ele><time>2026-04-28T14:45:22.999Z</time></trkpt><trkpt lat="40.74081512120787" lon="17.513807726344375"><ele>259.0</ele><time>2026-04-28T14:45:25.999Z</time></trkpt><trkpt lat="40.74089282482823" lon="17.513879448543005"><ele>259.0</ele><time>2026-04-28T14:45:27.999Z</time></trkpt><trkpt lat="40.74095856715111" lon="17.51391175704416"><ele>259.0</ele><time>2026-04-28T14:45:29.999Z</time></trkpt><trkpt lat="40.741023542525674" lon="17.51391665028957"><ele>259.0</ele><time>2026-04-28T14:45:32.999Z</time></trkpt><trkpt lat="40.74107233188412" lon="17.51382418582475"><ele>259.0</ele><time>2026-04-28T14:45:35.999Z</time></trkpt><trkpt lat="40.74111509057765" lon="17.51376305829726"><ele>259.0</ele><time>2026-04-28T14:45:37.999Z</time></trkpt><trkpt lat="40.741193690036205" lon="17.513756112272844"><ele>254.16666666666666</ele><time>2026-04-28T14:45:40.999Z</time></trkpt><trkpt lat="40.741244742081385" lon="17.513848055865882"><ele>249.33333333333331</ele><time>2026-04-28T14:45:43.999Z</time></trkpt><trkpt lat="40.7412902257169" lon="17.513920164468153"><ele>244.5</ele><time>2026-04-28T14:45:45.999Z</time></trkpt><trkpt lat="40.741372706919115" lon="17.51394855391123"><ele>239.66666666666669</ele><time>2026-04-28T14:45:47.999Z</time></trkpt><trkpt lat="40.7414442696572" lon="17.51400312325268"><ele>234.83333333333334</ele><time>2026-04-28T14:45:48.999Z</time></trkpt><trkpt lat="40.7414905072682" lon="17.514081420743477"><ele>230.0</ele><time>2026-04-28T14:45:50.999Z</time></trkpt><trkpt lat="40.74153198266705" lon="17.51415678733442"><ele>229.99999999999997</ele><time>2026-04-28T14:45:52.999Z</time></trkpt><trkpt lat="40.74156344714764" lon="17.514238211833703"><ele>230.0</ele><time>2026-04-28T14:45:55.999Z</time></trkpt><trkpt lat="40.74158173895878" lon="17.514325120872073"><ele>229.99999999999997</ele><time>2026-04-28T14:45:58.999Z</time></trkpt><trkpt lat="40.741615498003505" lon="17.5144027777058"><ele>229.99999999999997</ele><time>2026-04-28T14:46:01.999Z</time></trkpt><trkpt lat="40.741640041212115" lon="17.5144867193626"><ele>230.0</ele><time>2026-04-28T14:46:04.999Z</time></trkpt><trkpt lat="40.74169005164387" lon="17.514546074813513"><ele>229.99999999999997</ele><time>2026-04-28T14:46:06.999Z</time></trkpt><trkpt lat="40.74175006814588" lon="17.51458965087566"><ele>229.99999999999997</ele><time>2026-04-28T14:46:10.999Z</time></trkpt><trkpt lat="40.74179129630829" lon="17.51468290492946"><ele>229.66666666666669</ele><time>2026-04-28T14:46:14.999Z</time></trkpt><trkpt lat="40.741827960104814" lon="17.514784078612113"><ele>229.33333333333334</ele><time>2026-04-28T14:46:18.999Z</time></trkpt><trkpt lat="40.74186794007878" lon="17.514897890050378"><ele>229.0</ele><time>2026-04-28T14:46:21.998Z</time></trkpt><trkpt lat="40.74194552138302" lon="17.514919921449625"><ele>228.66666666666669</ele><time>2026-04-28T14:46:24.998Z</time></trkpt><trkpt lat="40.74202057846885" lon="17.514975096573675"><ele>228.33333333333334</ele><time>2026-04-28T14:46:26.998Z</time></trkpt><trkpt lat="40.74207028883731" lon="17.515038687918857"><ele>228.0</ele><time>2026-04-28T14:46:29Z</time></trkpt><trkpt lat="40.7421357588413" lon="17.515056292671606"><ele>228.0</ele><time>2026-04-28T14:46:31Z</time></trkpt><trkpt lat="40.74220285142572" lon="17.5151153545915"><ele>228.0</ele><time>2026-04-28T14:46:33Z</time></trkpt><trkpt lat="40.74223967988921" lon="17.515182870083663"><ele>228.0</ele><time>2026-04-28T14:46:35Z</time></trkpt><trkpt lat="40.74223288820292" lon="17.515295994065205"><ele>228.0</ele><time>2026-04-28T14:46:38Z</time></trkpt><trkpt lat="40.74228318092311" lon="17.515376914084044"><ele>228.0</ele><time>2026-04-28T14:46:41Z</time></trkpt><trkpt lat="40.74234831440984" lon="17.51540143462041"><ele>228.0</ele><time>2026-04-28T14:46:43Z</time></trkpt><trkpt lat="40.74244186398637" lon="17.515435757214604"><ele>230.83333333333334</ele><time>2026-04-28T14:46:46Z</time></trkpt><trkpt lat="40.74245144096437" lon="17.515521370698103"><ele>233.66666666666669</ele><time>2026-04-28T14:46:49Z</time></trkpt><trkpt lat="40.74251430607557" lon="17.515614009753328"><ele>236.5</ele><time>2026-04-28T14:46:53Z</time></trkpt><trkpt lat="40.742579492391755" lon="17.51565600356302"><ele>239.33333333333334</ele><time>2026-04-28T14:46:57Z</time></trkpt><trkpt lat="40.742630740556834" lon="17.51570953636989"><ele>242.16666666666669</ele><time>2026-04-28T14:47:00Z</time></trkpt><trkpt lat="40.74266131921955" lon="17.51580103293275"><ele>245.0</ele><time>2026-04-28T14:47:03Z</time></trkpt><trkpt lat="40.74265576174761" lon="17.515909060829916"><ele>245.0</ele><time>2026-04-28T14:47:06Z</time></trkpt><trkpt lat="40.7427016477871" lon="17.5159662966263"><ele>245.0</ele><time>2026-04-28T14:47:14Z</time></trkpt><trkpt lat="40.74273333001337" lon="17.51604829172697"><ele>245.0</ele><time>2026-04-28T14:47:24.999Z</time></trkpt><trkpt lat="40.74279200187811" lon="17.516122303207865"><ele>245.0</ele><time>2026-04-28T14:47:27.999Z</time></trkpt><trkpt lat="40.74283052245792" lon="17.516195673956368"><ele>245.0</ele><time>2026-04-28T14:47:31.999Z</time></trkpt><trkpt lat="40.74289681294393" lon="17.516211790925606"><ele>245.0</ele><time>2026-04-28T14:47:34.999Z</time></trkpt><trkpt lat="40.742953193123775" lon="17.51625004550957"><ele>245.0</ele><time>2026-04-28T14:47:35.999Z</time></trkpt><trkpt lat="40.743016723389246" lon="17.516325799483496"><ele>243.33333333333334</ele><time>2026-04-28T14:47:38.999Z</time></trkpt><trkpt lat="40.743042192022294" lon="17.516410846346396"><ele>241.66666666666669</ele><time>2026-04-28T14:47:40.999Z</time></trkpt><trkpt lat="40.74308998994288" lon="17.51649916586697"><ele>240.0</ele><time>2026-04-28T14:47:43.999Z</time></trkpt><trkpt lat="40.74318207400637" lon="17.516548510441364"><ele>238.33333333333331</ele><time>2026-04-28T14:47:46.999Z</time></trkpt><trkpt lat="40.743244015780654" lon="17.516597894489323"><ele>236.66666666666666</ele><time>2026-04-28T14:47:49.999Z</time></trkpt><trkpt lat="40.74329192744043" lon="17.516685699469114"><ele>235.0</ele><time>2026-04-28T14:47:51.999Z</time></trkpt><trkpt lat="40.743345433389514" lon="17.516744400500667"><ele>234.99999999999997</ele><time>2026-04-28T14:47:53.999Z</time></trkpt><trkpt lat="40.743425099849986" lon="17.51672726190441"><ele>235.0</ele><time>2026-04-28T14:47:57.999Z</time></trkpt><trkpt lat="40.74347294026412" lon="17.516818058189035"><ele>235.0</ele><time>2026-04-28T14:48:00.999Z</time></trkpt><trkpt lat="40.74355242702127" lon="17.516793730331322"><ele>235.0</ele><time>2026-04-28T14:48:03.999Z</time></trkpt><trkpt lat="40.74360877289449" lon="17.516855799565093"><ele>234.99999999999997</ele><time>2026-04-28T14:48:05.999Z</time></trkpt><trkpt lat="40.743655868146845" lon="17.51691110490983"><ele>235.0</ele><time>2026-04-28T14:48:09.999Z</time></trkpt><trkpt lat="40.74371741880599" lon="17.51686430858496"><ele>231.16666666666666</ele><time>2026-04-28T14:48:23.998Z</time></trkpt><trkpt lat="40.74377312674844" lon="17.51678192493936"><ele>227.33333333333331</ele><time>2026-04-28T14:48:42Z</time></trkpt><trkpt lat="40.74378783561437" lon="17.516691401412587"><ele>223.5</ele><time>2026-04-28T14:48:47Z</time></trkpt><trkpt lat="40.74376154333052" lon="17.51657134484505"><ele>219.66666666666669</ele><time>2026-04-28T14:48:50Z</time></trkpt><trkpt lat="40.74377071832117" lon="17.516470569367698"><ele>215.83333333333334</ele><time>2026-04-28T14:48:54Z</time></trkpt><trkpt lat="40.743791833484345" lon="17.516382305835805"><ele>212.0</ele><time>2026-04-28T14:48:57Z</time></trkpt><trkpt lat="40.74382126321388" lon="17.516280063005016"><ele>209.83333333333334</ele><time>2026-04-28T14:49:01Z</time></trkpt><trkpt lat="40.74386627157067" lon="17.516184712475223"><ele>207.66666666666669</ele><time>2026-04-28T14:49:04Z</time></trkpt><trkpt lat="40.743936594536954" lon="17.51611510298312"><ele>205.5</ele><time>2026-04-28T14:49:08Z</time></trkpt><trkpt lat="40.74386904812536" lon="17.51604875368304"><ele>203.33333333333331</ele><time>2026-04-28T14:49:12Z</time></trkpt><trkpt lat="40.74390151670507" lon="17.515961382676743"><ele>201.16666666666666</ele><time>2026-04-28T14:49:15Z</time></trkpt><trkpt lat="40.743970409638834" lon="17.51595371970196"><ele>199.0</ele><time>2026-04-28T14:49:17Z</time></trkpt><trkpt lat="40.744030571845215" lon="17.515927283275843"><ele>198.99999999999997</ele><time>2026-04-28T14:49:18Z</time></trkpt><trkpt lat="40.74409099334722" lon="17.515890074570358"><ele>199.0</ele><time>2026-04-28T14:52:26.999Z</time></trkpt><trkpt lat="40.74413762813119" lon="17.515805888099276"><ele>199.0</ele><time>2026-04-28T14:52:52Z</time></trkpt><trkpt lat="40.7442069735411" lon="17.51573028665696"><ele>199.0</ele><time>2026-04-28T14:52:54Z</time></trkpt><trkpt lat="40.744295660176284" lon="17.515698711142484"><ele>198.99999999999997</ele><time>2026-04-28T14:52:56Z</time></trkpt><trkpt lat="40.74438350970092" lon="17.515704280071343"><ele>199.0</ele><time>2026-04-28T14:52:58Z</time></trkpt><trkpt lat="40.744460281101716" lon="17.515706005444397"><ele>196.0</ele><time>2026-04-28T14:53:00Z</time></trkpt><trkpt lat="40.74454032287536" lon="17.51568840871601"><ele>193.0</ele><time>2026-04-28T14:53:02Z</time></trkpt><trkpt lat="40.74463611847053" lon="17.51565735642941"><ele>190.0</ele><time>2026-04-28T14:53:04Z</time></trkpt><trkpt lat="40.744723241181205" lon="17.515641501577825"><ele>187.0</ele><time>2026-04-28T14:53:06Z</time></trkpt><trkpt lat="40.74482429358059" lon="17.51563052713522"><ele>184.0</ele><time>2026-04-28T14:53:08Z</time></trkpt><trkpt lat="40.74490734536388" lon="17.515598895100453"><ele>184.0</ele><time>2026-04-28T14:53:10Z</time></trkpt><trkpt lat="40.744990694888756" lon="17.515550756087432"><ele>184.0</ele><time>2026-04-28T14:53:12Z</time></trkpt><trkpt lat="40.74506815861661" lon="17.51554123240258"><ele>184.0</ele><time>2026-04-28T14:53:15Z</time></trkpt><trkpt lat="40.74509592010421" lon="17.515458888102227"><ele>184.0</ele><time>2026-04-28T14:53:17Z</time></trkpt><trkpt lat="40.74515902255903" lon="17.51550095755476"><ele>184.0</ele><time>2026-04-28T14:53:29Z</time></trkpt><trkpt lat="40.74521268070831" lon="17.51559743152208"><ele>184.0</ele><time>2026-04-28T14:53:32Z</time></trkpt><trkpt lat="40.74529838335723" lon="17.515622284568437"><ele>181.6</ele><time>2026-04-28T14:53:34Z</time></trkpt><trkpt lat="40.74540949571059" lon="17.515603375870935"><ele>179.2</ele><time>2026-04-28T14:53:38Z</time></trkpt><trkpt lat="40.74548132008805" lon="17.515700277131394"><ele>176.79999999999998</ele><time>2026-04-28T14:53:39.999Z</time></trkpt><trkpt lat="40.74556995645653" lon="17.515755337880787"><ele>174.39999999999998</ele><time>2026-04-28T14:53:40.999Z</time></trkpt><trkpt lat="40.74564431923483" lon="17.51580813005349"><ele>172.0</ele><time>2026-04-28T14:53:41.999Z</time></trkpt><trkpt lat="40.74574397073872" lon="17.515915093610815"><ele>172.0</ele><time>2026-04-28T14:53:43.999Z</time></trkpt><trkpt lat="40.74581572200495" lon="17.516026061598282"><ele>172.0</ele><time>2026-04-28T14:53:45.999Z</time></trkpt><trkpt lat="40.745871314400944" lon="17.516070301037185"><ele>172.0</ele><time>2026-04-28T14:53:46.999Z</time></trkpt><trkpt lat="40.745948267003854" lon="17.516202820746255"><ele>172.0</ele><time>2026-04-28T14:53:48.999Z</time></trkpt><trkpt lat="40.74601385926392" lon="17.516200972374598"><ele>172.0</ele><time>2026-04-28T14:53:52.999Z</time></trkpt><trkpt lat="40.74606251989629" lon="17.516129877985634"><ele>172.0</ele><time>2026-04-28T14:53:54.999Z</time></trkpt><trkpt lat="40.74607133418994" lon="17.516041489235132"><ele>172.0</ele><time>2026-04-28T14:53:56.999Z</time></trkpt><trkpt lat="40.74602592248967" lon="17.51595936950612"><ele>172.0</ele><time>2026-04-28T14:53:58.999Z</time></trkpt><trkpt lat="40.74600142068839" lon="17.515881089893146"><ele>172.0</ele><time>2026-04-28T14:54:00.999Z</time></trkpt><trkpt lat="40.74596656308522" lon="17.515797572252076"><ele>172.0</ele><time>2026-04-28T14:54:02.999Z</time></trkpt><trkpt lat="40.74590862350585" lon="17.515711551995494"><ele>172.0</ele><time>2026-04-28T14:54:04.999Z</time></trkpt><trkpt lat="40.745826463125155" lon="17.515684977094644"><ele>172.0</ele><time>2026-04-28T14:54:06.999Z</time></trkpt><trkpt lat="40.74574238132294" lon="17.515746174169525"><ele>172.0</ele><time>2026-04-28T14:54:08.999Z</time></trkpt><trkpt lat="40.745678778575645" lon="17.515715059024206"><ele>172.0</ele><time>2026-04-28T14:54:10.999Z</time></trkpt><trkpt lat="40.74560856791811" lon="17.51566164673918"><ele>172.0</ele><time>2026-04-28T14:54:12.999Z</time></trkpt><trkpt lat="40.745606819084344" lon="17.515573001713094"><ele>172.0</ele><time>2026-04-28T14:54:14.999Z</time></trkpt><trkpt lat="40.74566507303922" lon="17.51547581125422"><ele>172.0</ele><time>2026-04-28T14:54:16.999Z</time></trkpt><trkpt lat="40.74572973189825" lon="17.515392778801424"><ele>172.0</ele><time>2026-04-28T14:54:18.999Z</time></trkpt><trkpt lat="40.74578496134497" lon="17.51533140297169"><ele>172.39999999999998</ele><time>2026-04-28T14:54:20.999Z</time></trkpt><trkpt lat="40.74583801323706" lon="17.515218361229575"><ele>172.79999999999998</ele><time>2026-04-28T14:54:23.999Z</time></trkpt><trkpt lat="40.74588388687878" lon="17.515110793780185"><ele>173.2</ele><time>2026-04-28T14:54:25.999Z</time></trkpt><trkpt lat="40.745974190451484" lon="17.515041924104224"><ele>173.6</ele><time>2026-04-28T14:54:27.999Z</time></trkpt><trkpt lat="40.74605707446893" lon="17.5150224756695"><ele>174.0</ele><time>2026-04-28T14:54:29.999Z</time></trkpt><trkpt lat="40.74610343866008" lon="17.514926267697362"><ele>172.83333333333334</ele><time>2026-04-28T14:54:31.999Z</time></trkpt><trkpt lat="40.74614254075456" lon="17.514814343701172"><ele>171.66666666666666</ele><time>2026-04-28T14:54:33.999Z</time></trkpt><trkpt lat="40.746213525096714" lon="17.514732568372047"><ele>170.5</ele><time>2026-04-28T14:54:36.999Z</time></trkpt><trkpt lat="40.74624543798168" lon="17.5146555149618"><ele>169.33333333333331</ele><time>2026-04-28T14:54:38.999Z</time></trkpt><trkpt lat="40.746297657163716" lon="17.514551250750042"><ele>168.16666666666666</ele><time>2026-04-28T14:54:40.999Z</time></trkpt><trkpt lat="40.74632441703334" lon="17.514452094842497"><ele>167.0</ele><time>2026-04-28T14:54:42.999Z</time></trkpt><trkpt lat="40.746395353149936" lon="17.5144636831297"><ele>167.0</ele><time>2026-04-28T14:54:45.999Z</time></trkpt><trkpt lat="40.746437411292305" lon="17.514540275230374"><ele>167.0</ele><time>2026-04-28T14:54:47.998Z</time></trkpt><trkpt lat="40.746514819988555" lon="17.514579673296854"><ele>167.0</ele><time>2026-04-28T14:54:50.998Z</time></trkpt><trkpt lat="40.746580068937796" lon="17.51465052763166"><ele>167.0</ele><time>2026-04-28T14:54:53Z</time></trkpt><trkpt lat="40.74666535746532" lon="17.51472206123332"><ele>167.0</ele><time>2026-04-28T14:54:55Z</time></trkpt><trkpt lat="40.746760730218476" lon="17.514687437127694"><ele>167.0</ele><time>2026-04-28T14:54:57Z</time></trkpt><trkpt lat="40.74681587030991" lon="17.514645201074586"><ele>164.5</ele><time>2026-04-28T14:54:58Z</time></trkpt><trkpt lat="40.74690813280579" lon="17.514661889268524"><ele>162.0</ele><time>2026-04-28T14:55:00Z</time></trkpt><trkpt lat="40.74694012532014" lon="17.514745634173508"><ele>159.5</ele><time>2026-04-28T14:55:02Z</time></trkpt><trkpt lat="40.747007833681266" lon="17.514826947520834"><ele>157.0</ele><time>2026-04-28T14:55:05Z</time></trkpt><trkpt lat="40.74707231765757" lon="17.51482867521908"><ele>154.5</ele><time>2026-04-28T14:55:07Z</time></trkpt><trkpt lat="40.74712991836675" lon="17.514734012038108"><ele>152.0</ele><time>2026-04-28T14:55:09Z</time></trkpt><trkpt lat="40.74718560529133" lon="17.514648157505487"><ele>152.0</ele><time>2026-04-28T14:55:11Z</time></trkpt><trkpt lat="40.74725778828913" lon="17.514576127549365"><ele>152.0</ele><time>2026-04-28T14:55:13Z</time></trkpt><trkpt lat="40.74733145386364" lon="17.51450821662736"><ele>152.0</ele><time>2026-04-28T14:55:15Z</time></trkpt><trkpt lat="40.747385253607625" lon="17.514428303915185"><ele>152.0</ele><time>2026-04-28T14:55:17Z</time></trkpt><trkpt lat="40.747420926592056" lon="17.51435425740823"><ele>152.0</ele><time>2026-04-28T14:55:19Z</time></trkpt><trkpt lat="40.74749314798712" lon="17.51438006400141"><ele>152.0</ele><time>2026-04-28T14:55:21Z</time></trkpt><trkpt lat="40.747556955940944" lon="17.51442937743119"><ele>152.33333333333331</ele><time>2026-04-28T14:55:23Z</time></trkpt><trkpt lat="40.74762665246004" lon="17.51444674218375"><ele>152.66666666666666</ele><time>2026-04-28T14:55:25Z</time></trkpt><trkpt lat="40.74771299337944" lon="17.514429501254373"><ele>153.0</ele><time>2026-04-28T14:55:27Z</time></trkpt><trkpt lat="40.74776486152935" lon="17.51434223362085"><ele>153.33333333333334</ele><time>2026-04-28T14:55:29Z</time></trkpt><trkpt lat="40.7478012166319" lon="17.514231217830023"><ele>153.66666666666669</ele><time>2026-04-28T14:55:31Z</time></trkpt><trkpt lat="40.74782573886161" lon="17.514130991272815"><ele>154.0</ele><time>2026-04-28T14:55:33Z</time></trkpt><trkpt lat="40.74783258773567" lon="17.514035181577345"><ele>152.2</ele><time>2026-04-28T14:55:35Z</time></trkpt><trkpt lat="40.74780258097606" lon="17.51393747715445"><ele>150.4</ele><time>2026-04-28T14:55:37.999Z</time></trkpt><trkpt lat="40.74781400676052" lon="17.51382592809532"><ele>148.6</ele><time>2026-04-28T14:55:40.999Z</time></trkpt><trkpt lat="40.74784325981559" lon="17.513718547535387"><ele>146.8</ele><time>2026-04-28T14:55:42.999Z</time></trkpt><trkpt lat="40.747887616243155" lon="17.51358743742235"><ele>145.0</ele><time>2026-04-28T14:55:45.999Z</time></trkpt><trkpt lat="40.747928998693084" lon="17.513455085760278"><ele>145.0</ele><time>2026-04-28T14:55:47.999Z</time></trkpt><trkpt lat="40.74796685960625" lon="17.513321703752556"><ele>145.0</ele><time>2026-04-28T14:55:49.999Z</time></trkpt><trkpt lat="40.74797775316153" lon="17.513206436948234"><ele>145.0</ele><time>2026-04-28T14:55:51.999Z</time></trkpt><trkpt lat="40.74797152739587" lon="17.513113758558585"><ele>145.0</ele><time>2026-04-28T14:55:53.999Z</time></trkpt><trkpt lat="40.74796628718173" lon="17.51300688031211"><ele>145.0</ele><time>2026-04-28T14:55:55.999Z</time></trkpt><trkpt lat="40.74796905053724" lon="17.51289919473893"><ele>145.0</ele><time>2026-04-28T14:55:57.999Z</time></trkpt><trkpt lat="40.747971131910035" lon="17.512789806202335"><ele>144.83333333333334</ele><time>2026-04-28T14:55:59.999Z</time></trkpt><trkpt lat="40.74795895765257" lon="17.512707249659467"><ele>144.66666666666669</ele><time>2026-04-28T14:56:01.999Z</time></trkpt><trkpt lat="40.74800338653134" lon="17.512611000492555"><ele>144.5</ele><time>2026-04-28T14:56:04.999Z</time></trkpt><trkpt lat="40.74800321809959" lon="17.51251542340724"><ele>144.33333333333334</ele><time>2026-04-28T14:56:07.999Z</time></trkpt><trkpt lat="40.747990365671896" lon="17.512431495757077"><ele>144.16666666666666</ele><time>2026-04-28T14:56:10.999Z</time></trkpt><trkpt lat="40.74799251271326" lon="17.51229269430328"><ele>144.0</ele><time>2026-04-28T14:56:12.999Z</time></trkpt><trkpt lat="40.74796503746518" lon="17.51219415260578"><ele>144.0</ele><time>2026-04-28T14:56:14.999Z</time></trkpt><trkpt lat="40.74792690076442" lon="17.51209842863528"><ele>144.0</ele><time>2026-04-28T14:56:16.999Z</time></trkpt><trkpt lat="40.747877372762204" lon="17.512035147347515"><ele>144.0</ele><time>2026-04-28T14:56:18.999Z</time></trkpt><trkpt lat="40.74782000784448" lon="17.511957889794694"><ele>144.0</ele><time>2026-04-28T14:56:20.999Z</time></trkpt><trkpt lat="40.74774540879877" lon="17.511891003703468"><ele>144.0</ele><time>2026-04-28T14:56:22.999Z</time></trkpt><trkpt lat="40.74768503730612" lon="17.511767831781764"><ele>144.0</ele><time>2026-04-28T14:56:24.999Z</time></trkpt><trkpt lat="40.74762048519776" lon="17.511638676578077"><ele>145.2</ele><time>2026-04-28T14:56:26.999Z</time></trkpt><trkpt lat="40.74758193937069" lon="17.511513715072233"><ele>146.4</ele><time>2026-04-28T14:56:28.999Z</time></trkpt><trkpt lat="40.74755024547909" lon="17.511439629915156"><ele>147.6</ele><time>2026-04-28T14:56:30.999Z</time></trkpt><trkpt lat="40.74752727059106" lon="17.511354657762592"><ele>148.8</ele><time>2026-04-28T14:56:31.999Z</time></trkpt><trkpt lat="40.74748549702879" lon="17.51120717650362"><ele>150.0</ele><time>2026-04-28T14:56:33.999Z</time></trkpt><trkpt lat="40.74745217944741" lon="17.511042192299772"><ele>150.16666666666666</ele><time>2026-04-28T14:56:35.999Z</time></trkpt><trkpt lat="40.747431566829555" lon="17.510913514025155"><ele>150.33333333333334</ele><time>2026-04-28T14:56:37.999Z</time></trkpt><trkpt lat="40.747415682686665" lon="17.51081474481685"><ele>150.5</ele><time>2026-04-28T14:56:39.999Z</time></trkpt><trkpt lat="40.7474337520215" lon="17.51070221277632"><ele>150.66666666666669</ele><time>2026-04-28T14:56:41.999Z</time></trkpt><trkpt lat="40.7474355140758" lon="17.510594883798188"><ele>150.83333333333334</ele><time>2026-04-28T14:56:43.999Z</time></trkpt><trkpt lat="40.7474596936658" lon="17.510491498680604"><ele>151.0</ele><time>2026-04-28T14:56:45.998Z</time></trkpt><trkpt lat="40.747475091206134" lon="17.510373784146886"><ele>150.5</ele><time>2026-04-28T14:56:47.998Z</time></trkpt><trkpt lat="40.747522329639224" lon="17.510278093940073"><ele>150.0</ele><time>2026-04-28T14:56:49.998Z</time></trkpt><trkpt lat="40.747520280199836" lon="17.510174820187284"><ele>149.5</ele><time>2026-04-28T14:56:51.998Z</time></trkpt><trkpt lat="40.74749195734386" lon="17.510074458455403"><ele>149.0</ele><time>2026-04-28T14:56:53.998Z</time></trkpt><trkpt lat="40.747511549333254" lon="17.509979009805484"><ele>148.5</ele><time>2026-04-28T14:56:55.998Z</time></trkpt><trkpt lat="40.74746424732723" lon="17.509852689559686"><ele>148.0</ele><time>2026-04-28T14:56:57.998Z</time></trkpt><trkpt lat="40.74741880779277" lon="17.50972598297329"><ele>148.0</ele><time>2026-04-28T14:57:00Z</time></trkpt><trkpt lat="40.747454896667975" lon="17.509650016678773"><ele>148.0</ele><time>2026-04-28T14:57:04Z</time></trkpt><trkpt lat="40.74751851221041" lon="17.50967290111797"><ele>148.0</ele><time>2026-04-28T14:57:07Z</time></trkpt><trkpt lat="40.747602285287044" lon="17.509717660839314"><ele>148.0</ele><time>2026-04-28T14:57:09Z</time></trkpt><trkpt lat="40.74769050181117" lon="17.509777437994853"><ele>148.0</ele><time>2026-04-28T14:57:10Z</time></trkpt><trkpt lat="40.7477840034964" lon="17.509762167619918"><ele>148.0</ele><time>2026-04-28T14:57:12Z</time></trkpt><trkpt lat="40.74781733171296" lon="17.50966305266161"><ele>147.14285714285714</ele><time>2026-04-28T14:57:14Z</time></trkpt><trkpt lat="40.74784720146394" lon="17.509560154646596"><ele>146.28571428571428</ele><time>2026-04-28T14:57:16Z</time></trkpt><trkpt lat="40.74790901598362" lon="17.509495914938316"><ele>145.42857142857142</ele><time>2026-04-28T14:57:19Z</time></trkpt><trkpt lat="40.74794593147752" lon="17.50942688157908"><ele>144.57142857142856</ele><time>2026-04-28T14:57:21Z</time></trkpt><trkpt lat="40.747968822931696" lon="17.5093390578365"><ele>143.7142857142857</ele><time>2026-04-28T14:57:23Z</time></trkpt><trkpt lat="40.74799934443507" lon="17.509238596053866"><ele>142.85714285714286</ele><time>2026-04-28T14:57:25Z</time></trkpt><trkpt lat="40.74801836858873" lon="17.509152749919448"><ele>142.0</ele><time>2026-04-28T14:57:27Z</time></trkpt><trkpt lat="40.74803739570934" lon="17.509025091316854"><ele>142.0</ele><time>2026-04-28T14:57:30Z</time></trkpt><trkpt lat="40.748066645779154" lon="17.5089472150645"><ele>142.0</ele><time>2026-04-28T14:57:32Z</time></trkpt><trkpt lat="40.748071749321795" lon="17.508858500849545"><ele>142.0</ele><time>2026-04-28T14:57:34Z</time></trkpt><trkpt lat="40.748072164066016" lon="17.508772090310806"><ele>142.0</ele><time>2026-04-28T14:57:36Z</time></trkpt><trkpt lat="40.74812547160871" lon="17.508684353100765"><ele>142.0</ele><time>2026-04-28T14:57:38.999Z</time></trkpt><trkpt lat="40.748150440283275" lon="17.508592124142364"><ele>142.0</ele><time>2026-04-28T14:57:41.999Z</time></trkpt><trkpt lat="40.74813973563759" lon="17.508509805983646"><ele>142.0</ele><time>2026-04-28T14:57:44.999Z</time></trkpt><trkpt lat="40.74821594794093" lon="17.508405188581932"><ele>142.33333333333334</ele><time>2026-04-28T14:57:47.999Z</time></trkpt><trkpt lat="40.74825993415906" lon="17.50831680013409"><ele>142.66666666666669</ele><time>2026-04-28T14:57:49.999Z</time></trkpt><trkpt lat="40.748313320161145" lon="17.508249867494634"><ele>143.0</ele><time>2026-04-28T14:57:51.999Z</time></trkpt><trkpt lat="40.74838493197824" lon="17.508192831107635"><ele>143.33333333333334</ele><time>2026-04-28T14:57:54.999Z</time></trkpt><trkpt lat="40.74844813583194" lon="17.50814355364375"><ele>143.66666666666666</ele><time>2026-04-28T14:57:56.999Z</time></trkpt><trkpt lat="40.74850856346937" lon="17.508081453132142"><ele>144.0</ele><time>2026-04-28T14:58:00.999Z</time></trkpt><trkpt lat="40.748564800287035" lon="17.508022629138264"><ele>144.0</ele><time>2026-04-28T14:58:03.999Z</time></trkpt><trkpt lat="40.748641309880114" lon="17.507973138232376"><ele>144.0</ele><time>2026-04-28T14:58:06.999Z</time></trkpt><trkpt lat="40.74870892205162" lon="17.507921956927238"><ele>144.0</ele><time>2026-04-28T14:58:09.999Z</time></trkpt><trkpt lat="40.74878001173652" lon="17.507851124241473"><ele>144.0</ele><time>2026-04-28T14:58:11.999Z</time></trkpt><trkpt lat="40.74883567727268" lon="17.507809705568402"><ele>144.0</ele><time>2026-04-28T14:58:13.999Z</time></trkpt><trkpt lat="40.7488801921222" lon="17.507739879841566"><ele>144.0</ele><time>2026-04-28T14:58:26.999Z</time></trkpt><trkpt lat="40.74893541882141" lon="17.50762379840459"><ele>145.2</ele><time>2026-04-28T14:58:29.999Z</time></trkpt><trkpt lat="40.74895069808564" lon="17.50753514059398"><ele>146.4</ele><time>2026-04-28T14:58:30.999Z</time></trkpt><trkpt lat="40.74897952577814" lon="17.507389400535445"><ele>147.6</ele><time>2026-04-28T14:58:32.999Z</time></trkpt><trkpt lat="40.74898882072819" lon="17.507232464641483"><ele>148.8</ele><time>2026-04-28T14:58:34.999Z</time></trkpt><trkpt lat="40.74898153971488" lon="17.507066612666378"><ele>150.0</ele><time>2026-04-28T14:58:36.999Z</time></trkpt><trkpt lat="40.74898817387564" lon="17.506970249405203"><ele>150.6</ele><time>2026-04-28T14:58:37.999Z</time></trkpt><trkpt lat="40.7490003128289" lon="17.506819997709407"><ele>151.2</ele><time>2026-04-28T14:58:39.999Z</time></trkpt><trkpt lat="40.749009297721116" lon="17.50669745400021"><ele>151.8</ele><time>2026-04-28T14:58:41.999Z</time></trkpt><trkpt lat="40.749017351982324" lon="17.506570200336284"><ele>152.4</ele><time>2026-04-28T14:58:43.999Z</time></trkpt><trkpt lat="40.74902145042179" lon="17.506458754224838"><ele>153.0</ele><time>2026-04-28T14:58:45.999Z</time></trkpt><trkpt lat="40.74899064816431" lon="17.50635055860476"><ele>153.6</ele><time>2026-04-28T14:58:47.999Z</time></trkpt><trkpt lat="40.7489293786667" lon="17.506241780494904"><ele>154.20000000000002</ele><time>2026-04-28T14:58:49.998Z</time></trkpt><trkpt lat="40.74894930791099" lon="17.50611839133561"><ele>154.8</ele><time>2026-04-28T14:58:51.998Z</time></trkpt><trkpt lat="40.74896891172168" lon="17.506004263226554"><ele>155.4</ele><time>2026-04-28T14:58:53.998Z</time></trkpt><trkpt lat="40.74898060389542" lon="17.505882335116763"><ele>156.0</ele><time>2026-04-28T14:58:55.998Z</time></trkpt><trkpt lat="40.74896873199027" lon="17.505759619879598"><ele>156.0</ele><time>2026-04-28T14:58:57.998Z</time></trkpt><trkpt lat="40.749028708096645" lon="17.505800375542297"><ele>156.0</ele><time>2026-04-28T14:59:00.998Z</time></trkpt><trkpt lat="40.749099012781194" lon="17.505821415501877"><ele>156.0</ele><time>2026-04-28T14:59:02.998Z</time></trkpt><trkpt lat="40.74923472950356" lon="17.505920323868935"><ele>156.0</ele><time>2026-04-28T14:59:05Z</time></trkpt><trkpt lat="40.74930942148785" lon="17.505984485041466"><ele>156.0</ele><time>2026-04-28T14:59:06Z</time></trkpt><trkpt lat="40.7493495498779" lon="17.50606518190983"><ele>156.0</ele><time>2026-04-28T14:59:07Z</time></trkpt><trkpt lat="40.74940421966024" lon="17.50612640530116"><ele>156.0</ele><time>2026-04-28T14:59:09Z</time></trkpt><trkpt lat="40.74936946036815" lon="17.50597211087084"><ele>156.0</ele><time>2026-04-28T14:59:15Z</time></trkpt><trkpt lat="40.74933745912011" lon="17.505898477271792"><ele>156.0</ele><time>2026-04-28T14:59:17Z</time></trkpt><trkpt lat="40.749299488906125" lon="17.505806414288497"><ele>156.0</ele><time>2026-04-28T14:59:19Z</time></trkpt><trkpt lat="40.74925906904955" lon="17.505706611690105"><ele>156.0</ele><time>2026-04-28T14:59:21Z</time></trkpt><trkpt lat="40.74922368840409" lon="17.505597111773866"><ele>156.0</ele><time>2026-04-28T14:59:23Z</time></trkpt><trkpt lat="40.74920039699714" lon="17.505510130390686"><ele>156.0</ele><time>2026-04-28T14:59:25Z</time></trkpt><trkpt lat="40.74916675933594" lon="17.50540667502161"><ele>156.0</ele><time>2026-04-28T14:59:27Z</time></trkpt><trkpt lat="40.74911274903464" lon="17.505322970830665"><ele>156.0</ele><time>2026-04-28T14:59:29Z</time></trkpt><trkpt lat="40.749072030525156" lon="17.5052480393134"><ele>156.0</ele><time>2026-04-28T14:59:31Z</time></trkpt><trkpt lat="40.74900074084473" lon="17.5051709015341"><ele>156.0</ele><time>2026-04-28T14:59:33Z</time></trkpt><trkpt lat="40.74892167516926" lon="17.505141652952798"><ele>156.83333333333334</ele><time>2026-04-28T14:59:35Z</time></trkpt><trkpt lat="40.74883584730222" lon="17.505140652646393"><ele>157.66666666666666</ele><time>2026-04-28T14:59:37Z</time></trkpt><trkpt lat="40.748762894950005" lon="17.50517097520878"><ele>158.5</ele><time>2026-04-28T14:59:39Z</time></trkpt><trkpt lat="40.7486782386498" lon="17.505191481108422"><ele>159.33333333333331</ele><time>2026-04-28T14:59:41Z</time></trkpt><trkpt lat="40.748597219673" lon="17.50516597886526"><ele>160.16666666666666</ele><time>2026-04-28T14:59:43Z</time></trkpt><trkpt lat="40.74854370692067" lon="17.505108283107216"><ele>161.0</ele><time>2026-04-28T14:59:45Z</time></trkpt><trkpt lat="40.74852435517058" lon="17.50495975780116"><ele>162.20000000000002</ele><time>2026-04-28T14:59:46.999Z</time></trkpt><trkpt lat="40.748498510839084" lon="17.504840889693966"><ele>163.4</ele><time>2026-04-28T14:59:48.999Z</time></trkpt><trkpt lat="40.74845413906837" lon="17.50472041289281"><ele>164.6</ele><time>2026-04-28T14:59:50.999Z</time></trkpt><trkpt lat="40.74841324225239" lon="17.50458271908429"><ele>165.8</ele><time>2026-04-28T14:59:52.999Z</time></trkpt><trkpt lat="40.748384369033744" lon="17.504469656808105"><ele>167.0</ele><time>2026-04-28T14:59:54.999Z</time></trkpt><trkpt lat="40.7483419733102" lon="17.504350288332876"><ele>167.2</ele><time>2026-04-28T14:59:56.999Z</time></trkpt><trkpt lat="40.74830792439405" lon="17.504249824490966"><ele>167.39999999999998</ele><time>2026-04-28T14:59:58.999Z</time></trkpt><trkpt lat="40.748270320511345" lon="17.50414568082594"><ele>167.60000000000002</ele><time>2026-04-28T15:00:00.999Z</time></trkpt><trkpt lat="40.7482521964848" lon="17.504032283001468"><ele>167.8</ele><time>2026-04-28T15:00:02.999Z</time></trkpt><trkpt lat="40.748191258176604" lon="17.503931467174855"><ele>168.0</ele><time>2026-04-28T15:00:04.999Z</time></trkpt><trkpt lat="40.74811726482982" lon="17.503841715104052"><ele>168.0</ele><time>2026-04-28T15:00:06.999Z</time></trkpt><trkpt lat="40.748033962651014" lon="17.50376840186468"><ele>168.0</ele><time>2026-04-28T15:00:08.999Z</time></trkpt><trkpt lat="40.74794323772071" lon="17.503697399523176"><ele>168.0</ele><time>2026-04-28T15:00:10.999Z</time></trkpt><trkpt lat="40.7478602582753" lon="17.503627954947518"><ele>168.0</ele><time>2026-04-28T15:00:12.999Z</time></trkpt><trkpt lat="40.74777274996752" lon="17.503540312870772"><ele>168.0</ele><time>2026-04-28T15:00:14.999Z</time></trkpt><trkpt lat="40.7476843955788" lon="17.503475937527085"><ele>169.66666666666666</ele><time>2026-04-28T15:00:16.999Z</time></trkpt><trkpt lat="40.74760370724834" lon="17.503417714602588"><ele>171.33333333333334</ele><time>2026-04-28T15:00:18.999Z</time></trkpt><trkpt lat="40.747528376081135" lon="17.503351124020426"><ele>173.0</ele><time>2026-04-28T15:00:20.999Z</time></trkpt><trkpt lat="40.747471163181984" lon="17.50331180276541"><ele>174.66666666666669</ele><time>2026-04-28T15:00:21.999Z</time></trkpt><trkpt lat="40.747385030482" lon="17.50324617971671"><ele>176.33333333333334</ele><time>2026-04-28T15:00:23.999Z</time></trkpt><trkpt lat="40.747306916411304" lon="17.503197074709895"><ele>178.0</ele><time>2026-04-28T15:00:25.999Z</time></trkpt><trkpt lat="40.74724161509351" lon="17.503132096959735"><ele>177.99999999999997</ele><time>2026-04-28T15:00:27.999Z</time></trkpt><trkpt lat="40.74718471498384" lon="17.503046881441133"><ele>178.0</ele><time>2026-04-28T15:00:29.999Z</time></trkpt><trkpt lat="40.74718774156116" lon="17.50295585851012"><ele>178.0</ele><time>2026-04-28T15:00:31.999Z</time></trkpt><trkpt lat="40.747155877507026" lon="17.50287757721041"><ele>178.0</ele><time>2026-04-28T15:00:34.999Z</time></trkpt><trkpt lat="40.74712632045863" lon="17.502959963416355"><ele>178.0</ele><time>2026-04-28T15:00:58.998Z</time></trkpt><trkpt lat="40.74719528864393" lon="17.502982498210855"><ele>177.99999999999997</ele><time>2026-04-28T15:01:01.998Z</time></trkpt><trkpt lat="40.74724254681299" lon="17.502895856445274"><ele>178.0</ele><time>2026-04-28T15:01:04.998Z</time></trkpt><trkpt lat="40.7471535819098" lon="17.502945714052974"><ele>178.0</ele><time>2026-04-28T15:02:02.999Z</time></trkpt><trkpt lat="40.74723516265996" lon="17.502968346737916"><ele>178.0</ele><time>2026-04-28T15:07:13.999Z</time></trkpt><trkpt lat="40.74727971984535" lon="17.502859893653685"><ele>178.0</ele><time>2026-04-28T15:07:16.999Z</time></trkpt><trkpt lat="40.74731632834051" lon="17.502785671059563"><ele>178.0</ele><time>2026-04-28T15:07:18.999Z</time></trkpt><trkpt lat="40.747383443711" lon="17.50272256676671"><ele>178.0</ele><time>2026-04-28T15:07:20.999Z</time></trkpt><trkpt lat="40.74746471858929" lon="17.502635860849875"><ele>178.0</ele><time>2026-04-28T15:07:22.998Z</time></trkpt><trkpt lat="40.74754547592906" lon="17.502554257628542"><ele>178.0</ele><time>2026-04-28T15:07:24.998Z</time></trkpt><trkpt lat="40.74760690006748" lon="17.50243626725764"><ele>178.0</ele><time>2026-04-28T15:07:26.998Z</time></trkpt><trkpt lat="40.747663064583385" lon="17.5023357615036"><ele>178.0</ele><time>2026-04-28T15:07:29Z</time></trkpt><trkpt lat="40.74770135718881" lon="17.502247944729714"><ele>178.0</ele><time>2026-04-28T15:07:31Z</time></trkpt><trkpt lat="40.74775466475695" lon="17.502147995129487"><ele>178.0</ele><time>2026-04-28T15:07:33Z</time></trkpt><trkpt lat="40.747805329084" lon="17.5020330028774"><ele>178.0</ele><time>2026-04-28T15:07:35Z</time></trkpt><trkpt lat="40.74785822428229" lon="17.501925496698522"><ele>178.0</ele><time>2026-04-28T15:07:37Z</time></trkpt><trkpt lat="40.74790006508852" lon="17.501823769218134"><ele>178.0</ele><time>2026-04-28T15:07:39Z</time></trkpt><trkpt lat="40.747912784261786" lon="17.50169286224141"><ele>178.0</ele><time>2026-04-28T15:07:42Z</time></trkpt><trkpt lat="40.74793882004813" lon="17.501603412665748"><ele>178.0</ele><time>2026-04-28T15:07:44Z</time></trkpt><trkpt lat="40.747995240355614" lon="17.50148229953327"><ele>178.0</ele><time>2026-04-28T15:07:46Z</time></trkpt><trkpt lat="40.748035039759166" lon="17.501355566422387"><ele>178.0</ele><time>2026-04-28T15:07:48Z</time></trkpt><trkpt lat="40.74804223705045" lon="17.501235187685257"><ele>178.0</ele><time>2026-04-28T15:07:50Z</time></trkpt><trkpt lat="40.748086359624764" lon="17.50114237111649"><ele>178.0</ele><time>2026-04-28T15:07:52Z</time></trkpt><trkpt lat="40.748131522101076" lon="17.50102450743361"><ele>178.0</ele><time>2026-04-28T15:07:54Z</time></trkpt><trkpt lat="40.74815427548056" lon="17.50091547397162"><ele>179.2</ele><time>2026-04-28T15:07:56Z</time></trkpt><trkpt lat="40.748196856702194" lon="17.50084856369457"><ele>180.4</ele><time>2026-04-28T15:07:57Z</time></trkpt><trkpt lat="40.74824262954103" lon="17.50072590389067"><ele>181.6</ele><time>2026-04-28T15:07:59Z</time></trkpt><trkpt lat="40.74829666994673" lon="17.500596346457684"><ele>182.79999999999998</ele><time>2026-04-28T15:08:01Z</time></trkpt><trkpt lat="40.74836908858523" lon="17.500461082573434"><ele>184.0</ele><time>2026-04-28T15:08:03Z</time></trkpt><trkpt lat="40.74843350370341" lon="17.500377315447402"><ele>185.39999999999998</ele><time>2026-04-28T15:08:05Z</time></trkpt><trkpt lat="40.74847138196501" lon="17.500261015021234"><ele>186.8</ele><time>2026-04-28T15:08:07Z</time></trkpt><trkpt lat="40.74849050910657" lon="17.50013913762722"><ele>188.2</ele><time>2026-04-28T15:08:09Z</time></trkpt><trkpt lat="40.74848606121221" lon="17.499996245124645"><ele>189.60000000000002</ele><time>2026-04-28T15:08:11Z</time></trkpt><trkpt lat="40.748447698848985" lon="17.499871487784173"><ele>191.0</ele><time>2026-04-28T15:08:13Z</time></trkpt><trkpt lat="40.7484180838489" lon="17.499766385284534"><ele>191.0</ele><time>2026-04-28T15:08:15Z</time></trkpt><trkpt lat="40.748398841608605" lon="17.499650909987597"><ele>191.0</ele><time>2026-04-28T15:08:16.999Z</time></trkpt><trkpt lat="40.74833280104437" lon="17.499560892217705"><ele>191.0</ele><time>2026-04-28T15:08:18.999Z</time></trkpt><trkpt lat="40.74824955510759" lon="17.499537533391102"><ele>191.0</ele><time>2026-04-28T15:08:20.999Z</time></trkpt><trkpt lat="40.74818534795654" lon="17.499449060246736"><ele>191.0</ele><time>2026-04-28T15:08:22.999Z</time></trkpt><trkpt lat="40.7481219832095" lon="17.499365026171482"><ele>192.0</ele><time>2026-04-28T15:08:25.999Z</time></trkpt><trkpt lat="40.74815198888611" lon="17.49928275608745"><ele>193.0</ele><time>2026-04-28T15:08:27.999Z</time></trkpt><trkpt lat="40.748142083898585" lon="17.499152484891916"><ele>194.0</ele><time>2026-04-28T15:08:30.999Z</time></trkpt><trkpt lat="40.748168297913544" lon="17.499046167568313"><ele>195.0</ele><time>2026-04-28T15:08:33.999Z</time></trkpt><trkpt lat="40.7482386488563" lon="17.498989480681008"><ele>196.00000000000003</ele><time>2026-04-28T15:08:37.999Z</time></trkpt><trkpt lat="40.7482812567809" lon="17.498906301925363"><ele>197.0</ele><time>2026-04-28T15:08:40.999Z</time></trkpt><trkpt lat="40.74832142997413" lon="17.4988072713825"><ele>198.16666666666669</ele><time>2026-04-28T15:08:43.999Z</time></trkpt><trkpt lat="40.74834291351005" lon="17.49870860801121"><ele>199.33333333333334</ele><time>2026-04-28T15:08:45.999Z</time></trkpt><trkpt lat="40.74836489361913" lon="17.49859867108199"><ele>200.5</ele><time>2026-04-28T15:08:48.999Z</time></trkpt><trkpt lat="40.748374768769764" lon="17.498497877442393"><ele>201.66666666666669</ele><time>2026-04-28T15:08:50.999Z</time></trkpt><trkpt lat="40.7483712996716" lon="17.498406373475266"><ele>202.83333333333334</ele><time>2026-04-28T15:08:52.999Z</time></trkpt><trkpt lat="40.748304576565" lon="17.498341124585618"><ele>204.0</ele><time>2026-04-28T15:08:55.999Z</time></trkpt><trkpt lat="40.748253474708235" lon="17.498264393291926"><ele>204.0</ele><time>2026-04-28T15:08:58.999Z</time></trkpt><trkpt lat="40.74821518205614" lon="17.4981964967368"><ele>204.0</ele><time>2026-04-28T15:09:00.999Z</time></trkpt><trkpt lat="40.74815994821171" lon="17.49811198855379"><ele>204.0</ele><time>2026-04-28T15:09:03.999Z</time></trkpt><trkpt lat="40.74815165835922" lon="17.498023499978"><ele>204.0</ele><time>2026-04-28T15:09:06.999Z</time></trkpt><trkpt lat="40.74819345526909" lon="17.497954613152572"><ele>204.0</ele><time>2026-04-28T15:09:08.999Z</time></trkpt><trkpt lat="40.748228429304966" lon="17.497880663245013"><ele>204.0</ele><time>2026-04-28T15:09:10.999Z</time></trkpt><trkpt lat="40.74824153600378" lon="17.497797606527822"><ele>204.0</ele><time>2026-04-28T15:09:12.999Z</time></trkpt><trkpt lat="40.74826637640855" lon="17.49772054496034"><ele>204.83333333333334</ele><time>2026-04-28T15:09:15.999Z</time></trkpt><trkpt lat="40.74831961449213" lon="17.497632887761327"><ele>205.66666666666669</ele><time>2026-04-28T15:09:18.999Z</time></trkpt><trkpt lat="40.748372339164874" lon="17.4975826150003"><ele>206.5</ele><time>2026-04-28T15:09:20.998Z</time></trkpt><trkpt lat="40.74846098642912" lon="17.497544391231337"><ele>207.33333333333334</ele><time>2026-04-28T15:09:23.998Z</time></trkpt><trkpt lat="40.74850761892639" lon="17.497484502906808"><ele>208.16666666666669</ele><time>2026-04-28T15:09:25.998Z</time></trkpt><trkpt lat="40.748572989774935" lon="17.49743273950418"><ele>209.0</ele><time>2026-04-28T15:09:27.998Z</time></trkpt><trkpt lat="40.74863476206284" lon="17.497385486572913"><ele>206.66666666666669</ele><time>2026-04-28T15:09:29.998Z</time></trkpt><trkpt lat="40.74871537118562" lon="17.49733613820071"><ele>204.33333333333334</ele><time>2026-04-28T15:09:31.998Z</time></trkpt><trkpt lat="40.748786611087944" lon="17.497300345730938"><ele>202.0</ele><time>2026-04-28T15:09:33.998Z</time></trkpt><trkpt lat="40.74884009300634" lon="17.4972391996821"><ele>199.66666666666669</ele><time>2026-04-28T15:09:36Z</time></trkpt><trkpt lat="40.74891106652986" lon="17.497181747923122"><ele>197.33333333333334</ele><time>2026-04-28T15:09:38Z</time></trkpt><trkpt lat="40.74899652542243" lon="17.497128959078214"><ele>195.0</ele><time>2026-04-28T15:09:40Z</time></trkpt><trkpt lat="40.74908174813634" lon="17.497091548479695"><ele>193.2</ele><time>2026-04-28T15:09:42Z</time></trkpt><trkpt lat="40.74918512016914" lon="17.497071809547847"><ele>191.4</ele><time>2026-04-28T15:09:44Z</time></trkpt><trkpt lat="40.74926227965017" lon="17.497038244832034"><ele>189.60000000000002</ele><time>2026-04-28T15:09:46Z</time></trkpt><trkpt lat="40.74932756764902" lon="17.496934501615293"><ele>187.8</ele><time>2026-04-28T15:09:48Z</time></trkpt><trkpt lat="40.7493897193474" lon="17.496820561257184"><ele>186.0</ele><time>2026-04-28T15:09:50Z</time></trkpt><trkpt lat="40.7494357396332" lon="17.496739982940355"><ele>186.0</ele><time>2026-04-28T15:09:52Z</time></trkpt><trkpt lat="40.74949486233783" lon="17.496679584551863"><ele>186.0</ele><time>2026-04-28T15:09:54Z</time></trkpt><trkpt lat="40.74957039155171" lon="17.496592586697854"><ele>186.0</ele><time>2026-04-28T15:09:56Z</time></trkpt><trkpt lat="40.749618498070284" lon="17.496491133301824"><ele>186.0</ele><time>2026-04-28T15:09:58Z</time></trkpt><trkpt lat="40.74967680588369" lon="17.496442834692516"><ele>186.0</ele><time>2026-04-28T15:10:00Z</time></trkpt><trkpt lat="40.74971203799316" lon="17.49633733577038"><ele>186.0</ele><time>2026-04-28T15:10:02Z</time></trkpt><trkpt lat="40.7497449887438" lon="17.49624236773871"><ele>188.0</ele><time>2026-04-28T15:10:04Z</time></trkpt><trkpt lat="40.749792271085035" lon="17.496166335737378"><ele>190.0</ele><time>2026-04-28T15:10:06Z</time></trkpt><trkpt lat="40.74983942489421" lon="17.496071324955526"><ele>192.0</ele><time>2026-04-28T15:10:08Z</time></trkpt><trkpt lat="40.74986411398479" lon="17.495983746268003"><ele>194.0</ele><time>2026-04-28T15:10:10Z</time></trkpt><trkpt lat="40.74991190428055" lon="17.495902444128053"><ele>196.0</ele><time>2026-04-28T15:10:12Z</time></trkpt><trkpt lat="40.749981701157665" lon="17.49584001692425"><ele>198.0</ele><time>2026-04-28T15:10:14Z</time></trkpt><trkpt lat="40.75003235662672" lon="17.495740004487015"><ele>198.0</ele><time>2026-04-28T15:10:16Z</time></trkpt><trkpt lat="40.750078534483094" lon="17.49565557002269"><ele>198.0</ele><time>2026-04-28T15:10:18Z</time></trkpt><trkpt lat="40.750156469003436" lon="17.495594814126044"><ele>198.0</ele><time>2026-04-28T15:10:21Z</time></trkpt><trkpt lat="40.75022908295718" lon="17.495493271719926"><ele>198.0</ele><time>2026-04-28T15:10:23.999Z</time></trkpt><trkpt lat="40.750307038481125" lon="17.495422288249546"><ele>198.0</ele><time>2026-04-28T15:10:25.999Z</time></trkpt><trkpt lat="40.75035936196869" lon="17.495371277196064"><ele>198.0</ele><time>2026-04-28T15:10:26.999Z</time></trkpt><trkpt lat="40.750457866931015" lon="17.495268986086277"><ele>196.66666666666666</ele><time>2026-04-28T15:10:28.999Z</time></trkpt><trkpt lat="40.750509586955125" lon="17.495208918700087"><ele>195.33333333333334</ele><time>2026-04-28T15:10:29.999Z</time></trkpt><trkpt lat="40.75056016794824" lon="17.49515082232585"><ele>194.0</ele><time>2026-04-28T15:10:30.999Z</time></trkpt><trkpt lat="40.750608128629146" lon="17.49509426597631"><ele>192.66666666666669</ele><time>2026-04-28T15:10:31.999Z</time></trkpt><trkpt lat="40.75068479559671" lon="17.494992049649337"><ele>191.33333333333334</ele><time>2026-04-28T15:10:33.999Z</time></trkpt><trkpt lat="40.75076126510322" lon="17.4948920394412"><ele>190.0</ele><time>2026-04-28T15:10:35.999Z</time></trkpt><trkpt lat="40.75084557849679" lon="17.49481419966217"><ele>190.0</ele><time>2026-04-28T15:10:37.999Z</time></trkpt><trkpt lat="40.75092279171515" lon="17.494739301165808"><ele>190.0</ele><time>2026-04-28T15:10:39.999Z</time></trkpt><trkpt lat="40.75101380191376" lon="17.494648719035233"><ele>190.0</ele><time>2026-04-28T15:10:41.999Z</time></trkpt><trkpt lat="40.751104107362046" lon="17.494562604526084"><ele>190.0</ele><time>2026-04-28T15:10:43.999Z</time></trkpt><trkpt lat="40.75117688130091" lon="17.4944743327028"><ele>190.0</ele><time>2026-04-28T15:10:45.999Z</time></trkpt><trkpt lat="40.75125742115647" lon="17.494375946716243"><ele>190.2</ele><time>2026-04-28T15:10:47.999Z</time></trkpt><trkpt lat="40.75136259449168" lon="17.494294985113495"><ele>190.4</ele><time>2026-04-28T15:10:49.999Z</time></trkpt><trkpt lat="40.751407603397155" lon="17.494223584426592"><ele>190.60000000000002</ele><time>2026-04-28T15:10:50.999Z</time></trkpt><trkpt lat="40.751487455066474" lon="17.4941311026224"><ele>190.8</ele><time>2026-04-28T15:10:52.999Z</time></trkpt><trkpt lat="40.751571271272184" lon="17.49401636928176"><ele>191.0</ele><time>2026-04-28T15:10:54.999Z</time></trkpt><trkpt lat="40.751654922751044" lon="17.49388849271679"><ele>191.0</ele><time>2026-04-28T15:10:56.999Z</time></trkpt><trkpt lat="40.751736465692744" lon="17.49377806373331"><ele>191.0</ele><time>2026-04-28T15:10:58.999Z</time></trkpt><trkpt lat="40.751782433841306" lon="17.4937151803554"><ele>191.0</ele><time>2026-04-28T15:10:59.999Z</time></trkpt><trkpt lat="40.75182598526199" lon="17.49365167171587"><ele>191.0</ele><time>2026-04-28T15:11:00.999Z</time></trkpt><trkpt lat="40.75186771491215" lon="17.493589427034237"><ele>191.0</ele><time>2026-04-28T15:11:01.999Z</time></trkpt><trkpt lat="40.751950529280634" lon="17.493496462789132"><ele>191.0</ele><time>2026-04-28T15:11:03.999Z</time></trkpt><trkpt lat="40.75201071252199" lon="17.49345124756814"><ele>191.0</ele><time>2026-04-28T15:11:04.999Z</time></trkpt><trkpt lat="40.75209935589658" lon="17.493330805115377"><ele>191.0</ele><time>2026-04-28T15:11:06.999Z</time></trkpt><trkpt lat="40.752185910520765" lon="17.493223078890388"><ele>191.0</ele><time>2026-04-28T15:11:08.999Z</time></trkpt><trkpt lat="40.75227097568744" lon="17.4931160470044"><ele>191.0</ele><time>2026-04-28T15:11:10.999Z</time></trkpt><trkpt lat="40.75235351706603" lon="17.492995416154205"><ele>190.8</ele><time>2026-04-28T15:11:12.999Z</time></trkpt><trkpt lat="40.75244134477892" lon="17.492881232338124"><ele>190.60000000000002</ele><time>2026-04-28T15:11:14.999Z</time></trkpt><trkpt lat="40.75248610312355" lon="17.492822534879817"><ele>190.4</ele><time>2026-04-28T15:11:15.999Z</time></trkpt><trkpt lat="40.75256996835501" lon="17.492716182710236"><ele>190.2</ele><time>2026-04-28T15:11:17.999Z</time></trkpt><trkpt lat="40.75264149454448" lon="17.49260840824336"><ele>190.0</ele><time>2026-04-28T15:11:19.999Z</time></trkpt><trkpt lat="40.752737410688944" lon="17.492520890756175"><ele>190.0</ele><time>2026-04-28T15:11:21.999Z</time></trkpt><trkpt lat="40.7528106283755" lon="17.492418548337312"><ele>190.0</ele><time>2026-04-28T15:11:23.999Z</time></trkpt><trkpt lat="40.75289242373969" lon="17.492387269237625"><ele>190.0</ele><time>2026-04-28T15:11:26.999Z</time></trkpt><trkpt lat="40.75297590250166" lon="17.492370544552195"><ele>190.0</ele><time>2026-04-28T15:11:28.999Z</time></trkpt><trkpt lat="40.753095954566405" lon="17.49235652365313"><ele>190.0</ele><time>2026-04-28T15:11:30.998Z</time></trkpt><trkpt lat="40.75316734932346" lon="17.49234041820975"><ele>190.0</ele><time>2026-04-28T15:11:31.998Z</time></trkpt><trkpt lat="40.75324266705421" lon="17.49232108900453"><ele>190.0</ele><time>2026-04-28T15:11:32.998Z</time></trkpt><trkpt lat="40.753311091887355" lon="17.49232985744829"><ele>190.0</ele><time>2026-04-28T15:11:33.998Z</time></trkpt><trkpt lat="40.753374902754594" lon="17.492380174155496"><ele>190.0</ele><time>2026-04-28T15:11:34.998Z</time></trkpt><trkpt lat="40.753446024118894" lon="17.492437543627588"><ele>190.0</ele><time>2026-04-28T15:11:35.998Z</time></trkpt><trkpt lat="40.75351131479557" lon="17.49251324461045"><ele>190.0</ele><time>2026-04-28T15:11:36.998Z</time></trkpt><trkpt lat="40.753561184071835" lon="17.49260950894566"><ele>189.33333333333334</ele><time>2026-04-28T15:11:37.998Z</time></trkpt><trkpt lat="40.75360640085815" lon="17.49268422672908"><ele>188.66666666666669</ele><time>2026-04-28T15:11:38.998Z</time></trkpt><trkpt lat="40.75366620787874" lon="17.492726538698246"><ele>188.0</ele><time>2026-04-28T15:11:39.998Z</time></trkpt><trkpt lat="40.75373822621576" lon="17.49278655116717"><ele>187.33333333333334</ele><time>2026-04-28T15:11:41Z</time></trkpt><trkpt lat="40.753795177618294" lon="17.492849194626437"><ele>186.66666666666666</ele><time>2026-04-28T15:11:42Z</time></trkpt><trkpt lat="40.753848677208644" lon="17.49292091584059"><ele>186.0</ele><time>2026-04-28T15:11:43Z</time></trkpt><trkpt lat="40.75389647559049" lon="17.493012023571293"><ele>184.66666666666666</ele><time>2026-04-28T15:11:44Z</time></trkpt><trkpt lat="40.75395043585238" lon="17.49310071628189"><ele>183.33333333333334</ele><time>2026-04-28T15:11:45Z</time></trkpt><trkpt lat="40.75400951824333" lon="17.493169630748607"><ele>182.0</ele><time>2026-04-28T15:11:46Z</time></trkpt><trkpt lat="40.75405337801294" lon="17.493230994676598"><ele>180.66666666666669</ele><time>2026-04-28T15:11:47Z</time></trkpt><trkpt lat="40.7540753489945" lon="17.493328078159333"><ele>179.33333333333334</ele><time>2026-04-28T15:11:48Z</time></trkpt><trkpt lat="40.75407509900682" lon="17.493434302095373"><ele>178.0</ele><time>2026-04-28T15:11:49Z</time></trkpt><trkpt lat="40.75408024392955" lon="17.49351956084806"><ele>178.0</ele><time>2026-04-28T15:11:50Z</time></trkpt><trkpt lat="40.75413504908514" lon="17.49362895992081"><ele>178.0</ele><time>2026-04-28T15:11:52Z</time></trkpt><trkpt lat="40.754174900467525" lon="17.49371906465191"><ele>178.0</ele><time>2026-04-28T15:11:53Z</time></trkpt><trkpt lat="40.75419916537854" lon="17.493817846871732"><ele>178.0</ele><time>2026-04-28T15:11:54Z</time></trkpt><trkpt lat="40.75423253321128" lon="17.493904009494344"><ele>178.0</ele><time>2026-04-28T15:11:56Z</time></trkpt><trkpt lat="40.7544051773123" lon="17.493918738611995"><ele>175.83333333333334</ele><time>2026-04-28T15:12:02Z</time></trkpt><trkpt lat="40.75444464066693" lon="17.49400077582757"><ele>173.66666666666669</ele><time>2026-04-28T15:12:04Z</time></trkpt><trkpt lat="40.75450039886417" lon="17.494050447018733"><ele>171.5</ele><time>2026-04-28T15:12:06Z</time></trkpt><trkpt lat="40.754557515877686" lon="17.49412190336218"><ele>169.33333333333334</ele><time>2026-04-28T15:12:08Z</time></trkpt><trkpt lat="40.75463471261648" lon="17.494144900795053"><ele>167.16666666666666</ele><time>2026-04-28T15:12:10Z</time></trkpt><trkpt lat="40.75471973084903" lon="17.494098535019038"><ele>165.0</ele><time>2026-04-28T15:12:12Z</time></trkpt><trkpt lat="40.75477414597301" lon="17.494142676694544"><ele>165.0</ele><time>2026-04-28T15:12:14Z</time></trkpt><trkpt lat="40.75483095435882" lon="17.49419824678994"><ele>165.0</ele><time>2026-04-28T15:12:17Z</time></trkpt><trkpt lat="40.75486815216063" lon="17.494280699201532"><ele>165.0</ele><time>2026-04-28T15:12:19Z</time></trkpt><trkpt lat="40.754948698962174" lon="17.494342284918307"><ele>165.0</ele><time>2026-04-28T15:12:20.999Z</time></trkpt><trkpt lat="40.75503271868288" lon="17.494348089371837"><ele>165.0</ele><time>2026-04-28T15:12:22.999Z</time></trkpt><trkpt lat="40.75510293461499" lon="17.49434308838168"><ele>165.0</ele><time>2026-04-28T15:12:26.999Z</time></trkpt><trkpt lat="40.75514775499432" lon="17.494410511389145"><ele>164.6</ele><time>2026-04-28T15:12:29.999Z</time></trkpt><trkpt lat="40.75522321754712" lon="17.494376012048043"><ele>164.2</ele><time>2026-04-28T15:12:32.999Z</time></trkpt><trkpt lat="40.755294485675165" lon="17.4943749945097"><ele>163.8</ele><time>2026-04-28T15:12:36.999Z</time></trkpt><trkpt lat="40.755367913327866" lon="17.494339762135358"><ele>163.4</ele><time>2026-04-28T15:12:40.999Z</time></trkpt><trkpt lat="40.755469639171444" lon="17.494324380490426"><ele>163.0</ele><time>2026-04-28T15:12:43.999Z</time></trkpt><trkpt lat="40.75558843482548" lon="17.49428542625087"><ele>163.0</ele><time>2026-04-28T15:12:45.999Z</time></trkpt><trkpt lat="40.75571142560629" lon="17.494262009635666"><ele>163.0</ele><time>2026-04-28T15:12:47.999Z</time></trkpt><trkpt lat="40.75582396427348" lon="17.49426796358892"><ele>163.0</ele><time>2026-04-28T15:12:49.999Z</time></trkpt><trkpt lat="40.75592795044834" lon="17.49430203110389"><ele>163.0</ele><time>2026-04-28T15:12:51.999Z</time></trkpt><trkpt lat="40.75601745631898" lon="17.494380104446215"><ele>162.16666666666669</ele><time>2026-04-28T15:12:53.999Z</time></trkpt><trkpt lat="40.75607993865952" lon="17.494419741509677"><ele>161.33333333333334</ele><time>2026-04-28T15:12:55.999Z</time></trkpt><trkpt lat="40.75607265891259" lon="17.49452754868275"><ele>160.5</ele><time>2026-04-28T15:12:57.999Z</time></trkpt><trkpt lat="40.75609666717649" lon="17.494659010846398"><ele>159.66666666666666</ele><time>2026-04-28T15:12:59.999Z</time></trkpt><trkpt lat="40.75614986065928" lon="17.494726365636737"><ele>158.83333333333331</ele><time>2026-04-28T15:13:01.999Z</time></trkpt><trkpt lat="40.756225111122816" lon="17.494761791819116"><ele>158.0</ele><time>2026-04-28T15:13:03.999Z</time></trkpt><trkpt lat="40.75630223240227" lon="17.49478921825227"><ele>158.0</ele><time>2026-04-28T15:13:05.999Z</time></trkpt><trkpt lat="40.756402488233476" lon="17.49481279525"><ele>158.0</ele><time>2026-04-28T15:13:07.999Z</time></trkpt><trkpt lat="40.75647610821554" lon="17.494799593630518"><ele>158.0</ele><time>2026-04-28T15:13:08.999Z</time></trkpt><trkpt lat="40.75656886344314" lon="17.494718434658395"><ele>158.0</ele><time>2026-04-28T15:13:10.999Z</time></trkpt><trkpt lat="40.7566509686371" lon="17.494615203259862"><ele>158.0</ele><time>2026-04-28T15:13:12.999Z</time></trkpt><trkpt lat="40.7567278242728" lon="17.494575283020392"><ele>155.8</ele><time>2026-04-28T15:13:14.999Z</time></trkpt><trkpt lat="40.75679416203508" lon="17.494627691405007"><ele>153.60000000000002</ele><time>2026-04-28T15:13:16.999Z</time></trkpt><trkpt lat="40.756799037051834" lon="17.494749453177665"><ele>151.39999999999998</ele><time>2026-04-28T15:13:18.999Z</time></trkpt><trkpt lat="40.75687441753823" lon="17.494869356559903"><ele>149.2</ele><time>2026-04-28T15:13:20.999Z</time></trkpt><trkpt lat="40.75698113225499" lon="17.494901555398958"><ele>147.0</ele><time>2026-04-28T15:13:22.999Z</time></trkpt><trkpt lat="40.757051165752245" lon="17.494906960490766"><ele>146.33333333333334</ele><time>2026-04-28T15:13:23.999Z</time></trkpt><trkpt lat="40.7571937747039" lon="17.494943847965928"><ele>145.66666666666666</ele><time>2026-04-28T15:13:25.999Z</time></trkpt><trkpt lat="40.75726528040079" lon="17.49496616905626"><ele>145.0</ele><time>2026-04-28T15:13:26.999Z</time></trkpt><trkpt lat="40.75732843061944" lon="17.49498960904564"><ele>144.33333333333331</ele><time>2026-04-28T15:13:27.999Z</time></trkpt><trkpt lat="40.75740321313898" lon="17.49500248261108"><ele>143.66666666666666</ele><time>2026-04-28T15:13:28.999Z</time></trkpt><trkpt lat="40.75748115110922" lon="17.49499573239555"><ele>143.0</ele><time>2026-04-28T15:13:30.999Z</time></trkpt><trkpt lat="40.75744845956496" lon="17.49489362774908"><ele>143.0</ele><time>2026-04-28T15:13:33.998Z</time></trkpt><trkpt lat="40.757381427738245" lon="17.49491965972872"><ele>143.0</ele><time>2026-04-28T15:13:36.998Z</time></trkpt><trkpt lat="40.75734991297386" lon="17.49499169051236"><ele>143.0</ele><time>2026-04-28T15:13:38.998Z</time></trkpt><trkpt lat="40.75736158522233" lon="17.495081048181525"><ele>143.0</ele><time>2026-04-28T15:13:40.998Z</time></trkpt><trkpt lat="40.75741506658083" lon="17.495182974660864"><ele>143.0</ele><time>2026-04-28T15:13:43.998Z</time></trkpt><trkpt lat="40.75745162116489" lon="17.49526703965761"><ele>143.0</ele><time>2026-04-28T15:13:45.998Z</time></trkpt><trkpt lat="40.7574802502849" lon="17.495440670416574"><ele>142.16666666666666</ele><time>2026-04-28T15:13:48Z</time></trkpt><trkpt lat="40.75750675752235" lon="17.49551894107332"><ele>141.33333333333331</ele><time>2026-04-28T15:13:49Z</time></trkpt><trkpt lat="40.757583104812745" lon="17.495611848308435"><ele>140.5</ele><time>2026-04-28T15:13:50Z</time></trkpt><trkpt lat="40.75762825899292" lon="17.495695639481745"><ele>139.66666666666666</ele><time>2026-04-28T15:13:52Z</time></trkpt><trkpt lat="40.757694526449434" lon="17.495790952398973"><ele>138.83333333333334</ele><time>2026-04-28T15:13:53Z</time></trkpt><trkpt lat="40.75772572363666" lon="17.495899707531"><ele>138.0</ele><time>2026-04-28T15:13:54Z</time></trkpt><trkpt lat="40.7577693977922" lon="17.496030276661575"><ele>137.66666666666666</ele><time>2026-04-28T15:13:56Z</time></trkpt><trkpt lat="40.757874146551025" lon="17.49609075310143"><ele>137.33333333333334</ele><time>2026-04-28T15:13:58Z</time></trkpt><trkpt lat="40.75794229987942" lon="17.496030713980968"><ele>137.0</ele><time>2026-04-28T15:13:59Z</time></trkpt><trkpt lat="40.75800764388945" lon="17.49600867078479"><ele>136.66666666666669</ele><time>2026-04-28T15:14:00Z</time></trkpt><trkpt lat="40.75798508330992" lon="17.49590197756835"><ele>136.33333333333334</ele><time>2026-04-28T15:14:01Z</time></trkpt><trkpt lat="40.75804741946209" lon="17.49585261848838"><ele>136.0</ele><time>2026-04-28T15:14:03Z</time></trkpt><trkpt lat="40.758097322417285" lon="17.495784775887266"><ele>136.0</ele><time>2026-04-28T15:14:05Z</time></trkpt><trkpt lat="40.75814009715244" lon="17.49569312105859"><ele>136.0</ele><time>2026-04-28T15:14:07Z</time></trkpt><trkpt lat="40.758191231289956" lon="17.495587072561143"><ele>136.0</ele><time>2026-04-28T15:14:09Z</time></trkpt><trkpt lat="40.758249379667625" lon="17.49549873275425"><ele>136.0</ele><time>2026-04-28T15:14:11Z</time></trkpt><trkpt lat="40.758320689778124" lon="17.495427024593926"><ele>136.0</ele><time>2026-04-28T15:14:13Z</time></trkpt><trkpt lat="40.75838276265266" lon="17.495342736712335"><ele>136.0</ele><time>2026-04-28T15:14:15Z</time></trkpt><trkpt lat="40.758429292201285" lon="17.49524136794537"><ele>135.66666666666669</ele><time>2026-04-28T15:14:17Z</time></trkpt><trkpt lat="40.75845840087042" lon="17.49513929395679"><ele>135.33333333333334</ele><time>2026-04-28T15:14:19Z</time></trkpt><trkpt lat="40.758430496127346" lon="17.495064149798687"><ele>135.0</ele><time>2026-04-28T15:14:21Z</time></trkpt><trkpt lat="40.75849461746722" lon="17.49499057923824"><ele>134.66666666666666</ele><time>2026-04-28T15:14:24Z</time></trkpt><trkpt lat="40.75857990578297" lon="17.49499218948779"><ele>134.33333333333331</ele><time>2026-04-28T15:14:26Z</time></trkpt><trkpt lat="40.75863514847623" lon="17.494929625715038"><ele>134.0</ele><time>2026-04-28T15:14:28Z</time></trkpt><trkpt lat="40.75870276483517" lon="17.494850611298393"><ele>134.0</ele><time>2026-04-28T15:14:29.999Z</time></trkpt><trkpt lat="40.75878379049284" lon="17.494806123316348"><ele>134.0</ele><time>2026-04-28T15:14:31.999Z</time></trkpt><trkpt lat="40.75883438011946" lon="17.494718618501203"><ele>134.0</ele><time>2026-04-28T15:14:33.999Z</time></trkpt><trkpt lat="40.758902409920466" lon="17.49464448602156"><ele>134.0</ele><time>2026-04-28T15:14:35.999Z</time></trkpt><trkpt lat="40.75896209657185" lon="17.494569354841587"><ele>134.0</ele><time>2026-04-28T15:14:37.999Z</time></trkpt><trkpt lat="40.759014496061845" lon="17.49451017760141"><ele>134.0</ele><time>2026-04-28T15:14:39.999Z</time></trkpt><trkpt lat="40.75908440435553" lon="17.494423763542287"><ele>134.0</ele><time>2026-04-28T15:14:42.999Z</time></trkpt><trkpt lat="40.75913692493195" lon="17.494370016885792"><ele>134.0</ele><time>2026-04-28T15:14:44.999Z</time></trkpt><trkpt lat="40.75920663424059" lon="17.494290875992835"><ele>134.0</ele><time>2026-04-28T15:14:46.999Z</time></trkpt><trkpt lat="40.75926339137407" lon="17.494201143507723"><ele>134.0</ele><time>2026-04-28T15:14:48.999Z</time></trkpt><trkpt lat="40.75932499189908" lon="17.494119190431956"><ele>134.0</ele><time>2026-04-28T15:14:50.999Z</time></trkpt><trkpt lat="40.75939357935175" lon="17.494033734145646"><ele>134.0</ele><time>2026-04-28T15:14:52.999Z</time></trkpt><trkpt lat="40.75946259760269" lon="17.493954104090577"><ele>134.0</ele><time>2026-04-28T15:14:54.999Z</time></trkpt><trkpt lat="40.75953748969412" lon="17.493877572441185"><ele>134.0</ele><time>2026-04-28T15:14:56.999Z</time></trkpt><trkpt lat="40.759603576850616" lon="17.49380917871099"><ele>134.0</ele><time>2026-04-28T15:14:58.999Z</time></trkpt><trkpt lat="40.75966685243777" lon="17.493744927082403"><ele>134.0</ele><time>2026-04-28T15:15:00.999Z</time></trkpt><trkpt lat="40.75972758064452" lon="17.493670763933252"><ele>134.0</ele><time>2026-04-28T15:15:02.999Z</time></trkpt><trkpt lat="40.759784628928045" lon="17.493581344761132"><ele>134.0</ele><time>2026-04-28T15:15:04.999Z</time></trkpt><trkpt lat="40.75983715988622" lon="17.49349415704561"><ele>134.83333333333331</ele><time>2026-04-28T15:15:06.999Z</time></trkpt><trkpt lat="40.75988552086827" lon="17.49338516000899"><ele>135.66666666666666</ele><time>2026-04-28T15:15:08.999Z</time></trkpt><trkpt lat="40.75989969632089" lon="17.493272838515228"><ele>136.5</ele><time>2026-04-28T15:15:10.999Z</time></trkpt><trkpt lat="40.75989412393756" lon="17.49318129350678"><ele>137.33333333333334</ele><time>2026-04-28T15:15:12.999Z</time></trkpt><trkpt lat="40.75990157712727" lon="17.493084421199093"><ele>138.16666666666669</ele><time>2026-04-28T15:15:14.999Z</time></trkpt><trkpt lat="40.75991518878327" lon="17.4929758032328"><ele>139.0</ele><time>2026-04-28T15:15:16.999Z</time></trkpt><trkpt lat="40.75993609384991" lon="17.492872048583855"><ele>139.5</ele><time>2026-04-28T15:15:18.999Z</time></trkpt><trkpt lat="40.75995694663048" lon="17.49275357159885"><ele>140.0</ele><time>2026-04-28T15:15:20.999Z</time></trkpt><trkpt lat="40.759978060863965" lon="17.492652695086573"><ele>140.5</ele><time>2026-04-28T15:15:22.999Z</time></trkpt><trkpt lat="40.76000665635703" lon="17.492539284428965"><ele>141.0</ele><time>2026-04-28T15:15:24.999Z</time></trkpt><trkpt lat="40.76003552740117" lon="17.49243568235314"><ele>141.5</ele><time>2026-04-28T15:15:26.999Z</time></trkpt><trkpt lat="40.760056090433864" lon="17.492326570403318"><ele>142.0</ele><time>2026-04-28T15:15:28.999Z</time></trkpt><trkpt lat="40.76006734669103" lon="17.492229082461986"><ele>142.0</ele><time>2026-04-28T15:15:30.999Z</time></trkpt><trkpt lat="40.76007241511401" lon="17.49211345701142"><ele>142.0</ele><time>2026-04-28T15:15:32.999Z</time></trkpt><trkpt lat="40.760064938303834" lon="17.492004429293072"><ele>142.0</ele><time>2026-04-28T15:15:34.999Z</time></trkpt><trkpt lat="40.760055026669264" lon="17.49188897941205"><ele>142.0</ele><time>2026-04-28T15:15:36.999Z</time></trkpt><trkpt lat="40.760061996889064" lon="17.49178598329849"><ele>142.0</ele><time>2026-04-28T15:15:38.999Z</time></trkpt><trkpt lat="40.76005693926585" lon="17.491684613816417"><ele>142.0</ele><time>2026-04-28T15:15:40.999Z</time></trkpt><trkpt lat="40.76005262728663" lon="17.491582172868508"><ele>142.33333333333334</ele><time>2026-04-28T15:15:42.999Z</time></trkpt><trkpt lat="40.76004384049773" lon="17.491492323124923"><ele>142.66666666666669</ele><time>2026-04-28T15:15:44.999Z</time></trkpt><trkpt lat="40.76003086535931" lon="17.49139079627679"><ele>143.0</ele><time>2026-04-28T15:15:46.998Z</time></trkpt><trkpt lat="40.760015144284345" lon="17.49129035493032"><ele>143.33333333333334</ele><time>2026-04-28T15:15:48.998Z</time></trkpt><trkpt lat="40.76000316102203" lon="17.49119313245126"><ele>143.66666666666666</ele><time>2026-04-28T15:15:50.998Z</time></trkpt><trkpt lat="40.75998556112119" lon="17.49110798644956"><ele>144.0</ele><time>2026-04-28T15:15:53Z</time></trkpt><trkpt lat="40.759968223038115" lon="17.490984663202887"><ele>144.83333333333334</ele><time>2026-04-28T15:15:55Z</time></trkpt><trkpt lat="40.75995759113072" lon="17.490888387782448"><ele>145.66666666666666</ele><time>2026-04-28T15:15:57Z</time></trkpt><trkpt lat="40.759950342936826" lon="17.49078995767355"><ele>146.5</ele><time>2026-04-28T15:15:59Z</time></trkpt><trkpt lat="40.75994386477045" lon="17.490694018622225"><ele>147.33333333333331</ele><time>2026-04-28T15:16:01Z</time></trkpt><trkpt lat="40.75996269640979" lon="17.490582704980998"><ele>148.16666666666666</ele><time>2026-04-28T15:16:03Z</time></trkpt><trkpt lat="40.759978416325055" lon="17.49047779713528"><ele>149.0</ele><time>2026-04-28T15:16:05Z</time></trkpt><trkpt lat="40.760012104006776" lon="17.490382192226452"><ele>149.83333333333331</ele><time>2026-04-28T15:16:07Z</time></trkpt><trkpt lat="40.760086684819775" lon="17.490321052079437"><ele>150.66666666666666</ele><time>2026-04-28T15:16:09Z</time></trkpt><trkpt lat="40.76016993303089" lon="17.490312196472264"><ele>151.5</ele><time>2026-04-28T15:16:11Z</time></trkpt><trkpt lat="40.76025041059715" lon="17.49027826083343"><ele>152.33333333333334</ele><time>2026-04-28T15:16:13Z</time></trkpt><trkpt lat="40.76033363793963" lon="17.49024100624401"><ele>153.16666666666669</ele><time>2026-04-28T15:16:15Z</time></trkpt><trkpt lat="40.7603983782591" lon="17.490204565993093"><ele>154.0</ele><time>2026-04-28T15:16:17Z</time></trkpt><trkpt lat="40.76047559123215" lon="17.490186893523596"><ele>154.0</ele><time>2026-04-28T15:16:19Z</time></trkpt><trkpt lat="40.76058118213152" lon="17.49015180049366"><ele>154.0</ele><time>2026-04-28T15:16:22Z</time></trkpt><trkpt lat="40.7606741222062" lon="17.4901174248771"><ele>154.0</ele><time>2026-04-28T15:16:24Z</time></trkpt><trkpt lat="40.76074847036552" lon="17.490082909287516"><ele>154.0</ele><time>2026-04-28T15:16:26Z</time></trkpt><trkpt lat="40.7608229687368" lon="17.490024404401613"><ele>154.0</ele><time>2026-04-28T15:16:28Z</time></trkpt><trkpt lat="40.7608923377249" lon="17.48995667451412"><ele>154.0</ele><time>2026-04-28T15:16:30Z</time></trkpt><trkpt lat="40.76095423387048" lon="17.489892420334172"><ele>154.0</ele><time>2026-04-28T15:16:32Z</time></trkpt><trkpt lat="40.76099785847527" lon="17.489821459148132"><ele>154.0</ele><time>2026-04-28T15:16:34Z</time></trkpt><trkpt lat="40.76104866906945" lon="17.48973401908471"><ele>154.0</ele><time>2026-04-28T15:16:36Z</time></trkpt><trkpt lat="40.76107927185409" lon="17.489637076531587"><ele>154.0</ele><time>2026-04-28T15:16:38Z</time></trkpt><trkpt lat="40.761076040081015" lon="17.48954071100954"><ele>154.0</ele><time>2026-04-28T15:16:39.999Z</time></trkpt><trkpt lat="40.7610498618738" lon="17.489449479546998"><ele>155.0</ele><time>2026-04-28T15:16:41.999Z</time></trkpt><trkpt lat="40.76099786835777" lon="17.48938655179524"><ele>156.0</ele><time>2026-04-28T15:16:43.999Z</time></trkpt><trkpt lat="40.76093327028194" lon="17.489323651549043"><ele>157.0</ele><time>2026-04-28T15:16:45.999Z</time></trkpt><trkpt lat="40.76086984469771" lon="17.48925955102296"><ele>158.0</ele><time>2026-04-28T15:16:47.999Z</time></trkpt><trkpt lat="40.76081158241539" lon="17.48920268934798"><ele>159.0</ele><time>2026-04-28T15:16:49.999Z</time></trkpt><trkpt lat="40.760750687296344" lon="17.48914676511101"><ele>160.0</ele><time>2026-04-28T15:16:51.999Z</time></trkpt><trkpt lat="40.76069418855331" lon="17.48910090473438"><ele>161.0</ele><time>2026-04-28T15:16:53.999Z</time></trkpt><trkpt lat="40.760635251365386" lon="17.4890395886728"><ele>161.0</ele><time>2026-04-28T15:16:55.999Z</time></trkpt><trkpt lat="40.760576280464235" lon="17.488953300228335"><ele>161.0</ele><time>2026-04-28T15:16:57.999Z</time></trkpt><trkpt lat="40.76055001449283" lon="17.48884420688517"><ele>161.0</ele><time>2026-04-28T15:16:59.999Z</time></trkpt><trkpt lat="40.7605691074648" lon="17.48873342987665"><ele>161.0</ele><time>2026-04-28T15:17:01.999Z</time></trkpt><trkpt lat="40.76058619843327" lon="17.488616189555934"><ele>161.0</ele><time>2026-04-28T15:17:03.999Z</time></trkpt><trkpt lat="40.760608508801255" lon="17.488476764787453"><ele>161.60000000000002</ele><time>2026-04-28T15:17:05.999Z</time></trkpt><trkpt lat="40.760633015719314" lon="17.488361745531698"><ele>162.2</ele><time>2026-04-28T15:17:07.999Z</time></trkpt><trkpt lat="40.76066617501435" lon="17.488242672453392"><ele>162.8</ele><time>2026-04-28T15:17:09.999Z</time></trkpt><trkpt lat="40.76071694876784" lon="17.48813115839521"><ele>163.39999999999998</ele><time>2026-04-28T15:17:11.999Z</time></trkpt><trkpt lat="40.76076676779858" lon="17.488021675442553"><ele>164.0</ele><time>2026-04-28T15:17:13.999Z</time></trkpt><trkpt lat="40.760821377368174" lon="17.487910093574573"><ele>164.39999999999998</ele><time>2026-04-28T15:17:15.999Z</time></trkpt><trkpt lat="40.760872908367496" lon="17.48779484245026"><ele>164.8</ele><time>2026-04-28T15:17:17.999Z</time></trkpt><trkpt lat="40.760935063389944" lon="17.487682086947483"><ele>165.2</ele><time>2026-04-28T15:17:19.999Z</time></trkpt><trkpt lat="40.760997238448354" lon="17.487571970239156"><ele>165.60000000000002</ele><time>2026-04-28T15:17:21.999Z</time></trkpt><trkpt lat="40.76105797630842" lon="17.4874560110106"><ele>166.0</ele><time>2026-04-28T15:17:23.999Z</time></trkpt><trkpt lat="40.76111064667367" lon="17.487347451569942"><ele>165.60000000000002</ele><time>2026-04-28T15:17:25.999Z</time></trkpt><trkpt lat="40.76116022216593" lon="17.487243288970053"><ele>165.2</ele><time>2026-04-28T15:17:27.999Z</time></trkpt><trkpt lat="40.761210565423426" lon="17.487142230906425"><ele>164.8</ele><time>2026-04-28T15:17:29.999Z</time></trkpt><trkpt lat="40.76124452889135" lon="17.48702721320396"><ele>164.39999999999998</ele><time>2026-04-28T15:17:31.999Z</time></trkpt><trkpt lat="40.76128107153888" lon="17.48690069404438"><ele>164.0</ele><time>2026-04-28T15:17:33.999Z</time></trkpt><trkpt lat="40.76133328809145" lon="17.48678738422463"><ele>164.0</ele><time>2026-04-28T15:17:35.999Z</time></trkpt><trkpt lat="40.76137851787185" lon="17.48667877540808"><ele>164.0</ele><time>2026-04-28T15:17:37.999Z</time></trkpt><trkpt lat="40.76140006842538" lon="17.486554768012613"><ele>164.0</ele><time>2026-04-28T15:17:39.999Z</time></trkpt><trkpt lat="40.76141939160636" lon="17.48643113796922"><ele>164.0</ele><time>2026-04-28T15:17:41.999Z</time></trkpt><trkpt lat="40.76145691192498" lon="17.486325696887445"><ele>164.0</ele><time>2026-04-28T15:17:43.999Z</time></trkpt><trkpt lat="40.76149515236409" lon="17.486212754973796"><ele>164.6</ele><time>2026-04-28T15:17:45.999Z</time></trkpt><trkpt lat="40.76153633441972" lon="17.486090639831172"><ele>165.2</ele><time>2026-04-28T15:17:47.999Z</time></trkpt><trkpt lat="40.76161146298315" lon="17.485971293085818"><ele>165.79999999999998</ele><time>2026-04-28T15:17:49.999Z</time></trkpt><trkpt lat="40.76160124956611" lon="17.485826391661256"><ele>166.39999999999998</ele><time>2026-04-28T15:17:51.999Z</time></trkpt><trkpt lat="40.761597088611154" lon="17.485700876055738"><ele>167.0</ele><time>2026-04-28T15:17:53.999Z</time></trkpt><trkpt lat="40.761602747479294" lon="17.485593873898324"><ele>167.0</ele><time>2026-04-28T15:17:55.999Z</time></trkpt><trkpt lat="40.7616024953497" lon="17.48548370410974"><ele>167.0</ele><time>2026-04-28T15:17:57.998Z</time></trkpt><trkpt lat="40.76161470358806" lon="17.48537024465618"><ele>167.0</ele><time>2026-04-28T15:18:00Z</time></trkpt><trkpt lat="40.76161960444377" lon="17.48525490281747"><ele>167.0</ele><time>2026-04-28T15:18:02Z</time></trkpt><trkpt lat="40.76163104508083" lon="17.485143820411142"><ele>167.0</ele><time>2026-04-28T15:18:04Z</time></trkpt><trkpt lat="40.761644737823815" lon="17.485036504754213"><ele>167.0</ele><time>2026-04-28T15:18:06Z</time></trkpt><trkpt lat="40.76164970944312" lon="17.484939610951898"><ele>167.2</ele><time>2026-04-28T15:18:08Z</time></trkpt><trkpt lat="40.76166005933763" lon="17.484836636854894"><ele>167.39999999999998</ele><time>2026-04-28T15:18:10Z</time></trkpt><trkpt lat="40.76167618739395" lon="17.48473255688072"><ele>167.60000000000002</ele><time>2026-04-28T15:18:12Z</time></trkpt><trkpt lat="40.76168752229332" lon="17.48460665838096"><ele>167.8</ele><time>2026-04-28T15:18:14Z</time></trkpt><trkpt lat="40.76173064143526" lon="17.484474258100644"><ele>168.0</ele><time>2026-04-28T15:18:16Z</time></trkpt><trkpt lat="40.76182225321862" lon="17.484378105746938"><ele>167.2</ele><time>2026-04-28T15:18:18Z</time></trkpt><trkpt lat="40.76186690943151" lon="17.484264060378912"><ele>166.4</ele><time>2026-04-28T15:18:20Z</time></trkpt><trkpt lat="40.761921228439675" lon="17.484125337659993"><ele>165.6</ele><time>2026-04-28T15:18:22Z</time></trkpt><trkpt lat="40.761973121335586" lon="17.483992810890673"><ele>164.79999999999998</ele><time>2026-04-28T15:18:24Z</time></trkpt><trkpt lat="40.76202320005585" lon="17.483864917243825"><ele>164.0</ele><time>2026-04-28T15:18:26Z</time></trkpt><trkpt lat="40.762078231490605" lon="17.483725780227815"><ele>163.42857142857142</ele><time>2026-04-28T15:18:28Z</time></trkpt><trkpt lat="40.762109576532424" lon="17.48364934183298"><ele>162.85714285714286</ele><time>2026-04-28T15:18:29Z</time></trkpt><trkpt lat="40.7621411171757" lon="17.483572426406802"><ele>162.28571428571428</ele><time>2026-04-28T15:18:30Z</time></trkpt><trkpt lat="40.762173267210514" lon="17.48349402494355"><ele>161.71428571428572</ele><time>2026-04-28T15:18:31Z</time></trkpt><trkpt lat="40.76220457897004" lon="17.483409575532498"><ele>161.14285714285714</ele><time>2026-04-28T15:18:32Z</time></trkpt><trkpt lat="40.762232329516436" lon="17.4833244307244"><ele>160.57142857142856</ele><time>2026-04-28T15:18:33Z</time></trkpt><trkpt lat="40.762264948552435" lon="17.483225905777942"><ele>160.0</ele><time>2026-04-28T15:18:35Z</time></trkpt><trkpt lat="40.7621349505846" lon="17.483131521748916"><ele>160.0</ele><time>2026-04-28T15:18:36Z</time></trkpt><trkpt lat="40.762063349533314" lon="17.48304420184517"><ele>160.0</ele><time>2026-04-28T15:18:38Z</time></trkpt><trkpt lat="40.762008240883944" lon="17.482940893407275"><ele>160.0</ele><time>2026-04-28T15:18:40Z</time></trkpt><trkpt lat="40.761957112699136" lon="17.482843469946324"><ele>160.0</ele><time>2026-04-28T15:18:42Z</time></trkpt><trkpt lat="40.76189974943345" lon="17.48274238734738"><ele>160.0</ele><time>2026-04-28T15:18:44Z</time></trkpt><trkpt lat="40.76184581298966" lon="17.4826271700758"><ele>160.5</ele><time>2026-04-28T15:18:46Z</time></trkpt><trkpt lat="40.76178386938675" lon="17.482505539805537"><ele>161.0</ele><time>2026-04-28T15:18:48Z</time></trkpt><trkpt lat="40.76172238851932" lon="17.48237807358807"><ele>161.5</ele><time>2026-04-28T15:18:50Z</time></trkpt><trkpt lat="40.7616686421604" lon="17.4822474065802"><ele>162.0</ele><time>2026-04-28T15:18:52Z</time></trkpt><trkpt lat="40.761612281592164" lon="17.48211486655188"><ele>162.2</ele><time>2026-04-28T15:18:54Z</time></trkpt><trkpt lat="40.76156104974428" lon="17.481989946800244"><ele>162.39999999999998</ele><time>2026-04-28T15:18:55.999Z</time></trkpt><trkpt lat="40.7614944479758" lon="17.48187929916513"><ele>162.60000000000002</ele><time>2026-04-28T15:18:57.999Z</time></trkpt><trkpt lat="40.761470111537356" lon="17.481752020796794"><ele>162.8</ele><time>2026-04-28T15:18:59.999Z</time></trkpt><trkpt lat="40.76148176270134" lon="17.48160688879655"><ele>163.0</ele><time>2026-04-28T15:19:01.999Z</time></trkpt><trkpt lat="40.76148886662289" lon="17.48145598730112"><ele>163.0</ele><time>2026-04-28T15:19:03.999Z</time></trkpt><trkpt lat="40.76150335010064" lon="17.481312482788777"><ele>163.0</ele><time>2026-04-28T15:19:05.999Z</time></trkpt><trkpt lat="40.7615245431222" lon="17.48117336837141"><ele>163.0</ele><time>2026-04-28T15:19:07.999Z</time></trkpt><trkpt lat="40.761548458218535" lon="17.481029258442454"><ele>163.0</ele><time>2026-04-28T15:19:09.999Z</time></trkpt><trkpt lat="40.76157697562192" lon="17.480898239198016"><ele>163.0</ele><time>2026-04-28T15:19:11.999Z</time></trkpt><trkpt lat="40.76160311620985" lon="17.480772903919235"><ele>164.0</ele><time>2026-04-28T15:19:13.999Z</time></trkpt><trkpt lat="40.76162711287604" lon="17.48063838882282"><ele>165.0</ele><time>2026-04-28T15:19:15.999Z</time></trkpt><trkpt lat="40.7616573283787" lon="17.480514135471733"><ele>166.0</ele><time>2026-04-28T15:19:17.999Z</time></trkpt><trkpt lat="40.761682046850716" lon="17.480392349832616"><ele>167.0</ele><time>2026-04-28T15:19:19.999Z</time></trkpt><trkpt lat="40.76170798267096" lon="17.480253225890078"><ele>168.0</ele><time>2026-04-28T15:19:21.999Z</time></trkpt><trkpt lat="40.76172450896821" lon="17.48014740523216"><ele>169.0</ele><time>2026-04-28T15:19:23.999Z</time></trkpt><trkpt lat="40.761748936463185" lon="17.48005151796183"><ele>170.0</ele><time>2026-04-28T15:19:25.999Z</time></trkpt><trkpt lat="40.761779349840566" lon="17.479939951531527"><ele>171.0</ele><time>2026-04-28T15:19:27.999Z</time></trkpt><trkpt lat="40.761800693360144" lon="17.479830473224855"><ele>172.0</ele><time>2026-04-28T15:19:29.999Z</time></trkpt><trkpt lat="40.76181211193324" lon="17.479713698565778"><ele>173.0</ele><time>2026-04-28T15:19:31.999Z</time></trkpt><trkpt lat="40.76183813832445" lon="17.479594214197597"><ele>174.0</ele><time>2026-04-28T15:19:33.999Z</time></trkpt><trkpt lat="40.761855997559756" lon="17.479479139398276"><ele>171.79999999999998</ele><time>2026-04-28T15:19:35.999Z</time></trkpt><trkpt lat="40.76188413096675" lon="17.479371596721403"><ele>169.6</ele><time>2026-04-28T15:19:37.999Z</time></trkpt><trkpt lat="40.761902626407746" lon="17.479253163550826"><ele>167.4</ele><time>2026-04-28T15:19:39.999Z</time></trkpt><trkpt lat="40.76193346571845" lon="17.47914306867813"><ele>165.2</ele><time>2026-04-28T15:19:41.999Z</time></trkpt><trkpt lat="40.76196680103171" lon="17.47902260276378"><ele>163.0</ele><time>2026-04-28T15:19:43.999Z</time></trkpt><trkpt lat="40.761984095922315" lon="17.478910702280444"><ele>163.0</ele><time>2026-04-28T15:19:45.999Z</time></trkpt><trkpt lat="40.76200539704043" lon="17.478788369890935"><ele>163.0</ele><time>2026-04-28T15:19:47.999Z</time></trkpt><trkpt lat="40.762020894398496" lon="17.478670661358137"><ele>163.0</ele><time>2026-04-28T15:19:49.999Z</time></trkpt><trkpt lat="40.762047188835545" lon="17.478561953466727"><ele>163.0</ele><time>2026-04-28T15:19:51.999Z</time></trkpt><trkpt lat="40.762064564434255" lon="17.478457995612942"><ele>163.0</ele><time>2026-04-28T15:19:53.999Z</time></trkpt><trkpt lat="40.762084464590984" lon="17.478340494020554"><ele>163.0</ele><time>2026-04-28T15:19:55.999Z</time></trkpt><trkpt lat="40.76211040470294" lon="17.478247436887035"><ele>163.5</ele><time>2026-04-28T15:19:57.999Z</time></trkpt><trkpt lat="40.76213229977621" lon="17.478134517842005"><ele>164.0</ele><time>2026-04-28T15:19:59.999Z</time></trkpt><trkpt lat="40.762157441913224" lon="17.478015122534377"><ele>164.5</ele><time>2026-04-28T15:20:01.999Z</time></trkpt><trkpt lat="40.762173695428324" lon="17.477930869895918"><ele>165.0</ele><time>2026-04-28T15:20:02.999Z</time></trkpt><trkpt lat="40.76219852708456" lon="17.477825422499226"><ele>165.5</ele><time>2026-04-28T15:20:05Z</time></trkpt><trkpt lat="40.76222707170928" lon="17.477707588625968"><ele>166.0</ele><time>2026-04-28T15:20:07Z</time></trkpt><trkpt lat="40.762245274737005" lon="17.477590275269584"><ele>166.20000000000002</ele><time>2026-04-28T15:20:09Z</time></trkpt><trkpt lat="40.7622688839664" lon="17.47745711026968"><ele>166.4</ele><time>2026-04-28T15:20:11Z</time></trkpt><trkpt lat="40.76231015431292" lon="17.47733388936096"><ele>166.6</ele><time>2026-04-28T15:20:13Z</time></trkpt><trkpt lat="40.762331212228865" lon="17.477220082813393"><ele>166.8</ele><time>2026-04-28T15:20:15Z</time></trkpt><trkpt lat="40.762342324284106" lon="17.477107459405804"><ele>167.0</ele><time>2026-04-28T15:20:17Z</time></trkpt><trkpt lat="40.76230675812826" lon="17.47701954394417"><ele>167.66666666666666</ele><time>2026-04-28T15:20:19Z</time></trkpt><trkpt lat="40.762243734995025" lon="17.476914955914655"><ele>168.33333333333331</ele><time>2026-04-28T15:20:21Z</time></trkpt><trkpt lat="40.76217504965657" lon="17.476844351685006"><ele>169.0</ele><time>2026-04-28T15:20:23Z</time></trkpt><trkpt lat="40.76210423541383" lon="17.476837571308444"><ele>169.66666666666666</ele><time>2026-04-28T15:20:25Z</time></trkpt><trkpt lat="40.76204637175841" lon="17.476800296148667"><ele>170.33333333333334</ele><time>2026-04-28T15:20:27Z</time></trkpt><trkpt lat="40.76197961607017" lon="17.4767594866144"><ele>171.0</ele><time>2026-04-28T15:20:29Z</time></trkpt><trkpt lat="40.76190204030571" lon="17.476760775571965"><ele>171.99999999999997</ele><time>2026-04-28T15:20:31Z</time></trkpt><trkpt lat="40.76182308986676" lon="17.47675387836589"><ele>173.0</ele><time>2026-04-28T15:20:33Z</time></trkpt><trkpt lat="40.76175615313403" lon="17.476758982014672"><ele>174.0</ele><time>2026-04-28T15:20:35Z</time></trkpt><trkpt lat="40.761687439198475" lon="17.47674680449595"><ele>175.0</ele><time>2026-04-28T15:20:37Z</time></trkpt><trkpt lat="40.76161538088881" lon="17.476750401136936"><ele>176.0</ele><time>2026-04-28T15:20:39Z</time></trkpt><trkpt lat="40.76154153066964" lon="17.476760963013778"><ele>176.99999999999997</ele><time>2026-04-28T15:20:41Z</time></trkpt><trkpt lat="40.76146259021687" lon="17.47672978376436"><ele>178.0</ele><time>2026-04-28T15:20:43Z</time></trkpt><trkpt lat="40.761410032764715" lon="17.47663271737385"><ele>178.0</ele><time>2026-04-28T15:20:46Z</time></trkpt><trkpt lat="40.76136668072137" lon="17.476540562403372"><ele>178.0</ele><time>2026-04-28T15:20:49Z</time></trkpt><trkpt lat="40.76130120619166" lon="17.476489587743412"><ele>178.0</ele><time>2026-04-28T15:20:51Z</time></trkpt><trkpt lat="40.761235602754546" lon="17.476437795753487"><ele>178.0</ele><time>2026-04-28T15:20:53Z</time></trkpt><trkpt lat="40.76112634027071" lon="17.4764452667639"><ele>178.0</ele><time>2026-04-28T15:20:55Z</time></trkpt><trkpt lat="40.76104843553358" lon="17.476434383496642"><ele>178.0</ele><time>2026-04-28T15:20:56.999Z</time></trkpt><trkpt lat="40.76097010187501" lon="17.47642997276066"><ele>179.5</ele><time>2026-04-28T15:20:58.999Z</time></trkpt><trkpt lat="40.760895592029506" lon="17.476399520241408"><ele>181.0</ele><time>2026-04-28T15:21:00.999Z</time></trkpt><trkpt lat="40.76081840580498" lon="17.476369458014997"><ele>182.5</ele><time>2026-04-28T15:21:02.999Z</time></trkpt><trkpt lat="40.760738691530456" lon="17.476339050426706"><ele>184.0</ele><time>2026-04-28T15:21:04.999Z</time></trkpt><trkpt lat="40.76067584274217" lon="17.476331894082687"><ele>185.5</ele><time>2026-04-28T15:21:06.999Z</time></trkpt><trkpt lat="40.760612238097266" lon="17.476337393596452"><ele>187.0</ele><time>2026-04-28T15:21:08.999Z</time></trkpt><trkpt lat="40.76052721475013" lon="17.476335299280393"><ele>187.33333333333334</ele><time>2026-04-28T15:21:11.999Z</time></trkpt><trkpt lat="40.76051062621099" lon="17.47619683305741"><ele>187.66666666666669</ele><time>2026-04-28T15:21:15.999Z</time></trkpt><trkpt lat="40.76051977600797" lon="17.476085387224472"><ele>188.0</ele><time>2026-04-28T15:21:18.999Z</time></trkpt><trkpt lat="40.7605123583893" lon="17.475960574833817"><ele>188.33333333333334</ele><time>2026-04-28T15:21:21.999Z</time></trkpt><trkpt lat="40.76047898426384" lon="17.47587266827877"><ele>188.66666666666666</ele><time>2026-04-28T15:21:23.999Z</time></trkpt><trkpt lat="40.760477604088706" lon="17.475774890707186"><ele>189.0</ele><time>2026-04-28T15:21:26.999Z</time></trkpt><trkpt lat="40.76047251832386" lon="17.475683841210913"><ele>189.0</ele><time>2026-04-28T15:21:29.999Z</time></trkpt><trkpt lat="40.76044495623469" lon="17.475560562672438"><ele>189.0</ele><time>2026-04-28T15:21:32.999Z</time></trkpt><trkpt lat="40.76045826651013" lon="17.47546851614543"><ele>189.0</ele><time>2026-04-28T15:21:35.999Z</time></trkpt><trkpt lat="40.76045309549214" lon="17.47537681649531"><ele>189.0</ele><time>2026-04-28T15:21:37.999Z</time></trkpt><trkpt lat="40.7604647787583" lon="17.475270814161156"><ele>189.0</ele><time>2026-04-28T15:21:39.999Z</time></trkpt><trkpt lat="40.7604406306491" lon="17.475123398412308"><ele>189.0</ele><time>2026-04-28T15:21:41.999Z</time></trkpt><trkpt lat="40.760386010192015" lon="17.475026296633796"><ele>189.16666666666666</ele><time>2026-04-28T15:21:43.999Z</time></trkpt><trkpt lat="40.76038031783602" lon="17.4749211255387"><ele>189.33333333333334</ele><time>2026-04-28T15:21:46.999Z</time></trkpt><trkpt lat="40.760405360258446" lon="17.474796004085082"><ele>189.5</ele><time>2026-04-28T15:21:49.999Z</time></trkpt><trkpt lat="40.760408091994165" lon="17.474712665877178"><ele>189.66666666666669</ele><time>2026-04-28T15:21:50.999Z</time></trkpt><trkpt lat="40.76042423126425" lon="17.474613817497882"><ele>189.83333333333334</ele><time>2026-04-28T15:21:52.999Z</time></trkpt><trkpt lat="40.760438291263796" lon="17.474497587514488"><ele>190.0</ele><time>2026-04-28T15:21:54.999Z</time></trkpt><trkpt lat="40.76040905765998" lon="17.474383018512032"><ele>190.0</ele><time>2026-04-28T15:21:56.999Z</time></trkpt><trkpt lat="40.760346457734215" lon="17.474336218146686"><ele>190.0</ele><time>2026-04-28T15:21:58.999Z</time></trkpt><trkpt lat="40.76030982835525" lon="17.474267919413112"><ele>190.0</ele><time>2026-04-28T15:22:01.999Z</time></trkpt><trkpt lat="40.76029524843102" lon="17.474183148456408"><ele>190.0</ele><time>2026-04-28T15:22:04.999Z</time></trkpt><trkpt lat="40.76036096260779" lon="17.474103106603017"><ele>190.0</ele><time>2026-04-28T15:22:08.999Z</time></trkpt><trkpt lat="40.760323792033645" lon="17.47403261516799"><ele>190.0</ele><time>2026-04-28T15:22:37Z</time></trkpt><trkpt lat="40.76038807910812" lon="17.474042550888434"><ele>190.0</ele><time>2026-04-28T15:23:04.999Z</time></trkpt><trkpt lat="40.76032847017329" lon="17.474073488491715"><ele>190.0</ele><time>2026-04-28T15:24:41Z</time></trkpt><trkpt lat="40.76027160787714" lon="17.474021713632695"><ele>190.0</ele><time>2026-04-28T15:25:06Z</time></trkpt><trkpt lat="40.76023587524316" lon="17.473943310217923"><ele>190.0</ele><time>2026-04-28T15:25:11Z</time></trkpt><trkpt lat="40.760183614678276" lon="17.47389262150168"><ele>190.0</ele><time>2026-04-28T15:25:17.999Z</time></trkpt><trkpt lat="40.76012972599633" lon="17.473793689482925"><ele>190.0</ele><time>2026-04-28T15:25:23.999Z</time></trkpt><trkpt lat="40.76006992059853" lon="17.473760926931067"><ele>190.0</ele><time>2026-04-28T15:25:30.999Z</time></trkpt><trkpt lat="40.76001264337441" lon="17.47372399792438"><ele>190.0</ele><time>2026-04-28T15:25:37.999Z</time></trkpt><trkpt lat="40.75999769392444" lon="17.473636620827495"><ele>191.71428571428572</ele><time>2026-04-28T15:25:41.999Z</time></trkpt><trkpt lat="40.75993881827577" lon="17.473594811023315"><ele>193.42857142857144</ele><time>2026-04-28T15:25:48.999Z</time></trkpt><trkpt lat="40.75986238628343" lon="17.473553544617257"><ele>195.14285714285714</ele><time>2026-04-28T15:25:55.999Z</time></trkpt><trkpt lat="40.759828080672904" lon="17.473477808306445"><ele>196.85714285714286</ele><time>2026-04-28T15:25:59.999Z</time></trkpt><trkpt lat="40.75976294946817" lon="17.47343614356158"><ele>198.57142857142856</ele><time>2026-04-28T15:26:05.999Z</time></trkpt><trkpt lat="40.75970402420042" lon="17.473379061182747"><ele>200.28571428571428</ele><time>2026-04-28T15:26:10.999Z</time></trkpt><trkpt lat="40.75965945919726" lon="17.473290903610675"><ele>202.0</ele><time>2026-04-28T15:26:16.999Z</time></trkpt><trkpt lat="40.759725752790544" lon="17.47334589754199"><ele>202.0</ele><time>2026-04-28T15:26:29Z</time></trkpt><trkpt lat="40.75978423315343" lon="17.473394836771714"><ele>202.0</ele><time>2026-04-28T15:26:31Z</time></trkpt><trkpt lat="40.75985113042844" lon="17.473443805613133"><ele>202.0</ele><time>2026-04-28T15:26:33Z</time></trkpt><trkpt lat="40.75990782222285" lon="17.47352169745896"><ele>202.0</ele><time>2026-04-28T15:26:35Z</time></trkpt><trkpt lat="40.75995864786128" lon="17.47357140916013"><ele>202.0</ele><time>2026-04-28T15:26:39Z</time></trkpt><trkpt lat="40.76001695449288" lon="17.47362287097138"><ele>202.0</ele><time>2026-04-28T15:26:43Z</time></trkpt><trkpt lat="40.76005818698633" lon="17.473702452470448"><ele>202.0</ele><time>2026-04-28T15:26:46Z</time></trkpt><trkpt lat="40.76011566796927" lon="17.47375455393883"><ele>202.71428571428572</ele><time>2026-04-28T15:26:49Z</time></trkpt><trkpt lat="40.760183755539664" lon="17.47378159784022"><ele>203.42857142857142</ele><time>2026-04-28T15:26:52Z</time></trkpt><trkpt lat="40.760232165344895" lon="17.473835214670085"><ele>204.14285714285717</ele><time>2026-04-28T15:26:54Z</time></trkpt><trkpt lat="40.760271189742056" lon="17.473901125190395"><ele>204.85714285714286</ele><time>2026-04-28T15:26:57Z</time></trkpt><trkpt lat="40.76032321794343" lon="17.47397723989127"><ele>205.57142857142858</ele><time>2026-04-28T15:27:01Z</time></trkpt><trkpt lat="40.76037951076297" lon="17.47403778680171"><ele>206.2857142857143</ele><time>2026-04-28T15:27:05Z</time></trkpt><trkpt lat="40.76043752445537" lon="17.474084666406494"><ele>207.0</ele><time>2026-04-28T15:27:10Z</time></trkpt><trkpt lat="40.760369991695406" lon="17.47413470505724"><ele>207.0</ele><time>2026-04-28T15:28:40Z</time></trkpt><trkpt lat="40.76033414060654" lon="17.474054627400495"><ele>207.0</ele><time>2026-04-28T15:30:19.999Z</time></trkpt><trkpt lat="40.76027384459755" lon="17.47399348087346"><ele>207.0</ele><time>2026-04-28T15:30:23.999Z</time></trkpt><trkpt lat="40.760214959772526" lon="17.473955270775594"><ele>207.0</ele><time>2026-04-28T15:30:27.999Z</time></trkpt><trkpt lat="40.760166987387294" lon="17.473891458389925"><ele>207.0</ele><time>2026-04-28T15:30:30.999Z</time></trkpt><trkpt lat="40.76011857967095" lon="17.473788622836015"><ele>207.0</ele><time>2026-04-28T15:30:33.999Z</time></trkpt><trkpt lat="40.76005521967844" lon="17.473722942008056"><ele>206.2857142857143</ele><time>2026-04-28T15:30:38Z</time></trkpt><trkpt lat="40.7599929036595" lon="17.473675964784736"><ele>205.57142857142858</ele><time>2026-04-28T15:30:41Z</time></trkpt><trkpt lat="40.759943823350774" lon="17.473598797710476"><ele>204.85714285714286</ele><time>2026-04-28T15:30:44Z</time></trkpt><trkpt lat="40.75987322078636" lon="17.473540475920505"><ele>204.14285714285717</ele><time>2026-04-28T15:30:47Z</time></trkpt><trkpt lat="40.759825935576124" lon="17.473478611725092"><ele>203.42857142857142</ele><time>2026-04-28T15:30:50Z</time></trkpt><trkpt lat="40.75978048636994" lon="17.473414673892066"><ele>202.71428571428572</ele><time>2026-04-28T15:30:53Z</time></trkpt><trkpt lat="40.759722227717674" lon="17.473346023534138"><ele>202.0</ele><time>2026-04-28T15:30:56Z</time></trkpt><trkpt lat="40.75965261815266" lon="17.473289303566638"><ele>201.99999999999997</ele><time>2026-04-28T15:30:59Z</time></trkpt><trkpt lat="40.759595288363904" lon="17.473209077863405"><ele>202.0</ele><time>2026-04-28T15:31:02Z</time></trkpt><trkpt lat="40.759526183601956" lon="17.473133348999845"><ele>202.0</ele><time>2026-04-28T15:31:05Z</time></trkpt><trkpt lat="40.75945307971855" lon="17.47303087079056"><ele>202.0</ele><time>2026-04-28T15:31:08Z</time></trkpt><trkpt lat="40.75939847458441" lon="17.472973098156764"><ele>201.99999999999997</ele><time>2026-04-28T15:31:10Z</time></trkpt><trkpt lat="40.759328119489254" lon="17.47291403683701"><ele>202.0</ele><time>2026-04-28T15:31:13Z</time></trkpt><trkpt lat="40.759259407381265" lon="17.472853072108855"><ele>203.33333333333331</ele><time>2026-04-28T15:31:16Z</time></trkpt><trkpt lat="40.75920375180994" lon="17.472797470561375"><ele>204.66666666666666</ele><time>2026-04-28T15:31:18Z</time></trkpt><trkpt lat="40.759144423486546" lon="17.47272562778425"><ele>206.0</ele><time>2026-04-28T15:31:21Z</time></trkpt><trkpt lat="40.7590722523432" lon="17.472666307619676"><ele>207.33333333333331</ele><time>2026-04-28T15:31:24Z</time></trkpt><trkpt lat="40.75900029581214" lon="17.472604986638814"><ele>208.66666666666666</ele><time>2026-04-28T15:31:26.999Z</time></trkpt><trkpt lat="40.75892640671906" lon="17.47255067719292"><ele>210.0</ele><time>2026-04-28T15:31:29.999Z</time></trkpt><trkpt lat="40.758848371096875" lon="17.472481682918495"><ele>210.0</ele><time>2026-04-28T15:31:32.999Z</time></trkpt><trkpt lat="40.75877405397095" lon="17.472424367576018"><ele>210.0</ele><time>2026-04-28T15:31:35.999Z</time></trkpt><trkpt lat="40.75871657892056" lon="17.472369882988975"><ele>210.0</ele><time>2026-04-28T15:31:37.999Z</time></trkpt><trkpt lat="40.75864805834775" lon="17.4723045765505"><ele>210.0</ele><time>2026-04-28T15:31:39.999Z</time></trkpt><trkpt lat="40.758593779350115" lon="17.472241393910217"><ele>210.0</ele><time>2026-04-28T15:31:41.999Z</time></trkpt><trkpt lat="40.758510488904534" lon="17.47218534491108"><ele>210.0</ele><time>2026-04-28T15:31:44.999Z</time></trkpt><trkpt lat="40.75844551606645" lon="17.472134403971204"><ele>210.83333333333334</ele><time>2026-04-28T15:31:46.999Z</time></trkpt><trkpt lat="40.758407810875035" lon="17.472049475539738"><ele>211.66666666666669</ele><time>2026-04-28T15:31:48.999Z</time></trkpt><trkpt lat="40.758334817413214" lon="17.47198858247638"><ele>212.5</ele><time>2026-04-28T15:31:50.999Z</time></trkpt><trkpt lat="40.7583028827465" lon="17.47190018957281"><ele>213.33333333333334</ele><time>2026-04-28T15:31:52.999Z</time></trkpt><trkpt lat="40.75822265598883" lon="17.471860377566298"><ele>214.16666666666669</ele><time>2026-04-28T15:31:54.999Z</time></trkpt><trkpt lat="40.75816412405071" lon="17.471814294334926"><ele>215.0</ele><time>2026-04-28T15:31:56.999Z</time></trkpt><trkpt lat="40.758108086658936" lon="17.471760019307556"><ele>215.00000000000003</ele><time>2026-04-28T15:31:58.999Z</time></trkpt><trkpt lat="40.75803494851034" lon="17.471711266750596"><ele>215.0</ele><time>2026-04-28T15:32:00.999Z</time></trkpt><trkpt lat="40.75796678975321" lon="17.47159173627507"><ele>215.0</ele><time>2026-04-28T15:32:03.999Z</time></trkpt><trkpt lat="40.75792159272946" lon="17.471524815593988"><ele>215.0</ele><time>2026-04-28T15:32:05.999Z</time></trkpt><trkpt lat="40.757893778018236" lon="17.471433792694146"><ele>215.00000000000003</ele><time>2026-04-28T15:32:07.999Z</time></trkpt><trkpt lat="40.757854452400224" lon="17.471356645137785"><ele>215.0</ele><time>2026-04-28T15:32:09.999Z</time></trkpt><trkpt lat="40.75780847299409" lon="17.471292012218118"><ele>214.66666666666669</ele><time>2026-04-28T15:32:11.999Z</time></trkpt><trkpt lat="40.75776850507741" lon="17.4711979764908"><ele>214.33333333333334</ele><time>2026-04-28T15:32:14.999Z</time></trkpt><trkpt lat="40.757739100683025" lon="17.471089391429008"><ele>214.0</ele><time>2026-04-28T15:32:16.999Z</time></trkpt><trkpt lat="40.7577174569427" lon="17.470989916457516"><ele>213.66666666666669</ele><time>2026-04-28T15:32:18.999Z</time></trkpt><trkpt lat="40.75769103456864" lon="17.470907083132715"><ele>213.33333333333334</ele><time>2026-04-28T15:32:20.999Z</time></trkpt><trkpt lat="40.75766214415882" lon="17.47082262656732"><ele>213.0</ele><time>2026-04-28T15:32:22.999Z</time></trkpt><trkpt lat="40.75765903406035" lon="17.470692337947263"><ele>213.0</ele><time>2026-04-28T15:32:25.999Z</time></trkpt><trkpt lat="40.75767057694846" lon="17.47059795037856"><ele>213.0</ele><time>2026-04-28T15:32:27.999Z</time></trkpt><trkpt lat="40.7577058415477" lon="17.47049853786586"><ele>213.0</ele><time>2026-04-28T15:32:29.999Z</time></trkpt><trkpt lat="40.757750427001085" lon="17.47039828613864"><ele>213.0</ele><time>2026-04-28T15:32:31.999Z</time></trkpt><trkpt lat="40.757816382544306" lon="17.470365824791898"><ele>213.0</ele><time>2026-04-28T15:32:32.999Z</time></trkpt><trkpt lat="40.75785781980611" lon="17.47023258572947"><ele>213.0</ele><time>2026-04-28T15:32:34.999Z</time></trkpt><trkpt lat="40.75793245649132" lon="17.470120889747268"><ele>214.33333333333334</ele><time>2026-04-28T15:32:36.999Z</time></trkpt><trkpt lat="40.7580029657085" lon="17.47007528034865"><ele>215.66666666666669</ele><time>2026-04-28T15:32:37.999Z</time></trkpt><trkpt lat="40.75804721875817" lon="17.470016095235753"><ele>217.0</ele><time>2026-04-28T15:32:38.999Z</time></trkpt><trkpt lat="40.75811827148751" lon="17.46994833243572"><ele>218.33333333333334</ele><time>2026-04-28T15:32:41Z</time></trkpt><trkpt lat="40.75820302651213" lon="17.469841499649185"><ele>219.66666666666669</ele><time>2026-04-28T15:32:43Z</time></trkpt><trkpt lat="40.75825410914698" lon="17.46978869207698"><ele>221.0</ele><time>2026-04-28T15:32:44Z</time></trkpt><trkpt lat="40.758304170256025" lon="17.469728184485756"><ele>221.00000000000003</ele><time>2026-04-28T15:32:45Z</time></trkpt><trkpt lat="40.75836137260422" lon="17.46968201301168"><ele>221.0</ele><time>2026-04-28T15:32:46Z</time></trkpt><trkpt lat="40.75841522483881" lon="17.469627532585733"><ele>221.0</ele><time>2026-04-28T15:32:47Z</time></trkpt><trkpt lat="40.75851227206352" lon="17.469530470115583"><ele>221.0</ele><time>2026-04-28T15:32:49Z</time></trkpt><trkpt lat="40.75858438605231" lon="17.46947613621648"><ele>221.00000000000003</ele><time>2026-04-28T15:32:50Z</time></trkpt><trkpt lat="40.75864369495288" lon="17.469435207689774"><ele>221.0</ele><time>2026-04-28T15:32:51Z</time></trkpt><trkpt lat="40.758701924567546" lon="17.469376150421272"><ele>219.33333333333334</ele><time>2026-04-28T15:32:52Z</time></trkpt><trkpt lat="40.75876045634675" lon="17.469309145186756"><ele>217.66666666666669</ele><time>2026-04-28T15:32:53Z</time></trkpt><trkpt lat="40.75884064055255" lon="17.469228333000537"><ele>216.0</ele><time>2026-04-28T15:32:54Z</time></trkpt><trkpt lat="40.758875113358705" lon="17.469154115987944"><ele>214.33333333333331</ele><time>2026-04-28T15:32:55Z</time></trkpt><trkpt lat="40.75892592243576" lon="17.469078624261925"><ele>212.66666666666666</ele><time>2026-04-28T15:32:56Z</time></trkpt><trkpt lat="40.75895437110101" lon="17.46899746373732"><ele>211.0</ele><time>2026-04-28T15:32:57Z</time></trkpt><trkpt lat="40.75900099834247" lon="17.468929256834755"><ele>210.99999999999997</ele><time>2026-04-28T15:32:58Z</time></trkpt><trkpt lat="40.75906411281821" lon="17.46882712074825"><ele>211.0</ele><time>2026-04-28T15:33:00Z</time></trkpt><trkpt lat="40.759099869357506" lon="17.468723953913017"><ele>211.0</ele><time>2026-04-28T15:33:02Z</time></trkpt><trkpt lat="40.75913770544144" lon="17.46865422835647"><ele>211.0</ele><time>2026-04-28T15:33:04Z</time></trkpt><trkpt lat="40.75917035491948" lon="17.468575354322777"><ele>210.99999999999997</ele><time>2026-04-28T15:33:06Z</time></trkpt><trkpt lat="40.75923082140702" lon="17.46846732558788"><ele>211.0</ele><time>2026-04-28T15:33:09Z</time></trkpt><trkpt lat="40.759257487494565" lon="17.46837460368937"><ele>210.33333333333331</ele><time>2026-04-28T15:33:11Z</time></trkpt><trkpt lat="40.75929408194856" lon="17.46829077141251"><ele>209.66666666666666</ele><time>2026-04-28T15:33:13Z</time></trkpt><trkpt lat="40.759333820633614" lon="17.46818051072973"><ele>209.0</ele><time>2026-04-28T15:33:16Z</time></trkpt><trkpt lat="40.75937474638858" lon="17.468074084075376"><ele>208.33333333333331</ele><time>2026-04-28T15:33:18Z</time></trkpt><trkpt lat="40.75940484456" lon="17.467975661913243"><ele>207.66666666666666</ele><time>2026-04-28T15:33:20Z</time></trkpt><trkpt lat="40.759425369933076" lon="17.467897064623756"><ele>207.0</ele><time>2026-04-28T15:33:21Z</time></trkpt><trkpt lat="40.75945551399216" lon="17.467797432375285"><ele>207.0</ele><time>2026-04-28T15:33:23Z</time></trkpt><trkpt lat="40.75950556275084" lon="17.467694219755195"><ele>207.0</ele><time>2026-04-28T15:33:26Z</time></trkpt><trkpt lat="40.75955329053667" lon="17.467605276005035"><ele>207.0</ele><time>2026-04-28T15:33:28Z</time></trkpt><trkpt lat="40.75950487626606" lon="17.46766743365349"><ele>207.0</ele><time>2026-04-28T15:33:34.999Z</time></trkpt><trkpt lat="40.759541998141934" lon="17.467801990709916"><ele>207.0</ele><time>2026-04-28T15:34:04.999Z</time></trkpt><trkpt lat="40.75959193891129" lon="17.46774692202325"><ele>207.0</ele><time>2026-04-28T15:34:10.999Z</time></trkpt><trkpt lat="40.75959500190203" lon="17.4676442157199"><ele>207.0</ele><time>2026-04-28T15:34:33.999Z</time></trkpt><trkpt lat="40.75964629086423" lon="17.467556118725653"><ele>207.0</ele><time>2026-04-28T15:34:36.999Z</time></trkpt><trkpt lat="40.759672473665965" lon="17.46748012463662"><ele>207.0</ele><time>2026-04-28T15:34:38.999Z</time></trkpt><trkpt lat="40.75972391582491" lon="17.46735653737129"><ele>207.0</ele><time>2026-04-28T15:34:40.999Z</time></trkpt><trkpt lat="40.75974262789164" lon="17.467211875515964"><ele>207.0</ele><time>2026-04-28T15:34:42.998Z</time></trkpt><trkpt lat="40.759781456334046" lon="17.467075511156164"><ele>207.5</ele><time>2026-04-28T15:34:44.998Z</time></trkpt><trkpt lat="40.759815219878156" lon="17.46699076502873"><ele>208.0</ele><time>2026-04-28T15:34:47Z</time></trkpt><trkpt lat="40.75983769588437" lon="17.46689821079357"><ele>208.5</ele><time>2026-04-28T15:34:51Z</time></trkpt><trkpt lat="40.75984704658031" lon="17.466811709390996"><ele>209.0</ele><time>2026-04-28T15:34:54Z</time></trkpt><trkpt lat="40.75981617723915" lon="17.466730693115874"><ele>209.5</ele><time>2026-04-28T15:34:56Z</time></trkpt><trkpt lat="40.75982401725145" lon="17.466622633245407"><ele>210.0</ele><time>2026-04-28T15:34:59Z</time></trkpt><trkpt lat="40.75978917349992" lon="17.46649111631986"><ele>210.0</ele><time>2026-04-28T15:35:02Z</time></trkpt><trkpt lat="40.75979173464794" lon="17.466405657910954"><ele>210.0</ele><time>2026-04-28T15:35:05Z</time></trkpt><trkpt lat="40.75983763838976" lon="17.46632551086331"><ele>210.0</ele><time>2026-04-28T15:35:08Z</time></trkpt><trkpt lat="40.759915020392114" lon="17.46637788368188"><ele>210.0</ele><time>2026-04-28T15:35:11Z</time></trkpt><trkpt lat="40.75999172140086" lon="17.466383760831462"><ele>210.0</ele><time>2026-04-28T15:35:12Z</time></trkpt><trkpt lat="40.760101524084924" lon="17.4663851985422"><ele>210.0</ele><time>2026-04-28T15:35:13Z</time></trkpt><trkpt lat="40.7601660440841" lon="17.46641322128762"><ele>208.5</ele><time>2026-04-28T15:35:14Z</time></trkpt><trkpt lat="40.76024252309991" lon="17.466458226389452"><ele>207.0</ele><time>2026-04-28T15:35:15Z</time></trkpt><trkpt lat="40.760360477137205" lon="17.46651490435719"><ele>205.5</ele><time>2026-04-28T15:35:17Z</time></trkpt><trkpt lat="40.7604270106188" lon="17.466542333204064"><ele>204.0</ele><time>2026-04-28T15:35:18Z</time></trkpt><trkpt lat="40.76050144499598" lon="17.466579651434174"><ele>202.5</ele><time>2026-04-28T15:35:19Z</time></trkpt><trkpt lat="40.760560904652095" lon="17.466615364132817"><ele>201.0</ele><time>2026-04-28T15:35:20Z</time></trkpt><trkpt lat="40.760635049242005" lon="17.46664757452847"><ele>201.0</ele><time>2026-04-28T15:35:21Z</time></trkpt><trkpt lat="40.76072579406009" lon="17.466694368408568"><ele>201.0</ele><time>2026-04-28T15:35:22Z</time></trkpt><trkpt lat="40.7608160429141" lon="17.466736604572993"><ele>201.0</ele><time>2026-04-28T15:35:23Z</time></trkpt><trkpt lat="40.76089866711851" lon="17.466794831456017"><ele>201.0</ele><time>2026-04-28T15:35:24Z</time></trkpt><trkpt lat="40.760973308674394" lon="17.466832533182405"><ele>201.0</ele><time>2026-04-28T15:35:25Z</time></trkpt><trkpt lat="40.761060359732404" lon="17.46688910591794"><ele>199.60000000000002</ele><time>2026-04-28T15:35:26Z</time></trkpt><trkpt lat="40.76115213375554" lon="17.4669385721686"><ele>198.2</ele><time>2026-04-28T15:35:27Z</time></trkpt><trkpt lat="40.761231226031676" lon="17.466982295191006"><ele>196.8</ele><time>2026-04-28T15:35:28Z</time></trkpt><trkpt lat="40.76131614894719" lon="17.46704155060527"><ele>195.39999999999998</ele><time>2026-04-28T15:35:29Z</time></trkpt><trkpt lat="40.76139329226099" lon="17.467092738524112"><ele>194.0</ele><time>2026-04-28T15:35:30Z</time></trkpt><trkpt lat="40.76147341605559" lon="17.467140898889074"><ele>194.00000000000003</ele><time>2026-04-28T15:35:31Z</time></trkpt><trkpt lat="40.76153890889068" lon="17.46707279384173"><ele>194.0</ele><time>2026-04-28T15:35:35Z</time></trkpt><trkpt lat="40.7615713940109" lon="17.466998325713647"><ele>194.0</ele><time>2026-04-28T15:35:37.999Z</time></trkpt><trkpt lat="40.761591822926846" lon="17.466890270335373"><ele>194.0</ele><time>2026-04-28T15:35:40.999Z</time></trkpt><trkpt lat="40.76162497156711" lon="17.466793482299426"><ele>194.00000000000003</ele><time>2026-04-28T15:35:43.999Z</time></trkpt><trkpt lat="40.76164931028968" lon="17.46669071312209"><ele>194.0</ele><time>2026-04-28T15:35:46.999Z</time></trkpt><trkpt lat="40.76166847767789" lon="17.4665809301665"><ele>194.00000000000003</ele><time>2026-04-28T15:35:49.999Z</time></trkpt><trkpt lat="40.76169185147305" lon="17.46646916344309"><ele>194.0</ele><time>2026-04-28T15:35:52.999Z</time></trkpt><trkpt lat="40.76170547620662" lon="17.466381221141624"><ele>194.0</ele><time>2026-04-28T15:35:54.999Z</time></trkpt><trkpt lat="40.761716766892775" lon="17.466285538287863"><ele>194.0</ele><time>2026-04-28T15:35:56.999Z</time></trkpt><trkpt lat="40.76174261032088" lon="17.46620696690221"><ele>194.00000000000003</ele><time>2026-04-28T15:35:58.999Z</time></trkpt><trkpt lat="40.7617668826448" lon="17.466064469922568"><ele>194.0</ele><time>2026-04-28T15:36:01.999Z</time></trkpt><trkpt lat="40.76179393424365" lon="17.465946573274397"><ele>194.50000000000003</ele><time>2026-04-28T15:36:03.999Z</time></trkpt><trkpt lat="40.76182024756726" lon="17.46585193628442"><ele>195.0</ele><time>2026-04-28T15:36:05.999Z</time></trkpt><trkpt lat="40.76184194988684" lon="17.465760572111527"><ele>195.5</ele><time>2026-04-28T15:36:07.999Z</time></trkpt><trkpt lat="40.761850825058005" lon="17.465655598591358"><ele>196.0</ele><time>2026-04-28T15:36:09.999Z</time></trkpt><trkpt lat="40.76185084814341" lon="17.465549439275772"><ele>196.50000000000003</ele><time>2026-04-28T15:36:11.999Z</time></trkpt><trkpt lat="40.7618476442805" lon="17.465429955935427"><ele>197.0</ele><time>2026-04-28T15:36:13.999Z</time></trkpt><trkpt lat="40.761849218099826" lon="17.465315476662116"><ele>197.16666666666669</ele><time>2026-04-28T15:36:15.999Z</time></trkpt><trkpt lat="40.76183194339396" lon="17.465188501054783"><ele>197.33333333333334</ele><time>2026-04-28T15:36:17.999Z</time></trkpt><trkpt lat="40.76182184293589" lon="17.46507554263117"><ele>197.5</ele><time>2026-04-28T15:36:19.999Z</time></trkpt><trkpt lat="40.76180007160583" lon="17.464957002320137"><ele>197.66666666666669</ele><time>2026-04-28T15:36:21.999Z</time></trkpt><trkpt lat="40.76179884775234" lon="17.46485592308667"><ele>197.83333333333334</ele><time>2026-04-28T15:36:23.999Z</time></trkpt><trkpt lat="40.76178273909065" lon="17.464742026349562"><ele>198.0</ele><time>2026-04-28T15:36:25.999Z</time></trkpt><trkpt lat="40.761772318360975" lon="17.464607902901264"><ele>198.66666666666666</ele><time>2026-04-28T15:36:27.999Z</time></trkpt><trkpt lat="40.76175067478151" lon="17.464485248446653"><ele>199.33333333333331</ele><time>2026-04-28T15:36:29.999Z</time></trkpt><trkpt lat="40.76173803368103" lon="17.4643729022344"><ele>200.0</ele><time>2026-04-28T15:36:31.999Z</time></trkpt><trkpt lat="40.761728798060155" lon="17.464242912411546"><ele>200.66666666666666</ele><time>2026-04-28T15:36:33.999Z</time></trkpt><trkpt lat="40.76171138171437" lon="17.46414559362665"><ele>201.33333333333331</ele><time>2026-04-28T15:36:35.999Z</time></trkpt><trkpt lat="40.761705757398715" lon="17.464049482497703"><ele>202.0</ele><time>2026-04-28T15:36:37.999Z</time></trkpt><trkpt lat="40.761721991833085" lon="17.463934776759498"><ele>202.0</ele><time>2026-04-28T15:36:39.999Z</time></trkpt><trkpt lat="40.76174221530355" lon="17.46381758643278"><ele>202.0</ele><time>2026-04-28T15:36:41.999Z</time></trkpt><trkpt lat="40.76177256531135" lon="17.463675985152996"><ele>202.0</ele><time>2026-04-28T15:36:43.999Z</time></trkpt><trkpt lat="40.76180483857309" lon="17.463560114555264"><ele>202.0</ele><time>2026-04-28T15:36:45.999Z</time></trkpt><trkpt lat="40.76184820112573" lon="17.463417044221956"><ele>202.0</ele><time>2026-04-28T15:36:47.998Z</time></trkpt><trkpt lat="40.761894736147525" lon="17.463277494070653"><ele>200.6</ele><time>2026-04-28T15:36:49.998Z</time></trkpt><trkpt lat="40.76193213299161" lon="17.46315170832979"><ele>199.2</ele><time>2026-04-28T15:36:51.998Z</time></trkpt><trkpt lat="40.76195321102863" lon="17.463063964386553"><ele>197.8</ele><time>2026-04-28T15:36:53Z</time></trkpt><trkpt lat="40.76198345801986" lon="17.462909916165813"><ele>196.4</ele><time>2026-04-28T15:36:55Z</time></trkpt><trkpt lat="40.76200668008333" lon="17.4628298786019"><ele>195.0</ele><time>2026-04-28T15:36:56Z</time></trkpt><trkpt lat="40.76203115629214" lon="17.462705245343134"><ele>195.0</ele><time>2026-04-28T15:36:58Z</time></trkpt><trkpt lat="40.762047657474454" lon="17.46255661742095"><ele>195.0</ele><time>2026-04-28T15:37:00Z</time></trkpt><trkpt lat="40.762060554955994" lon="17.46241095157545"><ele>195.0</ele><time>2026-04-28T15:37:02Z</time></trkpt><trkpt lat="40.76207382552275" lon="17.46227169340164"><ele>195.0</ele><time>2026-04-28T15:37:04Z</time></trkpt><trkpt lat="40.76209796278452" lon="17.46213938086353"><ele>195.0</ele><time>2026-04-28T15:37:06Z</time></trkpt><trkpt lat="40.762113541305425" lon="17.461987313568414"><ele>195.6</ele><time>2026-04-28T15:37:08Z</time></trkpt><trkpt lat="40.76215625646427" lon="17.461865430374523"><ele>196.2</ele><time>2026-04-28T15:37:10Z</time></trkpt><trkpt lat="40.76217539970752" lon="17.461720068408475"><ele>196.8</ele><time>2026-04-28T15:37:12Z</time></trkpt><trkpt lat="40.762203029709404" lon="17.461586601477112"><ele>197.4</ele><time>2026-04-28T15:37:14Z</time></trkpt><trkpt lat="40.7622383826178" lon="17.461464663407956"><ele>198.0</ele><time>2026-04-28T15:37:16Z</time></trkpt><trkpt lat="40.76226188084648" lon="17.461325996102595"><ele>198.4</ele><time>2026-04-28T15:37:18Z</time></trkpt><trkpt lat="40.76229285484452" lon="17.461182290079805"><ele>198.8</ele><time>2026-04-28T15:37:20Z</time></trkpt><trkpt lat="40.76232651669659" lon="17.46104473806555"><ele>199.2</ele><time>2026-04-28T15:37:22Z</time></trkpt><trkpt lat="40.76234031136754" lon="17.46096123756998"><ele>199.6</ele><time>2026-04-28T15:37:23Z</time></trkpt><trkpt lat="40.76236997830058" lon="17.46081484805503"><ele>200.0</ele><time>2026-04-28T15:37:25Z</time></trkpt><trkpt lat="40.762395389531214" lon="17.46067923691708"><ele>200.0</ele><time>2026-04-28T15:37:27Z</time></trkpt><trkpt lat="40.762433664453575" lon="17.460555379814263"><ele>200.0</ele><time>2026-04-28T15:37:29Z</time></trkpt><trkpt lat="40.762467491337375" lon="17.460434948582616"><ele>200.0</ele><time>2026-04-28T15:37:31Z</time></trkpt><trkpt lat="40.76251138576982" lon="17.460310083412516"><ele>200.0</ele><time>2026-04-28T15:37:33Z</time></trkpt><trkpt lat="40.76253584437849" lon="17.460157341325694"><ele>200.0</ele><time>2026-04-28T15:37:35Z</time></trkpt><trkpt lat="40.76257577614421" lon="17.46004573585603"><ele>200.00000000000003</ele><time>2026-04-28T15:37:37Z</time></trkpt><trkpt lat="40.762617261314105" lon="17.45993451430208"><ele>200.0</ele><time>2026-04-28T15:37:39Z</time></trkpt><trkpt lat="40.76265406988204" lon="17.459846407205465"><ele>200.0</ele><time>2026-04-28T15:37:41Z</time></trkpt><trkpt lat="40.762705079041964" lon="17.459783807237535"><ele>200.0</ele><time>2026-04-28T15:37:43Z</time></trkpt><trkpt lat="40.76276417154275" lon="17.459695239304256"><ele>200.00000000000003</ele><time>2026-04-28T15:37:44.999Z</time></trkpt><trkpt lat="40.76281881561579" lon="17.45960249954279"><ele>200.0</ele><time>2026-04-28T15:37:46.999Z</time></trkpt><trkpt lat="40.76288273632318" lon="17.459494361854194"><ele>200.0</ele><time>2026-04-28T15:37:48.999Z</time></trkpt><trkpt lat="40.76294240797795" lon="17.459382981015874"><ele>200.0</ele><time>2026-04-28T15:37:50.999Z</time></trkpt><trkpt lat="40.763005079314404" lon="17.459264537735677"><ele>200.0</ele><time>2026-04-28T15:37:52.999Z</time></trkpt><trkpt lat="40.763058206695945" lon="17.459159925183563"><ele>200.0</ele><time>2026-04-28T15:37:54.999Z</time></trkpt><trkpt lat="40.763118522011" lon="17.459032867324513"><ele>200.0</ele><time>2026-04-28T15:37:56.999Z</time></trkpt><trkpt lat="40.76317482443572" lon="17.458902886113766"><ele>200.6</ele><time>2026-04-28T15:37:58.999Z</time></trkpt><trkpt lat="40.763222700902446" lon="17.45878327784519"><ele>201.2</ele><time>2026-04-28T15:38:00.999Z</time></trkpt><trkpt lat="40.7632779470957" lon="17.458661871547648"><ele>201.8</ele><time>2026-04-28T15:38:02.999Z</time></trkpt><trkpt lat="40.76332412685251" lon="17.45853747327985"><ele>202.4</ele><time>2026-04-28T15:38:04.999Z</time></trkpt><trkpt lat="40.763373403979564" lon="17.458388223227594"><ele>203.0</ele><time>2026-04-28T15:38:06.999Z</time></trkpt><trkpt lat="40.76342473357486" lon="17.458242609851165"><ele>203.0</ele><time>2026-04-28T15:38:08.999Z</time></trkpt><trkpt lat="40.76345389862877" lon="17.458164375023998"><ele>203.0</ele><time>2026-04-28T15:38:09.999Z</time></trkpt><trkpt lat="40.76349590905416" lon="17.458040624721715"><ele>203.0</ele><time>2026-04-28T15:38:11.999Z</time></trkpt><trkpt lat="40.76358606846526" lon="17.45807394392476"><ele>203.0</ele><time>2026-04-28T15:38:14.999Z</time></trkpt><trkpt lat="40.76366236117514" lon="17.458026372309856"><ele>203.0</ele><time>2026-04-28T15:38:17.999Z</time></trkpt><trkpt lat="40.76376677542263" lon="17.458048253032487"><ele>201.66666666666669</ele><time>2026-04-28T15:38:19.999Z</time></trkpt><trkpt lat="40.76381616860246" lon="17.45815803808893"><ele>200.33333333333334</ele><time>2026-04-28T15:38:21.999Z</time></trkpt><trkpt lat="40.763879044336655" lon="17.458207302419858"><ele>199.0</ele><time>2026-04-28T15:38:22.999Z</time></trkpt><trkpt lat="40.76394658806405" lon="17.45824122150371"><ele>197.66666666666669</ele><time>2026-04-28T15:38:23.999Z</time></trkpt><trkpt lat="40.76401885093131" lon="17.45826808617327"><ele>196.33333333333334</ele><time>2026-04-28T15:38:24.999Z</time></trkpt><trkpt lat="40.76409561079718" lon="17.45831023830866"><ele>195.0</ele><time>2026-04-28T15:38:25.999Z</time></trkpt><trkpt lat="40.76416474469515" lon="17.45836059146994"><ele>195.0</ele><time>2026-04-28T15:38:26.999Z</time></trkpt><trkpt lat="40.76424744626357" lon="17.4584048803857"><ele>195.0</ele><time>2026-04-28T15:38:27.999Z</time></trkpt><trkpt lat="40.76432571949329" lon="17.458446799119283"><ele>195.0</ele><time>2026-04-28T15:38:28.999Z</time></trkpt><trkpt lat="40.764393437176096" lon="17.458477496878935"><ele>195.0</ele><time>2026-04-28T15:38:29.999Z</time></trkpt><trkpt lat="40.76445713954782" lon="17.458551638533958"><ele>195.0</ele><time>2026-04-28T15:38:30.999Z</time></trkpt><trkpt lat="40.7645115913065" lon="17.458606784760885"><ele>195.0</ele><time>2026-04-28T15:38:31.999Z</time></trkpt><trkpt lat="40.764605532201294" lon="17.45864977244282"><ele>194.0</ele><time>2026-04-28T15:38:32.999Z</time></trkpt><trkpt lat="40.76471098554098" lon="17.45868562622566"><ele>193.0</ele><time>2026-04-28T15:38:34.999Z</time></trkpt><trkpt lat="40.764775803068964" lon="17.45868732536179"><ele>192.0</ele><time>2026-04-28T15:38:35.999Z</time></trkpt><trkpt lat="40.764843124740565" lon="17.458669940233182"><ele>191.0</ele><time>2026-04-28T15:38:36.999Z</time></trkpt><trkpt lat="40.76493599875884" lon="17.45870310068718"><ele>190.0</ele><time>2026-04-28T15:38:38.999Z</time></trkpt><trkpt lat="40.76499570024414" lon="17.458794282533255"><ele>189.0</ele><time>2026-04-28T15:38:40.999Z</time></trkpt><trkpt lat="40.765073232811844" lon="17.45880945051166"><ele>189.0</ele><time>2026-04-28T15:38:42.999Z</time></trkpt><trkpt lat="40.765140211317316" lon="17.458824013679347"><ele>189.0</ele><time>2026-04-28T15:38:44.999Z</time></trkpt><trkpt lat="40.76522760369694" lon="17.458756756060197"><ele>189.0</ele><time>2026-04-28T15:38:46.999Z</time></trkpt><trkpt lat="40.765324810893226" lon="17.458774386301716"><ele>189.0</ele><time>2026-04-28T15:38:49.999Z</time></trkpt><trkpt lat="40.76535443637613" lon="17.458857408522935"><ele>189.0</ele><time>2026-04-28T15:38:50.999Z</time></trkpt><trkpt lat="40.76536604058339" lon="17.45897970912145"><ele>189.0</ele><time>2026-04-28T15:38:52.999Z</time></trkpt><trkpt lat="40.76533582212416" lon="17.45906096951753"><ele>187.71428571428572</ele><time>2026-04-28T15:38:54.998Z</time></trkpt><trkpt lat="40.765360680922306" lon="17.45914762572121"><ele>186.42857142857144</ele><time>2026-04-28T15:38:57.998Z</time></trkpt><trkpt lat="40.76541124248071" lon="17.45920303888522"><ele>185.14285714285714</ele><time>2026-04-28T15:39:01Z</time></trkpt><trkpt lat="40.76549548703256" lon="17.45919210769902"><ele>183.85714285714286</ele><time>2026-04-28T15:39:03Z</time></trkpt><trkpt lat="40.765560240879715" lon="17.459219637421775"><ele>182.57142857142858</ele><time>2026-04-28T15:39:07Z</time></trkpt><trkpt lat="40.76562808926201" lon="17.45927298994544"><ele>181.28571428571428</ele><time>2026-04-28T15:39:11Z</time></trkpt><trkpt lat="40.765685278642664" lon="17.459348661030166"><ele>180.0</ele><time>2026-04-28T15:39:14Z</time></trkpt><trkpt lat="40.765750546718145" lon="17.459434902754722"><ele>180.0</ele><time>2026-04-28T15:39:17Z</time></trkpt><trkpt lat="40.765818819322206" lon="17.459509708137716"><ele>180.0</ele><time>2026-04-28T15:39:20Z</time></trkpt><trkpt lat="40.76588402725123" lon="17.459571768910063"><ele>180.0</ele><time>2026-04-28T15:39:23Z</time></trkpt><trkpt lat="40.76598311927751" lon="17.459644534265603"><ele>180.0</ele><time>2026-04-28T15:39:25Z</time></trkpt><trkpt lat="40.76606578503254" lon="17.459649670315365"><ele>180.0</ele><time>2026-04-28T15:39:27Z</time></trkpt><trkpt lat="40.76612715750864" lon="17.459627572345198"><ele>180.0</ele><time>2026-04-28T15:39:28Z</time></trkpt><trkpt lat="40.76619994174357" lon="17.459599419813653"><ele>178.16666666666666</ele><time>2026-04-28T15:39:29Z</time></trkpt><trkpt lat="40.76628681356424" lon="17.459623095475436"><ele>176.33333333333334</ele><time>2026-04-28T15:39:30Z</time></trkpt><trkpt lat="40.766355353256024" lon="17.4596879594949"><ele>174.5</ele><time>2026-04-28T15:39:31Z</time></trkpt><trkpt lat="40.76640097698164" lon="17.459765168788067"><ele>172.66666666666669</ele><time>2026-04-28T15:39:32Z</time></trkpt><trkpt lat="40.76643664555118" lon="17.45984364182028"><ele>170.83333333333334</ele><time>2026-04-28T15:39:33Z</time></trkpt><trkpt lat="40.7664849385004" lon="17.459897187988393"><ele>169.0</ele><time>2026-04-28T15:39:34Z</time></trkpt><trkpt lat="40.76655285494467" lon="17.45994567927917"><ele>169.0</ele><time>2026-04-28T15:39:35Z</time></trkpt><trkpt lat="40.766609334293335" lon="17.460016118990524"><ele>169.0</ele><time>2026-04-28T15:39:36Z</time></trkpt><trkpt lat="40.766640448658016" lon="17.46010623236424"><ele>169.0</ele><time>2026-04-28T15:39:37Z</time></trkpt><trkpt lat="40.76666060872687" lon="17.460211205339576"><ele>169.0</ele><time>2026-04-28T15:39:38Z</time></trkpt><trkpt lat="40.76667688245604" lon="17.46031090881177"><ele>169.0</ele><time>2026-04-28T15:39:39Z</time></trkpt><trkpt lat="40.76672279060392" lon="17.46039630557425"><ele>169.0</ele><time>2026-04-28T15:39:40Z</time></trkpt><trkpt lat="40.76683900245152" lon="17.460519060231125"><ele>167.2</ele><time>2026-04-28T15:39:42Z</time></trkpt><trkpt lat="40.76695461615523" lon="17.460575724911834"><ele>165.39999999999998</ele><time>2026-04-28T15:39:44Z</time></trkpt><trkpt lat="40.767040709126334" lon="17.460578258075376"><ele>163.6</ele><time>2026-04-28T15:39:45Z</time></trkpt><trkpt lat="40.76713622733799" lon="17.46055069576769"><ele>161.8</ele><time>2026-04-28T15:39:46Z</time></trkpt><trkpt lat="40.76720832321538" lon="17.460522802192113"><ele>160.0</ele><time>2026-04-28T15:39:47Z</time></trkpt><trkpt lat="40.76727506484562" lon="17.46049731988181"><ele>160.0</ele><time>2026-04-28T15:39:48Z</time></trkpt><trkpt lat="40.76736800984708" lon="17.460467698383695"><ele>160.0</ele><time>2026-04-28T15:39:48.999Z</time></trkpt><trkpt lat="40.767454733916274" lon="17.460460956020984"><ele>160.0</ele><time>2026-04-28T15:39:50.999Z</time></trkpt><trkpt lat="40.76754011912139" lon="17.460361408070618"><ele>160.0</ele><time>2026-04-28T15:39:52.999Z</time></trkpt><trkpt lat="40.76763808079059" lon="17.460290794684518"><ele>160.0</ele><time>2026-04-28T15:39:54.999Z</time></trkpt><trkpt lat="40.76770098287613" lon="17.460277563830385"><ele>159.16666666666669</ele><time>2026-04-28T15:39:55.999Z</time></trkpt><trkpt lat="40.767801921016115" lon="17.460246529917406"><ele>158.33333333333334</ele><time>2026-04-28T15:39:57.999Z</time></trkpt><trkpt lat="40.76787510864657" lon="17.460177326047216"><ele>157.5</ele><time>2026-04-28T15:39:59.999Z</time></trkpt><trkpt lat="40.76794630697013" lon="17.460130400315382"><ele>156.66666666666666</ele><time>2026-04-28T15:40:00.999Z</time></trkpt><trkpt lat="40.76799089341248" lon="17.46006138593498"><ele>155.83333333333331</ele><time>2026-04-28T15:40:01.999Z</time></trkpt><trkpt lat="40.76803291411027" lon="17.459991069469726"><ele>155.0</ele><time>2026-04-28T15:40:02.999Z</time></trkpt><trkpt lat="40.768135867919156" lon="17.459956544272202"><ele>155.0</ele><time>2026-04-28T15:40:04.999Z</time></trkpt><trkpt lat="40.76822062208068" lon="17.459902048941423"><ele>155.0</ele><time>2026-04-28T15:40:06.999Z</time></trkpt><trkpt lat="40.76832018588685" lon="17.459865951802907"><ele>155.0</ele><time>2026-04-28T15:40:08.999Z</time></trkpt><trkpt lat="40.76838185722935" lon="17.45981462406893"><ele>155.0</ele><time>2026-04-28T15:40:09.999Z</time></trkpt><trkpt lat="40.76844542727738" lon="17.45980680515288"><ele>155.0</ele><time>2026-04-28T15:40:10.999Z</time></trkpt><trkpt lat="40.768511417990794" lon="17.45977930079678"><ele>155.0</ele><time>2026-04-28T15:40:11.999Z</time></trkpt><trkpt lat="40.76856856017892" lon="17.45973919716526"><ele>154.33333333333331</ele><time>2026-04-28T15:40:12.999Z</time></trkpt><trkpt lat="40.768677760556194" lon="17.459687668867343"><ele>153.66666666666666</ele><time>2026-04-28T15:40:14.999Z</time></trkpt><trkpt lat="40.768776570456495" lon="17.459706329378506"><ele>153.0</ele><time>2026-04-28T15:40:15.999Z</time></trkpt><trkpt lat="40.768846232656415" lon="17.45970836876139"><ele>152.33333333333334</ele><time>2026-04-28T15:40:16.999Z</time></trkpt><trkpt lat="40.76892829000972" lon="17.45966417977528"><ele>151.66666666666669</ele><time>2026-04-28T15:40:18.999Z</time></trkpt><trkpt lat="40.76898113607514" lon="17.45960631294175"><ele>151.0</ele><time>2026-04-28T15:40:19.999Z</time></trkpt><trkpt lat="40.769017512562506" lon="17.459494534658408"><ele>151.0</ele><time>2026-04-28T15:40:20.999Z</time></trkpt><trkpt lat="40.76906167856149" lon="17.45941570048015"><ele>151.0</ele><time>2026-04-28T15:40:21.999Z</time></trkpt><trkpt lat="40.76912774627577" lon="17.459328075458934"><ele>151.0</ele><time>2026-04-28T15:40:23.999Z</time></trkpt><trkpt lat="40.76923392174375" lon="17.45938393835253"><ele>151.0</ele><time>2026-04-28T15:40:25.999Z</time></trkpt><trkpt lat="40.76930217515632" lon="17.459495610284254"><ele>151.0</ele><time>2026-04-28T15:40:27.999Z</time></trkpt><trkpt lat="40.76941185999473" lon="17.45947861103332"><ele>149.16666666666669</ele><time>2026-04-28T15:40:29.999Z</time></trkpt><trkpt lat="40.76947798949402" lon="17.459450921212024"><ele>147.33333333333334</ele><time>2026-04-28T15:40:30.999Z</time></trkpt><trkpt lat="40.76953042636687" lon="17.459393666236597"><ele>145.5</ele><time>2026-04-28T15:40:31.999Z</time></trkpt><trkpt lat="40.769555684079954" lon="17.459311661428032"><ele>143.66666666666666</ele><time>2026-04-28T15:40:32.999Z</time></trkpt><trkpt lat="40.76956477814225" lon="17.459167868039714"><ele>141.83333333333331</ele><time>2026-04-28T15:40:34.999Z</time></trkpt><trkpt lat="40.76958974441271" lon="17.459045364601977"><ele>140.0</ele><time>2026-04-28T15:40:36.999Z</time></trkpt><trkpt lat="40.76962107297182" lon="17.45894780829362"><ele>140.0</ele><time>2026-04-28T15:40:38.999Z</time></trkpt><trkpt lat="40.769654603715715" lon="17.458817861920956"><ele>140.0</ele><time>2026-04-28T15:40:40.999Z</time></trkpt><trkpt lat="40.769690925271775" lon="17.458700329770544"><ele>140.0</ele><time>2026-04-28T15:40:42.999Z</time></trkpt><trkpt lat="40.76973844170108" lon="17.458552283267807"><ele>140.0</ele><time>2026-04-28T15:40:44.999Z</time></trkpt><trkpt lat="40.769770712669164" lon="17.458432582714288"><ele>140.0</ele><time>2026-04-28T15:40:46.999Z</time></trkpt><trkpt lat="40.76981571374998" lon="17.45830949876891"><ele>140.5</ele><time>2026-04-28T15:40:48.999Z</time></trkpt><trkpt lat="40.769864584046736" lon="17.458178234028907"><ele>141.0</ele><time>2026-04-28T15:40:50.999Z</time></trkpt><trkpt lat="40.7698823535121" lon="17.458096368819255"><ele>141.5</ele><time>2026-04-28T15:40:51.999Z</time></trkpt><trkpt lat="40.76990093439331" lon="17.458014065911076"><ele>142.0</ele><time>2026-04-28T15:40:52.999Z</time></trkpt><trkpt lat="40.769923881304194" lon="17.45792854627262"><ele>142.5</ele><time>2026-04-28T15:40:53.999Z</time></trkpt><trkpt lat="40.76997501016544" lon="17.45778260350042"><ele>143.0</ele><time>2026-04-28T15:40:55.999Z</time></trkpt><trkpt lat="40.77003325055665" lon="17.457642101167078"><ele>142.6</ele><time>2026-04-28T15:40:57.998Z</time></trkpt><trkpt lat="40.77009572664086" lon="17.457516136522422"><ele>142.20000000000002</ele><time>2026-04-28T15:40:59.998Z</time></trkpt><trkpt lat="40.77016092973043" lon="17.45739041247561"><ele>141.8</ele><time>2026-04-28T15:41:01.998Z</time></trkpt><trkpt lat="40.770187612797194" lon="17.457312258847846"><ele>141.4</ele><time>2026-04-28T15:41:02.998Z</time></trkpt><trkpt lat="40.7702240974976" lon="17.457189846854625"><ele>141.0</ele><time>2026-04-28T15:41:05Z</time></trkpt><trkpt lat="40.77026052249249" lon="17.457051579844606"><ele>141.8</ele><time>2026-04-28T15:41:07Z</time></trkpt><trkpt lat="40.770288809658815" lon="17.456900393858582"><ele>142.6</ele><time>2026-04-28T15:41:09Z</time></trkpt><trkpt lat="40.77031779153136" lon="17.456765194618026"><ele>143.4</ele><time>2026-04-28T15:41:11Z</time></trkpt><trkpt lat="40.7703403144666" lon="17.456642155101232"><ele>144.2</ele><time>2026-04-28T15:41:13Z</time></trkpt><trkpt lat="40.77037020877245" lon="17.45652886347201"><ele>145.0</ele><time>2026-04-28T15:41:15Z</time></trkpt><trkpt lat="40.77040011511944" lon="17.45642252059855"><ele>145.0</ele><time>2026-04-28T15:41:17Z</time></trkpt><trkpt lat="40.770429550594244" lon="17.45631493242387"><ele>145.0</ele><time>2026-04-28T15:41:19Z</time></trkpt><trkpt lat="40.77045358527611" lon="17.456208005138638"><ele>145.0</ele><time>2026-04-28T15:41:21Z</time></trkpt><trkpt lat="40.77044239955246" lon="17.456076231560985"><ele>145.0</ele><time>2026-04-28T15:41:23Z</time></trkpt><trkpt lat="40.77042412660267" lon="17.45594661288297"><ele>145.0</ele><time>2026-04-28T15:41:25Z</time></trkpt><trkpt lat="40.770401269375576" lon="17.45583594041457"><ele>147.0</ele><time>2026-04-28T15:41:27Z</time></trkpt><trkpt lat="40.77038365050502" lon="17.45573049183531"><ele>149.0</ele><time>2026-04-28T15:41:29Z</time></trkpt><trkpt lat="40.77038201134788" lon="17.45562079022289"><ele>151.0</ele><time>2026-04-28T15:41:31Z</time></trkpt><trkpt lat="40.7703720363575" lon="17.455514891346926"><ele>153.0</ele><time>2026-04-28T15:41:33Z</time></trkpt><trkpt lat="40.77035117639592" lon="17.455417421678106"><ele>155.0</ele><time>2026-04-28T15:41:35Z</time></trkpt><trkpt lat="40.770337576036425" lon="17.455334126294115"><ele>157.0</ele><time>2026-04-28T15:41:36Z</time></trkpt><trkpt lat="40.77034133990303" lon="17.455226568636"><ele>158.66666666666669</ele><time>2026-04-28T15:41:38Z</time></trkpt><trkpt lat="40.770334586958924" lon="17.455132597628033"><ele>160.33333333333334</ele><time>2026-04-28T15:41:40Z</time></trkpt><trkpt lat="40.77032837017239" lon="17.45502726993708"><ele>162.0</ele><time>2026-04-28T15:41:42Z</time></trkpt><trkpt lat="40.7703217439571" lon="17.454919842548204"><ele>163.66666666666666</ele><time>2026-04-28T15:41:44Z</time></trkpt><trkpt lat="40.77031346186312" lon="17.454811268636565"><ele>165.33333333333331</ele><time>2026-04-28T15:41:46Z</time></trkpt><trkpt lat="40.77030876775567" lon="17.454698429221175"><ele>167.0</ele><time>2026-04-28T15:41:48Z</time></trkpt><trkpt lat="40.77031643366948" lon="17.45459517258707"><ele>167.16666666666666</ele><time>2026-04-28T15:41:50Z</time></trkpt><trkpt lat="40.77031327326177" lon="17.45450204547044"><ele>167.33333333333331</ele><time>2026-04-28T15:41:53Z</time></trkpt><trkpt lat="40.77028318727662" lon="17.454405707397807"><ele>167.5</ele><time>2026-04-28T15:41:55Z</time></trkpt><trkpt lat="40.77025750731382" lon="17.45430624373409"><ele>167.66666666666666</ele><time>2026-04-28T15:41:56Z</time></trkpt><trkpt lat="40.770244971068635" lon="17.454220044782232"><ele>167.83333333333334</ele><time>2026-04-28T15:41:56.999Z</time></trkpt><trkpt lat="40.77020108360361" lon="17.45407403117045"><ele>168.0</ele><time>2026-04-28T15:41:58.999Z</time></trkpt><trkpt lat="40.770167559513865" lon="17.45399867880512"><ele>169.0</ele><time>2026-04-28T15:41:59.999Z</time></trkpt><trkpt lat="40.770121537392384" lon="17.453864155870257"><ele>170.0</ele><time>2026-04-28T15:42:01.999Z</time></trkpt><trkpt lat="40.770050382629684" lon="17.453740478901015"><ele>171.0</ele><time>2026-04-28T15:42:03.999Z</time></trkpt><trkpt lat="40.76998789867498" lon="17.45363060906786"><ele>172.0</ele><time>2026-04-28T15:42:05.999Z</time></trkpt><trkpt lat="40.77002936803412" lon="17.453529131410164"><ele>173.0</ele><time>2026-04-28T15:42:07.999Z</time></trkpt><trkpt lat="40.77011452663509" lon="17.45344133087423"><ele>173.0</ele><time>2026-04-28T15:42:09.999Z</time></trkpt><trkpt lat="40.77016659767042" lon="17.453366895014923"><ele>173.0</ele><time>2026-04-28T15:42:10.999Z</time></trkpt><trkpt lat="40.77021843368646" lon="17.45329607213521"><ele>173.0</ele><time>2026-04-28T15:42:11.999Z</time></trkpt><trkpt lat="40.77024929427101" lon="17.453216700728028"><ele>173.0</ele><time>2026-04-28T15:42:12.999Z</time></trkpt><trkpt lat="40.77025577831974" lon="17.45311810370116"><ele>173.0</ele><time>2026-04-28T15:42:13.999Z</time></trkpt><trkpt lat="40.77027241578697" lon="17.45302364434401"><ele>173.0</ele><time>2026-04-28T15:42:14.999Z</time></trkpt><trkpt lat="40.770301508480145" lon="17.452930501139367"><ele>173.0</ele><time>2026-04-28T15:42:15.999Z</time></trkpt><trkpt lat="40.77036726606836" lon="17.45287977261308"><ele>172.0</ele><time>2026-04-28T15:42:17.999Z</time></trkpt><trkpt lat="40.770423557195585" lon="17.45284234940332"><ele>171.0</ele><time>2026-04-28T15:42:18.999Z</time></trkpt><trkpt lat="40.77047170886462" lon="17.452757638063026"><ele>170.0</ele><time>2026-04-28T15:42:19.999Z</time></trkpt><trkpt lat="40.77050855995733" lon="17.452661766370717"><ele>169.0</ele><time>2026-04-28T15:42:20.999Z</time></trkpt><trkpt lat="40.770544840463934" lon="17.45257899098775"><ele>168.0</ele><time>2026-04-28T15:42:21.999Z</time></trkpt><trkpt lat="40.770583802938276" lon="17.452503407240364"><ele>167.0</ele><time>2026-04-28T15:42:22.999Z</time></trkpt><trkpt lat="40.77063498821572" lon="17.45243986868834"><ele>166.0</ele><time>2026-04-28T15:42:23.999Z</time></trkpt><trkpt lat="40.77069455901199" lon="17.452383718450374"><ele>166.0</ele><time>2026-04-28T15:42:24.999Z</time></trkpt><trkpt lat="40.770742560231575" lon="17.452319010018886"><ele>166.0</ele><time>2026-04-28T15:42:25.999Z</time></trkpt><trkpt lat="40.770792345061196" lon="17.45224039998539"><ele>166.0</ele><time>2026-04-28T15:42:26.999Z</time></trkpt><trkpt lat="40.77082676940513" lon="17.4521588496244"><ele>166.0</ele><time>2026-04-28T15:42:27.999Z</time></trkpt><trkpt lat="40.77086663192251" lon="17.45207652295829"><ele>166.0</ele><time>2026-04-28T15:42:28.999Z</time></trkpt><trkpt lat="40.77091248028722" lon="17.452002023719057"><ele>166.0</ele><time>2026-04-28T15:42:29.999Z</time></trkpt><trkpt lat="40.77096678944537" lon="17.451939401190543"><ele>166.0</ele><time>2026-04-28T15:42:30.999Z</time></trkpt><trkpt lat="40.771029830700705" lon="17.45189128052043"><ele>165.14285714285714</ele><time>2026-04-28T15:42:31.999Z</time></trkpt><trkpt lat="40.77109049540923" lon="17.451837976968733"><ele>164.2857142857143</ele><time>2026-04-28T15:42:32.999Z</time></trkpt><trkpt lat="40.771149232988925" lon="17.451791639467093"><ele>163.42857142857144</ele><time>2026-04-28T15:42:33.999Z</time></trkpt><trkpt lat="40.77121529672754" lon="17.451765783195572"><ele>162.57142857142856</ele><time>2026-04-28T15:42:34.999Z</time></trkpt><trkpt lat="40.77128041640656" lon="17.451745056012623"><ele>161.71428571428572</ele><time>2026-04-28T15:42:35.999Z</time></trkpt><trkpt lat="40.77135203619561" lon="17.451700429866086"><ele>160.85714285714286</ele><time>2026-04-28T15:42:36.999Z</time></trkpt><trkpt lat="40.77140376508447" lon="17.45164911878576"><ele>160.0</ele><time>2026-04-28T15:42:37.999Z</time></trkpt><trkpt lat="40.77145862606251" lon="17.45158726063116"><ele>160.0</ele><time>2026-04-28T15:42:38.999Z</time></trkpt><trkpt lat="40.77151319349177" lon="17.451523571938868"><ele>160.0</ele><time>2026-04-28T15:42:39.999Z</time></trkpt><trkpt lat="40.77157070691007" lon="17.451428186488265"><ele>160.0</ele><time>2026-04-28T15:42:41.999Z</time></trkpt><trkpt lat="40.77158255565985" lon="17.451333559932568"><ele>160.0</ele><time>2026-04-28T15:42:42.999Z</time></trkpt><trkpt lat="40.77161426658162" lon="17.451258302904815"><ele>160.0</ele><time>2026-04-28T15:42:43.999Z</time></trkpt><trkpt lat="40.771648731193956" lon="17.45117874393044"><ele>160.0</ele><time>2026-04-28T15:42:45.999Z</time></trkpt><trkpt lat="40.771608433287824" lon="17.451072268139427"><ele>159.83333333333334</ele><time>2026-04-28T15:42:48.999Z</time></trkpt><trkpt lat="40.77162522846321" lon="17.450961406762836"><ele>159.66666666666669</ele><time>2026-04-28T15:42:51.999Z</time></trkpt><trkpt lat="40.77169334453445" lon="17.450948843449233"><ele>159.5</ele><time>2026-04-28T15:42:53.999Z</time></trkpt><trkpt lat="40.77176582646436" lon="17.450931703464605"><ele>159.33333333333334</ele><time>2026-04-28T15:42:56.999Z</time></trkpt><trkpt lat="40.771837801209" lon="17.45099189135126"><ele>159.16666666666666</ele><time>2026-04-28T15:42:58.999Z</time></trkpt><trkpt lat="40.77190756870182" lon="17.45101607418079"><ele>159.0</ele><time>2026-04-28T15:43:00.999Z</time></trkpt><trkpt lat="40.77202117881177" lon="17.451041764469487"><ele>157.4</ele><time>2026-04-28T15:43:02.999Z</time></trkpt><trkpt lat="40.77215285497221" lon="17.4509882390088"><ele>155.8</ele><time>2026-04-28T15:43:04.999Z</time></trkpt><trkpt lat="40.77221876604314" lon="17.45095830350854"><ele>154.2</ele><time>2026-04-28T15:43:05.999Z</time></trkpt><trkpt lat="40.77229403624517" lon="17.450932187387032"><ele>152.6</ele><time>2026-04-28T15:43:06.998Z</time></trkpt><trkpt lat="40.77237580915769" lon="17.450845819440573"><ele>151.0</ele><time>2026-04-28T15:43:08.998Z</time></trkpt><trkpt lat="40.77247131536184" lon="17.450849707931415"><ele>151.00000000000003</ele><time>2026-04-28T15:43:11Z</time></trkpt><trkpt lat="40.77244899752911" lon="17.45094759153358"><ele>151.0</ele><time>2026-04-28T15:43:19Z</time></trkpt><trkpt lat="40.77246797566643" lon="17.45103553696106"><ele>151.0</ele><time>2026-04-28T15:43:24Z</time></trkpt><trkpt lat="40.77253772169503" lon="17.451027773757204"><ele>151.0</ele><time>2026-04-28T15:43:27Z</time></trkpt><trkpt lat="40.7726026472822" lon="17.451035008039344"><ele>151.0</ele><time>2026-04-28T15:43:30Z</time></trkpt><trkpt lat="40.77264350179513" lon="17.451114475020113"><ele>151.00000000000003</ele><time>2026-04-28T15:43:35Z</time></trkpt><trkpt lat="40.772622738518656" lon="17.451199590487818"><ele>151.0</ele><time>2026-04-28T15:43:40Z</time></trkpt><trkpt lat="40.772664412556935" lon="17.451289607139024"><ele>152.00000000000003</ele><time>2026-04-28T15:43:45Z</time></trkpt><trkpt lat="40.77261831339168" lon="17.451366838616504"><ele>153.0</ele><time>2026-04-28T15:43:50Z</time></trkpt><trkpt lat="40.77263712053457" lon="17.451459140411835"><ele>154.0</ele><time>2026-04-28T15:43:55Z</time></trkpt><trkpt lat="40.772595616042395" lon="17.451530110129156"><ele>155.0</ele><time>2026-04-28T15:44:21.999Z</time></trkpt><trkpt lat="40.77265810670227" lon="17.451509026990955"><ele>156.0</ele><time>2026-04-28T15:44:43.999Z</time></trkpt><trkpt lat="40.772668003007645" lon="17.451594100540923"><ele>157.00000000000003</ele><time>2026-04-28T15:44:56.999Z</time></trkpt><trkpt lat="40.7726426224521" lon="17.451497932795643"><ele>158.0</ele><time>2026-04-28T15:46:22.999Z</time></trkpt><trkpt lat="40.772600102116535" lon="17.451567473843884"><ele>158.00000000000003</ele><time>2026-04-28T15:48:16.999Z</time></trkpt><trkpt lat="40.77261418651903" lon="17.451460883321737"><ele>158.0</ele><time>2026-04-28T15:48:45.999Z</time></trkpt><trkpt lat="40.77260060576088" lon="17.451379253687485"><ele>158.0</ele><time>2026-04-28T15:48:54.999Z</time></trkpt><trkpt lat="40.77261359876367" lon="17.45128768738217"><ele>158.0</ele><time>2026-04-28T15:48:57.999Z</time></trkpt><trkpt lat="40.772642620171474" lon="17.451211827293626"><ele>158.0</ele><time>2026-04-28T15:49:00.999Z</time></trkpt><trkpt lat="40.77261086453277" lon="17.4511290173181"><ele>158.00000000000003</ele><time>2026-04-28T15:49:03.999Z</time></trkpt><trkpt lat="40.772621628973816" lon="17.451045192939972"><ele>158.0</ele><time>2026-04-28T15:49:07.999Z</time></trkpt><trkpt lat="40.77256875874934" lon="17.45098851902291"><ele>157.00000000000003</ele><time>2026-04-28T15:49:12.999Z</time></trkpt><trkpt lat="40.77250449596847" lon="17.450998824030602"><ele>156.0</ele><time>2026-04-28T15:49:15.999Z</time></trkpt><trkpt lat="40.77243436618788" lon="17.45098719632622"><ele>155.0</ele><time>2026-04-28T15:49:18.998Z</time></trkpt><trkpt lat="40.77241861959214" lon="17.45089725391187"><ele>154.0</ele><time>2026-04-28T15:49:21.998Z</time></trkpt><trkpt lat="40.772478728549345" lon="17.450870899629596"><ele>153.0</ele><time>2026-04-28T15:49:27.998Z</time></trkpt><trkpt lat="40.77241412094766" lon="17.450847789831172"><ele>152.00000000000003</ele><time>2026-04-28T15:49:57Z</time></trkpt><trkpt lat="40.772371866357226" lon="17.450934699626025"><ele>151.0</ele><time>2026-04-28T15:50:20.999Z</time></trkpt><trkpt lat="40.77229312066087" lon="17.4509578704545"><ele>151.0</ele><time>2026-04-28T15:50:25.999Z</time></trkpt><trkpt lat="40.77221514231542" lon="17.450981299512026"><ele>151.0</ele><time>2026-04-28T15:50:28.999Z</time></trkpt><trkpt lat="40.77213888621139" lon="17.45100255451704"><ele>151.0</ele><time>2026-04-28T15:50:31.999Z</time></trkpt><trkpt lat="40.77205254684664" lon="17.451047589475024"><ele>151.0</ele><time>2026-04-28T15:50:34.999Z</time></trkpt><trkpt lat="40.77195888879575" lon="17.451073873640816"><ele>151.0</ele><time>2026-04-28T15:50:37.999Z</time></trkpt><trkpt lat="40.77189748986034" lon="17.45104043537924"><ele>151.0</ele><time>2026-04-28T15:50:39.999Z</time></trkpt><trkpt lat="40.77183416225552" lon="17.451033877301512"><ele>152.14285714285717</ele><time>2026-04-28T15:50:41.999Z</time></trkpt><trkpt lat="40.77176715847317" lon="17.45098560185142"><ele>153.28571428571428</ele><time>2026-04-28T15:50:44.999Z</time></trkpt><trkpt lat="40.77169319764833" lon="17.450976930908894"><ele>154.42857142857144</ele><time>2026-04-28T15:50:47.999Z</time></trkpt><trkpt lat="40.77163897223708" lon="17.451027880568414"><ele>155.57142857142858</ele><time>2026-04-28T15:50:49.999Z</time></trkpt><trkpt lat="40.77160429183313" lon="17.45110884678072"><ele>156.71428571428572</ele><time>2026-04-28T15:50:52.999Z</time></trkpt><trkpt lat="40.77163278363162" lon="17.451206159066448"><ele>157.85714285714286</ele><time>2026-04-28T15:50:55.999Z</time></trkpt><trkpt lat="40.771623815917486" lon="17.45130463792849"><ele>159.0</ele><time>2026-04-28T15:50:58.999Z</time></trkpt><trkpt lat="40.77157532620068" lon="17.451378410739494"><ele>159.16666666666666</ele><time>2026-04-28T15:51:01.999Z</time></trkpt><trkpt lat="40.771544711534936" lon="17.451475078871994"><ele>159.33333333333334</ele><time>2026-04-28T15:51:04.999Z</time></trkpt><trkpt lat="40.771489340664104" lon="17.451564231985184"><ele>159.5</ele><time>2026-04-28T15:51:08.999Z</time></trkpt><trkpt lat="40.771445304250086" lon="17.451629909737026"><ele>159.66666666666669</ele><time>2026-04-28T15:51:11.999Z</time></trkpt><trkpt lat="40.771387251337394" lon="17.451674178067012"><ele>159.83333333333334</ele><time>2026-04-28T15:51:13.999Z</time></trkpt><trkpt lat="40.771321591030315" lon="17.45173564660429"><ele>160.0</ele><time>2026-04-28T15:51:16.999Z</time></trkpt><trkpt lat="40.771233704223874" lon="17.45178820791157"><ele>160.0</ele><time>2026-04-28T15:51:20.999Z</time></trkpt><trkpt lat="40.77114379770776" lon="17.451819663902878"><ele>160.0</ele><time>2026-04-28T15:51:24.998Z</time></trkpt><trkpt lat="40.77107848658966" lon="17.4518778312669"><ele>160.0</ele><time>2026-04-28T15:51:27.998Z</time></trkpt><trkpt lat="40.77101792641951" lon="17.451932865389825"><ele>160.0</ele><time>2026-04-28T15:51:29.998Z</time></trkpt><trkpt lat="40.77096677400197" lon="17.45199532974746"><ele>160.0</ele><time>2026-04-28T15:51:32.998Z</time></trkpt><trkpt lat="40.77092133901922" lon="17.452075499613244"><ele>160.0</ele><time>2026-04-28T15:51:35Z</time></trkpt><trkpt lat="40.77086674591657" lon="17.45215028464551"><ele>161.0</ele><time>2026-04-28T15:51:38Z</time></trkpt><trkpt lat="40.7708175795673" lon="17.4522618148109"><ele>162.0</ele><time>2026-04-28T15:51:40Z</time></trkpt><trkpt lat="40.770765852584" lon="17.452346389929318"><ele>163.0</ele><time>2026-04-28T15:51:42Z</time></trkpt><trkpt lat="40.77072170127867" lon="17.452412108501047"><ele>164.0</ele><time>2026-04-28T15:51:44Z</time></trkpt><trkpt lat="40.770670227852" lon="17.452465881497048"><ele>165.0</ele><time>2026-04-28T15:51:46Z</time></trkpt><trkpt lat="40.77059660403691" lon="17.452551220783928"><ele>166.0</ele><time>2026-04-28T15:51:49Z</time></trkpt><trkpt lat="40.7705484692902" lon="17.45260918423504"><ele>166.0</ele><time>2026-04-28T15:51:51Z</time></trkpt><trkpt lat="40.77049916357395" lon="17.452681412635254"><ele>166.0</ele><time>2026-04-28T15:51:53Z</time></trkpt><trkpt lat="40.770455964242544" lon="17.452768611703434"><ele>166.0</ele><time>2026-04-28T15:51:55Z</time></trkpt><trkpt lat="40.77041703495822" lon="17.452845779844473"><ele>166.0</ele><time>2026-04-28T15:51:57Z</time></trkpt><trkpt lat="40.770361111456545" lon="17.452902494172434"><ele>166.0</ele><time>2026-04-28T15:51:59Z</time></trkpt><trkpt lat="40.77030170025026" lon="17.452971448086984"><ele>166.0</ele><time>2026-04-28T15:52:01Z</time></trkpt><trkpt lat="40.770255367511716" lon="17.45304730378707"><ele>166.0</ele><time>2026-04-28T15:52:03Z</time></trkpt><trkpt lat="40.7702408393408" lon="17.453136792872847"><ele>166.16666666666669</ele><time>2026-04-28T15:52:05Z</time></trkpt><trkpt lat="40.7702362868599" lon="17.453223920334885"><ele>166.33333333333334</ele><time>2026-04-28T15:52:07Z</time></trkpt><trkpt lat="40.77021801057798" lon="17.45332034897927"><ele>166.5</ele><time>2026-04-28T15:52:09Z</time></trkpt><trkpt lat="40.770157400197526" lon="17.453410824317448"><ele>166.66666666666666</ele><time>2026-04-28T15:52:11Z</time></trkpt><trkpt lat="40.77010978492902" lon="17.453466798634164"><ele>166.83333333333331</ele><time>2026-04-28T15:52:13Z</time></trkpt><trkpt lat="40.77005367364725" lon="17.45355161832252"><ele>167.0</ele><time>2026-04-28T15:52:15Z</time></trkpt><trkpt lat="40.769988188687734" lon="17.453586950225983"><ele>168.0</ele><time>2026-04-28T15:52:17Z</time></trkpt><trkpt lat="40.76990159438812" lon="17.45357257682034"><ele>169.0</ele><time>2026-04-28T15:52:19Z</time></trkpt><trkpt lat="40.76986670782223" lon="17.45348690594019"><ele>170.0</ele><time>2026-04-28T15:52:21Z</time></trkpt><trkpt lat="40.76981898136697" lon="17.453410739146694"><ele>171.0</ele><time>2026-04-28T15:52:22.999Z</time></trkpt><trkpt lat="40.76977244449429" lon="17.45333287995613"><ele>172.0</ele><time>2026-04-28T15:52:24.999Z</time></trkpt><trkpt lat="40.76972058695042" lon="17.453263942851233"><ele>173.0</ele><time>2026-04-28T15:52:26.999Z</time></trkpt><trkpt lat="40.769657586906554" lon="17.453202094262025"><ele>173.0</ele><time>2026-04-28T15:52:28.999Z</time></trkpt><trkpt lat="40.76959665050927" lon="17.453145038797047"><ele>173.0</ele><time>2026-04-28T15:52:30.999Z</time></trkpt><trkpt lat="40.76951829422753" lon="17.453099054017557"><ele>173.0</ele><time>2026-04-28T15:52:32.999Z</time></trkpt><trkpt lat="40.76941143971102" lon="17.45311391212323"><ele>173.0</ele><time>2026-04-28T15:52:34.999Z</time></trkpt><trkpt lat="40.769304127767434" lon="17.453143996001764"><ele>173.0</ele><time>2026-04-28T15:52:36.999Z</time></trkpt><trkpt lat="40.76919289441529" lon="17.453185153042075"><ele>173.5</ele><time>2026-04-28T15:52:38.999Z</time></trkpt><trkpt lat="40.76912623647043" lon="17.4531682250373"><ele>174.0</ele><time>2026-04-28T15:52:39.999Z</time></trkpt><trkpt lat="40.76901849436682" lon="17.45316260782434"><ele>174.5</ele><time>2026-04-28T15:52:41.999Z</time></trkpt><trkpt lat="40.768930825076325" lon="17.453151931803312"><ele>175.0</ele><time>2026-04-28T15:52:43.999Z</time></trkpt><trkpt lat="40.768846533840936" lon="17.45320531685384"><ele>175.5</ele><time>2026-04-28T15:52:45.999Z</time></trkpt><trkpt lat="40.76877213173835" lon="17.453250645984312"><ele>176.0</ele><time>2026-04-28T15:52:47.999Z</time></trkpt><trkpt lat="40.768699430830004" lon="17.453290346198546"><ele>176.0</ele><time>2026-04-28T15:52:49.999Z</time></trkpt><trkpt lat="40.76863094381727" lon="17.453330707858207"><ele>176.0</ele><time>2026-04-28T15:52:51.999Z</time></trkpt><trkpt lat="40.76856989060521" lon="17.453357618016938"><ele>176.0</ele><time>2026-04-28T15:52:53.999Z</time></trkpt><trkpt lat="40.76849167223993" lon="17.453413488243744"><ele>176.0</ele><time>2026-04-28T15:52:55.999Z</time></trkpt><trkpt lat="40.76841782721012" lon="17.453384972933723"><ele>176.0</ele><time>2026-04-28T15:52:57.999Z</time></trkpt><trkpt lat="40.7683516045918" lon="17.453302968231167"><ele>176.0</ele><time>2026-04-28T15:52:59.999Z</time></trkpt><trkpt lat="40.768250899913845" lon="17.453233979236646"><ele>176.66666666666666</ele><time>2026-04-28T15:53:02.999Z</time></trkpt><trkpt lat="40.76817897834342" lon="17.45320683207759"><ele>177.33333333333331</ele><time>2026-04-28T15:53:04.999Z</time></trkpt><trkpt lat="40.76810346748246" lon="17.453165787690928"><ele>178.0</ele><time>2026-04-28T15:53:06.999Z</time></trkpt><trkpt lat="40.76803453892849" lon="17.453131678561057"><ele>178.66666666666666</ele><time>2026-04-28T15:53:08.999Z</time></trkpt><trkpt lat="40.76796473500447" lon="17.45309724959271"><ele>179.33333333333334</ele><time>2026-04-28T15:53:10.999Z</time></trkpt><trkpt lat="40.76789039064961" lon="17.45306563100699"><ele>180.0</ele><time>2026-04-28T15:53:12.999Z</time></trkpt><trkpt lat="40.76782163393374" lon="17.453023410439055"><ele>180.0</ele><time>2026-04-28T15:53:14.999Z</time></trkpt><trkpt lat="40.76774639698833" lon="17.45298373970158"><ele>180.0</ele><time>2026-04-28T15:53:16.999Z</time></trkpt><trkpt lat="40.76766367546815" lon="17.452942493175456"><ele>180.0</ele><time>2026-04-28T15:53:18.999Z</time></trkpt><trkpt lat="40.767601449454354" lon="17.452873778399166"><ele>180.0</ele><time>2026-04-28T15:53:20.999Z</time></trkpt><trkpt lat="40.76752325005964" lon="17.45284764123688"><ele>180.0</ele><time>2026-04-28T15:53:22.999Z</time></trkpt><trkpt lat="40.76745010350738" lon="17.452817730851987"><ele>180.0</ele><time>2026-04-28T15:53:24.999Z</time></trkpt><trkpt lat="40.76738043491891" lon="17.452770014666793"><ele>181.33333333333334</ele><time>2026-04-28T15:53:26.999Z</time></trkpt><trkpt lat="40.76730614078315" lon="17.452728440223346"><ele>182.66666666666666</ele><time>2026-04-28T15:53:28.999Z</time></trkpt><trkpt lat="40.767236184979815" lon="17.452692499274793"><ele>184.0</ele><time>2026-04-28T15:53:30.999Z</time></trkpt><trkpt lat="40.767165147794984" lon="17.452643912388904"><ele>185.33333333333331</ele><time>2026-04-28T15:53:32.999Z</time></trkpt><trkpt lat="40.76709092786114" lon="17.45260076385045"><ele>186.66666666666666</ele><time>2026-04-28T15:53:34.998Z</time></trkpt><trkpt lat="40.76702620957861" lon="17.452559024772476"><ele>188.0</ele><time>2026-04-28T15:53:36.998Z</time></trkpt><trkpt lat="40.76695272158037" lon="17.452515088500625"><ele>188.0</ele><time>2026-04-28T15:53:38.998Z</time></trkpt><trkpt lat="40.76687367150002" lon="17.452487947149717"><ele>188.0</ele><time>2026-04-28T15:53:41Z</time></trkpt><trkpt lat="40.76680174061356" lon="17.452438999692827"><ele>188.0</ele><time>2026-04-28T15:53:43Z</time></trkpt><trkpt lat="40.76672704370854" lon="17.45240005919714"><ele>188.0</ele><time>2026-04-28T15:53:45Z</time></trkpt><trkpt lat="40.76665721870962" lon="17.45235613693263"><ele>188.0</ele><time>2026-04-28T15:53:47Z</time></trkpt><trkpt lat="40.76657846972116" lon="17.452313444879426"><ele>188.0</ele><time>2026-04-28T15:53:49Z</time></trkpt><trkpt lat="40.76648564938246" lon="17.45227973063234"><ele>189.33333333333331</ele><time>2026-04-28T15:53:52Z</time></trkpt><trkpt lat="40.76643184181587" lon="17.4522210144344"><ele>190.66666666666666</ele><time>2026-04-28T15:53:54Z</time></trkpt><trkpt lat="40.76636863456198" lon="17.45224344413178"><ele>192.0</ele><time>2026-04-28T15:53:56Z</time></trkpt><trkpt lat="40.76630338964037" lon="17.452271255691745"><ele>193.33333333333331</ele><time>2026-04-28T15:53:59Z</time></trkpt><trkpt lat="40.76632106776792" lon="17.452156365332325"><ele>194.66666666666666</ele><time>2026-04-28T15:54:02Z</time></trkpt><trkpt lat="40.766372781680914" lon="17.452056746710426"><ele>196.0</ele><time>2026-04-28T15:54:04Z</time></trkpt><trkpt lat="40.76638451530685" lon="17.45196060280131"><ele>196.49999999999997</ele><time>2026-04-28T15:54:06Z</time></trkpt><trkpt lat="40.76640755313214" lon="17.451840600681233"><ele>197.0</ele><time>2026-04-28T15:54:09Z</time></trkpt><trkpt lat="40.76641946062824" lon="17.451750393984003"><ele>197.5</ele><time>2026-04-28T15:54:11Z</time></trkpt><trkpt lat="40.76645946785286" lon="17.451600262048306"><ele>198.0</ele><time>2026-04-28T15:54:14Z</time></trkpt><trkpt lat="40.766432788420055" lon="17.451512396053722"><ele>198.49999999999997</ele><time>2026-04-28T15:54:17Z</time></trkpt><trkpt lat="40.766451646469" lon="17.45140717745415"><ele>199.0</ele><time>2026-04-28T15:54:19Z</time></trkpt><trkpt lat="40.766455383514234" lon="17.45127949362087"><ele>198.99999999999997</ele><time>2026-04-28T15:54:22Z</time></trkpt><trkpt lat="40.76647057287582" lon="17.451188009840088"><ele>199.0</ele><time>2026-04-28T15:54:23.999Z</time></trkpt><trkpt lat="40.76647982624194" lon="17.451099123565584"><ele>199.0</ele><time>2026-04-28T15:54:25.999Z</time></trkpt><trkpt lat="40.76648765853208" lon="17.45101129672799"><ele>199.0</ele><time>2026-04-28T15:54:27.999Z</time></trkpt><trkpt lat="40.76648715784785" lon="17.45092030976207"><ele>199.0</ele><time>2026-04-28T15:54:29.999Z</time></trkpt><trkpt lat="40.76647684922537" lon="17.450807133913226"><ele>198.99999999999997</ele><time>2026-04-28T15:54:31.999Z</time></trkpt><trkpt lat="40.7664852032908" lon="17.450722631026643"><ele>199.0</ele><time>2026-04-28T15:54:33.999Z</time></trkpt><trkpt lat="40.76647386566975" lon="17.450622489828845"><ele>198.99999999999997</ele><time>2026-04-28T15:54:35.999Z</time></trkpt><trkpt lat="40.76646104236348" lon="17.450524649530607"><ele>199.0</ele><time>2026-04-28T15:54:37.999Z</time></trkpt><trkpt lat="40.766449816291406" lon="17.45042867881881"><ele>199.0</ele><time>2026-04-28T15:54:39.999Z</time></trkpt><trkpt lat="40.76642897036293" lon="17.450320971097035"><ele>199.0</ele><time>2026-04-28T15:54:41.999Z</time></trkpt><trkpt lat="40.76639339227923" lon="17.450222893236827"><ele>198.99999999999997</ele><time>2026-04-28T15:54:43.999Z</time></trkpt><trkpt lat="40.76636301577784" lon="17.450130298114143"><ele>199.0</ele><time>2026-04-28T15:54:45.999Z</time></trkpt><trkpt lat="40.766319938244834" lon="17.45001449956171"><ele>198.66666666666666</ele><time>2026-04-28T15:54:47.999Z</time></trkpt><trkpt lat="40.76627941958927" lon="17.449930569753807"><ele>198.33333333333331</ele><time>2026-04-28T15:54:49.999Z</time></trkpt><trkpt lat="40.76622713384364" lon="17.449841859343195"><ele>198.0</ele><time>2026-04-28T15:54:51.999Z</time></trkpt><trkpt lat="40.76616788475303" lon="17.449768126330735"><ele>197.66666666666669</ele><time>2026-04-28T15:54:53.999Z</time></trkpt><trkpt lat="40.76609946181226" lon="17.449682901492835"><ele>197.33333333333334</ele><time>2026-04-28T15:54:55.999Z</time></trkpt><trkpt lat="40.76602452048022" lon="17.449621326274375"><ele>197.0</ele><time>2026-04-28T15:54:57.999Z</time></trkpt><trkpt lat="40.765955385607015" lon="17.44955515578364"><ele>198.66666666666669</ele><time>2026-04-28T15:54:59.999Z</time></trkpt><trkpt lat="40.76588431457724" lon="17.449493241723346"><ele>200.33333333333334</ele><time>2026-04-28T15:55:01.999Z</time></trkpt><trkpt lat="40.765809001465" lon="17.449450479722632"><ele>202.0</ele><time>2026-04-28T15:55:03.999Z</time></trkpt><trkpt lat="40.76574482141078" lon="17.44939063029598"><ele>203.66666666666669</ele><time>2026-04-28T15:55:05.999Z</time></trkpt><trkpt lat="40.76567249391711" lon="17.44934390724135"><ele>205.33333333333334</ele><time>2026-04-28T15:55:07.999Z</time></trkpt><trkpt lat="40.765604639789174" lon="17.44928669624875"><ele>207.0</ele><time>2026-04-28T15:55:09.999Z</time></trkpt><trkpt lat="40.76553879687897" lon="17.44923108213031"><ele>207.0</ele><time>2026-04-28T15:55:11.999Z</time></trkpt><trkpt lat="40.765476577967156" lon="17.4491683012753"><ele>207.0</ele><time>2026-04-28T15:55:13.999Z</time></trkpt><trkpt lat="40.76541498901587" lon="17.449117817421403"><ele>207.0</ele><time>2026-04-28T15:55:15.999Z</time></trkpt><trkpt lat="40.76535015407379" lon="17.449060128920745"><ele>207.0</ele><time>2026-04-28T15:55:17.999Z</time></trkpt><trkpt lat="40.76527959093371" lon="17.448988085154884"><ele>207.0</ele><time>2026-04-28T15:55:21.999Z</time></trkpt><trkpt lat="40.76525708797892" lon="17.448899337938997"><ele>207.0</ele><time>2026-04-28T15:55:24.999Z</time></trkpt><trkpt lat="40.7652573934334" lon="17.448785990677308"><ele>206.33333333333334</ele><time>2026-04-28T15:55:27.999Z</time></trkpt><trkpt lat="40.76523703502216" lon="17.44869773503287"><ele>205.66666666666669</ele><time>2026-04-28T15:55:29.999Z</time></trkpt><trkpt lat="40.76521640529112" lon="17.44861523724943"><ele>205.0</ele><time>2026-04-28T15:55:31.999Z</time></trkpt><trkpt lat="40.7652007948261" lon="17.448505642551197"><ele>204.33333333333334</ele><time>2026-04-28T15:55:33.999Z</time></trkpt><trkpt lat="40.76517859927783" lon="17.44840636106407"><ele>203.66666666666669</ele><time>2026-04-28T15:55:34.999Z</time></trkpt><trkpt lat="40.76515449276872" lon="17.448311944593215"><ele>203.0</ele><time>2026-04-28T15:55:35.999Z</time></trkpt><trkpt lat="40.765138564173725" lon="17.44818520723973"><ele>203.0</ele><time>2026-04-28T15:55:36.999Z</time></trkpt><trkpt lat="40.76514944839331" lon="17.448036733601736"><ele>203.0</ele><time>2026-04-28T15:55:38.998Z</time></trkpt><trkpt lat="40.765195189054566" lon="17.44787564544502"><ele>203.0</ele><time>2026-04-28T15:55:40.998Z</time></trkpt><trkpt lat="40.76521949559475" lon="17.447796680795044"><ele>203.0</ele><time>2026-04-28T15:55:41.998Z</time></trkpt><trkpt lat="40.765244452993" lon="17.447634872468495"><ele>203.0</ele><time>2026-04-28T15:55:43.998Z</time></trkpt><trkpt lat="40.76527740454489" lon="17.447486591665335"><ele>203.0</ele><time>2026-04-28T15:55:45.998Z</time></trkpt><trkpt lat="40.76531140381786" lon="17.44735343920207"><ele>203.0</ele><time>2026-04-28T15:55:48Z</time></trkpt><trkpt lat="40.76532131291287" lon="17.44721419661427"><ele>203.0</ele><time>2026-04-28T15:55:50Z</time></trkpt><trkpt lat="40.765364628959524" lon="17.447100192546856"><ele>203.0</ele><time>2026-04-28T15:55:52Z</time></trkpt><trkpt lat="40.76541043476781" lon="17.44699165712198"><ele>203.0</ele><time>2026-04-28T15:55:54Z</time></trkpt><trkpt lat="40.76543479773823" lon="17.446875973974205"><ele>204.00000000000003</ele><time>2026-04-28T15:55:56Z</time></trkpt><trkpt lat="40.76548038966121" lon="17.44677948002031"><ele>205.0</ele><time>2026-04-28T15:55:58Z</time></trkpt><trkpt lat="40.76552111968433" lon="17.446691696496643"><ele>206.0</ele><time>2026-04-28T15:56:00Z</time></trkpt><trkpt lat="40.76556207286484" lon="17.446610243737815"><ele>207.0</ele><time>2026-04-28T15:56:02Z</time></trkpt><trkpt lat="40.76560546605276" lon="17.44651689299578"><ele>208.00000000000003</ele><time>2026-04-28T15:56:04Z</time></trkpt><trkpt lat="40.76566175638754" lon="17.446405213913604"><ele>209.0</ele><time>2026-04-28T15:56:06Z</time></trkpt><trkpt lat="40.7657258031014" lon="17.446322167175243"><ele>207.50000000000003</ele><time>2026-04-28T15:56:08Z</time></trkpt><trkpt lat="40.765766456466714" lon="17.44622598792068"><ele>206.0</ele><time>2026-04-28T15:56:10Z</time></trkpt><trkpt lat="40.76582910236018" lon="17.446151594844594"><ele>204.5</ele><time>2026-04-28T15:56:12Z</time></trkpt><trkpt lat="40.76589040620064" lon="17.44605322068866"><ele>203.0</ele><time>2026-04-28T15:56:14Z</time></trkpt><trkpt lat="40.765930191809126" lon="17.44595789418565"><ele>201.50000000000003</ele><time>2026-04-28T15:56:16Z</time></trkpt><trkpt lat="40.7659899294089" lon="17.44587443391592"><ele>200.0</ele><time>2026-04-28T15:56:18Z</time></trkpt><trkpt lat="40.766040464331674" lon="17.445771321403704"><ele>200.0</ele><time>2026-04-28T15:56:20Z</time></trkpt><trkpt lat="40.76609034105397" lon="17.44564969085832"><ele>200.0</ele><time>2026-04-28T15:56:22Z</time></trkpt><trkpt lat="40.76616961752627" lon="17.44556714004866"><ele>200.0</ele><time>2026-04-28T15:56:24Z</time></trkpt><trkpt lat="40.76626454437639" lon="17.445479726809303"><ele>200.0</ele><time>2026-04-28T15:56:26Z</time></trkpt><trkpt lat="40.76629662714815" lon="17.445406761333256"><ele>200.0</ele><time>2026-04-28T15:56:27Z</time></trkpt><trkpt lat="40.76637955265285" lon="17.445307985563822"><ele>202.25</ele><time>2026-04-28T15:56:29Z</time></trkpt><trkpt lat="40.7664623853419" lon="17.44520805097493"><ele>204.5</ele><time>2026-04-28T15:56:31Z</time></trkpt><trkpt lat="40.76653542361786" lon="17.445102309137166"><ele>206.75</ele><time>2026-04-28T15:56:33Z</time></trkpt><trkpt lat="40.76661795445441" lon="17.445021154955764"><ele>209.0</ele><time>2026-04-28T15:56:34.999Z</time></trkpt><trkpt lat="40.76650924852546" lon="17.444922240050545"><ele>209.0</ele><time>2026-04-28T15:56:39.999Z</time></trkpt><trkpt lat="40.76645274884971" lon="17.444872742572166"><ele>209.0</ele><time>2026-04-28T15:56:41.999Z</time></trkpt><trkpt lat="40.76639771569717" lon="17.444828612299148"><ele>209.0</ele><time>2026-04-28T15:56:43.999Z</time></trkpt><trkpt lat="40.76633166834589" lon="17.444772384719087"><ele>209.0</ele><time>2026-04-28T15:56:46.999Z</time></trkpt><trkpt lat="40.7662623461243" lon="17.44472126212037"><ele>209.0</ele><time>2026-04-28T15:56:49.999Z</time></trkpt><trkpt lat="40.76621646103975" lon="17.44463894199983"><ele>209.0</ele><time>2026-04-28T15:56:52.999Z</time></trkpt><trkpt lat="40.7661503295529" lon="17.444620586372775"><ele>209.0</ele><time>2026-04-28T15:56:56.999Z</time></trkpt><trkpt lat="40.76609191999671" lon="17.444588830452467"><ele>213.16666666666669</ele><time>2026-04-28T15:56:59.999Z</time></trkpt><trkpt lat="40.766018041857876" lon="17.44463396344845"><ele>217.33333333333334</ele><time>2026-04-28T15:57:04.999Z</time></trkpt><trkpt lat="40.765966620042505" lon="17.44472121632469"><ele>221.5</ele><time>2026-04-28T15:57:08.999Z</time></trkpt><trkpt lat="40.76593429515544" lon="17.44481341001507"><ele>225.66666666666669</ele><time>2026-04-28T15:57:11.999Z</time></trkpt><trkpt lat="40.76588180469969" lon="17.444896857423217"><ele>229.83333333333334</ele><time>2026-04-28T15:57:14.999Z</time></trkpt><trkpt lat="40.76582836195546" lon="17.44501813995099"><ele>234.0</ele><time>2026-04-28T15:57:17.999Z</time></trkpt><trkpt lat="40.765776778517015" lon="17.4451078404977"><ele>234.0</ele><time>2026-04-28T15:57:20.999Z</time></trkpt><trkpt lat="40.76574336724602" lon="17.445184697419005"><ele>234.0</ele><time>2026-04-28T15:57:22.999Z</time></trkpt><trkpt lat="40.76568773914886" lon="17.445266319769548"><ele>234.0</ele><time>2026-04-28T15:57:24.999Z</time></trkpt><trkpt lat="40.765632907795016" lon="17.445363027055002"><ele>234.0</ele><time>2026-04-28T15:57:27.999Z</time></trkpt><trkpt lat="40.7656005618462" lon="17.44543807375212"><ele>234.0</ele><time>2026-04-28T15:57:29.999Z</time></trkpt><trkpt lat="40.76555650114445" lon="17.445524516936118"><ele>234.0</ele><time>2026-04-28T15:57:32.999Z</time></trkpt><trkpt lat="40.76550168964679" lon="17.44559968986064"><ele>231.83333333333334</ele><time>2026-04-28T15:57:35.999Z</time></trkpt><trkpt lat="40.76543254978037" lon="17.445702567962215"><ele>229.66666666666669</ele><time>2026-04-28T15:57:38.999Z</time></trkpt><trkpt lat="40.765394657408514" lon="17.445790220276372"><ele>227.5</ele><time>2026-04-28T15:57:41.999Z</time></trkpt><trkpt lat="40.76533211716332" lon="17.44586983001385"><ele>225.33333333333334</ele><time>2026-04-28T15:57:44.999Z</time></trkpt><trkpt lat="40.76529821006894" lon="17.44593999350019"><ele>223.16666666666669</ele><time>2026-04-28T15:57:47.999Z</time></trkpt><trkpt lat="40.76525192997535" lon="17.44600578372028"><ele>221.0</ele><time>2026-04-28T15:57:50.998Z</time></trkpt><trkpt lat="40.76520330372489" lon="17.446087287557628"><ele>223.8571428571429</ele><time>2026-04-28T15:57:54Z</time></trkpt><trkpt lat="40.76515502369805" lon="17.446147930415293"><ele>226.71428571428572</ele><time>2026-04-28T15:57:57Z</time></trkpt><trkpt lat="40.76509520105287" lon="17.446202977136636"><ele>229.57142857142858</ele><time>2026-04-28T15:58:00Z</time></trkpt><trkpt lat="40.76504333049941" lon="17.446252896818468"><ele>232.42857142857144</ele><time>2026-04-28T15:58:03Z</time></trkpt><trkpt lat="40.76500809355217" lon="17.446331656241135"><ele>235.2857142857143</ele><time>2026-04-28T15:58:05Z</time></trkpt><trkpt lat="40.76494871960118" lon="17.44640084274004"><ele>238.14285714285717</ele><time>2026-04-28T15:58:08Z</time></trkpt><trkpt lat="40.764885716017446" lon="17.44645740742878"><ele>241.0</ele><time>2026-04-28T15:58:11Z</time></trkpt><trkpt lat="40.76485715369224" lon="17.44656175563689"><ele>240.99999999999997</ele><time>2026-04-28T15:58:15Z</time></trkpt><trkpt lat="40.76476680866452" lon="17.44662588091049"><ele>241.0</ele><time>2026-04-28T15:58:18Z</time></trkpt><trkpt lat="40.764718486403424" lon="17.44668485480824"><ele>241.0</ele><time>2026-04-28T15:58:21Z</time></trkpt><trkpt lat="40.7646611309881" lon="17.446744369340138"><ele>241.0</ele><time>2026-04-28T15:58:25Z</time></trkpt><trkpt lat="40.76460635180704" lon="17.446813528567326"><ele>240.99999999999997</ele><time>2026-04-28T15:58:28Z</time></trkpt><trkpt lat="40.764548626657714" lon="17.44686267620766"><ele>241.0</ele><time>2026-04-28T15:58:31Z</time></trkpt><trkpt lat="40.76449626457004" lon="17.44694350725977"><ele>241.0</ele><time>2026-04-28T15:58:34Z</time></trkpt><trkpt lat="40.764428423022686" lon="17.446987003808754"><ele>241.00000000000003</ele><time>2026-04-28T15:58:37Z</time></trkpt><trkpt lat="40.764365505306316" lon="17.447062702115087"><ele>241.0</ele><time>2026-04-28T15:58:39Z</time></trkpt><trkpt lat="40.76430621920199" lon="17.44711791507293"><ele>241.0</ele><time>2026-04-28T15:58:40.999Z</time></trkpt><trkpt lat="40.76426188846102" lon="17.447184455816195"><ele>241.00000000000003</ele><time>2026-04-28T15:58:42.999Z</time></trkpt><trkpt lat="40.7642107423743" lon="17.447265406794276"><ele>241.0</ele><time>2026-04-28T15:58:44.999Z</time></trkpt><trkpt lat="40.764160507342616" lon="17.447317726354502"><ele>241.0</ele><time>2026-04-28T15:58:47.999Z</time></trkpt><trkpt lat="40.76412255916912" lon="17.447388823385293"><ele>243.66666666666666</ele><time>2026-04-28T15:58:50.999Z</time></trkpt><trkpt lat="40.764082975109815" lon="17.447487445206885"><ele>246.33333333333331</ele><time>2026-04-28T15:58:53.999Z</time></trkpt><trkpt lat="40.764057081862845" lon="17.447577926494297"><ele>249.0</ele><time>2026-04-28T15:58:56.999Z</time></trkpt><trkpt lat="40.76404451666808" lon="17.44770371113174"><ele>251.66666666666669</ele><time>2026-04-28T15:58:59.999Z</time></trkpt><trkpt lat="40.76400785949621" lon="17.44782958024118"><ele>254.33333333333334</ele><time>2026-04-28T15:59:01.999Z</time></trkpt><trkpt lat="40.76397052184677" lon="17.44794264561013"><ele>257.0</ele><time>2026-04-28T15:59:03.999Z</time></trkpt><trkpt lat="40.76394399636522" lon="17.448045160611233"><ele>257.0</ele><time>2026-04-28T15:59:05.999Z</time></trkpt><trkpt lat="40.763911048670224" lon="17.448148153167928"><ele>257.0</ele><time>2026-04-28T15:59:07.999Z</time></trkpt><trkpt lat="40.76388390963134" lon="17.448253931679833"><ele>257.0</ele><time>2026-04-28T15:59:09.999Z</time></trkpt><trkpt lat="40.763853928102286" lon="17.448343159710795"><ele>257.0</ele><time>2026-04-28T15:59:11.999Z</time></trkpt><trkpt lat="40.76385292055583" lon="17.448481321581298"><ele>257.0</ele><time>2026-04-28T15:59:13.999Z</time></trkpt><trkpt lat="40.76382081529334" lon="17.44855768433717"><ele>257.0</ele><time>2026-04-28T15:59:15.999Z</time></trkpt><trkpt lat="40.76380139912663" lon="17.448662194643344"><ele>257.0</ele><time>2026-04-28T15:59:17.999Z</time></trkpt><trkpt lat="40.76380010460335" lon="17.448757660901276"><ele>257.0</ele><time>2026-04-28T15:59:19.999Z</time></trkpt><trkpt lat="40.76379380603282" lon="17.448870093066297"><ele>257.0</ele><time>2026-04-28T15:59:23.999Z</time></trkpt><trkpt lat="40.76379770336919" lon="17.449005409568944"><ele>257.0</ele><time>2026-04-28T15:59:26.999Z</time></trkpt><trkpt lat="40.763813111566556" lon="17.449107280165823"><ele>257.0</ele><time>2026-04-28T15:59:28.999Z</time></trkpt><trkpt lat="40.76380752767141" lon="17.449253642573"><ele>257.5</ele><time>2026-04-28T15:59:30.999Z</time></trkpt><trkpt lat="40.76380307462891" lon="17.449382348755293"><ele>258.0</ele><time>2026-04-28T15:59:32.999Z</time></trkpt><trkpt lat="40.76381326420139" lon="17.449471918120423"><ele>258.5</ele><time>2026-04-28T15:59:34.999Z</time></trkpt><trkpt lat="40.76384287376652" lon="17.449582527839937"><ele>259.0</ele><time>2026-04-28T15:59:36.999Z</time></trkpt><trkpt lat="40.76388832760544" lon="17.449695262429103"><ele>259.5</ele><time>2026-04-28T15:59:38.999Z</time></trkpt><trkpt lat="40.763900872946344" lon="17.44977676696697"><ele>260.0</ele><time>2026-04-28T15:59:40.999Z</time></trkpt><trkpt lat="40.76392168782486" lon="17.449858484930598"><ele>262.5</ele><time>2026-04-28T15:59:42.999Z</time></trkpt><trkpt lat="40.76395003641945" lon="17.44996512965785"><ele>265.0</ele><time>2026-04-28T15:59:44.999Z</time></trkpt><trkpt lat="40.76399144713964" lon="17.450040735265212"><ele>267.5</ele><time>2026-04-28T15:59:46.999Z</time></trkpt><trkpt lat="40.76401577926473" lon="17.450183709987193"><ele>270.0</ele><time>2026-04-28T15:59:49.999Z</time></trkpt><trkpt lat="40.7640512072126" lon="17.450262091571997"><ele>272.5</ele><time>2026-04-28T15:59:51.999Z</time></trkpt><trkpt lat="40.76408924143475" lon="17.45034581417717"><ele>275.0</ele><time>2026-04-28T15:59:53.999Z</time></trkpt><trkpt lat="40.76411506685426" lon="17.45042627218431"><ele>277.33333333333337</ele><time>2026-04-28T15:59:55.998Z</time></trkpt><trkpt lat="40.764164448449264" lon="17.450537462277246"><ele>279.6666666666667</ele><time>2026-04-28T15:59:59Z</time></trkpt><trkpt lat="40.764183908033566" lon="17.45063391982072"><ele>282.0</ele><time>2026-04-28T16:00:01Z</time></trkpt><trkpt lat="40.76421000163766" lon="17.45074552027309"><ele>284.3333333333333</ele><time>2026-04-28T16:00:04Z</time></trkpt><trkpt lat="40.76420807178248" lon="17.450847434208804"><ele>286.66666666666663</ele><time>2026-04-28T16:00:06Z</time></trkpt><trkpt lat="40.764227098635224" lon="17.450961056021878"><ele>289.0</ele><time>2026-04-28T16:00:09Z</time></trkpt><trkpt lat="40.764220971200736" lon="17.451088433757214"><ele>289.0</ele><time>2026-04-28T16:00:13Z</time></trkpt><trkpt lat="40.76419513542369" lon="17.451234891413463"><ele>289.0</ele><time>2026-04-28T16:00:17Z</time></trkpt><trkpt lat="40.7641675215285" lon="17.45131824376833"><ele>289.0</ele><time>2026-04-28T16:00:20Z</time></trkpt><trkpt lat="40.76412565362527" lon="17.45144939839174"><ele>289.0</ele><time>2026-04-28T16:00:23Z</time></trkpt><trkpt lat="40.76408526872863" lon="17.451526537732008"><ele>289.0</ele><time>2026-04-28T16:00:26Z</time></trkpt><trkpt lat="40.76403597147349" lon="17.451580380376587"><ele>289.0</ele><time>2026-04-28T16:00:28Z</time></trkpt><trkpt lat="40.76400247615427" lon="17.451665253876044"><ele>288.7142857142857</ele><time>2026-04-28T16:00:30Z</time></trkpt><trkpt lat="40.76393740556737" lon="17.45169763368004"><ele>288.42857142857144</ele><time>2026-04-28T16:00:33Z</time></trkpt><trkpt lat="40.76388972273303" lon="17.451775152966103"><ele>288.1428571428571</ele><time>2026-04-28T16:00:35Z</time></trkpt><trkpt lat="40.7638414068745" lon="17.451839298164614"><ele>287.8571428571429</ele><time>2026-04-28T16:00:37Z</time></trkpt><trkpt lat="40.76378349538838" lon="17.451882572914595"><ele>287.57142857142856</ele><time>2026-04-28T16:00:39Z</time></trkpt><trkpt lat="40.76371214952595" lon="17.451928247674427"><ele>287.2857142857143</ele><time>2026-04-28T16:00:42Z</time></trkpt><trkpt lat="40.763652519127035" lon="17.45196548270463"><ele>287.0</ele><time>2026-04-28T16:00:45Z</time></trkpt><trkpt lat="40.76355581592252" lon="17.45199409621766"><ele>287.6666666666667</ele><time>2026-04-28T16:00:48Z</time></trkpt><trkpt lat="40.76348741082934" lon="17.452049658074326"><ele>288.33333333333337</ele><time>2026-04-28T16:00:51Z</time></trkpt><trkpt lat="40.76342719532053" lon="17.45207467488019"><ele>289.0</ele><time>2026-04-28T16:00:52Z</time></trkpt><trkpt lat="40.76335473624584" lon="17.452124198137465"><ele>289.6666666666667</ele><time>2026-04-28T16:00:54.999Z</time></trkpt><trkpt lat="40.76327860399737" lon="17.45214577547818"><ele>290.3333333333333</ele><time>2026-04-28T16:00:56.999Z</time></trkpt><trkpt lat="40.763206193475895" lon="17.45221507536518"><ele>291.0</ele><time>2026-04-28T16:00:59.999Z</time></trkpt><trkpt lat="40.76314540974564" lon="17.4522431575896"><ele>291.0</ele><time>2026-04-28T16:01:01.999Z</time></trkpt><trkpt lat="40.763091586691786" lon="17.452290619425938"><ele>291.0</ele><time>2026-04-28T16:01:03.999Z</time></trkpt><trkpt lat="40.762976439645705" lon="17.452323409835497"><ele>291.0</ele><time>2026-04-28T16:01:06.999Z</time></trkpt><trkpt lat="40.76291849148613" lon="17.452357912623444"><ele>291.0</ele><time>2026-04-28T16:01:07.999Z</time></trkpt><trkpt lat="40.762809058082766" lon="17.452441048120065"><ele>291.0</ele><time>2026-04-28T16:01:09.999Z</time></trkpt><trkpt lat="40.76270288507226" lon="17.45250041810558"><ele>295.3333333333333</ele><time>2026-04-28T16:01:11.999Z</time></trkpt><trkpt lat="40.76261708252394" lon="17.45257327670073"><ele>299.6666666666667</ele><time>2026-04-28T16:01:14.999Z</time></trkpt><trkpt lat="40.76254942481762" lon="17.452640799712018"><ele>304.0</ele><time>2026-04-28T16:01:17.999Z</time></trkpt><trkpt lat="40.7624939309032" lon="17.452687417477996"><ele>308.33333333333337</ele><time>2026-04-28T16:01:19.999Z</time></trkpt><trkpt lat="40.76243658073908" lon="17.452728902256766"><ele>312.6666666666667</ele><time>2026-04-28T16:01:21.999Z</time></trkpt><trkpt lat="40.76236572653027" lon="17.452758006538737"><ele>317.0</ele><time>2026-04-28T16:01:23.999Z</time></trkpt><trkpt lat="40.76229979213011" lon="17.452812327824905"><ele>317.0</ele><time>2026-04-28T16:01:26.999Z</time></trkpt><trkpt lat="40.762235397068494" lon="17.45286226538726"><ele>317.0</ele><time>2026-04-28T16:01:28.999Z</time></trkpt><trkpt lat="40.76217422952166" lon="17.452895133606663"><ele>317.0</ele><time>2026-04-28T16:01:30.999Z</time></trkpt><trkpt lat="40.762115011925594" lon="17.452946443272904"><ele>317.0</ele><time>2026-04-28T16:01:32.999Z</time></trkpt><trkpt lat="40.76206311666624" lon="17.453003631895594"><ele>317.0</ele><time>2026-04-28T16:01:34.999Z</time></trkpt><trkpt lat="40.76198172635342" lon="17.453001807014733"><ele>317.0</ele><time>2026-04-28T16:01:36.999Z</time></trkpt><trkpt lat="40.76192806959037" lon="17.453058654179415"><ele>317.0</ele><time>2026-04-28T16:01:38.999Z</time></trkpt><trkpt lat="40.7618587488161" lon="17.45309791562417"><ele>316.5</ele><time>2026-04-28T16:01:40.999Z</time></trkpt><trkpt lat="40.76178865460479" lon="17.453136045315613"><ele>316.0</ele><time>2026-04-28T16:01:43.999Z</time></trkpt><trkpt lat="40.76170555628791" lon="17.45317144156376"><ele>315.5</ele><time>2026-04-28T16:01:46.999Z</time></trkpt><trkpt lat="40.761616750813886" lon="17.453215666010813"><ele>315.0</ele><time>2026-04-28T16:01:49.999Z</time></trkpt><trkpt lat="40.761560739266095" lon="17.45325422862764"><ele>314.5</ele><time>2026-04-28T16:01:51.999Z</time></trkpt><trkpt lat="40.76147001220164" lon="17.45331040487563"><ele>314.0</ele><time>2026-04-28T16:01:54.999Z</time></trkpt><trkpt lat="40.761395443011494" lon="17.453336551059582"><ele>314.0</ele><time>2026-04-28T16:01:57.999Z</time></trkpt><trkpt lat="40.761313072001734" lon="17.453371878685665"><ele>314.0</ele><time>2026-04-28T16:02:00.999Z</time></trkpt><trkpt lat="40.761240369695855" lon="17.45342398402529"><ele>314.0</ele><time>2026-04-28T16:02:04Z</time></trkpt><trkpt lat="40.76116134473797" lon="17.453484951043706"><ele>314.0</ele><time>2026-04-28T16:02:07Z</time></trkpt><trkpt lat="40.76109026647107" lon="17.45352966377595"><ele>314.0</ele><time>2026-04-28T16:02:10Z</time></trkpt><trkpt lat="40.761035471462776" lon="17.45357888673344"><ele>314.0</ele><time>2026-04-28T16:02:13Z</time></trkpt><trkpt lat="40.76098105360132" lon="17.45362756515754"><ele>314.5</ele><time>2026-04-28T16:02:15Z</time></trkpt><trkpt lat="40.76094214812581" lon="17.45371328185787"><ele>315.0</ele><time>2026-04-28T16:02:18Z</time></trkpt><trkpt lat="40.760878211119945" lon="17.453715065585097"><ele>315.5</ele><time>2026-04-28T16:02:20Z</time></trkpt><trkpt lat="40.760808133516214" lon="17.453752633312668"><ele>316.0</ele><time>2026-04-28T16:02:23Z</time></trkpt><trkpt lat="40.76075257186954" lon="17.453809823999606"><ele>316.5</ele><time>2026-04-28T16:02:25Z</time></trkpt><trkpt lat="40.760687465151186" lon="17.453883691657943"><ele>317.0</ele><time>2026-04-28T16:02:27Z</time></trkpt><trkpt lat="40.76063527547143" lon="17.453988855430516"><ele>317.0</ele><time>2026-04-28T16:02:30Z</time></trkpt><trkpt lat="40.760571273037975" lon="17.45397799418983"><ele>317.0</ele><time>2026-04-28T16:02:32Z</time></trkpt><trkpt lat="40.760488882087344" lon="17.453984034686012"><ele>317.0</ele><time>2026-04-28T16:02:35Z</time></trkpt><trkpt lat="40.76043606839124" lon="17.454063027676355"><ele>317.0</ele><time>2026-04-28T16:02:38Z</time></trkpt><trkpt lat="40.760440949343646" lon="17.45415846416457"><ele>317.0</ele><time>2026-04-28T16:02:41Z</time></trkpt><trkpt lat="40.76054304567446" lon="17.45418708912151"><ele>317.0</ele><time>2026-04-28T16:02:47Z</time></trkpt><trkpt lat="40.76060376570039" lon="17.454212915397456"><ele>317.0</ele><time>2026-04-28T16:02:49Z</time></trkpt><trkpt lat="40.76062748625094" lon="17.454293864939977"><ele>317.0</ele><time>2026-04-28T16:02:51Z</time></trkpt><trkpt lat="40.760671545498106" lon="17.454390456720702"><ele>317.0</ele><time>2026-04-28T16:02:54Z</time></trkpt><trkpt lat="40.760656030136346" lon="17.454474379593144"><ele>317.0</ele><time>2026-04-28T16:02:56.999Z</time></trkpt><trkpt lat="40.76068197572388" lon="17.454567343395993"><ele>317.0</ele><time>2026-04-28T16:02:59.999Z</time></trkpt><trkpt lat="40.760785941662235" lon="17.454532317681853"><ele>317.0</ele><time>2026-04-28T16:03:02.999Z</time></trkpt><trkpt lat="40.76083086337795" lon="17.454470812073552"><ele>317.0</ele><time>2026-04-28T16:03:05.999Z</time></trkpt><trkpt lat="40.76091096298677" lon="17.45446113382127"><ele>317.0</ele><time>2026-04-28T16:03:08.999Z</time></trkpt><trkpt lat="40.76094735046632" lon="17.454534315747647"><ele>317.0</ele><time>2026-04-28T16:03:10.999Z</time></trkpt><trkpt lat="40.76091493829462" lon="17.454635813864517"><ele>317.0</ele><time>2026-04-28T16:03:12.999Z</time></trkpt><trkpt lat="40.760938967697165" lon="17.45476793580049"><ele>317.0</ele><time>2026-04-28T16:03:15.999Z</time></trkpt><trkpt lat="40.76091582843147" lon="17.45488871503108"><ele>317.0</ele><time>2026-04-28T16:03:17.999Z</time></trkpt><trkpt lat="40.76092535256257" lon="17.455020947952868"><ele>315.5</ele><time>2026-04-28T16:03:19.999Z</time></trkpt><trkpt lat="40.76093950145243" lon="17.45510459166021"><ele>314.0</ele><time>2026-04-28T16:03:21.999Z</time></trkpt><trkpt lat="40.76095298170066" lon="17.455220717530317"><ele>312.5</ele><time>2026-04-28T16:03:23.999Z</time></trkpt><trkpt lat="40.76098169054654" lon="17.455318626179853"><ele>311.0</ele><time>2026-04-28T16:03:26.999Z</time></trkpt><trkpt lat="40.76104412832423" lon="17.45524037557672"><ele>309.5</ele><time>2026-04-28T16:03:29.999Z</time></trkpt><trkpt lat="40.761077768802885" lon="17.455159501924907"><ele>308.0</ele><time>2026-04-28T16:03:31.999Z</time></trkpt><trkpt lat="40.76112292870788" lon="17.45510025472001"><ele>302.83333333333337</ele><time>2026-04-28T16:03:33.999Z</time></trkpt><trkpt lat="40.76117058585087" lon="17.455012410100704"><ele>297.6666666666667</ele><time>2026-04-28T16:03:36.999Z</time></trkpt><trkpt lat="40.76118586452731" lon="17.454902757660697"><ele>292.5</ele><time>2026-04-28T16:03:38.999Z</time></trkpt><trkpt lat="40.76119145969429" lon="17.454795354598808"><ele>287.3333333333333</ele><time>2026-04-28T16:03:40.999Z</time></trkpt><trkpt lat="40.76118736403937" lon="17.45470933070434"><ele>282.16666666666663</ele><time>2026-04-28T16:03:42.999Z</time></trkpt><trkpt lat="40.761247598520434" lon="17.454657362383628"><ele>277.0</ele><time>2026-04-28T16:03:45.999Z</time></trkpt><trkpt lat="40.76130706881809" lon="17.454622099521327"><ele>277.0</ele><time>2026-04-28T16:03:48.999Z</time></trkpt><trkpt lat="40.761373049933475" lon="17.45469327624957"><ele>277.0</ele><time>2026-04-28T16:03:52.999Z</time></trkpt><trkpt lat="40.76134892172192" lon="17.454774054306203"><ele>277.0</ele><time>2026-04-28T16:03:55.999Z</time></trkpt><trkpt lat="40.761328319410886" lon="17.454870383377237"><ele>277.0</ele><time>2026-04-28T16:03:58.999Z</time></trkpt><trkpt lat="40.76131969678718" lon="17.454963070243572"><ele>277.0</ele><time>2026-04-28T16:04:01.999Z</time></trkpt><trkpt lat="40.761329857141355" lon="17.45508950981886"><ele>277.0</ele><time>2026-04-28T16:04:03.999Z</time></trkpt><trkpt lat="40.761296366716266" lon="17.45523982366178"><ele>277.0</ele><time>2026-04-28T16:04:05.999Z</time></trkpt><trkpt lat="40.76126062310264" lon="17.455356314659124"><ele>277.0</ele><time>2026-04-28T16:04:07.999Z</time></trkpt><trkpt lat="40.7612334501299" lon="17.45545108090964"><ele>277.0</ele><time>2026-04-28T16:04:10Z</time></trkpt><trkpt lat="40.76122123959068" lon="17.45553890550298"><ele>277.0</ele><time>2026-04-28T16:04:12Z</time></trkpt><trkpt lat="40.76124706326344" lon="17.455640003954496"><ele>277.0</ele><time>2026-04-28T16:04:14Z</time></trkpt><trkpt lat="40.76129137420491" lon="17.455724856411095"><ele>277.0</ele><time>2026-04-28T16:04:19Z</time></trkpt><trkpt lat="40.76134179589015" lon="17.455779535669155"><ele>274.16666666666663</ele><time>2026-04-28T16:04:21Z</time></trkpt><trkpt lat="40.76141163429391" lon="17.455820591711227"><ele>271.3333333333333</ele><time>2026-04-28T16:04:24Z</time></trkpt><trkpt lat="40.76149134093019" lon="17.45581745408665"><ele>268.5</ele><time>2026-04-28T16:04:26Z</time></trkpt><trkpt lat="40.76153433343295" lon="17.4558877178617"><ele>265.6666666666667</ele><time>2026-04-28T16:04:29Z</time></trkpt><trkpt lat="40.76158675186445" lon="17.455946756652832"><ele>262.83333333333337</ele><time>2026-04-28T16:04:31Z</time></trkpt><trkpt lat="40.761646415798296" lon="17.45602587675921"><ele>260.0</ele><time>2026-04-28T16:04:34Z</time></trkpt><trkpt lat="40.76170582759874" lon="17.456089390140903"><ele>260.0</ele><time>2026-04-28T16:04:36Z</time></trkpt><trkpt lat="40.761779277438045" lon="17.456109103508496"><ele>260.0</ele><time>2026-04-28T16:04:39Z</time></trkpt><trkpt lat="40.76185171405312" lon="17.456138512659955"><ele>260.0</ele><time>2026-04-28T16:04:42Z</time></trkpt><trkpt lat="40.76189965720741" lon="17.456080760511792"><ele>260.0</ele><time>2026-04-28T16:04:44Z</time></trkpt><trkpt lat="40.76197482156121" lon="17.45604129189971"><ele>260.0</ele><time>2026-04-28T16:04:46Z</time></trkpt><trkpt lat="40.762026285878115" lon="17.455970000762736"><ele>260.0</ele><time>2026-04-28T16:04:49Z</time></trkpt><trkpt lat="40.76207717919966" lon="17.455869079130846"><ele>256.8</ele><time>2026-04-28T16:04:51Z</time></trkpt><trkpt lat="40.76210619505207" lon="17.455722706342492"><ele>253.6</ele><time>2026-04-28T16:04:53Z</time></trkpt><trkpt lat="40.76215727576143" lon="17.455565448789862"><ele>250.39999999999998</ele><time>2026-04-28T16:04:55Z</time></trkpt><trkpt lat="40.762203898001786" lon="17.45550243624321"><ele>247.2</ele><time>2026-04-28T16:04:56Z</time></trkpt><trkpt lat="40.76224331459524" lon="17.455433394398238"><ele>244.0</ele><time>2026-04-28T16:04:57Z</time></trkpt><trkpt lat="40.76228763083949" lon="17.455352769017118"><ele>244.0</ele><time>2026-04-28T16:04:58Z</time></trkpt><trkpt lat="40.76233539734557" lon="17.455273280623064"><ele>243.99999999999997</ele><time>2026-04-28T16:04:59Z</time></trkpt><trkpt lat="40.76241912081503" lon="17.455187273490882"><ele>243.99999999999997</ele><time>2026-04-28T16:05:01Z</time></trkpt><trkpt lat="40.7625037559775" lon="17.45514868237641"><ele>244.0</ele><time>2026-04-28T16:05:01.999Z</time></trkpt><trkpt lat="40.76260946137861" lon="17.455087590601575"><ele>244.0</ele><time>2026-04-28T16:05:03.999Z</time></trkpt><trkpt lat="40.76272337456511" lon="17.45501494464888"><ele>240.83333333333331</ele><time>2026-04-28T16:05:05.999Z</time></trkpt><trkpt lat="40.762801834933846" lon="17.45499971310162"><ele>237.66666666666666</ele><time>2026-04-28T16:05:06.999Z</time></trkpt><trkpt lat="40.76290688052533" lon="17.454915593015837"><ele>234.5</ele><time>2026-04-28T16:05:07.999Z</time></trkpt><trkpt lat="40.76297774058528" lon="17.454835563741682"><ele>231.33333333333331</ele><time>2026-04-28T16:05:08.999Z</time></trkpt><trkpt lat="40.76302709503262" lon="17.4547602430443"><ele>228.16666666666666</ele><time>2026-04-28T16:05:09.999Z</time></trkpt><trkpt lat="40.763096829361594" lon="17.454733652190498"><ele>225.0</ele><time>2026-04-28T16:05:10.999Z</time></trkpt><trkpt lat="40.76316815567656" lon="17.45468593619604"><ele>225.0</ele><time>2026-04-28T16:05:11.999Z</time></trkpt><trkpt lat="40.76323671433307" lon="17.454680276511155"><ele>225.0</ele><time>2026-04-28T16:05:12.999Z</time></trkpt><trkpt lat="40.76331035498717" lon="17.454602910435632"><ele>225.0</ele><time>2026-04-28T16:05:13.999Z</time></trkpt><trkpt lat="40.76339411238225" lon="17.45454108104661"><ele>225.0</ele><time>2026-04-28T16:05:14.999Z</time></trkpt><trkpt lat="40.763493811612236" lon="17.45447195283978"><ele>225.0</ele><time>2026-04-28T16:05:16.999Z</time></trkpt><trkpt lat="40.763582845081544" lon="17.454372557454104"><ele>225.16666666666666</ele><time>2026-04-28T16:05:18.999Z</time></trkpt><trkpt lat="40.76364960837016" lon="17.454323783731788"><ele>225.33333333333331</ele><time>2026-04-28T16:05:19.999Z</time></trkpt><trkpt lat="40.76371483251869" lon="17.454299864348187"><ele>225.5</ele><time>2026-04-28T16:05:20.999Z</time></trkpt><trkpt lat="40.76377888080003" lon="17.454259808046594"><ele>225.66666666666666</ele><time>2026-04-28T16:05:21.999Z</time></trkpt><trkpt lat="40.7638398993644" lon="17.454213976138448"><ele>225.83333333333331</ele><time>2026-04-28T16:05:22.999Z</time></trkpt><trkpt lat="40.76392899363955" lon="17.454185046517328"><ele>226.0</ele><time>2026-04-28T16:05:23.999Z</time></trkpt><trkpt lat="40.7640055442432" lon="17.454151841114545"><ele>225.99999999999997</ele><time>2026-04-28T16:05:24.999Z</time></trkpt><trkpt lat="40.76408052683089" lon="17.454086295299515"><ele>226.0</ele><time>2026-04-28T16:05:25.999Z</time></trkpt><trkpt lat="40.76415542099566" lon="17.454072176599873"><ele>226.0</ele><time>2026-04-28T16:05:26.999Z</time></trkpt><trkpt lat="40.7642289828516" lon="17.45405043760858"><ele>226.0</ele><time>2026-04-28T16:05:27.999Z</time></trkpt><trkpt lat="40.764307578818695" lon="17.454047070217857"><ele>225.99999999999997</ele><time>2026-04-28T16:05:28.999Z</time></trkpt><trkpt lat="40.7644106904364" lon="17.454054867247816"><ele>226.0</ele><time>2026-04-28T16:05:29.999Z</time></trkpt><trkpt lat="40.764505183596484" lon="17.45406114123208"><ele>222.0</ele><time>2026-04-28T16:05:30.999Z</time></trkpt><trkpt lat="40.76462409406836" lon="17.454045989181683"><ele>218.0</ele><time>2026-04-28T16:05:31.999Z</time></trkpt><trkpt lat="40.764763238005116" lon="17.4540247502776"><ele>214.0</ele><time>2026-04-28T16:05:32.999Z</time></trkpt><trkpt lat="40.764905347994954" lon="17.45400130742994"><ele>210.0</ele><time>2026-04-28T16:05:33.999Z</time></trkpt><trkpt lat="40.76503131226834" lon="17.45397677666926"><ele>210.0</ele><time>2026-04-28T16:05:34.999Z</time></trkpt><trkpt lat="40.765157515600805" lon="17.453978275823342"><ele>210.0</ele><time>2026-04-28T16:05:35.999Z</time></trkpt><trkpt lat="40.76525619174041" lon="17.453961586064732"><ele>210.0</ele><time>2026-04-28T16:05:36.999Z</time></trkpt><trkpt lat="40.76531666460273" lon="17.453998196588174"><ele>210.0</ele><time>2026-04-28T16:05:37.999Z</time></trkpt><trkpt lat="40.765403310152536" lon="17.453978849251264"><ele>210.0</ele><time>2026-04-28T16:05:38.999Z</time></trkpt><trkpt lat="40.765507912114856" lon="17.453949851878843"><ele>208.83333333333334</ele><time>2026-04-28T16:05:39.999Z</time></trkpt><trkpt lat="40.76557413555426" lon="17.453938389808147"><ele>207.66666666666669</ele><time>2026-04-28T16:05:40.999Z</time></trkpt><trkpt lat="40.76567923107556" lon="17.453931794063394"><ele>206.5</ele><time>2026-04-28T16:05:42.999Z</time></trkpt><trkpt lat="40.765773970916335" lon="17.45390029614357"><ele>205.33333333333334</ele><time>2026-04-28T16:05:45.999Z</time></trkpt><trkpt lat="40.76580398902314" lon="17.453809419317356"><ele>204.16666666666669</ele><time>2026-04-28T16:05:47.999Z</time></trkpt><trkpt lat="40.76583407536628" lon="17.453706205093333"><ele>203.0</ele><time>2026-04-28T16:05:50.999Z</time></trkpt><trkpt lat="40.76585833773725" lon="17.453602936053432"><ele>203.00000000000003</ele><time>2026-04-28T16:05:53.999Z</time></trkpt><trkpt lat="40.76586469031331" lon="17.45349637637185"><ele>203.0</ele><time>2026-04-28T16:06:03.999Z</time></trkpt><trkpt lat="40.76590020780903" lon="17.45340138009846"><ele>203.0</ele><time>2026-04-28T16:06:06.999Z</time></trkpt><trkpt lat="40.765934688823016" lon="17.45332491518239"><ele>203.0</ele><time>2026-04-28T16:06:08.999Z</time></trkpt><trkpt lat="40.76598866402392" lon="17.45324477518752"><ele>203.00000000000003</ele><time>2026-04-28T16:06:10.998Z</time></trkpt><trkpt lat="40.766020527496075" lon="17.453129072387483"><ele>203.0</ele><time>2026-04-28T16:06:13.998Z</time></trkpt><trkpt lat="40.76604937346512" lon="17.453038612903594"><ele>201.83333333333334</ele><time>2026-04-28T16:06:16Z</time></trkpt><trkpt lat="40.76607989425319" lon="17.45296054344015"><ele>200.66666666666669</ele><time>2026-04-28T16:06:18Z</time></trkpt><trkpt lat="40.76610482548896" lon="17.452871346731687"><ele>199.5</ele><time>2026-04-28T16:06:20Z</time></trkpt><trkpt lat="40.766146755112416" lon="17.452783956574542"><ele>198.33333333333331</ele><time>2026-04-28T16:06:22Z</time></trkpt><trkpt lat="40.766182918939656" lon="17.452685955791157"><ele>197.16666666666666</ele><time>2026-04-28T16:06:24Z</time></trkpt><trkpt lat="40.76620466299484" lon="17.452588143481876"><ele>196.0</ele><time>2026-04-28T16:06:26Z</time></trkpt><trkpt lat="40.76623558950619" lon="17.452495891888795"><ele>195.99999999999997</ele><time>2026-04-28T16:06:28Z</time></trkpt><trkpt lat="40.7662633432163" lon="17.452409167534306"><ele>196.0</ele><time>2026-04-28T16:06:30Z</time></trkpt><trkpt lat="40.766291488894716" lon="17.452317981486733"><ele>196.0</ele><time>2026-04-28T16:06:32Z</time></trkpt><trkpt lat="40.76631861615635" lon="17.45219967408261"><ele>196.0</ele><time>2026-04-28T16:06:34Z</time></trkpt><trkpt lat="40.76634105194941" lon="17.452084443558846"><ele>195.99999999999997</ele><time>2026-04-28T16:06:36Z</time></trkpt><trkpt lat="40.766366727456145" lon="17.451981687351825"><ele>196.0</ele><time>2026-04-28T16:06:38Z</time></trkpt><trkpt lat="40.76638791216662" lon="17.45188596144932"><ele>196.42857142857142</ele><time>2026-04-28T16:06:40Z</time></trkpt><trkpt lat="40.76640332192951" lon="17.451804830486076"><ele>196.85714285714286</ele><time>2026-04-28T16:06:42Z</time></trkpt><trkpt lat="40.76641702948173" lon="17.451720709093795"><ele>197.28571428571428</ele><time>2026-04-28T16:06:44Z</time></trkpt><trkpt lat="40.76643285078968" lon="17.451624925159656"><ele>197.71428571428572</ele><time>2026-04-28T16:06:46Z</time></trkpt><trkpt lat="40.76643615116034" lon="17.45152405270844"><ele>198.14285714285714</ele><time>2026-04-28T16:06:48Z</time></trkpt><trkpt lat="40.7664420330392" lon="17.451416486530842"><ele>198.57142857142856</ele><time>2026-04-28T16:06:50Z</time></trkpt><trkpt lat="40.7664512899973" lon="17.45131517591866"><ele>199.0</ele><time>2026-04-28T16:06:52Z</time></trkpt><trkpt lat="40.76645738123705" lon="17.45121187338738"><ele>199.0</ele><time>2026-04-28T16:06:54Z</time></trkpt><trkpt lat="40.76647519357164" lon="17.45109786627902"><ele>199.0</ele><time>2026-04-28T16:06:56Z</time></trkpt><trkpt lat="40.76647938296708" lon="17.450990636812147"><ele>199.0</ele><time>2026-04-28T16:06:58Z</time></trkpt><trkpt lat="40.76648118816103" lon="17.45086560201825"><ele>199.0</ele><time>2026-04-28T16:07:00Z</time></trkpt><trkpt lat="40.766475750213445" lon="17.45073894389908"><ele>199.0</ele><time>2026-04-28T16:07:02Z</time></trkpt><trkpt lat="40.76646860214625" lon="17.45061896584887"><ele>199.0</ele><time>2026-04-28T16:07:03.999Z</time></trkpt><trkpt lat="40.76645215672306" lon="17.450500157605777"><ele>199.0</ele><time>2026-04-28T16:07:05.999Z</time></trkpt><trkpt lat="40.76642760243608" lon="17.450374822642218"><ele>199.0</ele><time>2026-04-28T16:07:07.999Z</time></trkpt><trkpt lat="40.76638439839542" lon="17.450259969701534"><ele>199.0</ele><time>2026-04-28T16:07:09.999Z</time></trkpt><trkpt lat="40.76636218496652" lon="17.450148563774054"><ele>199.0</ele><time>2026-04-28T16:07:11.999Z</time></trkpt><trkpt lat="40.76633721095795" lon="17.450053719313527"><ele>198.66666666666666</ele><time>2026-04-28T16:07:13.999Z</time></trkpt><trkpt lat="40.766296992891874" lon="17.449961672445326"><ele>198.33333333333331</ele><time>2026-04-28T16:07:15.999Z</time></trkpt><trkpt lat="40.766227882773045" lon="17.449863830443615"><ele>198.0</ele><time>2026-04-28T16:07:17.999Z</time></trkpt><trkpt lat="40.76617581395986" lon="17.449775613365475"><ele>197.66666666666669</ele><time>2026-04-28T16:07:19.999Z</time></trkpt><trkpt lat="40.76610583040659" lon="17.44971371174552"><ele>197.33333333333334</ele><time>2026-04-28T16:07:21.999Z</time></trkpt><trkpt lat="40.76602978479957" lon="17.449636687702075"><ele>197.0</ele><time>2026-04-28T16:07:23.999Z</time></trkpt><trkpt lat="40.76595930758338" lon="17.44955752268641"><ele>199.0</ele><time>2026-04-28T16:07:25.999Z</time></trkpt><trkpt lat="40.765882880310464" lon="17.4494810525302"><ele>201.0</ele><time>2026-04-28T16:07:27.999Z</time></trkpt><trkpt lat="40.76579062385487" lon="17.44942957964691"><ele>203.0</ele><time>2026-04-28T16:07:29.999Z</time></trkpt><trkpt lat="40.76571315608048" lon="17.44936202479457"><ele>205.0</ele><time>2026-04-28T16:07:31.999Z</time></trkpt><trkpt lat="40.765626621455354" lon="17.44930176525327"><ele>207.0</ele><time>2026-04-28T16:07:33.999Z</time></trkpt><trkpt lat="40.76555007334229" lon="17.449242503299146"><ele>207.0</ele><time>2026-04-28T16:07:35.999Z</time></trkpt><trkpt lat="40.76548024713113" lon="17.449184812221592"><ele>207.0</ele><time>2026-04-28T16:07:37.999Z</time></trkpt><trkpt lat="40.76542005949669" lon="17.449128369464095"><ele>207.0</ele><time>2026-04-28T16:07:39.999Z</time></trkpt><trkpt lat="40.76534780853755" lon="17.449074712570763"><ele>207.0</ele><time>2026-04-28T16:07:42.999Z</time></trkpt><trkpt lat="40.76527872652092" lon="17.449003312607132"><ele>207.0</ele><time>2026-04-28T16:07:45.999Z</time></trkpt><trkpt lat="40.76521749234468" lon="17.44890852149787"><ele>207.0</ele><time>2026-04-28T16:07:48.999Z</time></trkpt><trkpt lat="40.765194688256656" lon="17.448808472440454"><ele>206.33333333333334</ele><time>2026-04-28T16:07:50.999Z</time></trkpt><trkpt lat="40.76520218506712" lon="17.448719695867414"><ele>205.66666666666669</ele><time>2026-04-28T16:07:52.999Z</time></trkpt><trkpt lat="40.7651746116169" lon="17.44860417882403"><ele>205.0</ele><time>2026-04-28T16:07:54.999Z</time></trkpt><trkpt lat="40.76516296816056" lon="17.448492368715232"><ele>204.33333333333334</ele><time>2026-04-28T16:07:56.999Z</time></trkpt><trkpt lat="40.765162539320706" lon="17.448377657815335"><ele>203.66666666666669</ele><time>2026-04-28T16:07:58.999Z</time></trkpt><trkpt lat="40.7651205341447" lon="17.448249591770114"><ele>203.0</ele><time>2026-04-28T16:08:00.999Z</time></trkpt><trkpt lat="40.76513410359904" lon="17.448144478822226"><ele>203.0</ele><time>2026-04-28T16:08:02.999Z</time></trkpt><trkpt lat="40.765132599304835" lon="17.448057197912007"><ele>203.0</ele><time>2026-04-28T16:08:03.999Z</time></trkpt><trkpt lat="40.765139568370394" lon="17.447967766208393"><ele>203.0</ele><time>2026-04-28T16:08:04.999Z</time></trkpt><trkpt lat="40.76516870088097" lon="17.44781026232178"><ele>203.0</ele><time>2026-04-28T16:08:06.999Z</time></trkpt><trkpt lat="40.76521528062322" lon="17.447654877957753"><ele>203.0</ele><time>2026-04-28T16:08:08.998Z</time></trkpt><trkpt lat="40.76524779871549" lon="17.447512797669212"><ele>203.0</ele><time>2026-04-28T16:08:10.998Z</time></trkpt><trkpt lat="40.765261017086715" lon="17.44742743678302"><ele>203.0</ele><time>2026-04-28T16:08:11.998Z</time></trkpt><trkpt lat="40.76530870620311" lon="17.4473023182357"><ele>203.0</ele><time>2026-04-28T16:08:13.998Z</time></trkpt><trkpt lat="40.765350034004975" lon="17.447176348132647"><ele>203.0</ele><time>2026-04-28T16:08:15.998Z</time></trkpt><trkpt lat="40.76538706111127" lon="17.447055184562576"><ele>203.0</ele><time>2026-04-28T16:08:17.998Z</time></trkpt><trkpt lat="40.76543369703288" lon="17.446927097768967"><ele>204.5</ele><time>2026-04-28T16:08:19.998Z</time></trkpt><trkpt lat="40.76548813671691" lon="17.446791621881307"><ele>206.0</ele><time>2026-04-28T16:08:22Z</time></trkpt><trkpt lat="40.76554741777249" lon="17.44665556247227"><ele>207.5</ele><time>2026-04-28T16:08:24Z</time></trkpt><trkpt lat="40.76561435505127" lon="17.44652086767152"><ele>209.0</ele><time>2026-04-28T16:08:26Z</time></trkpt><trkpt lat="40.765683486710536" lon="17.446396606531643"><ele>209.0</ele><time>2026-04-28T16:08:28Z</time></trkpt><trkpt lat="40.765724417624156" lon="17.4463246034027"><ele>209.0</ele><time>2026-04-28T16:08:29Z</time></trkpt><trkpt lat="40.765791078897564" lon="17.446213882598194"><ele>209.0</ele><time>2026-04-28T16:08:31Z</time></trkpt><trkpt lat="40.76586317013485" lon="17.446095785039137"><ele>209.0</ele><time>2026-04-28T16:08:33Z</time></trkpt><trkpt lat="40.765919212200934" lon="17.445975724184116"><ele>209.0</ele><time>2026-04-28T16:08:35Z</time></trkpt><trkpt lat="40.76598991818906" lon="17.44588467622119"><ele>209.0</ele><time>2026-04-28T16:08:37Z</time></trkpt><trkpt lat="40.76605676602305" lon="17.44575965013752"><ele>209.0</ele><time>2026-04-28T16:08:39Z</time></trkpt><trkpt lat="40.76612566448318" lon="17.4456473170399"><ele>209.0</ele><time>2026-04-28T16:08:41Z</time></trkpt><trkpt lat="40.766200166995965" lon="17.44554349314256"><ele>209.0</ele><time>2026-04-28T16:08:43Z</time></trkpt><trkpt lat="40.766242493689845" lon="17.445479957078593"><ele>209.0</ele><time>2026-04-28T16:08:44Z</time></trkpt><trkpt lat="40.766325792160096" lon="17.445360950041984"><ele>209.0</ele><time>2026-04-28T16:08:46Z</time></trkpt><trkpt lat="40.76641040093108" lon="17.445265019255704"><ele>209.0</ele><time>2026-04-28T16:08:48Z</time></trkpt><trkpt lat="40.7664878677391" lon="17.445159617014326"><ele>209.0</ele><time>2026-04-28T16:08:50Z</time></trkpt><trkpt lat="40.7665598902801" lon="17.445072045552735"><ele>209.0</ele><time>2026-04-28T16:08:52Z</time></trkpt><trkpt lat="40.76659779422819" lon="17.444944839444904"><ele>209.0</ele><time>2026-04-28T16:08:54Z</time></trkpt><trkpt lat="40.76655167572255" lon="17.444872842316386"><ele>209.0</ele><time>2026-04-28T16:08:56Z</time></trkpt><trkpt lat="40.76657313586045" lon="17.444757561523108"><ele>209.0</ele><time>2026-04-28T16:08:59Z</time></trkpt><trkpt lat="40.766562278454366" lon="17.44466920699309"><ele>209.0</ele><time>2026-04-28T16:09:01Z</time></trkpt><trkpt lat="40.76654513294644" lon="17.44458184159235"><ele>209.0</ele><time>2026-04-28T16:09:03Z</time></trkpt><trkpt lat="40.766574146762686" lon="17.44449126321275"><ele>209.0</ele><time>2026-04-28T16:09:05Z</time></trkpt><trkpt lat="40.76655152431275" lon="17.444402809386997"><ele>209.0</ele><time>2026-04-28T16:09:07Z</time></trkpt><trkpt lat="40.766563604725356" lon="17.444302377596806"><ele>209.0</ele><time>2026-04-28T16:09:09.999Z</time></trkpt><trkpt lat="40.766557153525206" lon="17.444197703488697"><ele>211.00000000000003</ele><time>2026-04-28T16:09:11.999Z</time></trkpt><trkpt lat="40.766570231400934" lon="17.444070020356687"><ele>213.0</ele><time>2026-04-28T16:09:14.999Z</time></trkpt><trkpt lat="40.7665426637256" lon="17.44397052540573"><ele>215.0</ele><time>2026-04-28T16:09:17.999Z</time></trkpt><trkpt lat="40.76656315589573" lon="17.443875914895475"><ele>217.0</ele><time>2026-04-28T16:09:20.999Z</time></trkpt><trkpt lat="40.76652921862389" lon="17.44377662868829"><ele>219.00000000000003</ele><time>2026-04-28T16:09:23.999Z</time></trkpt><trkpt lat="40.76645986018699" lon="17.44375643756485"><ele>221.0</ele><time>2026-04-28T16:09:27.999Z</time></trkpt><trkpt lat="40.76639810316582" lon="17.443816947798958"><ele>221.00000000000003</ele><time>2026-04-28T16:09:30.999Z</time></trkpt><trkpt lat="40.76635037236941" lon="17.443906887032686"><ele>221.0</ele><time>2026-04-28T16:09:33.999Z</time></trkpt><trkpt lat="40.766305528059306" lon="17.444003445504535"><ele>221.0</ele><time>2026-04-28T16:09:36.999Z</time></trkpt><trkpt lat="40.76627599328558" lon="17.444084993202065"><ele>221.0</ele><time>2026-04-28T16:09:38.999Z</time></trkpt><trkpt lat="40.76622528798502" lon="17.444166038969"><ele>221.00000000000003</ele><time>2026-04-28T16:09:40.999Z</time></trkpt><trkpt lat="40.76617239212444" lon="17.444268955732262"><ele>221.0</ele><time>2026-04-28T16:09:42.999Z</time></trkpt><trkpt lat="40.7661474629487" lon="17.444376346170557"><ele>221.00000000000003</ele><time>2026-04-28T16:09:44.999Z</time></trkpt><trkpt lat="40.76610095708505" lon="17.444452415925085"><ele>221.0</ele><time>2026-04-28T16:09:46.999Z</time></trkpt><trkpt lat="40.76605088317268" lon="17.4445500453663"><ele>221.0</ele><time>2026-04-28T16:09:49.999Z</time></trkpt><trkpt lat="40.76600681892107" lon="17.44462620155097"><ele>221.0</ele><time>2026-04-28T16:09:52.999Z</time></trkpt><trkpt lat="40.765981972181045" lon="17.444720761313203"><ele>221.00000000000003</ele><time>2026-04-28T16:09:55.999Z</time></trkpt><trkpt lat="40.76594422412747" lon="17.4448049540696"><ele>221.0</ele><time>2026-04-28T16:10:00.999Z</time></trkpt><trkpt lat="40.76590966023076" lon="17.444889637329094"><ele>222.8571428571429</ele><time>2026-04-28T16:10:04.999Z</time></trkpt><trkpt lat="40.7658665581899" lon="17.444955209847457"><ele>224.71428571428572</ele><time>2026-04-28T16:10:07.999Z</time></trkpt><trkpt lat="40.76582331437136" lon="17.445036271481335"><ele>226.57142857142858</ele><time>2026-04-28T16:10:10.999Z</time></trkpt><trkpt lat="40.765775081985296" lon="17.445090693557216"><ele>228.42857142857144</ele><time>2026-04-28T16:10:13.998Z</time></trkpt><trkpt lat="40.76573443446945" lon="17.445155176772907"><ele>230.2857142857143</ele><time>2026-04-28T16:10:15.998Z</time></trkpt><trkpt lat="40.76568572034787" lon="17.44523905710581"><ele>232.14285714285717</ele><time>2026-04-28T16:10:18.998Z</time></trkpt><trkpt lat="40.76564522440805" lon="17.445303872505914"><ele>234.0</ele><time>2026-04-28T16:10:21.998Z</time></trkpt><trkpt lat="40.765596254397764" lon="17.445394134830703"><ele>231.83333333333334</ele><time>2026-04-28T16:10:24.998Z</time></trkpt><trkpt lat="40.76555144596663" lon="17.445485001017364"><ele>229.66666666666669</ele><time>2026-04-28T16:10:28Z</time></trkpt><trkpt lat="40.76549878581335" lon="17.44558808936199"><ele>227.5</ele><time>2026-04-28T16:10:31Z</time></trkpt><trkpt lat="40.76545152054368" lon="17.445667796113444"><ele>225.33333333333334</ele><time>2026-04-28T16:10:34Z</time></trkpt><trkpt lat="40.76540261715606" lon="17.44576654031424"><ele>223.16666666666669</ele><time>2026-04-28T16:10:37Z</time></trkpt><trkpt lat="40.765350634661054" lon="17.445865506762797"><ele>221.0</ele><time>2026-04-28T16:10:40Z</time></trkpt><trkpt lat="40.7652845176986" lon="17.445946847171463"><ele>221.00000000000003</ele><time>2026-04-28T16:10:43Z</time></trkpt><trkpt lat="40.76522134874287" lon="17.446032830662038"><ele>221.0</ele><time>2026-04-28T16:10:46Z</time></trkpt><trkpt lat="40.76518507586268" lon="17.446111685462757"><ele>221.0</ele><time>2026-04-28T16:10:48Z</time></trkpt><trkpt lat="40.76512531362504" lon="17.446174455713326"><ele>221.0</ele><time>2026-04-28T16:10:51Z</time></trkpt><trkpt lat="40.765071437340985" lon="17.446241846565933"><ele>221.00000000000003</ele><time>2026-04-28T16:10:54Z</time></trkpt><trkpt lat="40.765028689030764" lon="17.446322206375527"><ele>221.0</ele><time>2026-04-28T16:10:57Z</time></trkpt><trkpt lat="40.764975985398955" lon="17.44637642432353"><ele>224.33333333333334</ele><time>2026-04-28T16:10:59Z</time></trkpt><trkpt lat="40.76493824371941" lon="17.446446306679597"><ele>227.66666666666669</ele><time>2026-04-28T16:11:02Z</time></trkpt><trkpt lat="40.76488026569705" lon="17.446508429892315"><ele>231.0</ele><time>2026-04-28T16:11:05Z</time></trkpt><trkpt lat="40.7648390912992" lon="17.446585479573606"><ele>234.33333333333331</ele><time>2026-04-28T16:11:08Z</time></trkpt><trkpt lat="40.76478840557721" lon="17.446671117043746"><ele>237.66666666666666</ele><time>2026-04-28T16:11:12Z</time></trkpt><trkpt lat="40.76469934918106" lon="17.446710108772017"><ele>241.0</ele><time>2026-04-28T16:11:16Z</time></trkpt><trkpt lat="40.76464359628078" lon="17.446787728340325"><ele>240.99999999999997</ele><time>2026-04-28T16:11:19.999Z</time></trkpt><trkpt lat="40.76459906283313" lon="17.446862518785004"><ele>241.0</ele><time>2026-04-28T16:11:22.999Z</time></trkpt><trkpt lat="40.76452917580232" lon="17.446897847917697"><ele>241.0</ele><time>2026-04-28T16:11:25.999Z</time></trkpt><trkpt lat="40.76446258613011" lon="17.4469763715326"><ele>241.0</ele><time>2026-04-28T16:11:29.999Z</time></trkpt><trkpt lat="40.76439792056825" lon="17.44700981025791"><ele>240.99999999999997</ele><time>2026-04-28T16:11:33.999Z</time></trkpt><trkpt lat="40.76435300989123" lon="17.447072000635217"><ele>241.0</ele><time>2026-04-28T16:11:37.999Z</time></trkpt><trkpt lat="40.76429520671443" lon="17.44716758902889"><ele>244.16666666666666</ele><time>2026-04-28T16:11:41.999Z</time></trkpt><trkpt lat="40.76424143861691" lon="17.447216300201017"><ele>247.33333333333331</ele><time>2026-04-28T16:11:44.999Z</time></trkpt><trkpt lat="40.76418191756234" lon="17.447287388901742"><ele>250.5</ele><time>2026-04-28T16:11:48.999Z</time></trkpt><trkpt lat="40.76413452873982" lon="17.447351344344007"><ele>253.66666666666669</ele><time>2026-04-28T16:11:51.999Z</time></trkpt><trkpt lat="40.76410166277481" lon="17.447443728946883"><ele>256.83333333333337</ele><time>2026-04-28T16:11:54.999Z</time></trkpt><trkpt lat="40.76405154164929" lon="17.447554204909807"><ele>260.0</ele><time>2026-04-28T16:11:57.999Z</time></trkpt><trkpt lat="40.764024240716275" lon="17.447643495546963"><ele>260.0</ele><time>2026-04-28T16:12:00.999Z</time></trkpt><trkpt lat="40.76400132120741" lon="17.44775582264874"><ele>260.0</ele><time>2026-04-28T16:12:03.999Z</time></trkpt><trkpt lat="40.76398179455673" lon="17.44784912392394"><ele>260.0</ele><time>2026-04-28T16:12:06.999Z</time></trkpt><trkpt lat="40.763950471326716" lon="17.447942369624922"><ele>260.0</ele><time>2026-04-28T16:12:09.999Z</time></trkpt><trkpt lat="40.7639225916318" lon="17.448043576674582"><ele>260.0</ele><time>2026-04-28T16:12:12.999Z</time></trkpt><trkpt lat="40.76391034904139" lon="17.44812753883512"><ele>260.0</ele><time>2026-04-28T16:12:15.999Z</time></trkpt><trkpt lat="40.763872185631776" lon="17.44821091105488"><ele>260.00000000000006</ele><time>2026-04-28T16:12:18.999Z</time></trkpt><trkpt lat="40.76386415925828" lon="17.448315873803434"><ele>260.0</ele><time>2026-04-28T16:12:21.999Z</time></trkpt><trkpt lat="40.76383694032806" lon="17.4483988552802"><ele>260.0</ele><time>2026-04-28T16:12:24.998Z</time></trkpt><trkpt lat="40.76382944367967" lon="17.44849618374395"><ele>260.0</ele><time>2026-04-28T16:12:27.998Z</time></trkpt><trkpt lat="40.76380505848434" lon="17.448573924199756"><ele>260.0</ele><time>2026-04-28T16:12:30.998Z</time></trkpt><trkpt lat="40.76379400764685" lon="17.448670322534856"><ele>260.00000000000006</ele><time>2026-04-28T16:12:35Z</time></trkpt><trkpt lat="40.76379539662099" lon="17.448783010775433"><ele>260.0</ele><time>2026-04-28T16:12:39Z</time></trkpt><trkpt lat="40.76380533646775" lon="17.448929778270735"><ele>260.0</ele><time>2026-04-28T16:12:43Z</time></trkpt><trkpt lat="40.763806100344695" lon="17.449039365006755"><ele>260.0</ele><time>2026-04-28T16:12:47Z</time></trkpt><trkpt lat="40.76380843406755" lon="17.449157398422663"><ele>260.0</ele><time>2026-04-28T16:12:51Z</time></trkpt><trkpt lat="40.76381068248623" lon="17.449281187719695"><ele>260.0</ele><time>2026-04-28T16:12:54Z</time></trkpt><trkpt lat="40.76381253266671" lon="17.4493666416331"><ele>260.0</ele><time>2026-04-28T16:12:57Z</time></trkpt><trkpt lat="40.763824376474744" lon="17.449459979667022"><ele>260.0</ele><time>2026-04-28T16:13:00Z</time></trkpt><trkpt lat="40.76385528986333" lon="17.449567306340313"><ele>262.14285714285717</ele><time>2026-04-28T16:13:03Z</time></trkpt><trkpt lat="40.76387530430855" lon="17.44967083991364"><ele>264.2857142857143</ele><time>2026-04-28T16:13:07Z</time></trkpt><trkpt lat="40.763899400863835" lon="17.44975785959099"><ele>266.42857142857144</ele><time>2026-04-28T16:13:10Z</time></trkpt><trkpt lat="40.76391972132797" lon="17.44985001004078"><ele>268.57142857142856</ele><time>2026-04-28T16:13:14Z</time></trkpt><trkpt lat="40.76393879951511" lon="17.449931588457854"><ele>270.7142857142857</ele><time>2026-04-28T16:13:17Z</time></trkpt><trkpt lat="40.76397126182238" lon="17.450020041210575"><ele>272.8571428571429</ele><time>2026-04-28T16:13:20Z</time></trkpt><trkpt lat="40.76400911388879" lon="17.450098220463826"><ele>275.0</ele><time>2026-04-28T16:13:23Z</time></trkpt><trkpt lat="40.76405121850787" lon="17.450202605504792"><ele>275.0</ele><time>2026-04-28T16:13:25.999Z</time></trkpt><trkpt lat="40.764069801084425" lon="17.450296054580548"><ele>275.0</ele><time>2026-04-28T16:13:29.999Z</time></trkpt><trkpt lat="40.76410947974084" lon="17.450393381022376"><ele>275.0</ele><time>2026-04-28T16:13:32.999Z</time></trkpt><trkpt lat="40.764125644461565" lon="17.45047545222645"><ele>275.0</ele><time>2026-04-28T16:13:35.999Z</time></trkpt><trkpt lat="40.76415207326648" lon="17.45055925724318"><ele>275.0</ele><time>2026-04-28T16:13:38.999Z</time></trkpt><trkpt lat="40.76417227096994" lon="17.450664311212602"><ele>275.0</ele><time>2026-04-28T16:13:41.999Z</time></trkpt><trkpt lat="40.76419305516783" lon="17.450745789032023"><ele>275.0</ele><time>2026-04-28T16:13:43.999Z</time></trkpt><trkpt lat="40.76420806228937" lon="17.45085088219817"><ele>277.0</ele><time>2026-04-28T16:13:47.999Z</time></trkpt><trkpt lat="40.764223167039596" lon="17.45096500424303"><ele>279.0</ele><time>2026-04-28T16:13:51.999Z</time></trkpt><trkpt lat="40.764219045432" lon="17.451052366969236"><ele>281.0</ele><time>2026-04-28T16:13:53.999Z</time></trkpt><trkpt lat="40.764200027477976" lon="17.45117549118843"><ele>283.0</ele><time>2026-04-28T16:13:56.999Z</time></trkpt><trkpt lat="40.76417385261472" lon="17.451284818109123"><ele>285.0</ele><time>2026-04-28T16:13:59.999Z</time></trkpt><trkpt lat="40.76414851758703" lon="17.45139352943975"><ele>287.0</ele><time>2026-04-28T16:14:02.999Z</time></trkpt><trkpt lat="40.7641255727564" lon="17.451473564922246"><ele>287.0</ele><time>2026-04-28T16:14:05.999Z</time></trkpt><trkpt lat="40.76406469053438" lon="17.451591849500797"><ele>287.0</ele><time>2026-04-28T16:14:09.999Z</time></trkpt><trkpt lat="40.76402103843692" lon="17.451675484120607"><ele>287.0</ele><time>2026-04-28T16:14:13.999Z</time></trkpt><trkpt lat="40.76396211953145" lon="17.451752581167682"><ele>287.0</ele><time>2026-04-28T16:14:16.999Z</time></trkpt><trkpt lat="40.76389287364261" lon="17.451810670599777"><ele>287.0</ele><time>2026-04-28T16:14:20.999Z</time></trkpt><trkpt lat="40.7638443292332" lon="17.451877023829855"><ele>287.0</ele><time>2026-04-28T16:14:23.999Z</time></trkpt><trkpt lat="40.76376765886626" lon="17.451923514432945"><ele>287.0</ele><time>2026-04-28T16:14:26.999Z</time></trkpt><trkpt lat="40.76370514742901" lon="17.45198033649307"><ele>287.0</ele><time>2026-04-28T16:14:29.998Z</time></trkpt><trkpt lat="40.763639739478904" lon="17.452032037140732"><ele>287.0</ele><time>2026-04-28T16:14:32.998Z</time></trkpt><trkpt lat="40.76357211145776" lon="17.452066524414654"><ele>287.0</ele><time>2026-04-28T16:14:35.998Z</time></trkpt><trkpt lat="40.76347921173524" lon="17.45207291625833"><ele>287.0</ele><time>2026-04-28T16:14:38.998Z</time></trkpt><trkpt lat="40.76339594861287" lon="17.452121148853333"><ele>287.0</ele><time>2026-04-28T16:14:42Z</time></trkpt><trkpt lat="40.76333293731704" lon="17.452161310276203"><ele>287.6666666666667</ele><time>2026-04-28T16:14:45Z</time></trkpt><trkpt lat="40.76324770119738" lon="17.452209293813073"><ele>288.33333333333337</ele><time>2026-04-28T16:14:48Z</time></trkpt><trkpt lat="40.76318596062156" lon="17.452252949773243"><ele>289.0</ele><time>2026-04-28T16:14:51Z</time></trkpt><trkpt lat="40.76310596598875" lon="17.452316323783336"><ele>289.6666666666667</ele><time>2026-04-28T16:14:54Z</time></trkpt><trkpt lat="40.763036238659886" lon="17.45236591972961"><ele>290.3333333333333</ele><time>2026-04-28T16:14:58Z</time></trkpt><trkpt lat="40.76297685566904" lon="17.452400281334253"><ele>291.0</ele><time>2026-04-28T16:15:00Z</time></trkpt><trkpt lat="40.762916066359395" lon="17.452428545544954"><ele>291.0</ele><time>2026-04-28T16:15:03Z</time></trkpt><trkpt lat="40.76282678933906" lon="17.452480836006583"><ele>291.0</ele><time>2026-04-28T16:15:07Z</time></trkpt><trkpt lat="40.76275182111638" lon="17.45251302902113"><ele>291.0</ele><time>2026-04-28T16:15:11Z</time></trkpt><trkpt lat="40.76268573622168" lon="17.452547308292697"><ele>291.0</ele><time>2026-04-28T16:15:14Z</time></trkpt><trkpt lat="40.762626537526714" lon="17.452595319571188"><ele>291.0</ele><time>2026-04-28T16:15:17Z</time></trkpt><trkpt lat="40.762546776901985" lon="17.452638997355503"><ele>291.0</ele><time>2026-04-28T16:15:20Z</time></trkpt><trkpt lat="40.76248717799682" lon="17.452682011598128"><ele>290.8333333333333</ele><time>2026-04-28T16:15:23Z</time></trkpt><trkpt lat="40.76241159292657" lon="17.4527557770211"><ele>290.6666666666667</ele><time>2026-04-28T16:15:26Z</time></trkpt><trkpt lat="40.762322402146545" lon="17.452796844898973"><ele>290.5</ele><time>2026-04-28T16:15:29.999Z</time></trkpt><trkpt lat="40.762242539713036" lon="17.45286040870312"><ele>290.33333333333337</ele><time>2026-04-28T16:15:33.999Z</time></trkpt><trkpt lat="40.76215925345096" lon="17.452903389867902"><ele>290.1666666666667</ele><time>2026-04-28T16:15:37.999Z</time></trkpt><trkpt lat="40.762100491202006" lon="17.452945119401857"><ele>290.0</ele><time>2026-04-28T16:15:40.999Z</time></trkpt><trkpt lat="40.762035064881694" lon="17.45297132699008"><ele>290.0</ele><time>2026-04-28T16:15:42.999Z</time></trkpt><trkpt lat="40.76194708989973" lon="17.45302426287637"><ele>290.0</ele><time>2026-04-28T16:15:45.999Z</time></trkpt><trkpt lat="40.76188881475453" lon="17.453067447072645"><ele>290.0</ele><time>2026-04-28T16:15:49.999Z</time></trkpt><trkpt lat="40.76182881552376" lon="17.45310434278524"><ele>290.0</ele><time>2026-04-28T16:15:52.999Z</time></trkpt><trkpt lat="40.76175906786307" lon="17.453150974201947"><ele>290.0</ele><time>2026-04-28T16:15:55.999Z</time></trkpt><trkpt lat="40.76169071177472" lon="17.453177061931193"><ele>290.0</ele><time>2026-04-28T16:15:58.999Z</time></trkpt><trkpt lat="40.761605439882246" lon="17.453221977440144"><ele>294.0</ele><time>2026-04-28T16:16:01.999Z</time></trkpt><trkpt lat="40.761529125063426" lon="17.453247970904965"><ele>298.0</ele><time>2026-04-28T16:16:04.999Z</time></trkpt><trkpt lat="40.761450324707084" lon="17.45329478798817"><ele>302.0</ele><time>2026-04-28T16:16:07.999Z</time></trkpt><trkpt lat="40.76137895311067" lon="17.453317782568675"><ele>306.0</ele><time>2026-04-28T16:16:10.999Z</time></trkpt><trkpt lat="40.76130936935298" lon="17.45336499878867"><ele>310.0</ele><time>2026-04-28T16:16:13.999Z</time></trkpt><trkpt lat="40.76123206052955" lon="17.45340860944385"><ele>314.0</ele><time>2026-04-28T16:16:16.999Z</time></trkpt><trkpt lat="40.76117340520174" lon="17.453456057038792"><ele>314.0</ele><time>2026-04-28T16:16:19.999Z</time></trkpt><trkpt lat="40.76110575083834" lon="17.453508458419577"><ele>314.0</ele><time>2026-04-28T16:16:22.999Z</time></trkpt><trkpt lat="40.761036482886425" lon="17.45359417158973"><ele>314.0</ele><time>2026-04-28T16:16:26.999Z</time></trkpt><trkpt lat="40.76096177241014" lon="17.45363183352749"><ele>314.0</ele><time>2026-04-28T16:16:30.998Z</time></trkpt><trkpt lat="40.76090816073797" lon="17.453675712938022"><ele>314.0</ele><time>2026-04-28T16:16:33.998Z</time></trkpt><trkpt lat="40.76083777627381" lon="17.453686084147623"><ele>314.0</ele><time>2026-04-28T16:16:37.998Z</time></trkpt><trkpt lat="40.76078611455612" lon="17.453748356889427"><ele>314.5</ele><time>2026-04-28T16:20:17.999Z</time></trkpt><trkpt lat="40.760720982799555" lon="17.453764996305498"><ele>315.0</ele><time>2026-04-28T16:20:22.999Z</time></trkpt><trkpt lat="40.760652195855705" lon="17.45378910277691"><ele>315.5</ele><time>2026-04-28T16:20:25.999Z</time></trkpt><trkpt lat="40.760578881381214" lon="17.453762506474266"><ele>316.0</ele><time>2026-04-28T16:20:28.999Z</time></trkpt><trkpt lat="40.76049655840594" lon="17.453784064911112"><ele>316.5</ele><time>2026-04-28T16:20:31.999Z</time></trkpt><trkpt lat="40.7604256044177" lon="17.453756878295497"><ele>317.0</ele><time>2026-04-28T16:20:33.999Z</time></trkpt><trkpt lat="40.76034919393569" lon="17.45371852549773"><ele>318.1666666666667</ele><time>2026-04-28T16:20:35.999Z</time></trkpt><trkpt lat="40.7602737774908" lon="17.45368109690691"><ele>319.33333333333337</ele><time>2026-04-28T16:20:37.998Z</time></trkpt><trkpt lat="40.76019829769193" lon="17.453643918877738"><ele>320.5</ele><time>2026-04-28T16:20:39.998Z</time></trkpt><trkpt lat="40.76011596396267" lon="17.453593404195402"><ele>321.6666666666667</ele><time>2026-04-28T16:20:41.998Z</time></trkpt><trkpt lat="40.76002854644056" lon="17.45355614889753"><ele>322.8333333333333</ele><time>2026-04-28T16:20:43.998Z</time></trkpt><trkpt lat="40.75993044646833" lon="17.45351137086416"><ele>324.0</ele><time>2026-04-28T16:20:45.998Z</time></trkpt><trkpt lat="40.75982878736087" lon="17.453480426502377"><ele>324.0</ele><time>2026-04-28T16:20:47.998Z</time></trkpt><trkpt lat="40.75973190296143" lon="17.45343552432054"><ele>324.0</ele><time>2026-04-28T16:20:49.998Z</time></trkpt><trkpt lat="40.759609037091096" lon="17.4533887533541"><ele>324.0</ele><time>2026-04-28T16:20:51.998Z</time></trkpt><trkpt lat="40.75952241230968" lon="17.453346355300734"><ele>324.0</ele><time>2026-04-28T16:20:53.998Z</time></trkpt><trkpt lat="40.75945823640517" lon="17.453346599651002"><ele>324.0</ele><time>2026-04-28T16:20:55.998Z</time></trkpt><trkpt lat="40.75945611319247" lon="17.45350176210606"><ele>324.0</ele><time>2026-04-28T16:20:59Z</time></trkpt><trkpt lat="40.75950750886799" lon="17.453568321817905"><ele>324.0</ele><time>2026-04-28T16:21:01Z</time></trkpt><trkpt lat="40.75953656578976" lon="17.4536441569746"><ele>324.0</ele><time>2026-04-28T16:21:03Z</time></trkpt><trkpt lat="40.75959925796436" lon="17.453692284948556"><ele>324.0</ele><time>2026-04-28T16:21:05Z</time></trkpt><trkpt lat="40.75963431314982" lon="17.45379457081203"><ele>324.0</ele><time>2026-04-28T16:21:08Z</time></trkpt><trkpt lat="40.75967207182029" lon="17.453890939052272"><ele>324.0</ele><time>2026-04-28T16:21:11Z</time></trkpt><trkpt lat="40.75969369948789" lon="17.454004619611755"><ele>324.8333333333333</ele><time>2026-04-28T16:21:14Z</time></trkpt><trkpt lat="40.75971339182586" lon="17.454104569349894"><ele>325.6666666666667</ele><time>2026-04-28T16:21:17Z</time></trkpt><trkpt lat="40.75972962624174" lon="17.454200360774852"><ele>326.5</ele><time>2026-04-28T16:21:19Z</time></trkpt><trkpt lat="40.75975390705904" lon="17.454302135956198"><ele>327.33333333333337</ele><time>2026-04-28T16:21:22Z</time></trkpt><trkpt lat="40.75976417843978" lon="17.454402094365523"><ele>328.1666666666667</ele><time>2026-04-28T16:21:24Z</time></trkpt><trkpt lat="40.759757235322574" lon="17.454502425612695"><ele>329.0</ele><time>2026-04-28T16:21:26Z</time></trkpt><trkpt lat="40.75973626871691" lon="17.454635772120902"><ele>329.14285714285717</ele><time>2026-04-28T16:21:29Z</time></trkpt><trkpt lat="40.75971929631881" lon="17.454721069438857"><ele>329.2857142857143</ele><time>2026-04-28T16:21:31Z</time></trkpt><trkpt lat="40.75967877727012" lon="17.454807786421878"><ele>329.42857142857144</ele><time>2026-04-28T16:21:33Z</time></trkpt><trkpt lat="40.75961490549812" lon="17.45488069447846"><ele>329.57142857142856</ele><time>2026-04-28T16:21:36Z</time></trkpt><trkpt lat="40.75957309970855" lon="17.454949815523076"><ele>329.7142857142857</ele><time>2026-04-28T16:21:38Z</time></trkpt><trkpt lat="40.759533932171" lon="17.455024066114714"><ele>329.8571428571429</ele><time>2026-04-28T16:21:39.999Z</time></trkpt><trkpt lat="40.75949079449627" lon="17.455107649578807"><ele>330.0</ele><time>2026-04-28T16:21:41.999Z</time></trkpt><trkpt lat="40.75944996871378" lon="17.455207800731365"><ele>330.0</ele><time>2026-04-28T16:21:43.999Z</time></trkpt><trkpt lat="40.759400547478926" lon="17.45527590709203"><ele>330.0</ele><time>2026-04-28T16:21:45.999Z</time></trkpt><trkpt lat="40.75934437144016" lon="17.455203724509687"><ele>330.0</ele><time>2026-04-28T16:21:48.999Z</time></trkpt><trkpt lat="40.7593208187817" lon="17.455115603138438"><ele>330.0</ele><time>2026-04-28T16:21:50.999Z</time></trkpt><trkpt lat="40.75926471820832" lon="17.45506270074426"><ele>330.0</ele><time>2026-04-28T16:21:52.999Z</time></trkpt><trkpt lat="40.75917859226145" lon="17.4550168408452"><ele>330.0</ele><time>2026-04-28T16:21:54.999Z</time></trkpt><trkpt lat="40.759118168246545" lon="17.454944686657385"><ele>329.6666666666667</ele><time>2026-04-28T16:21:56.999Z</time></trkpt><trkpt lat="40.75905535463937" lon="17.454890163106995"><ele>329.3333333333333</ele><time>2026-04-28T16:21:58.999Z</time></trkpt><trkpt lat="40.758983741033255" lon="17.454839869653924"><ele>329.0</ele><time>2026-04-28T16:22:00.999Z</time></trkpt><trkpt lat="40.75891515336836" lon="17.454747735758264"><ele>328.66666666666663</ele><time>2026-04-28T16:22:03.999Z</time></trkpt><trkpt lat="40.758846872120984" lon="17.45468956234422"><ele>328.3333333333333</ele><time>2026-04-28T16:22:07.999Z</time></trkpt><trkpt lat="40.758766743150275" lon="17.454763048623636"><ele>328.0</ele><time>2026-04-28T16:22:09.999Z</time></trkpt><trkpt lat="40.75867845416947" lon="17.454792959200507"><ele>328.0</ele><time>2026-04-28T16:22:11.999Z</time></trkpt><trkpt lat="40.75860434959311" lon="17.454699583318277"><ele>328.0</ele><time>2026-04-28T16:22:13.999Z</time></trkpt><trkpt lat="40.75854790589077" lon="17.45463796799117"><ele>328.0</ele><time>2026-04-28T16:22:15.999Z</time></trkpt><trkpt lat="40.758468426776865" lon="17.454636282172398"><ele>328.0</ele><time>2026-04-28T16:22:17.999Z</time></trkpt><trkpt lat="40.75836445137808" lon="17.454636750902903"><ele>328.0</ele><time>2026-04-28T16:22:19.999Z</time></trkpt><trkpt lat="40.75826234183242" lon="17.45456962037494"><ele>326.8333333333333</ele><time>2026-04-28T16:22:21.999Z</time></trkpt><trkpt lat="40.75819946733817" lon="17.45452539626414"><ele>325.66666666666663</ele><time>2026-04-28T16:22:22.999Z</time></trkpt><trkpt lat="40.758081339989815" lon="17.454462921102838"><ele>324.5</ele><time>2026-04-28T16:22:24.999Z</time></trkpt><trkpt lat="40.75801215765796" lon="17.454427237424547"><ele>323.3333333333333</ele><time>2026-04-28T16:22:25.999Z</time></trkpt><trkpt lat="40.757954421354746" lon="17.45439213948656"><ele>322.1666666666667</ele><time>2026-04-28T16:22:26.999Z</time></trkpt><trkpt lat="40.75789739933511" lon="17.45435586032691"><ele>321.0</ele><time>2026-04-28T16:22:27.999Z</time></trkpt><trkpt lat="40.75783366625473" lon="17.45431684158614"><ele>321.0</ele><time>2026-04-28T16:22:28.999Z</time></trkpt><trkpt lat="40.75772629863053" lon="17.454244826483954"><ele>321.0</ele><time>2026-04-28T16:22:30.999Z</time></trkpt><trkpt lat="40.757631621710885" lon="17.45419791249147"><ele>321.0</ele><time>2026-04-28T16:22:32.999Z</time></trkpt><trkpt lat="40.757536225518244" lon="17.45414308497729"><ele>321.0</ele><time>2026-04-28T16:22:34.999Z</time></trkpt><trkpt lat="40.75746729909251" lon="17.454092953398714"><ele>321.0</ele><time>2026-04-28T16:22:36.999Z</time></trkpt><trkpt lat="40.757376345790846" lon="17.454046170806677"><ele>320.8333333333333</ele><time>2026-04-28T16:22:38.998Z</time></trkpt><trkpt lat="40.75728473181633" lon="17.453992283307475"><ele>320.6666666666667</ele><time>2026-04-28T16:22:40.998Z</time></trkpt><trkpt lat="40.75720042535981" lon="17.453940147253252"><ele>320.5</ele><time>2026-04-28T16:22:42.998Z</time></trkpt><trkpt lat="40.75712150323518" lon="17.45389255679648"><ele>320.33333333333337</ele><time>2026-04-28T16:22:44.998Z</time></trkpt><trkpt lat="40.75704849027389" lon="17.453842164601593"><ele>320.1666666666667</ele><time>2026-04-28T16:22:46.998Z</time></trkpt><trkpt lat="40.75698430795926" lon="17.453799477862127"><ele>320.0</ele><time>2026-04-28T16:22:48.998Z</time></trkpt><trkpt lat="40.75692360599396" lon="17.45388261859663"><ele>320.5</ele><time>2026-04-28T16:22:50.998Z</time></trkpt><trkpt lat="40.75686576140015" lon="17.453981240862998"><ele>321.0</ele><time>2026-04-28T16:22:52.998Z</time></trkpt><trkpt lat="40.75681527371635" lon="17.45405655416564"><ele>321.5</ele><time>2026-04-28T16:22:54.998Z</time></trkpt><trkpt lat="40.75676020970681" lon="17.454147361713726"><ele>322.0</ele><time>2026-04-28T16:22:56.998Z</time></trkpt><trkpt lat="40.75670708638245" lon="17.45423073583706"><ele>322.5</ele><time>2026-04-28T16:22:58.998Z</time></trkpt><trkpt lat="40.75665957738174" lon="17.454314369102892"><ele>323.0</ele><time>2026-04-28T16:23:00.998Z</time></trkpt><trkpt lat="40.75659497255536" lon="17.45439825023278"><ele>323.0</ele><time>2026-04-28T16:23:03Z</time></trkpt><trkpt lat="40.75651709540613" lon="17.45455434691467"><ele>323.0</ele><time>2026-04-28T16:23:05Z</time></trkpt><trkpt lat="40.756483735099415" lon="17.454632524537125"><ele>323.0</ele><time>2026-04-28T16:23:06Z</time></trkpt><trkpt lat="40.75644389650678" lon="17.454707600206554"><ele>323.0</ele><time>2026-04-28T16:23:07Z</time></trkpt><trkpt lat="40.75640991860655" lon="17.454786587602694"><ele>323.0</ele><time>2026-04-28T16:23:08Z</time></trkpt><trkpt lat="40.7563755040678" lon="17.454859628562872"><ele>323.0</ele><time>2026-04-28T16:23:09Z</time></trkpt><trkpt lat="40.75634309679347" lon="17.45494595891658"><ele>323.0</ele><time>2026-04-28T16:23:10Z</time></trkpt><trkpt lat="40.75628406513169" lon="17.45509374424179"><ele>323.0</ele><time>2026-04-28T16:23:12Z</time></trkpt><trkpt lat="40.75624590873207" lon="17.455210835147515"><ele>323.0</ele><time>2026-04-28T16:23:14Z</time></trkpt><trkpt lat="40.75618391294031" lon="17.45533349496901"><ele>323.0</ele><time>2026-04-28T16:23:16Z</time></trkpt><trkpt lat="40.756129617859315" lon="17.455443667023804"><ele>323.0</ele><time>2026-04-28T16:23:18Z</time></trkpt><trkpt lat="40.75612227679071" lon="17.455558132654645"><ele>322.83333333333337</ele><time>2026-04-28T16:23:20Z</time></trkpt><trkpt lat="40.75617096078062" lon="17.455664882742795"><ele>322.6666666666667</ele><time>2026-04-28T16:23:22Z</time></trkpt><trkpt lat="40.756242729950316" lon="17.455742292367102"><ele>322.5</ele><time>2026-04-28T16:23:24Z</time></trkpt><trkpt lat="40.756304975470485" lon="17.45579100601729"><ele>322.3333333333333</ele><time>2026-04-28T16:23:25Z</time></trkpt><trkpt lat="40.756377939982414" lon="17.45584464778974"><ele>322.16666666666663</ele><time>2026-04-28T16:23:26Z</time></trkpt><trkpt lat="40.75644197025911" lon="17.45588196587095"><ele>322.0</ele><time>2026-04-28T16:23:27Z</time></trkpt><trkpt lat="40.75649523503806" lon="17.455926969911477"><ele>322.0</ele><time>2026-04-28T16:23:28Z</time></trkpt><trkpt lat="40.75654700843698" lon="17.455983012506874"><ele>322.0</ele><time>2026-04-28T16:23:29Z</time></trkpt><trkpt lat="40.756604867157805" lon="17.456042680202422"><ele>322.0</ele><time>2026-04-28T16:23:30Z</time></trkpt><trkpt lat="40.75665601041511" lon="17.456099394696167"><ele>322.0</ele><time>2026-04-28T16:23:31Z</time></trkpt><trkpt lat="40.75673104866226" lon="17.45616356677154"><ele>322.0</ele><time>2026-04-28T16:23:32Z</time></trkpt><trkpt lat="40.756807269883545" lon="17.456207494913734"><ele>322.0</ele><time>2026-04-28T16:23:33Z</time></trkpt><trkpt lat="40.756866497681784" lon="17.456255641860253"><ele>322.0</ele><time>2026-04-28T16:23:34Z</time></trkpt><trkpt lat="40.75691982893076" lon="17.456307114175804"><ele>321.40000000000003</ele><time>2026-04-28T16:23:35Z</time></trkpt><trkpt lat="40.75698227111744" lon="17.45640705746398"><ele>320.8</ele><time>2026-04-28T16:23:38Z</time></trkpt><trkpt lat="40.7570503282412" lon="17.4564415727707"><ele>320.2</ele><time>2026-04-28T16:23:40Z</time></trkpt><trkpt lat="40.757135989054085" lon="17.45653981773639"><ele>319.6</ele><time>2026-04-28T16:23:43Z</time></trkpt><trkpt lat="40.757191115280214" lon="17.456635482793327"><ele>319.0</ele><time>2026-04-28T16:23:45Z</time></trkpt><trkpt lat="40.75727472591076" lon="17.45668723996874"><ele>319.0</ele><time>2026-04-28T16:23:48.999Z</time></trkpt><trkpt lat="40.75726224377504" lon="17.45684289807226"><ele>319.0</ele><time>2026-04-28T16:23:52.999Z</time></trkpt><trkpt lat="40.75724334297109" lon="17.456939068195254"><ele>319.0</ele><time>2026-04-28T16:23:53.999Z</time></trkpt><trkpt lat="40.75722274944278" lon="17.457044408832555"><ele>319.0</ele><time>2026-04-28T16:23:54.999Z</time></trkpt><trkpt lat="40.75720564511768" lon="17.457151235389592"><ele>319.0</ele><time>2026-04-28T16:23:55.999Z</time></trkpt><trkpt lat="40.757190468208336" lon="17.457236435076485"><ele>319.0</ele><time>2026-04-28T16:23:56.999Z</time></trkpt><trkpt lat="40.757177307660854" lon="17.45732852186702"><ele>318.16666666666663</ele><time>2026-04-28T16:23:57.999Z</time></trkpt><trkpt lat="40.757177827271235" lon="17.457414104648972"><ele>317.3333333333333</ele><time>2026-04-28T16:23:58.999Z</time></trkpt><trkpt lat="40.757186103559704" lon="17.45750006372895"><ele>316.5</ele><time>2026-04-28T16:23:59.999Z</time></trkpt><trkpt lat="40.7572345153996" lon="17.457570317201423"><ele>315.6666666666667</ele><time>2026-04-28T16:24:00.999Z</time></trkpt><trkpt lat="40.757326133904364" lon="17.457588870637437"><ele>314.83333333333337</ele><time>2026-04-28T16:24:02.999Z</time></trkpt><trkpt lat="40.75739230609444" lon="17.457611596881772"><ele>314.0</ele><time>2026-04-28T16:24:04.999Z</time></trkpt><trkpt lat="40.757483594681844" lon="17.45768903886046"><ele>314.0</ele><time>2026-04-28T16:24:06.999Z</time></trkpt><trkpt lat="40.75754200897492" lon="17.457770281361512"><ele>314.0</ele><time>2026-04-28T16:24:08.999Z</time></trkpt><trkpt lat="40.757603849810685" lon="17.457857338640654"><ele>314.0</ele><time>2026-04-28T16:24:10.999Z</time></trkpt><trkpt lat="40.75769521594988" lon="17.457875722258223"><ele>314.0</ele><time>2026-04-28T16:24:13.999Z</time></trkpt><trkpt lat="40.75776297069927" lon="17.45793467296921"><ele>314.0</ele><time>2026-04-28T16:24:15.999Z</time></trkpt><trkpt lat="40.75782393239397" lon="17.458005426298058"><ele>314.0</ele><time>2026-04-28T16:24:17.999Z</time></trkpt><trkpt lat="40.75788820922354" lon="17.458063918162328"><ele>315.5</ele><time>2026-04-28T16:24:19.999Z</time></trkpt><trkpt lat="40.75794347429866" lon="17.458129200273792"><ele>317.0</ele><time>2026-04-28T16:24:21.999Z</time></trkpt><trkpt lat="40.7579567539123" lon="17.4582311854716"><ele>318.5</ele><time>2026-04-28T16:24:23.999Z</time></trkpt><trkpt lat="40.75797137766023" lon="17.458324038536126"><ele>320.0</ele><time>2026-04-28T16:24:25.999Z</time></trkpt><trkpt lat="40.75799388872275" lon="17.45840901477796"><ele>321.5</ele><time>2026-04-28T16:24:27.999Z</time></trkpt><trkpt lat="40.758022896899234" lon="17.45851059903468"><ele>323.0</ele><time>2026-04-28T16:24:30.999Z</time></trkpt><trkpt lat="40.7580355354102" lon="17.458614526134237"><ele>323.0</ele><time>2026-04-28T16:24:33.999Z</time></trkpt><trkpt lat="40.75801571862731" lon="17.458726773137514"><ele>323.0</ele><time>2026-04-28T16:24:36.999Z</time></trkpt><trkpt lat="40.75800214446103" lon="17.458812963934772"><ele>323.0</ele><time>2026-04-28T16:24:38.999Z</time></trkpt><trkpt lat="40.758009592423114" lon="17.45892780783619"><ele>323.0</ele><time>2026-04-28T16:24:40.999Z</time></trkpt><trkpt lat="40.75806473815586" lon="17.458990059834427"><ele>323.0</ele><time>2026-04-28T16:24:43.999Z</time></trkpt><trkpt lat="40.75813230695419" lon="17.459029434455378"><ele>323.0</ele><time>2026-04-28T16:24:46.998Z</time></trkpt><trkpt lat="40.75817021731553" lon="17.459096522630976"><ele>323.83333333333337</ele><time>2026-04-28T16:24:48.998Z</time></trkpt><trkpt lat="40.758221825069676" lon="17.45917816975336"><ele>324.6666666666667</ele><time>2026-04-28T16:24:51.998Z</time></trkpt><trkpt lat="40.758162475395984" lon="17.459261243381327"><ele>325.5</ele><time>2026-04-28T16:24:54.998Z</time></trkpt><trkpt lat="40.75813663716781" lon="17.459347541971834"><ele>326.3333333333333</ele><time>2026-04-28T16:24:56.998Z</time></trkpt><trkpt lat="40.75815196320239" lon="17.459441869179365"><ele>327.16666666666663</ele><time>2026-04-28T16:24:59.998Z</time></trkpt><trkpt lat="40.75821503907316" lon="17.459536358832988"><ele>328.0</ele><time>2026-04-28T16:25:02.998Z</time></trkpt><trkpt lat="40.75826602870937" lon="17.459607561083693"><ele>327.2</ele><time>2026-04-28T16:25:04.998Z</time></trkpt><trkpt lat="40.758327378037706" lon="17.459656816266662"><ele>326.4</ele><time>2026-04-28T16:25:06.998Z</time></trkpt><trkpt lat="40.758352997253894" lon="17.4597604219424"><ele>325.59999999999997</ele><time>2026-04-28T16:25:10Z</time></trkpt><trkpt lat="40.758382042680545" lon="17.459879872704175"><ele>324.79999999999995</ele><time>2026-04-28T16:25:12Z</time></trkpt><trkpt lat="40.7583929698456" lon="17.460023418242965"><ele>324.0</ele><time>2026-04-28T16:25:14Z</time></trkpt><trkpt lat="40.75841955274235" lon="17.460195668898553"><ele>324.0</ele><time>2026-04-28T16:25:16Z</time></trkpt><trkpt lat="40.75844235188533" lon="17.46035233285689"><ele>324.0</ele><time>2026-04-28T16:25:18Z</time></trkpt><trkpt lat="40.758426082669914" lon="17.460464683709837"><ele>324.0</ele><time>2026-04-28T16:25:19Z</time></trkpt><trkpt lat="40.75840111674379" lon="17.460570401541688"><ele>324.0</ele><time>2026-04-28T16:25:20Z</time></trkpt><trkpt lat="40.75841758056319" lon="17.460694260813124"><ele>324.0</ele><time>2026-04-28T16:25:21Z</time></trkpt><trkpt lat="40.7583871254951" lon="17.460828102027932"><ele>322.59999999999997</ele><time>2026-04-28T16:25:22Z</time></trkpt><trkpt lat="40.75836182011745" lon="17.46095415769794"><ele>321.2</ele><time>2026-04-28T16:25:23Z</time></trkpt><trkpt lat="40.75832829647264" lon="17.4610441354066"><ele>319.79999999999995</ele><time>2026-04-28T16:25:24Z</time></trkpt><trkpt lat="40.758254343951116" lon="17.46113849668375"><ele>318.4</ele><time>2026-04-28T16:25:26Z</time></trkpt><trkpt lat="40.75818101055731" lon="17.46114137263138"><ele>317.0</ele><time>2026-04-28T16:25:27Z</time></trkpt><trkpt lat="40.75806180211875" lon="17.461092119799346"><ele>317.0</ele><time>2026-04-28T16:25:29Z</time></trkpt><trkpt lat="40.75797780202946" lon="17.461076535945296"><ele>317.0</ele><time>2026-04-28T16:25:30Z</time></trkpt><trkpt lat="40.75792046590317" lon="17.46103699799192"><ele>317.0</ele><time>2026-04-28T16:25:31Z</time></trkpt><trkpt lat="40.75784348580426" lon="17.460967975193007"><ele>317.0</ele><time>2026-04-28T16:25:32Z</time></trkpt><trkpt lat="40.757737957560046" lon="17.46083073766644"><ele>317.0</ele><time>2026-04-28T16:25:34Z</time></trkpt><trkpt lat="40.75768278979928" lon="17.460757573619738"><ele>316.5</ele><time>2026-04-28T16:25:35Z</time></trkpt><trkpt lat="40.75762023539824" lon="17.4606838486432"><ele>316.0</ele><time>2026-04-28T16:25:36Z</time></trkpt><trkpt lat="40.75755322913335" lon="17.460615773812595"><ele>315.5</ele><time>2026-04-28T16:25:37Z</time></trkpt><trkpt lat="40.75745591532256" lon="17.4605175902542"><ele>315.0</ele><time>2026-04-28T16:25:39Z</time></trkpt><trkpt lat="40.757382017481916" lon="17.460469171265935"><ele>314.5</ele><time>2026-04-28T16:25:40Z</time></trkpt><trkpt lat="40.757330759805136" lon="17.46040322783681"><ele>314.0</ele><time>2026-04-28T16:25:41Z</time></trkpt><trkpt lat="40.75722952271833" lon="17.46033888403405"><ele>314.0</ele><time>2026-04-28T16:25:43Z</time></trkpt><trkpt lat="40.75713991272634" lon="17.46042242347896"><ele>314.0</ele><time>2026-04-28T16:25:45Z</time></trkpt><trkpt lat="40.75708685449665" lon="17.460515162774158"><ele>314.0</ele><time>2026-04-28T16:25:46.999Z</time></trkpt><trkpt lat="40.75699070258627" lon="17.460556727004285"><ele>314.0</ele><time>2026-04-28T16:25:48.999Z</time></trkpt><trkpt lat="40.75687802760613" lon="17.460602931066653"><ele>314.0</ele><time>2026-04-28T16:25:50.999Z</time></trkpt><trkpt lat="40.756794566502414" lon="17.460719473749364"><ele>312.2</ele><time>2026-04-28T16:25:52.999Z</time></trkpt><trkpt lat="40.75674493858789" lon="17.460773529740198"><ele>310.4</ele><time>2026-04-28T16:25:53.999Z</time></trkpt><trkpt lat="40.75667336315702" lon="17.46081802365807"><ele>308.6</ele><time>2026-04-28T16:25:55.999Z</time></trkpt><trkpt lat="40.7565573193216" lon="17.460838317303228"><ele>306.8</ele><time>2026-04-28T16:25:57.999Z</time></trkpt><trkpt lat="40.75646686227971" lon="17.460930860352267"><ele>305.0</ele><time>2026-04-28T16:25:59.999Z</time></trkpt><trkpt lat="40.75637979369421" lon="17.461040868751606"><ele>305.0</ele><time>2026-04-28T16:26:01.999Z</time></trkpt><trkpt lat="40.75627966636817" lon="17.461133474553748"><ele>305.0</ele><time>2026-04-28T16:26:03.999Z</time></trkpt><trkpt lat="40.756222036862695" lon="17.461193438773396"><ele>305.0</ele><time>2026-04-28T16:26:04.999Z</time></trkpt><trkpt lat="40.756149539952744" lon="17.46128466711912"><ele>305.0</ele><time>2026-04-28T16:26:06.999Z</time></trkpt><trkpt lat="40.75609328189335" lon="17.46138786085223"><ele>305.0</ele><time>2026-04-28T16:26:08.999Z</time></trkpt><trkpt lat="40.7560445962337" lon="17.461502647427572"><ele>305.33333333333337</ele><time>2026-04-28T16:26:10.999Z</time></trkpt><trkpt lat="40.75596659289413" lon="17.461585491656606"><ele>305.6666666666667</ele><time>2026-04-28T16:26:12.999Z</time></trkpt><trkpt lat="40.75589834974685" lon="17.461668221884906"><ele>306.0</ele><time>2026-04-28T16:26:14.999Z</time></trkpt><trkpt lat="40.75584858385339" lon="17.461757043331435"><ele>306.3333333333333</ele><time>2026-04-28T16:26:16.999Z</time></trkpt><trkpt lat="40.75583569682013" lon="17.461857456933448"><ele>306.66666666666663</ele><time>2026-04-28T16:26:18.999Z</time></trkpt><trkpt lat="40.755844733895046" lon="17.46195641165026"><ele>307.0</ele><time>2026-04-28T16:26:20.999Z</time></trkpt><trkpt lat="40.755776324620626" lon="17.462022434147176"><ele>307.0</ele><time>2026-04-28T16:26:27.999Z</time></trkpt><trkpt lat="40.755707004536774" lon="17.462056957669283"><ele>307.0</ele><time>2026-04-28T16:26:29.999Z</time></trkpt><trkpt lat="40.75563579253138" lon="17.462077456942417"><ele>307.0</ele><time>2026-04-28T16:26:31.999Z</time></trkpt><trkpt lat="40.75554451645751" lon="17.462108300777842"><ele>307.0</ele><time>2026-04-28T16:26:33.999Z</time></trkpt><trkpt lat="40.75545841669465" lon="17.46211812254865"><ele>307.0</ele><time>2026-04-28T16:26:35.999Z</time></trkpt><trkpt lat="40.75536955037677" lon="17.46214379969827"><ele>307.0</ele><time>2026-04-28T16:26:37.999Z</time></trkpt><trkpt lat="40.75529076344365" lon="17.462109190564714"><ele>307.0</ele><time>2026-04-28T16:26:39.999Z</time></trkpt><trkpt lat="40.75522621400695" lon="17.462012442165978"><ele>307.0</ele><time>2026-04-28T16:26:41.999Z</time></trkpt><trkpt lat="40.755146997243145" lon="17.461907441015793"><ele>307.0</ele><time>2026-04-28T16:26:43.999Z</time></trkpt><trkpt lat="40.755094909854535" lon="17.46184098309689"><ele>307.0</ele><time>2026-04-28T16:26:45.998Z</time></trkpt><trkpt lat="40.75502694985623" lon="17.461881425027517"><ele>307.0</ele><time>2026-04-28T16:26:48.998Z</time></trkpt><trkpt lat="40.75500747084295" lon="17.462036600962477"><ele>307.0</ele><time>2026-04-28T16:26:50.998Z</time></trkpt><trkpt lat="40.75500800151092" lon="17.462124558578356"><ele>307.0</ele><time>2026-04-28T16:26:51.998Z</time></trkpt><trkpt lat="40.755004946123584" lon="17.462288344821996"><ele>307.0</ele><time>2026-04-28T16:26:53.998Z</time></trkpt><trkpt lat="40.75500660841519" lon="17.46243537245069"><ele>307.0</ele><time>2026-04-28T16:26:55.998Z</time></trkpt><trkpt lat="40.75501743990104" lon="17.462588685031072"><ele>307.0</ele><time>2026-04-28T16:26:57.998Z</time></trkpt><trkpt lat="40.75502356309741" lon="17.462730679119105"><ele>307.0</ele><time>2026-04-28T16:26:59.998Z</time></trkpt><trkpt lat="40.75501765019719" lon="17.462851386385598"><ele>307.0</ele><time>2026-04-28T16:27:01.998Z</time></trkpt><trkpt lat="40.75504386170562" lon="17.4629912312109"><ele>307.0</ele><time>2026-04-28T16:27:03.998Z</time></trkpt><trkpt lat="40.75506488845303" lon="17.463124896092133"><ele>307.0</ele><time>2026-04-28T16:27:05.998Z</time></trkpt><trkpt lat="40.755074411891236" lon="17.463261870815213"><ele>307.0</ele><time>2026-04-28T16:27:07.998Z</time></trkpt><trkpt lat="40.75508135615813" lon="17.463409317732875"><ele>307.4</ele><time>2026-04-28T16:27:09.998Z</time></trkpt><trkpt lat="40.75508518248894" lon="17.463529607532756"><ele>307.79999999999995</ele><time>2026-04-28T16:27:11.998Z</time></trkpt><trkpt lat="40.755096544116284" lon="17.463653817579335"><ele>308.2</ele><time>2026-04-28T16:27:13.998Z</time></trkpt><trkpt lat="40.75510723600772" lon="17.46379263290898"><ele>308.59999999999997</ele><time>2026-04-28T16:27:16Z</time></trkpt><trkpt lat="40.755115650837986" lon="17.463946882010262"><ele>309.0</ele><time>2026-04-28T16:27:18Z</time></trkpt><trkpt lat="40.75512389226316" lon="17.464103796365958"><ele>310.2</ele><time>2026-04-28T16:27:20Z</time></trkpt><trkpt lat="40.7551261699684" lon="17.464248182769293"><ele>311.4</ele><time>2026-04-28T16:27:22Z</time></trkpt><trkpt lat="40.75513968477747" lon="17.46437607100233"><ele>312.6</ele><time>2026-04-28T16:27:24Z</time></trkpt><trkpt lat="40.75515125694244" lon="17.464502357502475"><ele>313.8</ele><time>2026-04-28T16:27:26Z</time></trkpt><trkpt lat="40.75514873129168" lon="17.46463590900478"><ele>315.0</ele><time>2026-04-28T16:27:28Z</time></trkpt><trkpt lat="40.755146876038125" lon="17.46472015899424"><ele>315.6</ele><time>2026-04-28T16:27:29Z</time></trkpt><trkpt lat="40.75516486681887" lon="17.464841291620466"><ele>316.2</ele><time>2026-04-28T16:27:31Z</time></trkpt><trkpt lat="40.75517960036101" lon="17.464982789639965"><ele>316.8</ele><time>2026-04-28T16:27:33Z</time></trkpt><trkpt lat="40.75520263836869" lon="17.465118372121747"><ele>317.4</ele><time>2026-04-28T16:27:35Z</time></trkpt><trkpt lat="40.755226853402625" lon="17.465248455947616"><ele>318.0</ele><time>2026-04-28T16:27:37Z</time></trkpt><trkpt lat="40.75525418120472" lon="17.465367149901418"><ele>319.5</ele><time>2026-04-28T16:27:39Z</time></trkpt><trkpt lat="40.75529735271426" lon="17.465479922070216"><ele>321.0</ele><time>2026-04-28T16:27:41Z</time></trkpt><trkpt lat="40.75532701544263" lon="17.465592026502485"><ele>322.5</ele><time>2026-04-28T16:27:43Z</time></trkpt><trkpt lat="40.75535427876977" lon="17.465764005371923"><ele>324.0</ele><time>2026-04-28T16:27:45Z</time></trkpt><trkpt lat="40.75536161837253" lon="17.465846688112887"><ele>325.5</ele><time>2026-04-28T16:27:46Z</time></trkpt><trkpt lat="40.755373572327244" lon="17.46593172151705"><ele>327.0</ele><time>2026-04-28T16:27:47Z</time></trkpt><trkpt lat="40.75539073010947" lon="17.46603098428212"><ele>327.0</ele><time>2026-04-28T16:27:49Z</time></trkpt><trkpt lat="40.755409481470416" lon="17.46612131005931"><ele>327.0</ele><time>2026-04-28T16:27:51Z</time></trkpt><trkpt lat="40.755433059160275" lon="17.46622227997231"><ele>327.0</ele><time>2026-04-28T16:27:53Z</time></trkpt><trkpt lat="40.75546115005421" lon="17.466323502792218"><ele>327.0</ele><time>2026-04-28T16:27:54.999Z</time></trkpt><trkpt lat="40.75548606309559" lon="17.466432541943696"><ele>327.0</ele><time>2026-04-28T16:27:56.999Z</time></trkpt><trkpt lat="40.755533859508986" lon="17.466580864460603"><ele>327.0</ele><time>2026-04-28T16:27:58.999Z</time></trkpt><trkpt lat="40.75555941751696" lon="17.466670154618186"><ele>327.0</ele><time>2026-04-28T16:27:59.999Z</time></trkpt><trkpt lat="40.75558073142148" lon="17.4667654906766"><ele>327.0</ele><time>2026-04-28T16:28:00.999Z</time></trkpt><trkpt lat="40.75559321219182" lon="17.466885140711067"><ele>327.0</ele><time>2026-04-28T16:28:01.999Z</time></trkpt><trkpt lat="40.75559905552587" lon="17.466996478184146"><ele>327.0</ele><time>2026-04-28T16:28:02.999Z</time></trkpt><trkpt lat="40.755596748582185" lon="17.46711950510321"><ele>327.0</ele><time>2026-04-28T16:28:03.999Z</time></trkpt><trkpt lat="40.7555814572627" lon="17.4672195808072"><ele>327.0</ele><time>2026-04-28T16:28:04.999Z</time></trkpt><trkpt lat="40.755555501755936" lon="17.467308865498673"><ele>327.20000000000005</ele><time>2026-04-28T16:28:05.999Z</time></trkpt><trkpt lat="40.75552964812449" lon="17.467414922758344"><ele>327.4</ele><time>2026-04-28T16:28:06.999Z</time></trkpt><trkpt lat="40.75547657984154" lon="17.46755095532128"><ele>327.6</ele><time>2026-04-28T16:28:08.999Z</time></trkpt><trkpt lat="40.75545202215186" lon="17.467627992860486"><ele>327.79999999999995</ele><time>2026-04-28T16:28:09.999Z</time></trkpt><trkpt lat="40.75541849963494" lon="17.467763410080284"><ele>328.0</ele><time>2026-04-28T16:28:11.999Z</time></trkpt><trkpt lat="40.755384021150554" lon="17.467893178846484"><ele>327.66666666666663</ele><time>2026-04-28T16:28:13.999Z</time></trkpt><trkpt lat="40.75535394905091" lon="17.467971599015367"><ele>327.3333333333333</ele><time>2026-04-28T16:28:14.999Z</time></trkpt><trkpt lat="40.7553096528246" lon="17.468072888020725"><ele>327.0</ele><time>2026-04-28T16:28:16.999Z</time></trkpt><trkpt lat="40.755267967260274" lon="17.46820769152047"><ele>326.6666666666667</ele><time>2026-04-28T16:28:18.999Z</time></trkpt><trkpt lat="40.75524963114175" lon="17.468338899537866"><ele>326.33333333333337</ele><time>2026-04-28T16:28:20.999Z</time></trkpt><trkpt lat="40.7553303039256" lon="17.468336617590985"><ele>326.0</ele><time>2026-04-28T16:28:24.999Z</time></trkpt><trkpt lat="40.75541873884663" lon="17.468269639400454"><ele>326.0</ele><time>2026-04-28T16:28:26.999Z</time></trkpt><trkpt lat="40.75549272962184" lon="17.46821635636957"><ele>326.0</ele><time>2026-04-28T16:28:28.999Z</time></trkpt><trkpt lat="40.755553382225905" lon="17.46814518200259"><ele>326.0</ele><time>2026-04-28T16:28:30.999Z</time></trkpt><trkpt lat="40.75560810408334" lon="17.46820198645118"><ele>326.0</ele><time>2026-04-28T16:28:32.999Z</time></trkpt><trkpt lat="40.75569155852473" lon="17.46824475000203"><ele>326.0</ele><time>2026-04-28T16:28:34.999Z</time></trkpt><trkpt lat="40.75574771887963" lon="17.46832351531966"><ele>326.0</ele><time>2026-04-28T16:28:36.999Z</time></trkpt><trkpt lat="40.755728004449146" lon="17.46840871970203"><ele>326.0</ele><time>2026-04-28T16:28:38.999Z</time></trkpt><trkpt lat="40.75570558159649" lon="17.468539718379045"><ele>326.0</ele><time>2026-04-28T16:28:40.999Z</time></trkpt><trkpt lat="40.75575162726839" lon="17.468642641058985"><ele>326.0</ele><time>2026-04-28T16:28:42.999Z</time></trkpt><trkpt lat="40.755804629400906" lon="17.468728329328265"><ele>326.0</ele><time>2026-04-28T16:28:44.999Z</time></trkpt><trkpt lat="40.75582949947115" lon="17.468822083443367"><ele>326.0</ele><time>2026-04-28T16:28:48.999Z</time></trkpt><trkpt lat="40.75579229884319" lon="17.468937011513486"><ele>326.0</ele><time>2026-04-28T16:28:52.999Z</time></trkpt><trkpt lat="40.75574881435848" lon="17.46903436873535"><ele>323.8</ele><time>2026-04-28T16:28:53.998Z</time></trkpt><trkpt lat="40.7556390991543" lon="17.469143302215393"><ele>321.6</ele><time>2026-04-28T16:28:55.998Z</time></trkpt><trkpt lat="40.7556239026286" lon="17.469251477894613"><ele>319.4</ele><time>2026-04-28T16:28:57.998Z</time></trkpt><trkpt lat="40.755558337829825" lon="17.469284865956503"><ele>317.2</ele><time>2026-04-28T16:29:00.998Z</time></trkpt><trkpt lat="40.755522710246304" lon="17.469382125258278"><ele>315.0</ele><time>2026-04-28T16:29:02.998Z</time></trkpt><trkpt lat="40.75546435239188" lon="17.469473710171282"><ele>315.0</ele><time>2026-04-28T16:29:05.998Z</time></trkpt><trkpt lat="40.75552217660503" lon="17.46956104824852"><ele>315.0</ele><time>2026-04-28T16:29:09.998Z</time></trkpt><trkpt lat="40.75557290829995" lon="17.46961703438401"><ele>315.0</ele><time>2026-04-28T16:29:11.998Z</time></trkpt><trkpt lat="40.75557678441466" lon="17.469741809249985"><ele>315.0</ele><time>2026-04-28T16:29:14.998Z</time></trkpt><trkpt lat="40.75551643285997" lon="17.469851058755605"><ele>315.0</ele><time>2026-04-28T16:29:17.998Z</time></trkpt><trkpt lat="40.755466190705704" lon="17.47002415000229"><ele>313.1666666666667</ele><time>2026-04-28T16:29:19.998Z</time></trkpt><trkpt lat="40.75543637617634" lon="17.470134217752424"><ele>311.3333333333333</ele><time>2026-04-28T16:29:22Z</time></trkpt><trkpt lat="40.755456659056556" lon="17.47021731040037"><ele>309.5</ele><time>2026-04-28T16:29:26Z</time></trkpt><trkpt lat="40.755459816586736" lon="17.470381304957602"><ele>307.66666666666663</ele><time>2026-04-28T16:29:28Z</time></trkpt><trkpt lat="40.755464373669646" lon="17.470484511898157"><ele>305.8333333333333</ele><time>2026-04-28T16:29:29Z</time></trkpt><trkpt lat="40.75548800398665" lon="17.47058241423952"><ele>304.0</ele><time>2026-04-28T16:29:31Z</time></trkpt><trkpt lat="40.755474640369854" lon="17.470678368295065"><ele>303.16666666666663</ele><time>2026-04-28T16:30:08.999Z</time></trkpt><trkpt lat="40.75549099527487" lon="17.470786995311748"><ele>302.3333333333333</ele><time>2026-04-28T16:30:11.999Z</time></trkpt><trkpt lat="40.75552009537924" lon="17.470877043964254"><ele>301.5</ele><time>2026-04-28T16:30:17.999Z</time></trkpt><trkpt lat="40.755514006300125" lon="17.47097498098454"><ele>300.6666666666667</ele><time>2026-04-28T16:30:22.999Z</time></trkpt><trkpt lat="40.755535275679065" lon="17.471088708953957"><ele>299.83333333333337</ele><time>2026-04-28T16:30:26.999Z</time></trkpt><trkpt lat="40.75546651624497" lon="17.47118256068081"><ele>299.0</ele><time>2026-04-28T16:30:30.999Z</time></trkpt><trkpt lat="40.75544474119652" lon="17.471287549538317"><ele>299.0</ele><time>2026-04-28T16:30:32.999Z</time></trkpt><trkpt lat="40.75538127887572" lon="17.471324338545266"><ele>299.0</ele><time>2026-04-28T16:30:34.999Z</time></trkpt><trkpt lat="40.755332971904636" lon="17.471384267340664"><ele>299.0</ele><time>2026-04-28T16:30:36.999Z</time></trkpt><trkpt lat="40.75529412570603" lon="17.471509289158462"><ele>299.0</ele><time>2026-04-28T16:30:38.999Z</time></trkpt><trkpt lat="40.755287591352314" lon="17.471628747972414"><ele>299.0</ele><time>2026-04-28T16:30:40.999Z</time></trkpt><trkpt lat="40.75525937979263" lon="17.47174913383184"><ele>299.0</ele><time>2026-04-28T16:30:42.999Z</time></trkpt><trkpt lat="40.75523426705652" lon="17.471853846639256"><ele>299.0</ele><time>2026-04-28T16:30:44.999Z</time></trkpt><trkpt lat="40.755259947664264" lon="17.47194629059852"><ele>299.0</ele><time>2026-04-28T16:30:46.999Z</time></trkpt><trkpt lat="40.75530255597191" lon="17.472022148131877"><ele>299.0</ele><time>2026-04-28T16:30:48.999Z</time></trkpt><trkpt lat="40.75535817977922" lon="17.472070561492178"><ele>299.0</ele><time>2026-04-28T16:30:50.999Z</time></trkpt><trkpt lat="40.75538273841621" lon="17.472154395215707"><ele>299.0</ele><time>2026-04-28T16:30:52.999Z</time></trkpt><trkpt lat="40.75540648818466" lon="17.472267400719215"><ele>299.0</ele><time>2026-04-28T16:30:55.999Z</time></trkpt><trkpt lat="40.75548410596108" lon="17.472352279352"><ele>300.59999999999997</ele><time>2026-04-28T16:30:57.999Z</time></trkpt><trkpt lat="40.75555360342024" lon="17.472447772660438"><ele>302.2</ele><time>2026-04-28T16:30:59.999Z</time></trkpt><trkpt lat="40.755624074447866" lon="17.472558444439507"><ele>303.79999999999995</ele><time>2026-04-28T16:31:01.999Z</time></trkpt><trkpt lat="40.75567434227807" lon="17.472678110490946"><ele>305.4</ele><time>2026-04-28T16:31:03.999Z</time></trkpt><trkpt lat="40.755664927107745" lon="17.47277726414798"><ele>307.0</ele><time>2026-04-28T16:31:05.998Z</time></trkpt><trkpt lat="40.75568730887608" lon="17.472856883462835"><ele>307.0</ele><time>2026-04-28T16:31:08.998Z</time></trkpt><trkpt lat="40.755724394375065" lon="17.472926702761995"><ele>307.0</ele><time>2026-04-28T16:31:20.998Z</time></trkpt><trkpt lat="40.75573290465217" lon="17.473019126758448"><ele>307.0</ele><time>2026-04-28T16:31:22.998Z</time></trkpt><trkpt lat="40.755743824901664" lon="17.473122369422857"><ele>307.0</ele><time>2026-04-28T16:31:24.998Z</time></trkpt><trkpt lat="40.75574790092695" lon="17.473239202084546"><ele>307.0</ele><time>2026-04-28T16:31:27Z</time></trkpt><trkpt lat="40.75580020676147" lon="17.473331141177376"><ele>307.0</ele><time>2026-04-28T16:31:29Z</time></trkpt><trkpt lat="40.75584428144833" lon="17.473391387369084"><ele>307.0</ele><time>2026-04-28T16:31:32Z</time></trkpt><trkpt lat="40.75589320396335" lon="17.473511803382916"><ele>307.0</ele><time>2026-04-28T16:31:35Z</time></trkpt><trkpt lat="40.75593879363678" lon="17.473569958363633"><ele>307.0</ele><time>2026-04-28T16:31:38Z</time></trkpt><trkpt lat="40.75601856992188" lon="17.473557861280682"><ele>307.0</ele><time>2026-04-28T16:31:41Z</time></trkpt><trkpt lat="40.75607362867338" lon="17.473619104080726"><ele>307.0</ele><time>2026-04-28T16:31:43Z</time></trkpt><trkpt lat="40.75606982081523" lon="17.473707293678427"><ele>307.0</ele><time>2026-04-28T16:31:45Z</time></trkpt><trkpt lat="40.756079992638206" lon="17.473796663394246"><ele>309.16666666666663</ele><time>2026-04-28T16:31:49Z</time></trkpt><trkpt lat="40.75613510275681" lon="17.473887516399476"><ele>311.3333333333333</ele><time>2026-04-28T16:31:52Z</time></trkpt><trkpt lat="40.75621325309187" lon="17.47393625107167"><ele>313.5</ele><time>2026-04-28T16:31:55Z</time></trkpt><trkpt lat="40.75627317997765" lon="17.473986495947415"><ele>315.6666666666667</ele><time>2026-04-28T16:31:58Z</time></trkpt><trkpt lat="40.75628916380057" lon="17.474069619263567"><ele>317.83333333333337</ele><time>2026-04-28T16:32:01Z</time></trkpt><trkpt lat="40.75630860720685" lon="17.474160764248214"><ele>320.0</ele><time>2026-04-28T16:32:03Z</time></trkpt><trkpt lat="40.75632854882669" lon="17.47426472549704"><ele>320.0</ele><time>2026-04-28T16:32:05Z</time></trkpt><trkpt lat="40.756326687327764" lon="17.474385947339126"><ele>320.0</ele><time>2026-04-28T16:32:07Z</time></trkpt><trkpt lat="40.75626295691544" lon="17.47443102846847"><ele>320.0</ele><time>2026-04-28T16:32:09Z</time></trkpt><trkpt lat="40.75617125467058" lon="17.4744767335454"><ele>320.0</ele><time>2026-04-28T16:32:11.999Z</time></trkpt><trkpt lat="40.756090213745516" lon="17.47454151196042"><ele>320.0</ele><time>2026-04-28T16:32:13.999Z</time></trkpt><trkpt lat="40.75600831952558" lon="17.474596344905184"><ele>320.0</ele><time>2026-04-28T16:32:15.999Z</time></trkpt><trkpt lat="40.75595616005657" lon="17.474645689108762"><ele>321.33333333333337</ele><time>2026-04-28T16:32:18.999Z</time></trkpt><trkpt lat="40.755901638306376" lon="17.474688256998373"><ele>322.6666666666667</ele><time>2026-04-28T16:32:20.999Z</time></trkpt><trkpt lat="40.75582707471878" lon="17.474758962317647"><ele>324.0</ele><time>2026-04-28T16:32:23.999Z</time></trkpt><trkpt lat="40.75576886964373" lon="17.474826522656706"><ele>325.3333333333333</ele><time>2026-04-28T16:32:25.999Z</time></trkpt><trkpt lat="40.75566094629186" lon="17.474945363189637"><ele>326.66666666666663</ele><time>2026-04-28T16:32:27.999Z</time></trkpt><trkpt lat="40.75560790615729" lon="17.47499389597053"><ele>328.0</ele><time>2026-04-28T16:32:28.999Z</time></trkpt><trkpt lat="40.755540702942085" lon="17.475074812160223"><ele>328.0</ele><time>2026-04-28T16:32:30.999Z</time></trkpt><trkpt lat="40.755464218383494" lon="17.47516057662249"><ele>328.0</ele><time>2026-04-28T16:32:32.999Z</time></trkpt><trkpt lat="40.755378397878005" lon="17.47525560662615"><ele>328.0</ele><time>2026-04-28T16:32:34.999Z</time></trkpt><trkpt lat="40.755307339291015" lon="17.47533543700238"><ele>328.0</ele><time>2026-04-28T16:32:36.999Z</time></trkpt><trkpt lat="40.755222033766074" lon="17.475409072332344"><ele>328.0</ele><time>2026-04-28T16:32:38.999Z</time></trkpt><trkpt lat="40.755162029914366" lon="17.47543821633067"><ele>327.79999999999995</ele><time>2026-04-28T16:32:39.999Z</time></trkpt><trkpt lat="40.755072858906736" lon="17.4755000710975"><ele>327.6</ele><time>2026-04-28T16:32:41.999Z</time></trkpt><trkpt lat="40.75498867912072" lon="17.47557118774175"><ele>327.4</ele><time>2026-04-28T16:32:43.999Z</time></trkpt><trkpt lat="40.75494022964889" lon="17.475696764214703"><ele>327.20000000000005</ele><time>2026-04-28T16:32:45.999Z</time></trkpt><trkpt lat="40.754927682428196" lon="17.47579028486586"><ele>327.0</ele><time>2026-04-28T16:32:46.999Z</time></trkpt><trkpt lat="40.75491724469289" lon="17.475884090750366"><ele>327.0</ele><time>2026-04-28T16:32:47.999Z</time></trkpt><trkpt lat="40.75490016710528" lon="17.476026933406807"><ele>327.0</ele><time>2026-04-28T16:32:49.999Z</time></trkpt><trkpt lat="40.75488074952983" lon="17.476146853230908"><ele>327.0</ele><time>2026-04-28T16:32:51.999Z</time></trkpt><trkpt lat="40.754870428909655" lon="17.476255138187927"><ele>327.0</ele><time>2026-04-28T16:32:54.999Z</time></trkpt><trkpt lat="40.75487831514474" lon="17.476341036714402"><ele>327.0</ele><time>2026-04-28T16:32:56.999Z</time></trkpt><trkpt lat="40.7548641021411" lon="17.476451203452466"><ele>327.0</ele><time>2026-04-28T16:32:59.999Z</time></trkpt><trkpt lat="40.7548728077293" lon="17.476564503206436"><ele>327.8333333333333</ele><time>2026-04-28T16:33:02.999Z</time></trkpt><trkpt lat="40.75489823564481" lon="17.476651677695678"><ele>328.6666666666667</ele><time>2026-04-28T16:33:04.999Z</time></trkpt><trkpt lat="40.75485791780095" lon="17.47675454505546"><ele>329.5</ele><time>2026-04-28T16:33:07.999Z</time></trkpt><trkpt lat="40.754847526008014" lon="17.47685040430833"><ele>330.33333333333337</ele><time>2026-04-28T16:33:10.998Z</time></trkpt><trkpt lat="40.754927189637286" lon="17.476896071812618"><ele>331.1666666666667</ele><time>2026-04-28T16:33:13.998Z</time></trkpt><trkpt lat="40.75498601621896" lon="17.476955131132804"><ele>332.0</ele><time>2026-04-28T16:33:16.998Z</time></trkpt><trkpt lat="40.75506712373835" lon="17.477019690394798"><ele>333.40000000000003</ele><time>2026-04-28T16:33:19.998Z</time></trkpt><trkpt lat="40.75518036008102" lon="17.47711152046414"><ele>334.8</ele><time>2026-04-28T16:33:21.998Z</time></trkpt><trkpt lat="40.755243591499635" lon="17.477136267654718"><ele>336.2</ele><time>2026-04-28T16:33:22.998Z</time></trkpt><trkpt lat="40.75533698540107" lon="17.477190822193226"><ele>337.6</ele><time>2026-04-28T16:33:24.998Z</time></trkpt><trkpt lat="40.755426346403496" lon="17.477253642821317"><ele>339.0</ele><time>2026-04-28T16:33:26.998Z</time></trkpt><trkpt lat="40.755483522564816" lon="17.477313456196253"><ele>340.3333333333333</ele><time>2026-04-28T16:33:28.998Z</time></trkpt><trkpt lat="40.75554902916772" lon="17.477366822448257"><ele>341.6666666666667</ele><time>2026-04-28T16:33:30.998Z</time></trkpt><trkpt lat="40.75560552577679" lon="17.4774127725225"><ele>343.0</ele><time>2026-04-28T16:33:33Z</time></trkpt><trkpt lat="40.755698601708566" lon="17.47744931749562"><ele>344.33333333333337</ele><time>2026-04-28T16:33:36Z</time></trkpt><trkpt lat="40.75575519801271" lon="17.477494428021323"><ele>345.6666666666667</ele><time>2026-04-28T16:33:38Z</time></trkpt><trkpt lat="40.75582666445273" lon="17.47747790384858"><ele>347.0</ele><time>2026-04-28T16:33:40Z</time></trkpt><trkpt lat="40.75589901726247" lon="17.477510569533884"><ele>347.0</ele><time>2026-04-28T16:33:43Z</time></trkpt><trkpt lat="40.75591317490745" lon="17.477643712342598"><ele>347.0</ele><time>2026-04-28T16:33:46Z</time></trkpt><trkpt lat="40.75592001236924" lon="17.47772886169191"><ele>347.0</ele><time>2026-04-28T16:33:48Z</time></trkpt><trkpt lat="40.755924815820485" lon="17.477846162671423"><ele>347.0</ele><time>2026-04-28T16:33:51Z</time></trkpt><trkpt lat="40.75595483173015" lon="17.477935990057507"><ele>347.0</ele><time>2026-04-28T16:33:53Z</time></trkpt><trkpt lat="40.75597846623508" lon="17.478038666767446"><ele>347.0</ele><time>2026-04-28T16:33:55Z</time></trkpt><trkpt lat="40.75598904175515" lon="17.478179596521137"><ele>347.1666666666667</ele><time>2026-04-28T16:33:57Z</time></trkpt><trkpt lat="40.756020100391524" lon="17.478289393277535"><ele>347.33333333333337</ele><time>2026-04-28T16:33:59Z</time></trkpt><trkpt lat="40.75607808737576" lon="17.478350289504377"><ele>347.5</ele><time>2026-04-28T16:34:01Z</time></trkpt><trkpt lat="40.75615538066528" lon="17.478411647963778"><ele>347.6666666666667</ele><time>2026-04-28T16:34:03Z</time></trkpt><trkpt lat="40.7562355456642" lon="17.47844806792732"><ele>347.8333333333333</ele><time>2026-04-28T16:34:05Z</time></trkpt><trkpt lat="40.75633397445831" lon="17.478501811502817"><ele>348.0</ele><time>2026-04-28T16:34:07Z</time></trkpt><trkpt lat="40.75640694812992" lon="17.478563513380337"><ele>348.0</ele><time>2026-04-28T16:34:09Z</time></trkpt><trkpt lat="40.75649731999524" lon="17.478595001969687"><ele>348.0</ele><time>2026-04-28T16:34:11Z</time></trkpt><trkpt lat="40.75656869133121" lon="17.478643088449658"><ele>348.0</ele><time>2026-04-28T16:34:13Z</time></trkpt><trkpt lat="40.75663275096959" lon="17.478694377575994"><ele>348.0</ele><time>2026-04-28T16:34:15Z</time></trkpt><trkpt lat="40.7565845796226" lon="17.478792972383307"><ele>348.0</ele><time>2026-04-28T16:34:18Z</time></trkpt><trkpt lat="40.75650025823009" lon="17.47884295951692"><ele>348.0</ele><time>2026-04-28T16:34:19.999Z</time></trkpt><trkpt lat="40.7564397269418" lon="17.478894295434817"><ele>348.2</ele><time>2026-04-28T16:34:20.999Z</time></trkpt><trkpt lat="40.75634462813808" lon="17.47900110690185"><ele>348.4</ele><time>2026-04-28T16:34:22.999Z</time></trkpt><trkpt lat="40.75630999407591" lon="17.479092847199222"><ele>348.59999999999997</ele><time>2026-04-28T16:34:23.999Z</time></trkpt><trkpt lat="40.75630743886949" lon="17.47917888356046"><ele>348.79999999999995</ele><time>2026-04-28T16:34:24.999Z</time></trkpt><trkpt lat="40.75632950532454" lon="17.479265911142285"><ele>349.0</ele><time>2026-04-28T16:34:25.999Z</time></trkpt><trkpt lat="40.756396684754385" lon="17.479394732735436"><ele>349.0</ele><time>2026-04-28T16:34:27.999Z</time></trkpt><trkpt lat="40.75640395262298" lon="17.47949297597294"><ele>349.0</ele><time>2026-04-28T16:34:29.999Z</time></trkpt><trkpt lat="40.75638757620963" lon="17.479595135177483"><ele>349.0</ele><time>2026-04-28T16:34:31.999Z</time></trkpt><trkpt lat="40.756341225028166" lon="17.47973117176172"><ele>349.0</ele><time>2026-04-28T16:34:33.999Z</time></trkpt><trkpt lat="40.7563511689751" lon="17.479820660739424"><ele>349.0</ele><time>2026-04-28T16:34:35.999Z</time></trkpt><trkpt lat="40.75632774966141" lon="17.479917835502967"><ele>349.0</ele><time>2026-04-28T16:34:37.999Z</time></trkpt><trkpt lat="40.756298769742074" lon="17.480005239449785"><ele>348.6</ele><time>2026-04-28T16:34:39.999Z</time></trkpt><trkpt lat="40.75621070436339" lon="17.480103607845326"><ele>348.2</ele><time>2026-04-28T16:34:41.999Z</time></trkpt><trkpt lat="40.756168884905364" lon="17.480198381773057"><ele>347.8</ele><time>2026-04-28T16:34:42.999Z</time></trkpt><trkpt lat="40.75612477390219" lon="17.480265267463494"><ele>347.40000000000003</ele><time>2026-04-28T16:34:43.999Z</time></trkpt><trkpt lat="40.75609453564291" lon="17.48038131093499"><ele>347.0</ele><time>2026-04-28T16:34:45.999Z</time></trkpt><trkpt lat="40.75607951212247" lon="17.480508573319543"><ele>346.6</ele><time>2026-04-28T16:34:47.999Z</time></trkpt><trkpt lat="40.755976853480995" lon="17.480578658316713"><ele>346.20000000000005</ele><time>2026-04-28T16:34:49.999Z</time></trkpt><trkpt lat="40.75592006249106" lon="17.480634301622196"><ele>345.8</ele><time>2026-04-28T16:34:51.999Z</time></trkpt><trkpt lat="40.75578166387695" lon="17.480635580504803"><ele>345.4</ele><time>2026-04-28T16:34:53.999Z</time></trkpt><trkpt lat="40.75571709523492" lon="17.48066150616097"><ele>345.0</ele><time>2026-04-28T16:34:54.999Z</time></trkpt><trkpt lat="40.755654590019944" lon="17.480775643293175"><ele>345.0</ele><time>2026-04-28T16:34:58.999Z</time></trkpt><trkpt lat="40.75562487185135" lon="17.480898143159514"><ele>345.0</ele><time>2026-04-28T16:35:00.999Z</time></trkpt><trkpt lat="40.75560208664619" lon="17.481017886403496"><ele>345.0</ele><time>2026-04-28T16:35:02.999Z</time></trkpt><trkpt lat="40.755571566515755" lon="17.481130068031238"><ele>345.0</ele><time>2026-04-28T16:35:04.999Z</time></trkpt><trkpt lat="40.75547490022922" lon="17.48117480466047"><ele>345.0</ele><time>2026-04-28T16:35:06.999Z</time></trkpt><trkpt lat="40.755404695234326" lon="17.481264136753463"><ele>344.2</ele><time>2026-04-28T16:35:08.999Z</time></trkpt><trkpt lat="40.75535185289918" lon="17.481365430677375"><ele>343.4</ele><time>2026-04-28T16:35:10.999Z</time></trkpt><trkpt lat="40.75528379608783" lon="17.481476598706998"><ele>342.6</ele><time>2026-04-28T16:35:12.999Z</time></trkpt><trkpt lat="40.75518186595024" lon="17.481559451857645"><ele>341.8</ele><time>2026-04-28T16:35:14.999Z</time></trkpt><trkpt lat="40.75511168025068" lon="17.48158953111384"><ele>341.0</ele><time>2026-04-28T16:35:15.999Z</time></trkpt><trkpt lat="40.75504285558176" lon="17.48161619696395"><ele>341.0</ele><time>2026-04-28T16:35:16.999Z</time></trkpt><trkpt lat="40.75498518232172" lon="17.481698700809954"><ele>341.0</ele><time>2026-04-28T16:35:17.998Z</time></trkpt><trkpt lat="40.75495318218224" lon="17.48183847783842"><ele>341.0</ele><time>2026-04-28T16:35:18.998Z</time></trkpt><trkpt lat="40.75493431965856" lon="17.481978842515282"><ele>341.0</ele><time>2026-04-28T16:35:20.998Z</time></trkpt><trkpt lat="40.754917148748945" lon="17.48206036033734"><ele>341.0</ele><time>2026-04-28T16:35:21.998Z</time></trkpt><trkpt lat="40.75492357288831" lon="17.482170726018953"><ele>341.0</ele><time>2026-04-28T16:35:23.998Z</time></trkpt><trkpt lat="40.7549236092833" lon="17.482066024333136"><ele>341.0</ele><time>2026-04-28T16:35:29.998Z</time></trkpt><trkpt lat="40.754856514714135" lon="17.482039083654442"><ele>341.0</ele><time>2026-04-28T16:35:31.998Z</time></trkpt><trkpt lat="40.754796450512444" lon="17.48199409460074"><ele>341.0</ele><time>2026-04-28T16:35:33.998Z</time></trkpt><trkpt lat="40.75473002574583" lon="17.482084857003166"><ele>341.0</ele><time>2026-04-28T16:35:37.998Z</time></trkpt><trkpt lat="40.75466513336081" lon="17.482171087529792"><ele>341.0</ele><time>2026-04-28T16:35:40Z</time></trkpt><trkpt lat="40.75459650749161" lon="17.482266903422293"><ele>340.1666666666667</ele><time>2026-04-28T16:35:42Z</time></trkpt><trkpt lat="40.754531784162204" lon="17.482369129061244"><ele>339.33333333333337</ele><time>2026-04-28T16:35:44Z</time></trkpt><trkpt lat="40.754464338059734" lon="17.48248161016086"><ele>338.5</ele><time>2026-04-28T16:35:46Z</time></trkpt><trkpt lat="40.75441939795766" lon="17.482545816600854"><ele>337.6666666666667</ele><time>2026-04-28T16:35:47Z</time></trkpt><trkpt lat="40.754379943540336" lon="17.482614578864204"><ele>336.8333333333333</ele><time>2026-04-28T16:35:48Z</time></trkpt><trkpt lat="40.75433749150437" lon="17.482679177406567"><ele>336.0</ele><time>2026-04-28T16:35:49Z</time></trkpt><trkpt lat="40.754296462067764" lon="17.482742548241387"><ele>335.8</ele><time>2026-04-28T16:35:50Z</time></trkpt><trkpt lat="40.75422107879689" lon="17.482841678626446"><ele>335.6</ele><time>2026-04-28T16:35:52Z</time></trkpt><trkpt lat="40.754185506845445" lon="17.482913206703685"><ele>335.4</ele><time>2026-04-28T16:35:53Z</time></trkpt><trkpt lat="40.754115881188135" lon="17.483036943414444"><ele>335.2</ele><time>2026-04-28T16:35:55Z</time></trkpt><trkpt lat="40.75405319217005" lon="17.483147896274538"><ele>335.0</ele><time>2026-04-28T16:35:57Z</time></trkpt><trkpt lat="40.7539805828335" lon="17.48322465504498"><ele>334.4</ele><time>2026-04-28T16:35:59Z</time></trkpt><trkpt lat="40.75393995975667" lon="17.48332578523276"><ele>333.8</ele><time>2026-04-28T16:36:01Z</time></trkpt><trkpt lat="40.75390404676544" lon="17.483423993222846"><ele>333.20000000000005</ele><time>2026-04-28T16:36:03Z</time></trkpt><trkpt lat="40.75383798391487" lon="17.483502579912187"><ele>332.6</ele><time>2026-04-28T16:36:05Z</time></trkpt><trkpt lat="40.75379860167388" lon="17.483617438492033"><ele>332.0</ele><time>2026-04-28T16:36:07Z</time></trkpt><trkpt lat="40.753801657870675" lon="17.48377277856197"><ele>332.0</ele><time>2026-04-28T16:36:09Z</time></trkpt><trkpt lat="40.7538577300602" lon="17.483900471382366"><ele>332.0</ele><time>2026-04-28T16:36:11Z</time></trkpt><trkpt lat="40.75391661469585" lon="17.48397801134648"><ele>332.0</ele><time>2026-04-28T16:36:12Z</time></trkpt><trkpt lat="40.753956228692886" lon="17.484053529107126"><ele>332.0</ele><time>2026-04-28T16:36:13Z</time></trkpt><trkpt lat="40.7539400913011" lon="17.484171989884317"><ele>332.0</ele><time>2026-04-28T16:36:15Z</time></trkpt><trkpt lat="40.753854988669694" lon="17.484163941364603"><ele>332.0</ele><time>2026-04-28T16:36:17Z</time></trkpt><trkpt lat="40.753753066242815" lon="17.48418674506731"><ele>332.0</ele><time>2026-04-28T16:36:19Z</time></trkpt><trkpt lat="40.753666709701434" lon="17.484269290196337"><ele>332.0</ele><time>2026-04-28T16:36:21Z</time></trkpt><trkpt lat="40.75366812941989" lon="17.484410858107115"><ele>332.0</ele><time>2026-04-28T16:36:24Z</time></trkpt><trkpt lat="40.75370793551899" lon="17.484517567328105"><ele>332.0</ele><time>2026-04-28T16:36:24.999Z</time></trkpt><trkpt lat="40.753699151056374" lon="17.48461940546339"><ele>332.0</ele><time>2026-04-28T16:36:26.999Z</time></trkpt><trkpt lat="40.753679175551284" lon="17.48472149509175"><ele>331.6666666666667</ele><time>2026-04-28T16:36:28.999Z</time></trkpt><trkpt lat="40.753638067436036" lon="17.48480023965797"><ele>331.33333333333337</ele><time>2026-04-28T16:36:30.999Z</time></trkpt><trkpt lat="40.753558022866414" lon="17.48484514016453"><ele>331.0</ele><time>2026-04-28T16:36:32.999Z</time></trkpt><trkpt lat="40.75342792589924" lon="17.484861323339686"><ele>330.6666666666667</ele><time>2026-04-28T16:36:34.999Z</time></trkpt><trkpt lat="40.75335809373367" lon="17.48488564940363"><ele>330.3333333333333</ele><time>2026-04-28T16:36:36.999Z</time></trkpt><trkpt lat="40.75330975356894" lon="17.484970834936338"><ele>330.0</ele><time>2026-04-28T16:36:37.999Z</time></trkpt><trkpt lat="40.75323354823865" lon="17.485097229415892"><ele>329.8</ele><time>2026-04-28T16:36:39.999Z</time></trkpt><trkpt lat="40.7531375748715" lon="17.485129636034884"><ele>329.6</ele><time>2026-04-28T16:36:41.999Z</time></trkpt><trkpt lat="40.75304202710131" lon="17.48509568926033"><ele>329.4</ele><time>2026-04-28T16:36:43.999Z</time></trkpt><trkpt lat="40.75296080541512" lon="17.484975022563425"><ele>329.2</ele><time>2026-04-28T16:36:45.999Z</time></trkpt><trkpt lat="40.75290548963773" lon="17.484910943907614"><ele>329.0</ele><time>2026-04-28T16:36:47.999Z</time></trkpt><trkpt lat="40.75284664544015" lon="17.484996933742206"><ele>329.0</ele><time>2026-04-28T16:36:50.999Z</time></trkpt><trkpt lat="40.75280369342553" lon="17.48509250310976"><ele>329.0</ele><time>2026-04-28T16:36:52.999Z</time></trkpt><trkpt lat="40.75272852070306" lon="17.485174124478128"><ele>329.0</ele><time>2026-04-28T16:36:54.999Z</time></trkpt><trkpt lat="40.752677000668086" lon="17.4852823620288"><ele>329.0</ele><time>2026-04-28T16:36:57.999Z</time></trkpt><trkpt lat="40.75271882650228" lon="17.48540979078161"><ele>329.0</ele><time>2026-04-28T16:36:59.999Z</time></trkpt><trkpt lat="40.75278734983505" lon="17.485495691760004"><ele>328.0</ele><time>2026-04-28T16:37:00.999Z</time></trkpt><trkpt lat="40.75282413985982" lon="17.48557398311814"><ele>327.0</ele><time>2026-04-28T16:37:01.999Z</time></trkpt><trkpt lat="40.75281097495138" lon="17.485694090629263"><ele>326.0</ele><time>2026-04-28T16:37:03.999Z</time></trkpt><trkpt lat="40.752744929751465" lon="17.48574961598987"><ele>325.0</ele><time>2026-04-28T16:37:05.999Z</time></trkpt><trkpt lat="40.75266346157014" lon="17.485837464982904"><ele>324.0</ele><time>2026-04-28T16:37:07.999Z</time></trkpt><trkpt lat="40.752572771337526" lon="17.485921605293974"><ele>323.79999999999995</ele><time>2026-04-28T16:37:09.999Z</time></trkpt><trkpt lat="40.75251836801399" lon="17.485964364420983"><ele>323.59999999999997</ele><time>2026-04-28T16:37:10.999Z</time></trkpt><trkpt lat="40.75245234858938" lon="17.48600526375315"><ele>323.4</ele><time>2026-04-28T16:37:11.999Z</time></trkpt><trkpt lat="40.75234609327267" lon="17.486091642751035"><ele>323.2</ele><time>2026-04-28T16:37:13.999Z</time></trkpt><trkpt lat="40.752290697982644" lon="17.486200241843697"><ele>323.0</ele><time>2026-04-28T16:37:15.999Z</time></trkpt><trkpt lat="40.752224564208284" lon="17.486309317098222"><ele>324.0</ele><time>2026-04-28T16:37:17.999Z</time></trkpt><trkpt lat="40.752136199365005" lon="17.48640585942098"><ele>325.0</ele><time>2026-04-28T16:37:19.999Z</time></trkpt><trkpt lat="40.752048638250436" lon="17.486485391944584"><ele>326.0</ele><time>2026-04-28T16:37:21.999Z</time></trkpt><trkpt lat="40.751986172079" lon="17.48658907619103"><ele>327.0</ele><time>2026-04-28T16:37:23.998Z</time></trkpt><trkpt lat="40.75190119519494" lon="17.48671614258037"><ele>326.8333333333333</ele><time>2026-04-28T16:37:25.998Z</time></trkpt><trkpt lat="40.751859465697464" lon="17.486781906714363"><ele>326.6666666666667</ele><time>2026-04-28T16:37:26.998Z</time></trkpt><trkpt lat="40.751775556721526" lon="17.48688053400392"><ele>326.5</ele><time>2026-04-28T16:37:28.998Z</time></trkpt><trkpt lat="40.75170434347943" lon="17.486910481605726"><ele>326.33333333333337</ele><time>2026-04-28T16:37:30.998Z</time></trkpt><trkpt lat="40.751622954857105" lon="17.486950876487327"><ele>326.1666666666667</ele><time>2026-04-28T16:37:33.998Z</time></trkpt><trkpt lat="40.75158660291206" lon="17.48702619641972"><ele>326.0</ele><time>2026-04-28T16:37:35.998Z</time></trkpt><trkpt lat="40.75153094446509" lon="17.487120830892145"><ele>326.0</ele><time>2026-04-28T16:37:38.998Z</time></trkpt><trkpt lat="40.75150609693491" lon="17.48725998364187"><ele>326.0</ele><time>2026-04-28T16:37:41.998Z</time></trkpt><trkpt lat="40.75154263420846" lon="17.487338780151852"><ele>326.0</ele><time>2026-04-28T16:37:43.998Z</time></trkpt><trkpt lat="40.751513130547615" lon="17.48742184996548"><ele>326.0</ele><time>2026-04-28T16:38:36.999Z</time></trkpt><trkpt lat="40.751442112834376" lon="17.487465844311668"><ele>326.0</ele><time>2026-04-28T16:38:38.999Z</time></trkpt><trkpt lat="40.7513425707509" lon="17.487454102859413"><ele>326.0</ele><time>2026-04-28T16:38:40.999Z</time></trkpt><trkpt lat="40.75123924611774" lon="17.487536108267594"><ele>326.0</ele><time>2026-04-28T16:38:42.999Z</time></trkpt><trkpt lat="40.751158448748946" lon="17.48759547072391"><ele>326.0</ele><time>2026-04-28T16:38:44.999Z</time></trkpt><trkpt lat="40.75107084571902" lon="17.487657435418296"><ele>326.0</ele><time>2026-04-28T16:38:46.999Z</time></trkpt><trkpt lat="40.75097787951278" lon="17.487724598791623"><ele>326.0</ele><time>2026-04-28T16:38:48.999Z</time></trkpt><trkpt lat="40.75089489311988" lon="17.48779603915662"><ele>326.0</ele><time>2026-04-28T16:38:50.999Z</time></trkpt><trkpt lat="40.75084214329743" lon="17.487854665262173"><ele>326.0</ele><time>2026-04-28T16:38:52.999Z</time></trkpt><trkpt lat="40.7508416632366" lon="17.487978266487403"><ele>326.0</ele><time>2026-04-28T16:38:55.999Z</time></trkpt><trkpt lat="40.75092122250563" lon="17.48806641304458"><ele>326.0</ele><time>2026-04-28T16:38:57.999Z</time></trkpt><trkpt lat="40.75093918595721" lon="17.488180686507302"><ele>326.0</ele><time>2026-04-28T16:38:59.999Z</time></trkpt><trkpt lat="40.75089251050548" lon="17.4882436777275"><ele>326.0</ele><time>2026-04-28T16:39:01.999Z</time></trkpt><trkpt lat="40.750808630309486" lon="17.488314795446232"><ele>326.0</ele><time>2026-04-28T16:39:30.998Z</time></trkpt><trkpt lat="40.75072523152086" lon="17.488401607358302"><ele>326.0</ele><time>2026-04-28T16:39:32.998Z</time></trkpt><trkpt lat="40.75064774220291" lon="17.48848364198616"><ele>326.0</ele><time>2026-04-28T16:39:34.998Z</time></trkpt><trkpt lat="40.7505664139587" lon="17.488558383195258"><ele>326.0</ele><time>2026-04-28T16:39:36.998Z</time></trkpt><trkpt lat="40.75050701772382" lon="17.488632162355646"><ele>326.0</ele><time>2026-04-28T16:39:38.998Z</time></trkpt><trkpt lat="40.750421735896495" lon="17.488727737695335"><ele>325.4</ele><time>2026-04-28T16:39:40.998Z</time></trkpt><trkpt lat="40.75034038440215" lon="17.488800540297536"><ele>324.8</ele><time>2026-04-28T16:39:42.998Z</time></trkpt><trkpt lat="40.75027280386879" lon="17.48885012404209"><ele>324.2</ele><time>2026-04-28T16:39:44.998Z</time></trkpt><trkpt lat="40.75022957799137" lon="17.488911662475388"><ele>323.59999999999997</ele><time>2026-04-28T16:39:45.998Z</time></trkpt><trkpt lat="40.75015039779286" lon="17.489000873892987"><ele>323.0</ele><time>2026-04-28T16:39:47.998Z</time></trkpt><trkpt lat="40.75004679489403" lon="17.48910145893321"><ele>323.0</ele><time>2026-04-28T16:39:49.998Z</time></trkpt><trkpt lat="40.74999133559446" lon="17.489154998890854"><ele>323.0</ele><time>2026-04-28T16:39:51Z</time></trkpt><trkpt lat="40.749939320969254" lon="17.489214081685606"><ele>323.0</ele><time>2026-04-28T16:39:52Z</time></trkpt><trkpt lat="40.74983881415902" lon="17.48930472448441"><ele>323.0</ele><time>2026-04-28T16:39:54Z</time></trkpt><trkpt lat="40.74977232894875" lon="17.489399262022253"><ele>323.0</ele><time>2026-04-28T16:39:56Z</time></trkpt><trkpt lat="40.7496830309433" lon="17.489483398184966"><ele>323.0</ele><time>2026-04-28T16:39:58Z</time></trkpt><trkpt lat="40.749600157003066" lon="17.489584381452573"><ele>323.0</ele><time>2026-04-28T16:40:00Z</time></trkpt><trkpt lat="40.7495442047443" lon="17.48962955609924"><ele>323.0</ele><time>2026-04-28T16:40:01Z</time></trkpt><trkpt lat="40.74949019956065" lon="17.489684587238326"><ele>323.0</ele><time>2026-04-28T16:40:02Z</time></trkpt><trkpt lat="40.74943521153563" lon="17.489761875224037"><ele>323.0</ele><time>2026-04-28T16:40:03Z</time></trkpt><trkpt lat="40.749378950530115" lon="17.489821073999376"><ele>323.0</ele><time>2026-04-28T16:40:04Z</time></trkpt><trkpt lat="40.74932312427094" lon="17.489875638542838"><ele>322.79999999999995</ele><time>2026-04-28T16:40:05Z</time></trkpt><trkpt lat="40.74924144091417" lon="17.489953661419175"><ele>322.6</ele><time>2026-04-28T16:40:07Z</time></trkpt><trkpt lat="40.74916078584886" lon="17.4900464760324"><ele>322.4</ele><time>2026-04-28T16:40:09Z</time></trkpt><trkpt lat="40.74908956485775" lon="17.49011419619595"><ele>322.20000000000005</ele><time>2026-04-28T16:40:11Z</time></trkpt><trkpt lat="40.749028226630784" lon="17.490171974009225"><ele>322.0</ele><time>2026-04-28T16:40:13Z</time></trkpt><trkpt lat="40.74895765997924" lon="17.490250648041265"><ele>322.0</ele><time>2026-04-28T16:40:15Z</time></trkpt><trkpt lat="40.748892556104096" lon="17.49031137390817"><ele>322.0</ele><time>2026-04-28T16:40:17Z</time></trkpt><trkpt lat="40.748827386391994" lon="17.490393228546385"><ele>322.0</ele><time>2026-04-28T16:40:19Z</time></trkpt><trkpt lat="40.74875724188377" lon="17.49044310091639"><ele>322.0</ele><time>2026-04-28T16:40:21Z</time></trkpt><trkpt lat="40.74868367888504" lon="17.490523040972903"><ele>322.0</ele><time>2026-04-28T16:40:23Z</time></trkpt><trkpt lat="40.748621119588414" lon="17.490585760921466"><ele>322.0</ele><time>2026-04-28T16:40:25Z</time></trkpt><trkpt lat="40.74856379370244" lon="17.490647859342175"><ele>322.5</ele><time>2026-04-28T16:40:27Z</time></trkpt><trkpt lat="40.74851061945682" lon="17.490705626550128"><ele>323.0</ele><time>2026-04-28T16:40:29Z</time></trkpt><trkpt lat="40.74844868478002" lon="17.490779114121473"><ele>323.5</ele><time>2026-04-28T16:40:33Z</time></trkpt><trkpt lat="40.748380292715346" lon="17.490824589478937"><ele>324.0</ele><time>2026-04-28T16:40:35.999Z</time></trkpt><trkpt lat="40.748323799431304" lon="17.490897040631644"><ele>324.5</ele><time>2026-04-28T16:40:38.999Z</time></trkpt><trkpt lat="40.74826468867723" lon="17.490970317919242"><ele>325.0</ele><time>2026-04-28T16:40:40.999Z</time></trkpt><trkpt lat="40.7482125076367" lon="17.49101970407594"><ele>325.0</ele><time>2026-04-28T16:40:42.999Z</time></trkpt><trkpt lat="40.74816172913517" lon="17.491074772468917"><ele>325.0</ele><time>2026-04-28T16:40:44.999Z</time></trkpt><trkpt lat="40.748091668279606" lon="17.49115450334856"><ele>325.0</ele><time>2026-04-28T16:40:47.999Z</time></trkpt><trkpt lat="40.74803499623137" lon="17.491213935085444"><ele>325.0</ele><time>2026-04-28T16:40:49.999Z</time></trkpt><trkpt lat="40.74798170635591" lon="17.49127632092401"><ele>325.0</ele><time>2026-04-28T16:40:51.999Z</time></trkpt><trkpt lat="40.747923180882275" lon="17.491332113780363"><ele>325.0</ele><time>2026-04-28T16:40:53.999Z</time></trkpt><trkpt lat="40.747863286650094" lon="17.491389862518076"><ele>325.0</ele><time>2026-04-28T16:40:55.999Z</time></trkpt><trkpt lat="40.747800813466974" lon="17.491454436634207"><ele>325.0</ele><time>2026-04-28T16:40:57.999Z</time></trkpt><trkpt lat="40.74772841654656" lon="17.491526508249272"><ele>325.0</ele><time>2026-04-28T16:40:59.999Z</time></trkpt><trkpt lat="40.74765612925992" lon="17.491601716377083"><ele>325.0</ele><time>2026-04-28T16:41:01.999Z</time></trkpt><trkpt lat="40.747566666796644" lon="17.491679806122097"><ele>325.0</ele><time>2026-04-28T16:41:03.999Z</time></trkpt><trkpt lat="40.74750658794304" lon="17.491753565753307"><ele>325.0</ele><time>2026-04-28T16:41:05.999Z</time></trkpt><trkpt lat="40.74744021584143" lon="17.491829763337194"><ele>325.0</ele><time>2026-04-28T16:41:07.999Z</time></trkpt><trkpt lat="40.74737991799517" lon="17.491898503697804"><ele>325.0</ele><time>2026-04-28T16:41:09.999Z</time></trkpt><trkpt lat="40.747312416059565" lon="17.49196918171949"><ele>325.0</ele><time>2026-04-28T16:41:11.999Z</time></trkpt><trkpt lat="40.74724889037201" lon="17.49204077331117"><ele>325.0</ele><time>2026-04-28T16:41:13.999Z</time></trkpt><trkpt lat="40.7471820014425" lon="17.492120300815394"><ele>325.0</ele><time>2026-04-28T16:41:15.999Z</time></trkpt><trkpt lat="40.747113085299205" lon="17.492189530821527"><ele>325.0</ele><time>2026-04-28T16:41:17.999Z</time></trkpt><trkpt lat="40.74704326296218" lon="17.492274182331684"><ele>324.8</ele><time>2026-04-28T16:41:19.999Z</time></trkpt><trkpt lat="40.74697244768847" lon="17.492356390748572"><ele>324.6</ele><time>2026-04-28T16:41:21.999Z</time></trkpt><trkpt lat="40.74690020549772" lon="17.492434569418595"><ele>324.4</ele><time>2026-04-28T16:41:23.999Z</time></trkpt><trkpt lat="40.746831223871446" lon="17.492529810250556"><ele>324.2</ele><time>2026-04-28T16:41:25.999Z</time></trkpt><trkpt lat="40.74676820756987" lon="17.492631665362087"><ele>324.0</ele><time>2026-04-28T16:41:27.999Z</time></trkpt><trkpt lat="40.74669323078766" lon="17.492720591300106"><ele>324.0</ele><time>2026-04-28T16:41:29.999Z</time></trkpt><trkpt lat="40.74662590103661" lon="17.492827771755913"><ele>324.0</ele><time>2026-04-28T16:41:31.998Z</time></trkpt><trkpt lat="40.746566749954674" lon="17.49294019739342"><ele>324.0</ele><time>2026-04-28T16:41:33.998Z</time></trkpt><trkpt lat="40.746500794201715" lon="17.493055383589077"><ele>324.0</ele><time>2026-04-28T16:41:35.998Z</time></trkpt><trkpt lat="40.746427738663456" lon="17.49316498327268"><ele>324.0</ele><time>2026-04-28T16:41:37.998Z</time></trkpt><trkpt lat="40.74635260558198" lon="17.493300266936693"><ele>323.6666666666667</ele><time>2026-04-28T16:41:39.998Z</time></trkpt><trkpt lat="40.74631489800469" lon="17.493372646425495"><ele>323.3333333333333</ele><time>2026-04-28T16:41:40.998Z</time></trkpt><trkpt lat="40.746240010916395" lon="17.493505997315"><ele>323.0</ele><time>2026-04-28T16:41:42.998Z</time></trkpt><trkpt lat="40.746171611038655" lon="17.49364641146324"><ele>322.66666666666663</ele><time>2026-04-28T16:41:44.998Z</time></trkpt><trkpt lat="40.746132802926695" lon="17.49371204222724"><ele>322.3333333333333</ele><time>2026-04-28T16:41:45.998Z</time></trkpt><trkpt lat="40.74609744915786" lon="17.493782850922347"><ele>322.0</ele><time>2026-04-28T16:41:46.998Z</time></trkpt><trkpt lat="40.74603281713712" lon="17.49391923337017"><ele>321.57142857142856</ele><time>2026-04-28T16:41:48.998Z</time></trkpt><trkpt lat="40.74599380177643" lon="17.493984613462715"><ele>321.1428571428571</ele><time>2026-04-28T16:41:49.998Z</time></trkpt><trkpt lat="40.74595578802513" lon="17.49405273819432"><ele>320.7142857142857</ele><time>2026-04-28T16:41:50.998Z</time></trkpt><trkpt lat="40.74587973502614" lon="17.494175895517365"><ele>320.2857142857143</ele><time>2026-04-28T16:41:52.998Z</time></trkpt><trkpt lat="40.74583992683047" lon="17.494243986122065"><ele>319.85714285714283</ele><time>2026-04-28T16:41:53.998Z</time></trkpt><trkpt lat="40.745800031607104" lon="17.494315046430017"><ele>319.42857142857144</ele><time>2026-04-28T16:41:54.998Z</time></trkpt><trkpt lat="40.7457622008577" lon="17.494381754578136"><ele>319.0</ele><time>2026-04-28T16:41:55.998Z</time></trkpt><trkpt lat="40.74568672425158" lon="17.494511592410223"><ele>318.66666666666663</ele><time>2026-04-28T16:41:58Z</time></trkpt><trkpt lat="40.74564837379919" lon="17.494588381720284"><ele>318.3333333333333</ele><time>2026-04-28T16:41:59Z</time></trkpt><trkpt lat="40.74556111601513" lon="17.49470932924135"><ele>318.0</ele><time>2026-04-28T16:42:01Z</time></trkpt><trkpt lat="40.745487063052174" lon="17.494841754328096"><ele>317.6666666666667</ele><time>2026-04-28T16:42:03Z</time></trkpt><trkpt lat="40.745449668840465" lon="17.494908610968473"><ele>317.33333333333337</ele><time>2026-04-28T16:42:04Z</time></trkpt><trkpt lat="40.74541144420166" lon="17.494976944358463"><ele>317.0</ele><time>2026-04-28T16:42:05Z</time></trkpt><trkpt lat="40.74534160315482" lon="17.495103876508967"><ele>317.0</ele><time>2026-04-28T16:42:07Z</time></trkpt><trkpt lat="40.74527003346201" lon="17.4952297413921"><ele>317.0</ele><time>2026-04-28T16:42:09Z</time></trkpt><trkpt lat="40.745202056504645" lon="17.495357958613468"><ele>317.0</ele><time>2026-04-28T16:42:11Z</time></trkpt><trkpt lat="40.74517227607819" lon="17.495433609071505"><ele>317.0</ele><time>2026-04-28T16:42:12Z</time></trkpt><trkpt lat="40.74509803311228" lon="17.49556823173627"><ele>317.0</ele><time>2026-04-28T16:42:14Z</time></trkpt><trkpt lat="40.74505509668466" lon="17.495639182894042"><ele>316.2</ele><time>2026-04-28T16:42:15Z</time></trkpt><trkpt lat="40.74498014179696" lon="17.495751840808573"><ele>315.4</ele><time>2026-04-28T16:42:17Z</time></trkpt><trkpt lat="40.74490410994905" lon="17.495882796074355"><ele>314.6</ele><time>2026-04-28T16:42:19Z</time></trkpt><trkpt lat="40.744858182446464" lon="17.49595442443864"><ele>313.8</ele><time>2026-04-28T16:42:20Z</time></trkpt><trkpt lat="40.7448225965463" lon="17.496028154433503"><ele>313.0</ele><time>2026-04-28T16:42:21Z</time></trkpt><trkpt lat="40.74474591356052" lon="17.496146493292493"><ele>312.4</ele><time>2026-04-28T16:42:23Z</time></trkpt><trkpt lat="40.74467702437503" lon="17.496255982831332"><ele>311.8</ele><time>2026-04-28T16:42:25Z</time></trkpt><trkpt lat="40.74461591612816" lon="17.4963531056697"><ele>311.2</ele><time>2026-04-28T16:42:27Z</time></trkpt><trkpt lat="40.74454942461958" lon="17.496458306355123"><ele>310.6</ele><time>2026-04-28T16:42:29Z</time></trkpt><trkpt lat="40.74448550991139" lon="17.496583236785874"><ele>310.0</ele><time>2026-04-28T16:42:31Z</time></trkpt><trkpt lat="40.74443738185127" lon="17.496660357500005"><ele>310.0</ele><time>2026-04-28T16:42:33Z</time></trkpt><trkpt lat="40.74438613691192" lon="17.496710803465444"><ele>310.0</ele><time>2026-04-28T16:42:38Z</time></trkpt><trkpt lat="40.744435048534044" lon="17.49663516982445"><ele>310.0</ele><time>2026-04-28T16:42:41.999Z</time></trkpt><trkpt lat="40.74434562793768" lon="17.496517528217296"><ele>310.0</ele><time>2026-04-28T16:42:45.999Z</time></trkpt><trkpt lat="40.74425806193693" lon="17.496441091949084"><ele>310.0</ele><time>2026-04-28T16:42:47.999Z</time></trkpt><trkpt lat="40.744188982846175" lon="17.496338530243047"><ele>310.0</ele><time>2026-04-28T16:42:49.999Z</time></trkpt><trkpt lat="40.74413131893237" lon="17.49621686282271"><ele>310.0</ele><time>2026-04-28T16:42:51.999Z</time></trkpt><trkpt lat="40.74408063736212" lon="17.496111906333542"><ele>310.0</ele><time>2026-04-28T16:42:53.999Z</time></trkpt><trkpt lat="40.74408596082271" lon="17.496025937983738"><ele>310.0</ele><time>2026-04-28T16:42:55.999Z</time></trkpt><trkpt lat="40.74411370199009" lon="17.495923641141935"><ele>310.0</ele><time>2026-04-28T16:42:58.999Z</time></trkpt><trkpt lat="40.74415499660725" lon="17.495834665454044"><ele>310.0</ele><time>2026-04-28T16:43:00.999Z</time></trkpt><trkpt lat="40.74420885957388" lon="17.495740102289332"><ele>310.0</ele><time>2026-04-28T16:43:03.999Z</time></trkpt><trkpt lat="40.74416892162186" lon="17.495611502830855"><ele>310.0</ele><time>2026-04-28T16:43:05.999Z</time></trkpt><trkpt lat="40.74407506155899" lon="17.49558887353537"><ele>310.0</ele><time>2026-04-28T16:43:07.999Z</time></trkpt><trkpt lat="40.74396567254371" lon="17.495586604605446"><ele>310.0</ele><time>2026-04-28T16:43:09.999Z</time></trkpt><trkpt lat="40.74387378909243" lon="17.49548409505541"><ele>310.0</ele><time>2026-04-28T16:43:11.999Z</time></trkpt><trkpt lat="40.74381618805332" lon="17.49542139784267"><ele>309.57142857142856</ele><time>2026-04-28T16:43:12.999Z</time></trkpt><trkpt lat="40.743758570278786" lon="17.495371159804936"><ele>309.1428571428571</ele><time>2026-04-28T16:43:13.999Z</time></trkpt><trkpt lat="40.743687421458255" lon="17.495368451511602"><ele>308.71428571428567</ele><time>2026-04-28T16:43:14.999Z</time></trkpt><trkpt lat="40.743614492083786" lon="17.495339925624616"><ele>308.2857142857143</ele><time>2026-04-28T16:43:15.999Z</time></trkpt><trkpt lat="40.7435470663352" lon="17.495319794483567"><ele>307.85714285714283</ele><time>2026-04-28T16:43:16.999Z</time></trkpt><trkpt lat="40.74348861545797" lon="17.49524866993348"><ele>307.4285714285714</ele><time>2026-04-28T16:43:17.999Z</time></trkpt><trkpt lat="40.7434394314601" lon="17.495184843909605"><ele>307.0</ele><time>2026-04-28T16:43:18.999Z</time></trkpt><trkpt lat="40.74338068621799" lon="17.49509988209536"><ele>305.5</ele><time>2026-04-28T16:43:19.999Z</time></trkpt><trkpt lat="40.743331821416284" lon="17.495033487121546"><ele>304.0</ele><time>2026-04-28T16:43:20.999Z</time></trkpt><trkpt lat="40.743292450841466" lon="17.494892503446565"><ele>302.5</ele><time>2026-04-28T16:43:22.999Z</time></trkpt><trkpt lat="40.743351726902155" lon="17.494769671745704"><ele>301.0</ele><time>2026-04-28T16:43:24.999Z</time></trkpt><trkpt lat="40.743349410408946" lon="17.49468521972706"><ele>299.5</ele><time>2026-04-28T16:43:26.999Z</time></trkpt><trkpt lat="40.74327649373028" lon="17.494689324347142"><ele>298.0</ele><time>2026-04-28T16:43:28.999Z</time></trkpt><trkpt lat="40.74322319544577" lon="17.49478640504066"><ele>298.0</ele><time>2026-04-28T16:43:30.999Z</time></trkpt><trkpt lat="40.74315449066595" lon="17.49475619096137"><ele>298.0</ele><time>2026-04-28T16:43:32.999Z</time></trkpt><trkpt lat="40.74308609485589" lon="17.494695925074193"><ele>298.0</ele><time>2026-04-28T16:43:34.999Z</time></trkpt><trkpt lat="40.74299569405577" lon="17.494674363432242"><ele>298.0</ele><time>2026-04-28T16:43:37.998Z</time></trkpt><trkpt lat="40.74290513717924" lon="17.49464761253867"><ele>298.0</ele><time>2026-04-28T16:43:39.998Z</time></trkpt><trkpt lat="40.74284556397996" lon="17.494543564026376"><ele>298.0</ele><time>2026-04-28T16:43:41.998Z</time></trkpt><trkpt lat="40.74279649490113" lon="17.494464084173856"><ele>297.2</ele><time>2026-04-28T16:43:44.998Z</time></trkpt><trkpt lat="40.74281391708386" lon="17.49438363648635"><ele>296.4</ele><time>2026-04-28T16:43:46.998Z</time></trkpt><trkpt lat="40.7428898507439" lon="17.49428167645696"><ele>295.59999999999997</ele><time>2026-04-28T16:43:49.998Z</time></trkpt><trkpt lat="40.74294989102157" lon="17.494158772535986"><ele>294.8</ele><time>2026-04-28T16:43:51.998Z</time></trkpt><trkpt lat="40.74304712551136" lon="17.4940871439606"><ele>294.0</ele><time>2026-04-28T16:43:53.998Z</time></trkpt><trkpt lat="40.74314081528865" lon="17.494072554722866"><ele>294.0</ele><time>2026-04-28T16:43:55.998Z</time></trkpt><trkpt lat="40.743225441410914" lon="17.494042301512703"><ele>294.0</ele><time>2026-04-28T16:43:57.998Z</time></trkpt><trkpt lat="40.74329699209198" lon="17.4939699508398"><ele>294.0</ele><time>2026-04-28T16:43:59.998Z</time></trkpt><trkpt lat="40.74336895873847" lon="17.49389183523176"><ele>294.0</ele><time>2026-04-28T16:44:01.998Z</time></trkpt><trkpt lat="40.74342480790964" lon="17.493798389632346"><ele>294.0</ele><time>2026-04-28T16:44:04Z</time></trkpt><trkpt lat="40.74343086255978" lon="17.493692205396197"><ele>294.0</ele><time>2026-04-28T16:44:06Z</time></trkpt><trkpt lat="40.74343868553396" lon="17.493582251484092"><ele>294.1666666666667</ele><time>2026-04-28T16:44:08Z</time></trkpt><trkpt lat="40.74340850259966" lon="17.493459403488078"><ele>294.3333333333333</ele><time>2026-04-28T16:44:10Z</time></trkpt><trkpt lat="40.74335753413088" lon="17.493376398018544"><ele>294.5</ele><time>2026-04-28T16:44:12Z</time></trkpt><trkpt lat="40.74331364413264" lon="17.493282075849482"><ele>294.66666666666663</ele><time>2026-04-28T16:44:14Z</time></trkpt><trkpt lat="40.74322831884048" lon="17.493246163430413"><ele>294.8333333333333</ele><time>2026-04-28T16:44:16Z</time></trkpt><trkpt lat="40.7431396325562" lon="17.49324163159009"><ele>295.0</ele><time>2026-04-28T16:44:18Z</time></trkpt><trkpt lat="40.74305998396587" lon="17.493191787799567"><ele>295.0</ele><time>2026-04-28T16:44:20Z</time></trkpt><trkpt lat="40.743038279706674" lon="17.49310982667301"><ele>295.0</ele><time>2026-04-28T16:44:21Z</time></trkpt><trkpt lat="40.743016762727045" lon="17.493017908390435"><ele>295.0</ele><time>2026-04-28T16:44:22Z</time></trkpt><trkpt lat="40.74299834243053" lon="17.492930804789715"><ele>295.0</ele><time>2026-04-28T16:44:23Z</time></trkpt><trkpt lat="40.742973974178604" lon="17.492812554036785"><ele>295.0</ele><time>2026-04-28T16:44:25Z</time></trkpt><trkpt lat="40.74292800558078" lon="17.492701714312307"><ele>295.0</ele><time>2026-04-28T16:44:27Z</time></trkpt><trkpt lat="40.742899319926515" lon="17.492599443837577"><ele>295.0</ele><time>2026-04-28T16:44:29Z</time></trkpt><trkpt lat="40.74283062439038" lon="17.492555873367014"><ele>295.0</ele><time>2026-04-28T16:44:31Z</time></trkpt><trkpt lat="40.74273356074103" lon="17.492525865525348"><ele>295.0</ele><time>2026-04-28T16:44:33Z</time></trkpt><trkpt lat="40.742641826330505" lon="17.49254432350205"><ele>295.0</ele><time>2026-04-28T16:44:35Z</time></trkpt><trkpt lat="40.7425494125876" lon="17.4925621085967"><ele>295.0</ele><time>2026-04-28T16:44:37Z</time></trkpt><trkpt lat="40.74246833071156" lon="17.492549268559824"><ele>295.0</ele><time>2026-04-28T16:44:39Z</time></trkpt><trkpt lat="40.7423892847348" lon="17.49248961813549"><ele>295.2</ele><time>2026-04-28T16:44:41Z</time></trkpt><trkpt lat="40.742299952907366" lon="17.4924383445803"><ele>295.4</ele><time>2026-04-28T16:44:43Z</time></trkpt><trkpt lat="40.742200776889725" lon="17.49246456311652"><ele>295.6</ele><time>2026-04-28T16:44:45Z</time></trkpt><trkpt lat="40.74211114601247" lon="17.492434525479748"><ele>295.8</ele><time>2026-04-28T16:44:46.999Z</time></trkpt><trkpt lat="40.74199346603521" lon="17.49239240863782"><ele>296.0</ele><time>2026-04-28T16:44:48.999Z</time></trkpt><trkpt lat="40.741887932646485" lon="17.492360299910217"><ele>295.0</ele><time>2026-04-28T16:44:50.999Z</time></trkpt><trkpt lat="40.74176891512592" lon="17.492305664175024"><ele>294.0</ele><time>2026-04-28T16:44:52.999Z</time></trkpt><trkpt lat="40.74167531422255" lon="17.492300690790273"><ele>293.0</ele><time>2026-04-28T16:44:54.999Z</time></trkpt><trkpt lat="40.74160631163641" lon="17.49240608314393"><ele>292.0</ele><time>2026-04-28T16:44:56.999Z</time></trkpt><trkpt lat="40.74159190577938" lon="17.49256751257872"><ele>291.0</ele><time>2026-04-28T16:44:58.999Z</time></trkpt><trkpt lat="40.74154792799316" lon="17.49271815557564"><ele>291.0</ele><time>2026-04-28T16:45:00.999Z</time></trkpt><trkpt lat="40.74150477066846" lon="17.492860963310473"><ele>291.0</ele><time>2026-04-28T16:45:02.999Z</time></trkpt><trkpt lat="40.74143307925911" lon="17.492912124895604"><ele>291.0</ele><time>2026-04-28T16:45:04.999Z</time></trkpt><trkpt lat="40.74131143559165" lon="17.492856190070988"><ele>291.0</ele><time>2026-04-28T16:45:06.999Z</time></trkpt><trkpt lat="40.7412454256409" lon="17.49283318812686"><ele>291.0</ele><time>2026-04-28T16:45:07.999Z</time></trkpt><trkpt lat="40.7411418359849" lon="17.492792536564078"><ele>291.0</ele><time>2026-04-28T16:45:09.999Z</time></trkpt><trkpt lat="40.74105671400049" lon="17.492746897662137"><ele>291.0</ele><time>2026-04-28T16:45:11.999Z</time></trkpt><trkpt lat="40.740979417529935" lon="17.49274669597792"><ele>291.0</ele><time>2026-04-28T16:45:13.999Z</time></trkpt><trkpt lat="40.74090067988356" lon="17.49272334941755"><ele>291.0</ele><time>2026-04-28T16:45:15.999Z</time></trkpt><trkpt lat="40.74083578898726" lon="17.492693614293586"><ele>291.0</ele><time>2026-04-28T16:45:16.999Z</time></trkpt><trkpt lat="40.7407245570571" lon="17.49267322831604"><ele>291.0</ele><time>2026-04-28T16:45:18.999Z</time></trkpt><trkpt lat="40.74066236210309" lon="17.492659116754513"><ele>289.0</ele><time>2026-04-28T16:45:19.999Z</time></trkpt><trkpt lat="40.740571526521975" lon="17.49262729050081"><ele>287.0</ele><time>2026-04-28T16:45:21.999Z</time></trkpt><trkpt lat="40.74045957446201" lon="17.49261265413324"><ele>285.0</ele><time>2026-04-28T16:45:23.999Z</time></trkpt><trkpt lat="40.74034897724363" lon="17.492566548737198"><ele>283.0</ele><time>2026-04-28T16:45:25.999Z</time></trkpt><trkpt lat="40.740280761958985" lon="17.492592070068422"><ele>281.0</ele><time>2026-04-28T16:45:29.999Z</time></trkpt><trkpt lat="40.74032243152264" lon="17.492704680885502"><ele>281.0</ele><time>2026-04-28T16:47:14.999Z</time></trkpt><trkpt lat="40.74036679452364" lon="17.4928094085625"><ele>281.0</ele><time>2026-04-28T16:47:17.999Z</time></trkpt><trkpt lat="40.74041879931315" lon="17.49289704527639"><ele>281.0</ele><time>2026-04-28T16:47:20.999Z</time></trkpt><trkpt lat="40.74045352944494" lon="17.492974255234433"><ele>281.0</ele><time>2026-04-28T16:47:22.999Z</time></trkpt><trkpt lat="40.740495333536614" lon="17.493075918852487"><ele>281.0</ele><time>2026-04-28T16:47:25.999Z</time></trkpt><trkpt lat="40.74052742217241" lon="17.493155552937"><ele>281.0</ele><time>2026-04-28T16:47:27.999Z</time></trkpt><trkpt lat="40.74056184205148" lon="17.493228846082623"><ele>280.5714285714286</ele><time>2026-04-28T16:47:29.999Z</time></trkpt><trkpt lat="40.74058713656176" lon="17.493339262875935"><ele>280.14285714285717</ele><time>2026-04-28T16:47:31.999Z</time></trkpt><trkpt lat="40.74060332084938" lon="17.493436506739503"><ele>279.7142857142857</ele><time>2026-04-28T16:47:33.999Z</time></trkpt><trkpt lat="40.74060036441782" lon="17.493528384877536"><ele>279.28571428571433</ele><time>2026-04-28T16:47:35.999Z</time></trkpt><trkpt lat="40.74060224305027" lon="17.49362423395794"><ele>278.8571428571429</ele><time>2026-04-28T16:47:37.999Z</time></trkpt><trkpt lat="40.74059646530466" lon="17.493723839180973"><ele>278.42857142857144</ele><time>2026-04-28T16:47:39.999Z</time></trkpt><trkpt lat="40.74059343878927" lon="17.493813616734613"><ele>278.0</ele><time>2026-04-28T16:47:41.999Z</time></trkpt><trkpt lat="40.740590568426605" lon="17.493923455234857"><ele>278.0</ele><time>2026-04-28T16:47:43.999Z</time></trkpt><trkpt lat="40.74059167464358" lon="17.494011991842164"><ele>278.0</ele><time>2026-04-28T16:47:45.999Z</time></trkpt><trkpt lat="40.74058365852763" lon="17.494112161476366"><ele>278.0</ele><time>2026-04-28T16:47:47.999Z</time></trkpt><trkpt lat="40.74058963461463" lon="17.49419991493549"><ele>278.0</ele><time>2026-04-28T16:47:49.998Z</time></trkpt><trkpt lat="40.740591322768374" lon="17.49428660446845"><ele>278.0</ele><time>2026-04-28T16:47:51.998Z</time></trkpt><trkpt lat="40.74058460737557" lon="17.49440734072799"><ele>278.0</ele><time>2026-04-28T16:47:54.998Z</time></trkpt><trkpt lat="40.74058616844448" lon="17.49449391286899"><ele>278.0</ele><time>2026-04-28T16:47:56.998Z</time></trkpt><trkpt lat="40.74057349258802" lon="17.494580855471824"><ele>278.2857142857143</ele><time>2026-04-28T16:47:58.998Z</time></trkpt><trkpt lat="40.74055485068114" lon="17.49468214888829"><ele>278.57142857142856</ele><time>2026-04-28T16:48:00.998Z</time></trkpt><trkpt lat="40.74052548726159" lon="17.49475911796839"><ele>278.8571428571429</ele><time>2026-04-28T16:48:02.998Z</time></trkpt><trkpt lat="40.74051136807303" lon="17.494842781778548"><ele>279.1428571428571</ele><time>2026-04-28T16:48:04.998Z</time></trkpt><trkpt lat="40.740484053900325" lon="17.49495333949153"><ele>279.42857142857144</ele><time>2026-04-28T16:48:07.998Z</time></trkpt><trkpt lat="40.74047213421762" lon="17.49504803554619"><ele>279.7142857142857</ele><time>2026-04-28T16:48:09.998Z</time></trkpt><trkpt lat="40.740485321137974" lon="17.495135224371218"><ele>280.0</ele><time>2026-04-28T16:48:11.998Z</time></trkpt><trkpt lat="40.74049505726358" lon="17.495262937404398"><ele>280.0</ele><time>2026-04-28T16:48:15Z</time></trkpt><trkpt lat="40.74050550437452" lon="17.49538848354569"><ele>280.0</ele><time>2026-04-28T16:48:18Z</time></trkpt><trkpt lat="40.74050943849602" lon="17.495507577416532"><ele>280.0</ele><time>2026-04-28T16:48:21Z</time></trkpt><trkpt lat="40.74051325954709" lon="17.49559074173211"><ele>280.0</ele><time>2026-04-28T16:48:23Z</time></trkpt><trkpt lat="40.74051288039639" lon="17.495681472806726"><ele>280.0</ele><time>2026-04-28T16:48:25Z</time></trkpt><trkpt lat="40.740514890648136" lon="17.49578176064908"><ele>280.0</ele><time>2026-04-28T16:48:27Z</time></trkpt><trkpt lat="40.740515041881935" lon="17.495881467249284"><ele>280.16666666666663</ele><time>2026-04-28T16:48:29Z</time></trkpt><trkpt lat="40.74052236524221" lon="17.495987099078242"><ele>280.3333333333333</ele><time>2026-04-28T16:48:31Z</time></trkpt><trkpt lat="40.740520959670846" lon="17.496079931216638"><ele>280.5</ele><time>2026-04-28T16:48:33Z</time></trkpt><trkpt lat="40.74053777114428" lon="17.496195332046476"><ele>280.6666666666667</ele><time>2026-04-28T16:48:35Z</time></trkpt><trkpt lat="40.74055240560142" lon="17.49629746052164"><ele>280.83333333333337</ele><time>2026-04-28T16:48:37Z</time></trkpt><trkpt lat="40.740571155274864" lon="17.496415051213763"><ele>281.0</ele><time>2026-04-28T16:48:39Z</time></trkpt><trkpt lat="40.74058835383774" lon="17.496533955991296"><ele>281.0</ele><time>2026-04-28T16:48:41Z</time></trkpt><trkpt lat="40.740601382827826" lon="17.496647551280915"><ele>281.0</ele><time>2026-04-28T16:48:43Z</time></trkpt><trkpt lat="40.740615546673894" lon="17.496753258645004"><ele>281.0</ele><time>2026-04-28T16:48:45Z</time></trkpt><trkpt lat="40.740617456278336" lon="17.49687750742487"><ele>281.0</ele><time>2026-04-28T16:48:47Z</time></trkpt><trkpt lat="40.740616248734675" lon="17.497000797061773"><ele>281.0</ele><time>2026-04-28T16:48:49Z</time></trkpt><trkpt lat="40.74061084906393" lon="17.497120921739306"><ele>281.0</ele><time>2026-04-28T16:48:51Z</time></trkpt><trkpt lat="40.74060422685214" lon="17.497235530451906"><ele>281.0</ele><time>2026-04-28T16:48:52.999Z</time></trkpt><trkpt lat="40.74060038968328" lon="17.497333722226873"><ele>281.0</ele><time>2026-04-28T16:48:54.999Z</time></trkpt><trkpt lat="40.7405983741387" lon="17.497441330710043"><ele>281.0</ele><time>2026-04-28T16:48:56.999Z</time></trkpt><trkpt lat="40.7405884787135" lon="17.497547347961262"><ele>281.0</ele><time>2026-04-28T16:48:58.999Z</time></trkpt><trkpt lat="40.740573311921786" lon="17.49765516500076"><ele>281.0</ele><time>2026-04-28T16:49:00.999Z</time></trkpt><trkpt lat="40.74056005858339" lon="17.497756615143206"><ele>281.0</ele><time>2026-04-28T16:49:02.999Z</time></trkpt><trkpt lat="40.74054393119956" lon="17.497872952729097"><ele>280.6666666666667</ele><time>2026-04-28T16:49:04.999Z</time></trkpt><trkpt lat="40.7405246900107" lon="17.497992255110127"><ele>280.33333333333337</ele><time>2026-04-28T16:49:06.999Z</time></trkpt><trkpt lat="40.74050858633387" lon="17.498099895872738"><ele>280.0</ele><time>2026-04-28T16:49:08.999Z</time></trkpt><trkpt lat="40.740493933721304" lon="17.498220962232125"><ele>279.6666666666667</ele><time>2026-04-28T16:49:10.999Z</time></trkpt><trkpt lat="40.74048619551852" lon="17.498315503271098"><ele>279.3333333333333</ele><time>2026-04-28T16:49:11.999Z</time></trkpt><trkpt lat="40.74046661511545" lon="17.49841034032879"><ele>279.0</ele><time>2026-04-28T16:49:13.999Z</time></trkpt><trkpt lat="40.74044542246116" lon="17.498544732232233"><ele>278.99999999999994</ele><time>2026-04-28T16:49:15.999Z</time></trkpt><trkpt lat="40.740426391834326" lon="17.49869041690418"><ele>279.0</ele><time>2026-04-28T16:49:17.999Z</time></trkpt><trkpt lat="40.740415549990395" lon="17.498772662318437"><ele>279.0</ele><time>2026-04-28T16:49:18.999Z</time></trkpt><trkpt lat="40.74040883815723" lon="17.49885912926788"><ele>279.0</ele><time>2026-04-28T16:49:19.999Z</time></trkpt><trkpt lat="40.74040792517987" lon="17.498942963483692"><ele>279.0</ele><time>2026-04-28T16:49:20.999Z</time></trkpt><trkpt lat="40.740404226458644" lon="17.499029920719554"><ele>278.99999999999994</ele><time>2026-04-28T16:49:21.999Z</time></trkpt><trkpt lat="40.740402605722466" lon="17.499118681703663"><ele>279.0</ele><time>2026-04-28T16:49:22.999Z</time></trkpt><trkpt lat="40.74040289365556" lon="17.499207575734278"><ele>278.4</ele><time>2026-04-28T16:49:23.999Z</time></trkpt><trkpt lat="40.740396028258466" lon="17.499361881565587"><ele>277.79999999999995</ele><time>2026-04-28T16:49:25.999Z</time></trkpt><trkpt lat="40.74038556761901" lon="17.499499120473942"><ele>277.20000000000005</ele><time>2026-04-28T16:49:27.999Z</time></trkpt><trkpt lat="40.74038103159922" lon="17.499638472326627"><ele>276.6</ele><time>2026-04-28T16:49:29.999Z</time></trkpt><trkpt lat="40.74036996354272" lon="17.49975870103382"><ele>276.0</ele><time>2026-04-28T16:49:31.999Z</time></trkpt><trkpt lat="40.740362652738234" lon="17.49985491375161"><ele>275.6</ele><time>2026-04-28T16:49:33.999Z</time></trkpt><trkpt lat="40.74035581652258" lon="17.499969323215915"><ele>275.20000000000005</ele><time>2026-04-28T16:49:35.999Z</time></trkpt><trkpt lat="40.74034326044543" lon="17.500085064421757"><ele>274.79999999999995</ele><time>2026-04-28T16:49:37.999Z</time></trkpt><trkpt lat="40.74033539338996" lon="17.500207286969296"><ele>274.4</ele><time>2026-04-28T16:49:39.999Z</time></trkpt><trkpt lat="40.74032544620956" lon="17.500333614307987"><ele>274.0</ele><time>2026-04-28T16:49:41.999Z</time></trkpt><trkpt lat="40.74031382607202" lon="17.500455789737664"><ele>274.8</ele><time>2026-04-28T16:49:43.999Z</time></trkpt><trkpt lat="40.74030591998818" lon="17.500566521311427"><ele>275.59999999999997</ele><time>2026-04-28T16:49:45.999Z</time></trkpt><trkpt lat="40.74030066254845" lon="17.500674055979992"><ele>276.4</ele><time>2026-04-28T16:49:47.999Z</time></trkpt><trkpt lat="40.74029808212324" lon="17.500824037056805"><ele>277.2</ele><time>2026-04-28T16:49:49.999Z</time></trkpt><trkpt lat="40.74029238211386" lon="17.500942586921923"><ele>278.0</ele><time>2026-04-28T16:49:51.999Z</time></trkpt><trkpt lat="40.74028239746988" lon="17.501083714966637"><ele>278.0</ele><time>2026-04-28T16:49:53.999Z</time></trkpt><trkpt lat="40.74028016529052" lon="17.5012266354815"><ele>278.0</ele><time>2026-04-28T16:49:55.998Z</time></trkpt><trkpt lat="40.74027308703609" lon="17.501346095316485"><ele>278.0</ele><time>2026-04-28T16:49:57.998Z</time></trkpt><trkpt lat="40.74025354032564" lon="17.501470743990588"><ele>278.0</ele><time>2026-04-28T16:49:59.998Z</time></trkpt><trkpt lat="40.740197813232" lon="17.501596599176995"><ele>278.0</ele><time>2026-04-28T16:50:01.998Z</time></trkpt><trkpt lat="40.740144554832376" lon="17.501687012566084"><ele>277.33333333333337</ele><time>2026-04-28T16:50:03.998Z</time></trkpt><trkpt lat="40.74008645828251" lon="17.50178035597967"><ele>276.6666666666667</ele><time>2026-04-28T16:50:05.998Z</time></trkpt><trkpt lat="40.74002840035303" lon="17.501873210853923"><ele>276.0</ele><time>2026-04-28T16:50:07.998Z</time></trkpt><trkpt lat="40.73998265221072" lon="17.501966232898887"><ele>275.3333333333333</ele><time>2026-04-28T16:50:09.998Z</time></trkpt><trkpt lat="40.73993870897323" lon="17.502051093455446"><ele>274.66666666666663</ele><time>2026-04-28T16:50:11.998Z</time></trkpt><trkpt lat="40.739894108851104" lon="17.50214812615979"><ele>274.0</ele><time>2026-04-28T16:50:13.998Z</time></trkpt><trkpt lat="40.739853785911386" lon="17.50224166091696"><ele>275.66666666666663</ele><time>2026-04-28T16:50:15.998Z</time></trkpt><trkpt lat="40.73981909693133" lon="17.502345542144397"><ele>277.3333333333333</ele><time>2026-04-28T16:50:17.998Z</time></trkpt><trkpt lat="40.739792837469906" lon="17.502435708143384"><ele>279.0</ele><time>2026-04-28T16:50:19.998Z</time></trkpt><trkpt lat="40.739788965403605" lon="17.502530111195124"><ele>280.6666666666667</ele><time>2026-04-28T16:50:22Z</time></trkpt><trkpt lat="40.739787017758765" lon="17.502631335099668"><ele>282.33333333333337</ele><time>2026-04-28T16:50:24Z</time></trkpt><trkpt lat="40.739770807617695" lon="17.502755224871752"><ele>284.0</ele><time>2026-04-28T16:50:26Z</time></trkpt><trkpt lat="40.739769237251444" lon="17.502846387172625"><ele>285.0</ele><time>2026-04-28T16:50:28Z</time></trkpt><trkpt lat="40.73977353216332" lon="17.502945270570343"><ele>286.0</ele><time>2026-04-28T16:50:30Z</time></trkpt><trkpt lat="40.73976721798937" lon="17.503052677491365"><ele>287.0</ele><time>2026-04-28T16:50:32Z</time></trkpt><trkpt lat="40.73977081662891" lon="17.503150942601142"><ele>288.0</ele><time>2026-04-28T16:50:34Z</time></trkpt><trkpt lat="40.73977322726383" lon="17.50324553599547"><ele>289.0</ele><time>2026-04-28T16:50:36Z</time></trkpt><trkpt lat="40.73976404430163" lon="17.50333708911458"><ele>290.0</ele><time>2026-04-28T16:50:38Z</time></trkpt><trkpt lat="40.73976409251139" lon="17.503434235527976"><ele>291.0</ele><time>2026-04-28T16:50:40Z</time></trkpt><trkpt lat="40.73977171637419" lon="17.50352440960265"><ele>291.0</ele><time>2026-04-28T16:50:42Z</time></trkpt><trkpt lat="40.73975856926486" lon="17.50361784963566"><ele>291.0</ele><time>2026-04-28T16:50:44Z</time></trkpt><trkpt lat="40.73976012804684" lon="17.503705192456614"><ele>291.0</ele><time>2026-04-28T16:50:46Z</time></trkpt><trkpt lat="40.73975193991634" lon="17.50379985723646"><ele>291.0</ele><time>2026-04-28T16:50:48Z</time></trkpt><trkpt lat="40.739754981328915" lon="17.503900977483724"><ele>291.0</ele><time>2026-04-28T16:50:50Z</time></trkpt><trkpt lat="40.73977483479951" lon="17.50400473839333"><ele>291.0</ele><time>2026-04-28T16:50:52Z</time></trkpt><trkpt lat="40.73982839041093" lon="17.504091018358245"><ele>291.1666666666667</ele><time>2026-04-28T16:50:54Z</time></trkpt><trkpt lat="40.739869449402306" lon="17.50417726074038"><ele>291.3333333333333</ele><time>2026-04-28T16:50:56Z</time></trkpt><trkpt lat="40.739879530589086" lon="17.504280537609404"><ele>291.5</ele><time>2026-04-28T16:50:58Z</time></trkpt><trkpt lat="40.73985990205773" lon="17.504394215641785"><ele>291.66666666666663</ele><time>2026-04-28T16:51:00Z</time></trkpt><trkpt lat="40.739854200970335" lon="17.504530873826827"><ele>291.8333333333333</ele><time>2026-04-28T16:51:02Z</time></trkpt><trkpt lat="40.739848501560935" lon="17.504624537252734"><ele>292.0</ele><time>2026-04-28T16:51:02.999Z</time></trkpt><trkpt lat="40.73985829277514" lon="17.504793343947696"><ele>292.0</ele><time>2026-04-28T16:51:04.999Z</time></trkpt><trkpt lat="40.73984000324214" lon="17.504959689706304"><ele>292.0</ele><time>2026-04-28T16:51:06.999Z</time></trkpt><trkpt lat="40.73982499519293" lon="17.505056303787935"><ele>292.0</ele><time>2026-04-28T16:51:07.999Z</time></trkpt><trkpt lat="40.73979759659847" lon="17.50521530387728"><ele>292.0</ele><time>2026-04-28T16:51:09.999Z</time></trkpt><trkpt lat="40.73978198530037" lon="17.505302136445355"><ele>292.0</ele><time>2026-04-28T16:51:10.999Z</time></trkpt><trkpt lat="40.73975461879267" lon="17.50548769381453"><ele>291.8333333333333</ele><time>2026-04-28T16:51:12.999Z</time></trkpt><trkpt lat="40.73973104896649" lon="17.505678811997626"><ele>291.66666666666663</ele><time>2026-04-28T16:51:14.999Z</time></trkpt><trkpt lat="40.73972407085699" lon="17.505767897259073"><ele>291.5</ele><time>2026-04-28T16:51:15.999Z</time></trkpt><trkpt lat="40.73972395970155" lon="17.50586659322384"><ele>291.3333333333333</ele><time>2026-04-28T16:51:16.999Z</time></trkpt><trkpt lat="40.7397231883978" lon="17.505967021100147"><ele>291.1666666666667</ele><time>2026-04-28T16:51:17.999Z</time></trkpt><trkpt lat="40.73972474099461" lon="17.50606327311539"><ele>291.0</ele><time>2026-04-28T16:51:18.999Z</time></trkpt><trkpt lat="40.739722974723094" lon="17.506161187820922"><ele>289.8333333333333</ele><time>2026-04-28T16:51:19.999Z</time></trkpt><trkpt lat="40.739719028296825" lon="17.50626019624597"><ele>288.6666666666667</ele><time>2026-04-28T16:51:20.999Z</time></trkpt><trkpt lat="40.73971874832217" lon="17.506363164915456"><ele>287.5</ele><time>2026-04-28T16:51:21.999Z</time></trkpt><trkpt lat="40.73971654326442" lon="17.506468960547924"><ele>286.33333333333337</ele><time>2026-04-28T16:51:22.999Z</time></trkpt><trkpt lat="40.73971748221672" lon="17.506570833196506"><ele>285.1666666666667</ele><time>2026-04-28T16:51:23.999Z</time></trkpt><trkpt lat="40.739715327111455" lon="17.506681374907895"><ele>284.0</ele><time>2026-04-28T16:51:24.999Z</time></trkpt><trkpt lat="40.73971287089886" lon="17.50678753952329"><ele>284.0</ele><time>2026-04-28T16:51:25.999Z</time></trkpt><trkpt lat="40.73970861436607" lon="17.50689952447942"><ele>284.0</ele><time>2026-04-28T16:51:26.999Z</time></trkpt><trkpt lat="40.739708292149956" lon="17.507007097051545"><ele>284.0</ele><time>2026-04-28T16:51:27.999Z</time></trkpt><trkpt lat="40.73970945426287" lon="17.507118632338603"><ele>284.0</ele><time>2026-04-28T16:51:28.999Z</time></trkpt><trkpt lat="40.73970787246022" lon="17.507233965377058"><ele>284.0</ele><time>2026-04-28T16:51:29.999Z</time></trkpt><trkpt lat="40.73969979026949" lon="17.50734644098819"><ele>284.0</ele><time>2026-04-28T16:51:30.999Z</time></trkpt><trkpt lat="40.73969265604514" lon="17.507457396565254"><ele>282.2</ele><time>2026-04-28T16:51:31.999Z</time></trkpt><trkpt lat="40.73968154005243" lon="17.507581123090635"><ele>280.4</ele><time>2026-04-28T16:51:32.999Z</time></trkpt><trkpt lat="40.73966799419461" lon="17.50769259877901"><ele>278.6</ele><time>2026-04-28T16:51:33.999Z</time></trkpt><trkpt lat="40.73963674426789" lon="17.507803916528818"><ele>276.8</ele><time>2026-04-28T16:51:34.999Z</time></trkpt><trkpt lat="40.7396321346174" lon="17.507935789478427"><ele>275.0</ele><time>2026-04-28T16:51:35.999Z</time></trkpt><trkpt lat="40.73961016487088" lon="17.50805128016306"><ele>272.4</ele><time>2026-04-28T16:51:36.999Z</time></trkpt><trkpt lat="40.73958273299795" lon="17.508164651931647"><ele>269.8</ele><time>2026-04-28T16:51:37.999Z</time></trkpt><trkpt lat="40.73955438105526" lon="17.50828050447743"><ele>267.2</ele><time>2026-04-28T16:51:38.999Z</time></trkpt><trkpt lat="40.73952110301543" lon="17.50838448737226"><ele>264.6</ele><time>2026-04-28T16:51:39.999Z</time></trkpt><trkpt lat="40.7394881544776" lon="17.50849941010225"><ele>262.0</ele><time>2026-04-28T16:51:40.999Z</time></trkpt><trkpt lat="40.73944926180765" lon="17.50860766835625"><ele>262.0</ele><time>2026-04-28T16:51:41.999Z</time></trkpt><trkpt lat="40.739412255694724" lon="17.50872071154765"><ele>262.0</ele><time>2026-04-28T16:51:42.999Z</time></trkpt><trkpt lat="40.73937005428803" lon="17.508821387635457"><ele>262.0</ele><time>2026-04-28T16:51:43.999Z</time></trkpt><trkpt lat="40.739331263128385" lon="17.508910019424025"><ele>262.0</ele><time>2026-04-28T16:51:44.999Z</time></trkpt><trkpt lat="40.739296678985696" lon="17.50900724978277"><ele>262.0</ele><time>2026-04-28T16:51:45.999Z</time></trkpt><trkpt lat="40.73926171711059" lon="17.509102829224105"><ele>262.0</ele><time>2026-04-28T16:51:46.999Z</time></trkpt><trkpt lat="40.739229709497714" lon="17.509179744546724"><ele>263.2</ele><time>2026-04-28T16:51:47.999Z</time></trkpt><trkpt lat="40.739178658011696" lon="17.509263487000695"><ele>264.4</ele><time>2026-04-28T16:51:48.999Z</time></trkpt><trkpt lat="40.73911745407428" lon="17.50939546480889"><ele>265.6</ele><time>2026-04-28T16:51:50.999Z</time></trkpt><trkpt lat="40.73905923944817" lon="17.509516437956314"><ele>266.8</ele><time>2026-04-28T16:51:52.999Z</time></trkpt><trkpt lat="40.739004985092826" lon="17.509637073516824"><ele>268.0</ele><time>2026-04-28T16:51:54.999Z</time></trkpt><trkpt lat="40.73896662805529" lon="17.50973532476597"><ele>268.5</ele><time>2026-04-28T16:51:56.999Z</time></trkpt><trkpt lat="40.738917026383604" lon="17.509829989114813"><ele>269.0</ele><time>2026-04-28T16:51:59.999Z</time></trkpt><trkpt lat="40.73885522282075" lon="17.5099406677192"><ele>269.5</ele><time>2026-04-28T16:52:02.998Z</time></trkpt><trkpt lat="40.73881430738984" lon="17.51002256366242"><ele>270.0</ele><time>2026-04-28T16:52:04.998Z</time></trkpt><trkpt lat="40.73877282340198" lon="17.510122040150634"><ele>270.5</ele><time>2026-04-28T16:52:06.998Z</time></trkpt><trkpt lat="40.738728181210966" lon="17.51021503199839"><ele>271.0</ele><time>2026-04-28T16:52:08.998Z</time></trkpt><trkpt lat="40.738675562001816" lon="17.510314685738997"><ele>272.8</ele><time>2026-04-28T16:52:10.998Z</time></trkpt><trkpt lat="40.738621644686475" lon="17.51041601525754"><ele>274.6</ele><time>2026-04-28T16:52:12.998Z</time></trkpt><trkpt lat="40.7385702944359" lon="17.510510088559005"><ele>276.4</ele><time>2026-04-28T16:52:14.998Z</time></trkpt><trkpt lat="40.738521958293866" lon="17.51060923748474"><ele>278.2</ele><time>2026-04-28T16:52:16.998Z</time></trkpt><trkpt lat="40.73846649318158" lon="17.510712048911277"><ele>280.0</ele><time>2026-04-28T16:52:18.998Z</time></trkpt><trkpt lat="40.73841127061159" lon="17.510819084450237"><ele>280.4</ele><time>2026-04-28T16:52:20.998Z</time></trkpt><trkpt lat="40.738365347751454" lon="17.51092208345058"><ele>280.8</ele><time>2026-04-28T16:52:22.998Z</time></trkpt><trkpt lat="40.73831048760071" lon="17.511028592991416"><ele>281.2</ele><time>2026-04-28T16:52:24.998Z</time></trkpt><trkpt lat="40.738254076182" lon="17.511128343769418"><ele>281.6</ele><time>2026-04-28T16:52:27Z</time></trkpt><trkpt lat="40.738205258157905" lon="17.511233503506066"><ele>282.0</ele><time>2026-04-28T16:52:29Z</time></trkpt><trkpt lat="40.73816132133205" lon="17.511339477136016"><ele>283.6</ele><time>2026-04-28T16:52:31Z</time></trkpt><trkpt lat="40.73811040843613" lon="17.511445472283537"><ele>285.2</ele><time>2026-04-28T16:52:33Z</time></trkpt><trkpt lat="40.73805964302644" lon="17.51155620792525"><ele>286.8</ele><time>2026-04-28T16:52:35Z</time></trkpt><trkpt lat="40.738006170032406" lon="17.511661638087546"><ele>288.4</ele><time>2026-04-28T16:52:37Z</time></trkpt><trkpt lat="40.737952705550505" lon="17.511768185085007"><ele>290.0</ele><time>2026-04-28T16:52:39Z</time></trkpt><trkpt lat="40.73790225864987" lon="17.51185749546809"><ele>290.0</ele><time>2026-04-28T16:52:41Z</time></trkpt><trkpt lat="40.73785195175775" lon="17.511965835366073"><ele>290.0</ele><time>2026-04-28T16:52:43Z</time></trkpt><trkpt lat="40.73779872215754" lon="17.51206243328143"><ele>290.0</ele><time>2026-04-28T16:52:45Z</time></trkpt><trkpt lat="40.73774575306371" lon="17.512168884377143"><ele>290.0</ele><time>2026-04-28T16:52:47Z</time></trkpt><trkpt lat="40.73769118810472" lon="17.51227181048964"><ele>290.0</ele><time>2026-04-28T16:52:49Z</time></trkpt><trkpt lat="40.73763934340137" lon="17.512384904197386"><ele>290.0</ele><time>2026-04-28T16:52:51Z</time></trkpt><trkpt lat="40.73759126754265" lon="17.51249029933739"><ele>290.0</ele><time>2026-04-28T16:52:53Z</time></trkpt><trkpt lat="40.737536124997206" lon="17.51259525644356"><ele>290.0</ele><time>2026-04-28T16:52:55Z</time></trkpt><trkpt lat="40.73748184727778" lon="17.512678201845876"><ele>290.0</ele><time>2026-04-28T16:52:57Z</time></trkpt><trkpt lat="40.737433789596935" lon="17.512791002034252"><ele>290.0</ele><time>2026-04-28T16:52:59Z</time></trkpt><trkpt lat="40.73737674290258" lon="17.51289346716014"><ele>290.8</ele><time>2026-04-28T16:53:01Z</time></trkpt><trkpt lat="40.73731918840751" lon="17.51301780644838"><ele>291.6</ele><time>2026-04-28T16:53:03Z</time></trkpt><trkpt lat="40.73726234662763" lon="17.51313294521698"><ele>292.4</ele><time>2026-04-28T16:53:05Z</time></trkpt><trkpt lat="40.73720848421522" lon="17.513249100784094"><ele>293.2</ele><time>2026-04-28T16:53:07Z</time></trkpt><trkpt lat="40.7371502832232" lon="17.51336306840774"><ele>294.0</ele><time>2026-04-28T16:53:09Z</time></trkpt><trkpt lat="40.73709931969338" lon="17.513479952181456"><ele>294.0</ele><time>2026-04-28T16:53:10.999Z</time></trkpt><trkpt lat="40.737049854430566" lon="17.51359895678924"><ele>294.0</ele><time>2026-04-28T16:53:12.999Z</time></trkpt><trkpt lat="40.73700992230257" lon="17.513709941468342"><ele>294.0</ele><time>2026-04-28T16:53:14.999Z</time></trkpt><trkpt lat="40.736971588428254" lon="17.513827493541037"><ele>294.0</ele><time>2026-04-28T16:53:16.999Z</time></trkpt><trkpt lat="40.73692785825101" lon="17.513949860578393"><ele>294.0</ele><time>2026-04-28T16:53:18.999Z</time></trkpt><trkpt lat="40.736885273231366" lon="17.514063098885284"><ele>295.59999999999997</ele><time>2026-04-28T16:53:20.999Z</time></trkpt><trkpt lat="40.736849176918234" lon="17.51419103197256"><ele>297.2</ele><time>2026-04-28T16:53:22.999Z</time></trkpt><trkpt lat="40.73682612118771" lon="17.514305415536516"><ele>298.79999999999995</ele><time>2026-04-28T16:53:24.999Z</time></trkpt><trkpt lat="40.73680255885394" lon="17.51441862284859"><ele>300.4</ele><time>2026-04-28T16:53:26.999Z</time></trkpt><trkpt lat="40.73677791726818" lon="17.514542786107643"><ele>302.0</ele><time>2026-04-28T16:53:28.999Z</time></trkpt><trkpt lat="40.73676260129805" lon="17.51466384084737"><ele>302.2</ele><time>2026-04-28T16:53:30.999Z</time></trkpt><trkpt lat="40.736739375497194" lon="17.514790911999118"><ele>302.4</ele><time>2026-04-28T16:53:32.999Z</time></trkpt><trkpt lat="40.736733076483475" lon="17.514913704195916"><ele>302.6</ele><time>2026-04-28T16:53:34.999Z</time></trkpt><trkpt lat="40.736710358249375" lon="17.51504927381592"><ele>302.8</ele><time>2026-04-28T16:53:36.999Z</time></trkpt><trkpt lat="40.73669965669263" lon="17.515185534630547"><ele>303.0</ele><time>2026-04-28T16:53:38.999Z</time></trkpt><trkpt lat="40.73668931938462" lon="17.51532173509563"><ele>303.0</ele><time>2026-04-28T16:53:40.999Z</time></trkpt><trkpt lat="40.73667674529444" lon="17.515455290695996"><ele>303.0</ele><time>2026-04-28T16:53:42.999Z</time></trkpt><trkpt lat="40.73667310934266" lon="17.51558573785149"><ele>303.0</ele><time>2026-04-28T16:53:44.999Z</time></trkpt><trkpt lat="40.73668186078364" lon="17.515720777411516"><ele>303.0</ele><time>2026-04-28T16:53:46.999Z</time></trkpt><trkpt lat="40.73667985344131" lon="17.515860044656044"><ele>303.0</ele><time>2026-04-28T16:53:48.999Z</time></trkpt><trkpt lat="40.73668410764681" lon="17.51598549251736"><ele>303.0</ele><time>2026-04-28T16:53:50.999Z</time></trkpt><trkpt lat="40.73669289592433" lon="17.51612249002964"><ele>303.0</ele><time>2026-04-28T16:53:52.999Z</time></trkpt><trkpt lat="40.736702379379935" lon="17.516242601078506"><ele>303.0</ele><time>2026-04-28T16:53:54.999Z</time></trkpt><trkpt lat="40.73671500654251" lon="17.516365856267697"><ele>303.0</ele><time>2026-04-28T16:53:56.999Z</time></trkpt><trkpt lat="40.73671426135021" lon="17.516496210858126"><ele>303.0</ele><time>2026-04-28T16:53:58.999Z</time></trkpt><trkpt lat="40.73672596304654" lon="17.516638227054102"><ele>302.6</ele><time>2026-04-28T16:54:00.999Z</time></trkpt><trkpt lat="40.736731826991125" lon="17.516766829561732"><ele>302.20000000000005</ele><time>2026-04-28T16:54:02.999Z</time></trkpt><trkpt lat="40.73674443340099" lon="17.516900048702386"><ele>301.8</ele><time>2026-04-28T16:54:04.999Z</time></trkpt><trkpt lat="40.73675233289411" lon="17.517017569636483"><ele>301.40000000000003</ele><time>2026-04-28T16:54:06.999Z</time></trkpt><trkpt lat="40.736762775697365" lon="17.517156764398564"><ele>301.0</ele><time>2026-04-28T16:54:08.998Z</time></trkpt><trkpt lat="40.73677322809951" lon="17.517301056736354"><ele>300.8</ele><time>2026-04-28T16:54:10.998Z</time></trkpt><trkpt lat="40.73677445944558" lon="17.517428193433858"><ele>300.6</ele><time>2026-04-28T16:54:12.998Z</time></trkpt><trkpt lat="40.73678221592904" lon="17.517556472353093"><ele>300.4</ele><time>2026-04-28T16:54:14.998Z</time></trkpt><trkpt lat="40.736791293877765" lon="17.51768001096576"><ele>300.2</ele><time>2026-04-28T16:54:16.998Z</time></trkpt><trkpt lat="40.73680482865098" lon="17.517821042415836"><ele>300.0</ele><time>2026-04-28T16:54:18.998Z</time></trkpt><trkpt lat="40.73681388955166" lon="17.517973342064277"><ele>299.6</ele><time>2026-04-28T16:54:20.998Z</time></trkpt><trkpt lat="40.73682075713427" lon="17.518119260918063"><ele>299.2</ele><time>2026-04-28T16:54:22.998Z</time></trkpt><trkpt lat="40.73682852598542" lon="17.518250857866633"><ele>298.8</ele><time>2026-04-28T16:54:24.998Z</time></trkpt><trkpt lat="40.73683456356624" lon="17.518372418890515"><ele>298.4</ele><time>2026-04-28T16:54:26.998Z</time></trkpt><trkpt lat="40.73684136569989" lon="17.518507583735776"><ele>298.0</ele><time>2026-04-28T16:54:28.998Z</time></trkpt><trkpt lat="40.73684856372465" lon="17.518642296645073"><ele>298.4</ele><time>2026-04-28T16:54:30.998Z</time></trkpt><trkpt lat="40.7368601830013" lon="17.518781434691792"><ele>298.8</ele><time>2026-04-28T16:54:33Z</time></trkpt><trkpt lat="40.73686883757625" lon="17.518927798876422"><ele>299.2</ele><time>2026-04-28T16:54:35Z</time></trkpt><trkpt lat="40.73687724728717" lon="17.519076849778884"><ele>299.6</ele><time>2026-04-28T16:54:37Z</time></trkpt><trkpt lat="40.73688768293963" lon="17.519222624414606"><ele>300.0</ele><time>2026-04-28T16:54:39Z</time></trkpt><trkpt lat="40.73689654789564" lon="17.519369713422044"><ele>301.4</ele><time>2026-04-28T16:54:41Z</time></trkpt><trkpt lat="40.73690332229903" lon="17.519511591141068"><ele>302.8</ele><time>2026-04-28T16:54:43Z</time></trkpt><trkpt lat="40.73691443623037" lon="17.51965827203857"><ele>304.2</ele><time>2026-04-28T16:54:45Z</time></trkpt><trkpt lat="40.736921559316514" lon="17.519810687120433"><ele>305.6</ele><time>2026-04-28T16:54:47Z</time></trkpt><trkpt lat="40.736932138556526" lon="17.519896244649125"><ele>307.0</ele><time>2026-04-28T16:54:48Z</time></trkpt><trkpt lat="40.736936185534034" lon="17.5200467398884"><ele>307.0</ele><time>2026-04-28T16:54:50Z</time></trkpt><trkpt lat="40.73694486935111" lon="17.52019379565774"><ele>307.0</ele><time>2026-04-28T16:54:52Z</time></trkpt><trkpt lat="40.736939731319275" lon="17.520344342030057"><ele>307.0</ele><time>2026-04-28T16:54:54Z</time></trkpt><trkpt lat="40.73694955390772" lon="17.52050528136818"><ele>307.0</ele><time>2026-04-28T16:54:56Z</time></trkpt><trkpt lat="40.73695903048699" lon="17.520660551495443"><ele>306.0</ele><time>2026-04-28T16:54:58Z</time></trkpt><trkpt lat="40.73696983791215" lon="17.520818490186077"><ele>305.0</ele><time>2026-04-28T16:55:00Z</time></trkpt><trkpt lat="40.73698125669261" lon="17.52097997884998"><ele>304.0</ele><time>2026-04-28T16:55:02Z</time></trkpt><trkpt lat="40.736992575229884" lon="17.52114004979455"><ele>303.0</ele><time>2026-04-28T16:55:04Z</time></trkpt><trkpt lat="40.737004200438015" lon="17.521297960310346"><ele>301.25</ele><time>2026-04-28T16:55:06Z</time></trkpt><trkpt lat="40.737015794244336" lon="17.521456296158707"><ele>299.5</ele><time>2026-04-28T16:55:08Z</time></trkpt><trkpt lat="40.737026694878125" lon="17.521617281643742"><ele>297.75</ele><time>2026-04-28T16:55:10Z</time></trkpt><trkpt lat="40.737037272737055" lon="17.521776849372014"><ele>296.0</ele><time>2026-04-28T16:55:12Z</time></trkpt><trkpt lat="40.73704788168028" lon="17.521936885978466"><ele>295.6</ele><time>2026-04-28T16:55:14Z</time></trkpt><trkpt lat="40.737058498361826" lon="17.5220970393329"><ele>295.20000000000005</ele><time>2026-04-28T16:55:16Z</time></trkpt><trkpt lat="40.73706920470661" lon="17.522258545274152"><ele>294.79999999999995</ele><time>2026-04-28T16:55:18Z</time></trkpt><trkpt lat="40.73707907082402" lon="17.522413718232677"><ele>294.4</ele><time>2026-04-28T16:55:19.999Z</time></trkpt><trkpt lat="40.73708438858388" lon="17.522498168678542"><ele>294.0</ele><time>2026-04-28T16:55:20.999Z</time></trkpt><trkpt lat="40.73709425022844" lon="17.522654779784578"><ele>294.0</ele><time>2026-04-28T16:55:22.999Z</time></trkpt><trkpt lat="40.73710432113361" lon="17.522814714126614"><ele>294.0</ele><time>2026-04-28T16:55:24.999Z</time></trkpt><trkpt lat="40.737114884897615" lon="17.522975512191856"><ele>294.0</ele><time>2026-04-28T16:55:26.999Z</time></trkpt><trkpt lat="40.73712557101897" lon="17.523130855765945"><ele>294.0</ele><time>2026-04-28T16:55:28.999Z</time></trkpt><trkpt lat="40.73713124685664" lon="17.52321401563411"><ele>294.0</ele><time>2026-04-28T16:55:29.999Z</time></trkpt><trkpt lat="40.737141774244236" lon="17.52337257428525"><ele>294.59999999999997</ele><time>2026-04-28T16:55:31.999Z</time></trkpt><trkpt lat="40.737147667284944" lon="17.52346133254143"><ele>295.2</ele><time>2026-04-28T16:55:32.999Z</time></trkpt><trkpt lat="40.73715807390741" lon="17.523618072297594"><ele>295.79999999999995</ele><time>2026-04-28T16:55:34.999Z</time></trkpt><trkpt lat="40.73717789404941" lon="17.523697102212143"><ele>296.4</ele><time>2026-04-28T16:55:35.999Z</time></trkpt><trkpt lat="40.73718712622366" lon="17.523860416952587"><ele>297.0</ele><time>2026-04-28T16:55:37.999Z</time></trkpt><trkpt lat="40.73719752276394" lon="17.524014479468505"><ele>297.25</ele><time>2026-04-28T16:55:39.999Z</time></trkpt><trkpt lat="40.73720921666049" lon="17.524177808661847"><ele>297.5</ele><time>2026-04-28T16:55:41.999Z</time></trkpt><trkpt lat="40.737215131262644" lon="17.524327101124754"><ele>297.75</ele><time>2026-04-28T16:55:43.999Z</time></trkpt><trkpt lat="40.737240188614244" lon="17.524485357695205"><ele>298.0</ele><time>2026-04-28T16:55:45.999Z</time></trkpt><trkpt lat="40.73724099065612" lon="17.524640438810447"><ele>298.0</ele><time>2026-04-28T16:55:47.999Z</time></trkpt><trkpt lat="40.737241049074576" lon="17.524731383408202"><ele>298.0</ele><time>2026-04-28T16:55:48.999Z</time></trkpt><trkpt lat="40.737249145164135" lon="17.524884215536655"><ele>298.0</ele><time>2026-04-28T16:55:50.999Z</time></trkpt><trkpt lat="40.737251222409164" lon="17.524972670592764"><ele>298.0</ele><time>2026-04-28T16:55:51.999Z</time></trkpt><trkpt lat="40.737268269873844" lon="17.52510405727156"><ele>298.0</ele><time>2026-04-28T16:55:53.999Z</time></trkpt><trkpt lat="40.73728182198918" lon="17.525201804950953"><ele>298.0</ele><time>2026-04-28T16:55:54.999Z</time></trkpt><trkpt lat="40.73728628764953" lon="17.52535838426334"><ele>297.2</ele><time>2026-04-28T16:55:56.999Z</time></trkpt><trkpt lat="40.73728099330825" lon="17.525518162751087"><ele>296.4</ele><time>2026-04-28T16:55:58.999Z</time></trkpt><trkpt lat="40.737273353702285" lon="17.525600879996425"><ele>295.59999999999997</ele><time>2026-04-28T16:55:59.999Z</time></trkpt><trkpt lat="40.7372826452797" lon="17.525762373305017"><ele>294.8</ele><time>2026-04-28T16:56:01.999Z</time></trkpt><trkpt lat="40.73728778253782" lon="17.525855016335107"><ele>294.0</ele><time>2026-04-28T16:56:02.999Z</time></trkpt><trkpt lat="40.73729307131595" lon="17.52595039183207"><ele>294.0</ele><time>2026-04-28T16:56:03.999Z</time></trkpt><trkpt lat="40.73729811481721" lon="17.526041344145373"><ele>294.0</ele><time>2026-04-28T16:56:04.999Z</time></trkpt><trkpt lat="40.73730350485325" lon="17.526138545678446"><ele>294.0</ele><time>2026-04-28T16:56:05.999Z</time></trkpt><trkpt lat="40.73730885420599" lon="17.526235013566666"><ele>294.0</ele><time>2026-04-28T16:56:06.999Z</time></trkpt><trkpt lat="40.73731411804532" lon="17.526329939293856"><ele>294.0</ele><time>2026-04-28T16:56:07.999Z</time></trkpt><trkpt lat="40.73731997206889" lon="17.526435508201313"><ele>294.0</ele><time>2026-04-28T16:56:08.999Z</time></trkpt><trkpt lat="40.73734033480427" lon="17.526531763824966"><ele>294.0</ele><time>2026-04-28T16:56:09.999Z</time></trkpt><trkpt lat="40.73734205585029" lon="17.526634503720356"><ele>293.6666666666667</ele><time>2026-04-28T16:56:10.999Z</time></trkpt><trkpt lat="40.73734610488397" lon="17.52673515023702"><ele>293.3333333333333</ele><time>2026-04-28T16:56:11.999Z</time></trkpt><trkpt lat="40.73735499190558" lon="17.52683986001185"><ele>293.0</ele><time>2026-04-28T16:56:12.999Z</time></trkpt><trkpt lat="40.7373592399816" lon="17.526932508909645"><ele>292.66666666666663</ele><time>2026-04-28T16:56:13.999Z</time></trkpt><trkpt lat="40.737362101953934" lon="17.52703176764059"><ele>292.3333333333333</ele><time>2026-04-28T16:56:14.999Z</time></trkpt><trkpt lat="40.73737080280411" lon="17.527133163111657"><ele>292.0</ele><time>2026-04-28T16:56:15.998Z</time></trkpt><trkpt lat="40.73737714938262" lon="17.52723140450963"><ele>291.57142857142856</ele><time>2026-04-28T16:56:16.998Z</time></trkpt><trkpt lat="40.737388047401375" lon="17.52733402688743"><ele>291.14285714285717</ele><time>2026-04-28T16:56:17.998Z</time></trkpt><trkpt lat="40.737378239867276" lon="17.52742933304323"><ele>290.7142857142857</ele><time>2026-04-28T16:56:18.998Z</time></trkpt><trkpt lat="40.73738330174216" lon="17.52751466575623"><ele>290.2857142857143</ele><time>2026-04-28T16:56:19.998Z</time></trkpt><trkpt lat="40.73738854158605" lon="17.52760433571546"><ele>289.85714285714283</ele><time>2026-04-28T16:56:20.998Z</time></trkpt><trkpt lat="40.737392602531514" lon="17.527687926872886"><ele>289.42857142857144</ele><time>2026-04-28T16:56:21.998Z</time></trkpt><trkpt lat="40.737396755479686" lon="17.527773411825535"><ele>289.0</ele><time>2026-04-28T16:56:22.998Z</time></trkpt><trkpt lat="40.737402484928324" lon="17.527935312872348"><ele>288.66666666666663</ele><time>2026-04-28T16:56:24.998Z</time></trkpt><trkpt lat="40.737406253231214" lon="17.528097749750877"><ele>288.3333333333333</ele><time>2026-04-28T16:56:26.998Z</time></trkpt><trkpt lat="40.73740744142155" lon="17.528182772475912"><ele>288.0</ele><time>2026-04-28T16:56:27.998Z</time></trkpt><trkpt lat="40.73740704059511" lon="17.528345229048693"><ele>287.6666666666667</ele><time>2026-04-28T16:56:29.998Z</time></trkpt><trkpt lat="40.737405752352835" lon="17.52843246148206"><ele>287.33333333333337</ele><time>2026-04-28T16:56:30.998Z</time></trkpt><trkpt lat="40.73740293901743" lon="17.528517898047383"><ele>287.0</ele><time>2026-04-28T16:56:31.998Z</time></trkpt><trkpt lat="40.737412093583856" lon="17.52867780533866"><ele>286.8</ele><time>2026-04-28T16:56:33.998Z</time></trkpt><trkpt lat="40.73739636733474" lon="17.528840432299635"><ele>286.6</ele><time>2026-04-28T16:56:35.998Z</time></trkpt><trkpt lat="40.737373445097525" lon="17.529001126158434"><ele>286.40000000000003</ele><time>2026-04-28T16:56:37.998Z</time></trkpt><trkpt lat="40.73736082795789" lon="17.529084611417062"><ele>286.2</ele><time>2026-04-28T16:56:39Z</time></trkpt><trkpt lat="40.737331947341744" lon="17.529240153872024"><ele>286.0</ele><time>2026-04-28T16:56:41Z</time></trkpt><trkpt lat="40.73730192813692" lon="17.529394475240128"><ele>286.0</ele><time>2026-04-28T16:56:43Z</time></trkpt><trkpt lat="40.7372667034374" lon="17.5295583410585"><ele>286.0</ele><time>2026-04-28T16:56:45Z</time></trkpt><trkpt lat="40.73723310544381" lon="17.529706784560293"><ele>286.0</ele><time>2026-04-28T16:56:47Z</time></trkpt><trkpt lat="40.73721259514159" lon="17.529786825609616"><ele>286.0</ele><time>2026-04-28T16:56:48Z</time></trkpt><trkpt lat="40.737197677227776" lon="17.529875564170297"><ele>286.0</ele><time>2026-04-28T16:56:49Z</time></trkpt><trkpt lat="40.7371645611376" lon="17.530027888342186"><ele>285.8</ele><time>2026-04-28T16:56:51Z</time></trkpt><trkpt lat="40.73713071103801" lon="17.53017957082735"><ele>285.6</ele><time>2026-04-28T16:56:53Z</time></trkpt><trkpt lat="40.73709418187522" lon="17.530325301658223"><ele>285.4</ele><time>2026-04-28T16:56:55Z</time></trkpt><trkpt lat="40.737075371085545" lon="17.530409005090515"><ele>285.2</ele><time>2026-04-28T16:56:56Z</time></trkpt><trkpt lat="40.737057135882345" lon="17.53048942655894"><ele>285.0</ele><time>2026-04-28T16:56:57Z</time></trkpt><trkpt lat="40.73702027470533" lon="17.530641379175158"><ele>285.0</ele><time>2026-04-28T16:56:59Z</time></trkpt><trkpt lat="40.736988576788" lon="17.530800756427258"><ele>285.0</ele><time>2026-04-28T16:57:01Z</time></trkpt><trkpt lat="40.736953882636755" lon="17.53095923407726"><ele>285.0</ele><time>2026-04-28T16:57:03Z</time></trkpt><trkpt lat="40.73693507580172" lon="17.53104767234218"><ele>285.0</ele><time>2026-04-28T16:57:04Z</time></trkpt><trkpt lat="40.73691503082225" lon="17.531131654167627"><ele>285.0</ele><time>2026-04-28T16:57:05Z</time></trkpt><trkpt lat="40.73689159866104" lon="17.531218328410347"><ele>285.1428571428571</ele><time>2026-04-28T16:57:06Z</time></trkpt><trkpt lat="40.736874183474605" lon="17.531310626779838"><ele>285.2857142857143</ele><time>2026-04-28T16:57:07Z</time></trkpt><trkpt lat="40.736858705583614" lon="17.531399974149927"><ele>285.42857142857144</ele><time>2026-04-28T16:57:08Z</time></trkpt><trkpt lat="40.73683556838695" lon="17.53149708842429"><ele>285.57142857142856</ele><time>2026-04-28T16:57:09Z</time></trkpt><trkpt lat="40.73681262897481" lon="17.531590802795368"><ele>285.7142857142857</ele><time>2026-04-28T16:57:10Z</time></trkpt><trkpt lat="40.736780323588626" lon="17.53166919138197"><ele>285.85714285714283</ele><time>2026-04-28T16:57:11Z</time></trkpt><trkpt lat="40.7367485902021" lon="17.53174927527886"><ele>286.0</ele><time>2026-04-28T16:57:12Z</time></trkpt><trkpt lat="40.736701887176366" lon="17.53185462310829"><ele>286.0</ele><time>2026-04-28T16:57:13Z</time></trkpt><trkpt lat="40.73666540788277" lon="17.531930855516794"><ele>286.0</ele><time>2026-04-28T16:57:14Z</time></trkpt><trkpt lat="40.7366256066842" lon="17.532030988795086"><ele>286.0</ele><time>2026-04-28T16:57:15Z</time></trkpt><trkpt lat="40.736578309902896" lon="17.5321295745135"><ele>286.0</ele><time>2026-04-28T16:57:16Z</time></trkpt><trkpt lat="40.73652536647456" lon="17.532213792074764"><ele>286.0</ele><time>2026-04-28T16:57:17Z</time></trkpt><trkpt lat="40.73647728085388" lon="17.532298208493405"><ele>286.0</ele><time>2026-04-28T16:57:18Z</time></trkpt><trkpt lat="40.736417996448246" lon="17.532367970294104"><ele>285.6</ele><time>2026-04-28T16:57:19Z</time></trkpt><trkpt lat="40.73635893597327" lon="17.532457427774858"><ele>285.20000000000005</ele><time>2026-04-28T16:57:20Z</time></trkpt><trkpt lat="40.73629770021953" lon="17.53254607586053"><ele>284.79999999999995</ele><time>2026-04-28T16:57:21Z</time></trkpt><trkpt lat="40.736233912275786" lon="17.53263102357591"><ele>284.4</ele><time>2026-04-28T16:57:21.999Z</time></trkpt><trkpt lat="40.73616874942912" lon="17.53270665402242"><ele>284.0</ele><time>2026-04-28T16:57:22.999Z</time></trkpt><trkpt lat="40.73609669117908" lon="17.532791725799573"><ele>283.8</ele><time>2026-04-28T16:57:23.999Z</time></trkpt><trkpt lat="40.73603164959808" lon="17.532867431756745"><ele>283.59999999999997</ele><time>2026-04-28T16:57:24.999Z</time></trkpt><trkpt lat="40.73596207035607" lon="17.532946645860893"><ele>283.4</ele><time>2026-04-28T16:57:25.999Z</time></trkpt><trkpt lat="40.73588850175794" lon="17.53304712823738"><ele>283.2</ele><time>2026-04-28T16:57:26.999Z</time></trkpt><trkpt lat="40.73582771895578" lon="17.53309749326089"><ele>283.0</ele><time>2026-04-28T16:57:27.999Z</time></trkpt><trkpt lat="40.73575626821105" lon="17.533178335583482"><ele>282.5</ele><time>2026-04-28T16:57:28.999Z</time></trkpt><trkpt lat="40.73568795195687" lon="17.533257298658494"><ele>282.0</ele><time>2026-04-28T16:57:29.999Z</time></trkpt><trkpt lat="40.73562143514017" lon="17.53333754298352"><ele>281.5</ele><time>2026-04-28T16:57:30.999Z</time></trkpt><trkpt lat="40.73555948465161" lon="17.53341662014433"><ele>281.0</ele><time>2026-04-28T16:57:31.999Z</time></trkpt><trkpt lat="40.73549879298413" lon="17.53349346123194"><ele>280.5</ele><time>2026-04-28T16:57:32.999Z</time></trkpt><trkpt lat="40.73544283043298" lon="17.533577890849024"><ele>280.0</ele><time>2026-04-28T16:57:33.999Z</time></trkpt><trkpt lat="40.735387229938645" lon="17.53366932801407"><ele>279.66666666666663</ele><time>2026-04-28T16:57:34.999Z</time></trkpt><trkpt lat="40.73533598405747" lon="17.53375954343389"><ele>279.3333333333333</ele><time>2026-04-28T16:57:35.999Z</time></trkpt><trkpt lat="40.735295676332896" lon="17.53383721032589"><ele>279.0</ele><time>2026-04-28T16:57:36.999Z</time></trkpt><trkpt lat="40.73524949948037" lon="17.533938727321583"><ele>278.6666666666667</ele><time>2026-04-28T16:57:37.999Z</time></trkpt><trkpt lat="40.73521215363623" lon="17.53402394118847"><ele>278.33333333333337</ele><time>2026-04-28T16:57:38.999Z</time></trkpt><trkpt lat="40.73517591984295" lon="17.534122458435295"><ele>278.0</ele><time>2026-04-28T16:57:39.999Z</time></trkpt><trkpt lat="40.73513050877643" lon="17.534210414401084"><ele>277.57142857142856</ele><time>2026-04-28T16:57:40.999Z</time></trkpt><trkpt lat="40.735114191558935" lon="17.53430378706764"><ele>277.14285714285717</ele><time>2026-04-28T16:57:41.999Z</time></trkpt><trkpt lat="40.735083375078965" lon="17.534401863921726"><ele>276.7142857142857</ele><time>2026-04-28T16:57:42.999Z</time></trkpt><trkpt lat="40.7350540744761" lon="17.53449132480494"><ele>276.2857142857143</ele><time>2026-04-28T16:57:43.999Z</time></trkpt><trkpt lat="40.73502753481781" lon="17.534588882438452"><ele>275.85714285714283</ele><time>2026-04-28T16:57:44.999Z</time></trkpt><trkpt lat="40.73500832548505" lon="17.534675450725214"><ele>275.42857142857144</ele><time>2026-04-28T16:57:45.999Z</time></trkpt><trkpt lat="40.73499036546607" lon="17.53476256807532"><ele>275.0</ele><time>2026-04-28T16:57:46.999Z</time></trkpt><trkpt lat="40.73495606751329" lon="17.53484894378176"><ele>274.6666666666667</ele><time>2026-04-28T16:57:47.999Z</time></trkpt><trkpt lat="40.73494045109383" lon="17.53493595227233"><ele>274.33333333333337</ele><time>2026-04-28T16:57:48.999Z</time></trkpt><trkpt lat="40.73492850558793" lon="17.535023630737292"><ele>274.0</ele><time>2026-04-28T16:57:49.999Z</time></trkpt><trkpt lat="40.73493449272154" lon="17.535114220300688"><ele>273.6666666666667</ele><time>2026-04-28T16:57:50.999Z</time></trkpt><trkpt lat="40.7349087653689" lon="17.53528623844466"><ele>273.3333333333333</ele><time>2026-04-28T16:57:52.999Z</time></trkpt><trkpt lat="40.73492120561694" lon="17.535374616940437"><ele>273.0</ele><time>2026-04-28T16:57:53.999Z</time></trkpt><trkpt lat="40.734908801148144" lon="17.53545930041441"><ele>272.8</ele><time>2026-04-28T16:57:54.999Z</time></trkpt><trkpt lat="40.734908920453364" lon="17.535544964963275"><ele>272.6</ele><time>2026-04-28T16:57:55.999Z</time></trkpt><trkpt lat="40.734910867626255" lon="17.535629503367662"><ele>272.4</ele><time>2026-04-28T16:57:56.999Z</time></trkpt><trkpt lat="40.73492962077915" lon="17.535795388791527"><ele>272.2</ele><time>2026-04-28T16:57:58.999Z</time></trkpt><trkpt lat="40.73493677286742" lon="17.535958073863313"><ele>272.0</ele><time>2026-04-28T16:58:00.999Z</time></trkpt><trkpt lat="40.73496755717314" lon="17.536113220684793"><ele>271.25</ele><time>2026-04-28T16:58:02.999Z</time></trkpt><trkpt lat="40.73498937454945" lon="17.53627042650121"><ele>270.5</ele><time>2026-04-28T16:58:04.999Z</time></trkpt><trkpt lat="40.73503029791956" lon="17.536418381191506"><ele>269.75</ele><time>2026-04-28T16:58:06.999Z</time></trkpt><trkpt lat="40.73506454555422" lon="17.536565796815403"><ele>269.0</ele><time>2026-04-28T16:58:08.999Z</time></trkpt><trkpt lat="40.73512662706437" lon="17.536711451731293"><ele>269.0</ele><time>2026-04-28T16:58:10.999Z</time></trkpt><trkpt lat="40.735169864965584" lon="17.536861264711252"><ele>269.0</ele><time>2026-04-28T16:58:12.999Z</time></trkpt><trkpt lat="40.735222956462884" lon="17.537006519936185"><ele>269.0</ele><time>2026-04-28T16:58:14.999Z</time></trkpt><trkpt lat="40.73527474234263" lon="17.537158189317314"><ele>269.0</ele><time>2026-04-28T16:58:16.999Z</time></trkpt><trkpt lat="40.73533312839968" lon="17.537310061106123"><ele>267.8</ele><time>2026-04-28T16:58:18.998Z</time></trkpt><trkpt lat="40.7353971373509" lon="17.53745427946505"><ele>266.59999999999997</ele><time>2026-04-28T16:58:20.998Z</time></trkpt><trkpt lat="40.73542735654735" lon="17.53752963403287"><ele>265.4</ele><time>2026-04-28T16:58:21.998Z</time></trkpt><trkpt lat="40.73546429401393" lon="17.537671460356606"><ele>264.2</ele><time>2026-04-28T16:58:23.998Z</time></trkpt><trkpt lat="40.73551561119349" lon="17.537811364173617"><ele>263.0</ele><time>2026-04-28T16:58:25.998Z</time></trkpt><trkpt lat="40.73556599879451" lon="17.537948733723795"><ele>262.75</ele><time>2026-04-28T16:58:27.998Z</time></trkpt><trkpt lat="40.73561636817264" lon="17.53808891162265"><ele>262.5</ele><time>2026-04-28T16:58:29.998Z</time></trkpt><trkpt lat="40.73566603882487" lon="17.538229464264756"><ele>262.25</ele><time>2026-04-28T16:58:31.998Z</time></trkpt><trkpt lat="40.735710369008736" lon="17.538374650721522"><ele>262.0</ele><time>2026-04-28T16:58:33.998Z</time></trkpt><trkpt lat="40.73574365960479" lon="17.538519900466714"><ele>262.0</ele><time>2026-04-28T16:58:35.998Z</time></trkpt><trkpt lat="40.73576945554117" lon="17.53866506853873"><ele>262.0</ele><time>2026-04-28T16:58:37.998Z</time></trkpt><trkpt lat="40.735784885213924" lon="17.53881278618732"><ele>262.0</ele><time>2026-04-28T16:58:39.998Z</time></trkpt><trkpt lat="40.73579144134562" lon="17.538975183035852"><ele>262.0</ele><time>2026-04-28T16:58:41.998Z</time></trkpt><trkpt lat="40.73578674683822" lon="17.539131871710516"><ele>262.4</ele><time>2026-04-28T16:58:43.998Z</time></trkpt><trkpt lat="40.73577182190463" lon="17.539279905282392"><ele>262.79999999999995</ele><time>2026-04-28T16:58:46Z</time></trkpt><trkpt lat="40.73574528932708" lon="17.53942902716684"><ele>263.2</ele><time>2026-04-28T16:58:48Z</time></trkpt><trkpt lat="40.73572224497224" lon="17.53957917331142"><ele>263.59999999999997</ele><time>2026-04-28T16:58:50Z</time></trkpt><trkpt lat="40.735681848159246" lon="17.53964637080596"><ele>264.0</ele><time>2026-04-28T16:58:51Z</time></trkpt><trkpt lat="40.73565101512048" lon="17.53972231604739"><ele>264.2</ele><time>2026-04-28T16:58:52Z</time></trkpt><trkpt lat="40.735593375994775" lon="17.539864189349327"><ele>264.4</ele><time>2026-04-28T16:58:54Z</time></trkpt><trkpt lat="40.73554449308389" lon="17.54000828504966"><ele>264.6</ele><time>2026-04-28T16:58:56Z</time></trkpt><trkpt lat="40.7355221548719" lon="17.540086073444876"><ele>264.8</ele><time>2026-04-28T16:58:57Z</time></trkpt><trkpt lat="40.735474261757176" lon="17.540226612687345"><ele>265.0</ele><time>2026-04-28T16:58:59Z</time></trkpt><trkpt lat="40.735427404025856" lon="17.54036259590407"><ele>264.0</ele><time>2026-04-28T16:59:01Z</time></trkpt><trkpt lat="40.73538086219932" lon="17.540507665257387"><ele>263.0</ele><time>2026-04-28T16:59:03Z</time></trkpt><trkpt lat="40.73535057828048" lon="17.54065806884329"><ele>262.0</ele><time>2026-04-28T16:59:05Z</time></trkpt><trkpt lat="40.73533235751072" lon="17.540805898833582"><ele>261.0</ele><time>2026-04-28T16:59:07Z</time></trkpt><trkpt lat="40.735317306760706" lon="17.540949338390533"><ele>261.0</ele><time>2026-04-28T16:59:09Z</time></trkpt><trkpt lat="40.735293842963934" lon="17.541100152002862"><ele>261.0</ele><time>2026-04-28T16:59:11Z</time></trkpt><trkpt lat="40.735288554371444" lon="17.54125672873992"><ele>261.0</ele><time>2026-04-28T16:59:13Z</time></trkpt><trkpt lat="40.73529828154088" lon="17.541343742098636"><ele>261.0</ele><time>2026-04-28T16:59:14Z</time></trkpt><trkpt lat="40.73531179294534" lon="17.541515642508887"><ele>261.0</ele><time>2026-04-28T16:59:16Z</time></trkpt><trkpt lat="40.73532835680885" lon="17.541686525834074"><ele>260.8</ele><time>2026-04-28T16:59:18Z</time></trkpt><trkpt lat="40.73533457708586" lon="17.54184187222228"><ele>260.6</ele><time>2026-04-28T16:59:20Z</time></trkpt><trkpt lat="40.73531532132945" lon="17.54198892027206"><ele>260.4</ele><time>2026-04-28T16:59:22Z</time></trkpt><trkpt lat="40.73528303313769" lon="17.542140960455995"><ele>260.2</ele><time>2026-04-28T16:59:24Z</time></trkpt><trkpt lat="40.735241557182235" lon="17.542209705453516"><ele>260.0</ele><time>2026-04-28T16:59:25Z</time></trkpt><trkpt lat="40.73516906599439" lon="17.54223472275851"><ele>259.8</ele><time>2026-04-28T16:59:26Z</time></trkpt><trkpt lat="40.73507735237313" lon="17.542323979815933"><ele>259.6</ele><time>2026-04-28T16:59:27.999Z</time></trkpt><trkpt lat="40.73500918583387" lon="17.542399083723883"><ele>259.4</ele><time>2026-04-28T16:59:29.999Z</time></trkpt><trkpt lat="40.73495814725351" lon="17.542504910438886"><ele>259.2</ele><time>2026-04-28T16:59:31.999Z</time></trkpt><trkpt lat="40.734936651806365" lon="17.542627775001694"><ele>259.0</ele><time>2026-04-28T16:59:33.999Z</time></trkpt><trkpt lat="40.73492287383552" lon="17.54275287900125"><ele>259.0</ele><time>2026-04-28T16:59:35.999Z</time></trkpt><trkpt lat="40.734911876499474" lon="17.542873142843025"><ele>259.0</ele><time>2026-04-28T16:59:37.999Z</time></trkpt><trkpt lat="40.73490527441688" lon="17.542997588112097"><ele>259.0</ele><time>2026-04-28T16:59:39.999Z</time></trkpt><trkpt lat="40.73490424134798" lon="17.54311214334907"><ele>259.0</ele><time>2026-04-28T16:59:41.999Z</time></trkpt><trkpt lat="40.73490861825571" lon="17.54322334929651"><ele>259.0</ele><time>2026-04-28T16:59:43.999Z</time></trkpt><trkpt lat="40.73491866375392" lon="17.54333594183981"><ele>259.0</ele><time>2026-04-28T16:59:45.999Z</time></trkpt><trkpt lat="40.73493034605805" lon="17.543449118355056"><ele>260.16666666666663</ele><time>2026-04-28T16:59:47.999Z</time></trkpt><trkpt lat="40.7349462794816" lon="17.54356731013049"><ele>261.3333333333333</ele><time>2026-04-28T16:59:49.999Z</time></trkpt><trkpt lat="40.73496110221926" lon="17.543676186651286"><ele>262.5</ele><time>2026-04-28T16:59:51.999Z</time></trkpt><trkpt lat="40.73497441457491" lon="17.543783884288025"><ele>263.6666666666667</ele><time>2026-04-28T16:59:53.999Z</time></trkpt><trkpt lat="40.73498336312256" lon="17.543888251574273"><ele>264.83333333333337</ele><time>2026-04-28T16:59:55.999Z</time></trkpt><trkpt lat="40.73499127162812" lon="17.54399473585382"><ele>266.0</ele><time>2026-04-28T16:59:57.999Z</time></trkpt><trkpt lat="40.73499873970503" lon="17.54409576320423"><ele>266.6</ele><time>2026-04-28T16:59:59.999Z</time></trkpt><trkpt lat="40.73500655196287" lon="17.544201446615826"><ele>267.20000000000005</ele><time>2026-04-28T17:00:01.999Z</time></trkpt><trkpt lat="40.735038566329415" lon="17.544312636568282"><ele>267.79999999999995</ele><time>2026-04-28T17:00:03.999Z</time></trkpt><trkpt lat="40.73504067768735" lon="17.544438018695296"><ele>268.4</ele><time>2026-04-28T17:00:05.999Z</time></trkpt><trkpt lat="40.73505909671388" lon="17.544570841370433"><ele>269.0</ele><time>2026-04-28T17:00:07.999Z</time></trkpt><trkpt lat="40.735076694530285" lon="17.54469933369444"><ele>269.2</ele><time>2026-04-28T17:00:09.999Z</time></trkpt><trkpt lat="40.73507931414017" lon="17.544828417338174"><ele>269.4</ele><time>2026-04-28T17:00:11.999Z</time></trkpt><trkpt lat="40.735126110854196" lon="17.5449637377088"><ele>269.6</ele><time>2026-04-28T17:00:13.999Z</time></trkpt><trkpt lat="40.73515668592306" lon="17.545081096685884"><ele>269.8</ele><time>2026-04-28T17:00:15.999Z</time></trkpt><trkpt lat="40.73519596374911" lon="17.545194657615994"><ele>270.0</ele><time>2026-04-28T17:00:17.999Z</time></trkpt><trkpt lat="40.73522700507459" lon="17.545312911039055"><ele>270.4</ele><time>2026-04-28T17:00:19.999Z</time></trkpt><trkpt lat="40.73526122866312" lon="17.54542258192308"><ele>270.8</ele><time>2026-04-28T17:00:21.999Z</time></trkpt><trkpt lat="40.73529688386093" lon="17.545541306281585"><ele>271.2</ele><time>2026-04-28T17:00:23.999Z</time></trkpt><trkpt lat="40.73533480056344" lon="17.545638281824495"><ele>271.6</ele><time>2026-04-28T17:00:24.998Z</time></trkpt><trkpt lat="40.73536583051672" lon="17.545750569316457"><ele>272.0</ele><time>2026-04-28T17:00:26.998Z</time></trkpt><trkpt lat="40.73536526319823" lon="17.54591342402316"><ele>272.0</ele><time>2026-04-28T17:00:28.998Z</time></trkpt><trkpt lat="40.73531870505213" lon="17.546041834399805"><ele>272.0</ele><time>2026-04-28T17:00:30.998Z</time></trkpt><trkpt lat="40.73527111207124" lon="17.546103319014662"><ele>272.0</ele><time>2026-04-28T17:00:31.998Z</time></trkpt><trkpt lat="40.73518355394498" lon="17.54623093059585"><ele>272.0</ele><time>2026-04-28T17:00:33.998Z</time></trkpt><trkpt lat="40.735095788371424" lon="17.546339129125098"><ele>272.0</ele><time>2026-04-28T17:00:35.998Z</time></trkpt><trkpt lat="40.73501573636514" lon="17.54642233462828"><ele>272.2</ele><time>2026-04-28T17:00:37.998Z</time></trkpt><trkpt lat="40.73493077147821" lon="17.546499137072594"><ele>272.4</ele><time>2026-04-28T17:00:39.998Z</time></trkpt><trkpt lat="40.7348209217704" lon="17.546546815160628"><ele>272.6</ele><time>2026-04-28T17:00:41.998Z</time></trkpt><trkpt lat="40.734757243683525" lon="17.546550242060327"><ele>272.8</ele><time>2026-04-28T17:00:42.998Z</time></trkpt><trkpt lat="40.734644389287745" lon="17.54654406688573"><ele>273.0</ele><time>2026-04-28T17:00:44.998Z</time></trkpt><trkpt lat="40.73453663056273" lon="17.546575962355448"><ele>273.0</ele><time>2026-04-28T17:00:46.998Z</time></trkpt><trkpt lat="40.73444057158493" lon="17.546622968647714"><ele>273.0</ele><time>2026-04-28T17:00:48.998Z</time></trkpt><trkpt lat="40.73436063753752" lon="17.54664444884491"><ele>273.0</ele><time>2026-04-28T17:00:51Z</time></trkpt><trkpt lat="40.73431460954851" lon="17.546715644579077"><ele>273.0</ele><time>2026-04-28T17:00:52Z</time></trkpt><trkpt lat="40.734241560723156" lon="17.546808293776"><ele>273.0</ele><time>2026-04-28T17:00:54Z</time></trkpt><trkpt lat="40.73417265836275" lon="17.546913781756306"><ele>273.2</ele><time>2026-04-28T17:00:56Z</time></trkpt><trkpt lat="40.73411305628566" lon="17.547012445239233"><ele>273.4</ele><time>2026-04-28T17:00:58Z</time></trkpt><trkpt lat="40.734055164647216" lon="17.54712623519684"><ele>273.59999999999997</ele><time>2026-04-28T17:01:00Z</time></trkpt><trkpt lat="40.73400301093767" lon="17.547213433970782"><ele>273.8</ele><time>2026-04-28T17:01:02Z</time></trkpt><trkpt lat="40.73395602171114" lon="17.547323281539995"><ele>274.0</ele><time>2026-04-28T17:01:04Z</time></trkpt><trkpt lat="40.733897602557754" lon="17.54741698045523"><ele>274.16666666666663</ele><time>2026-04-28T17:01:06Z</time></trkpt><trkpt lat="40.733846140597265" lon="17.547500702698535"><ele>274.3333333333333</ele><time>2026-04-28T17:01:08Z</time></trkpt><trkpt lat="40.73380012653466" lon="17.547594117364394"><ele>274.5</ele><time>2026-04-28T17:01:10Z</time></trkpt><trkpt lat="40.73375708150113" lon="17.547686985852827"><ele>274.6666666666667</ele><time>2026-04-28T17:01:12Z</time></trkpt><trkpt lat="40.73372699717899" lon="17.547785456866293"><ele>274.83333333333337</ele><time>2026-04-28T17:01:14Z</time></trkpt><trkpt lat="40.73371414510801" lon="17.547898747281398"><ele>275.0</ele><time>2026-04-28T17:01:16Z</time></trkpt><trkpt lat="40.73372431296397" lon="17.548007132217418"><ele>275.8</ele><time>2026-04-28T17:01:18Z</time></trkpt><trkpt lat="40.73375251162897" lon="17.5481192470668"><ele>276.6</ele><time>2026-04-28T17:01:20Z</time></trkpt><trkpt lat="40.73379153583022" lon="17.548235897403114"><ele>277.4</ele><time>2026-04-28T17:01:22Z</time></trkpt><trkpt lat="40.733815370770536" lon="17.54835628761029"><ele>278.2</ele><time>2026-04-28T17:01:24Z</time></trkpt><trkpt lat="40.73383052744373" lon="17.54847767745361"><ele>279.0</ele><time>2026-04-28T17:01:26Z</time></trkpt><trkpt lat="40.73383550176374" lon="17.548601919044433"><ele>279.2</ele><time>2026-04-28T17:01:28Z</time></trkpt><trkpt lat="40.73384130196423" lon="17.548725708518067"><ele>279.4</ele><time>2026-04-28T17:01:30Z</time></trkpt><trkpt lat="40.733850055636914" lon="17.548844570696442"><ele>279.6</ele><time>2026-04-28T17:01:32Z</time></trkpt><trkpt lat="40.73386341632845" lon="17.548963409907586"><ele>279.8</ele><time>2026-04-28T17:01:33.999Z</time></trkpt><trkpt lat="40.733872342384515" lon="17.549075476687136"><ele>280.0</ele><time>2026-04-28T17:01:35.999Z</time></trkpt><trkpt lat="40.73388049957084" lon="17.549195984075787"><ele>280.0</ele><time>2026-04-28T17:01:37.999Z</time></trkpt><trkpt lat="40.7338959872801" lon="17.549316794615557"><ele>280.0</ele><time>2026-04-28T17:01:39.999Z</time></trkpt><trkpt lat="40.73391083957718" lon="17.54944592065727"><ele>280.0</ele><time>2026-04-28T17:01:41.999Z</time></trkpt><trkpt lat="40.733939073269696" lon="17.549588571050084"><ele>280.0</ele><time>2026-04-28T17:01:43.999Z</time></trkpt><trkpt lat="40.73396531005815" lon="17.549719294488263"><ele>280.0</ele><time>2026-04-28T17:01:45.999Z</time></trkpt><trkpt lat="40.73399326528686" lon="17.549851874087192"><ele>280.0</ele><time>2026-04-28T17:01:47.999Z</time></trkpt><trkpt lat="40.733996231522255" lon="17.54997149980391"><ele>280.0</ele><time>2026-04-28T17:01:49.999Z</time></trkpt><trkpt lat="40.73398453663839" lon="17.55013158556194"><ele>280.0</ele><time>2026-04-28T17:01:51.999Z</time></trkpt><trkpt lat="40.73395926796839" lon="17.55027155100507"><ele>280.0</ele><time>2026-04-28T17:01:53.999Z</time></trkpt><trkpt lat="40.73390152154289" lon="17.55041686723048"><ele>280.0</ele><time>2026-04-28T17:01:55.999Z</time></trkpt><trkpt lat="40.73385385332813" lon="17.55048738286663"><ele>279.85714285714283</ele><time>2026-04-28T17:01:56.999Z</time></trkpt><trkpt lat="40.733784718210565" lon="17.550530916923403"><ele>279.7142857142857</ele><time>2026-04-28T17:01:57.999Z</time></trkpt><trkpt lat="40.733721999121215" lon="17.550579638344466"><ele>279.57142857142856</ele><time>2026-04-28T17:01:58.999Z</time></trkpt><trkpt lat="40.73366357966418" lon="17.550622713179344"><ele>279.42857142857144</ele><time>2026-04-28T17:01:59.999Z</time></trkpt><trkpt lat="40.73360526161252" lon="17.55066931344407"><ele>279.2857142857143</ele><time>2026-04-28T17:02:00.999Z</time></trkpt><trkpt lat="40.733544025084974" lon="17.55071678991155"><ele>279.1428571428571</ele><time>2026-04-28T17:02:01.999Z</time></trkpt><trkpt lat="40.733477602861406" lon="17.55077457675813"><ele>279.0</ele><time>2026-04-28T17:02:02.999Z</time></trkpt><trkpt lat="40.73341790353621" lon="17.55082050027421"><ele>278.5</ele><time>2026-04-28T17:02:03.999Z</time></trkpt><trkpt lat="40.73334517936388" lon="17.550885254853362"><ele>278.0</ele><time>2026-04-28T17:02:04.999Z</time></trkpt><trkpt lat="40.733287558652684" lon="17.550949420659506"><ele>277.5</ele><time>2026-04-28T17:02:05.999Z</time></trkpt><trkpt lat="40.73322540770426" lon="17.551002165663892"><ele>277.0</ele><time>2026-04-28T17:02:06.999Z</time></trkpt><trkpt lat="40.733160739001896" lon="17.551060509431917"><ele>276.5</ele><time>2026-04-28T17:02:07.999Z</time></trkpt><trkpt lat="40.733097940837446" lon="17.551120175015043"><ele>276.0</ele><time>2026-04-28T17:02:08.999Z</time></trkpt><trkpt lat="40.73303852613515" lon="17.551170810381485"><ele>275.8571428571429</ele><time>2026-04-28T17:02:09.999Z</time></trkpt><trkpt lat="40.732976966666214" lon="17.55122584285633"><ele>275.7142857142857</ele><time>2026-04-28T17:02:10.999Z</time></trkpt><trkpt lat="40.73291795541514" lon="17.55128608827956"><ele>275.57142857142856</ele><time>2026-04-28T17:02:11.999Z</time></trkpt><trkpt lat="40.73286531216609" lon="17.551344841953195"><ele>275.42857142857144</ele><time>2026-04-28T17:02:12.999Z</time></trkpt><trkpt lat="40.73282534945466" lon="17.551417147514673"><ele>275.2857142857143</ele><time>2026-04-28T17:02:13.999Z</time></trkpt><trkpt lat="40.7327842137914" lon="17.551503495710417"><ele>275.14285714285717</ele><time>2026-04-28T17:02:14.999Z</time></trkpt><trkpt lat="40.73275515315151" lon="17.551596801722237"><ele>275.0</ele><time>2026-04-28T17:02:15.999Z</time></trkpt><trkpt lat="40.73272264605788" lon="17.551698509027585"><ele>273.83333333333337</ele><time>2026-04-28T17:02:16.999Z</time></trkpt><trkpt lat="40.73269503050883" lon="17.55179171419544"><ele>272.6666666666667</ele><time>2026-04-28T17:02:17.999Z</time></trkpt><trkpt lat="40.73266462896872" lon="17.551890574723206"><ele>271.5</ele><time>2026-04-28T17:02:18.999Z</time></trkpt><trkpt lat="40.732644532481295" lon="17.551988138067934"><ele>270.3333333333333</ele><time>2026-04-28T17:02:19.999Z</time></trkpt><trkpt lat="40.732623467954724" lon="17.55207824605528"><ele>269.16666666666663</ele><time>2026-04-28T17:02:20.999Z</time></trkpt><trkpt lat="40.73260892335325" lon="17.552179324284186"><ele>268.0</ele><time>2026-04-28T17:02:21.999Z</time></trkpt><trkpt lat="40.73260072289806" lon="17.55227129405671"><ele>267.8333333333333</ele><time>2026-04-28T17:02:22.999Z</time></trkpt><trkpt lat="40.73259110570946" lon="17.55238278130477"><ele>267.66666666666663</ele><time>2026-04-28T17:02:23.999Z</time></trkpt><trkpt lat="40.73258647888867" lon="17.55247045417369"><ele>267.5</ele><time>2026-04-28T17:02:24.999Z</time></trkpt><trkpt lat="40.73257085182815" lon="17.552562479625596"><ele>267.3333333333333</ele><time>2026-04-28T17:02:25.999Z</time></trkpt><trkpt lat="40.73253950513292" lon="17.552653604115626"><ele>267.1666666666667</ele><time>2026-04-28T17:02:26.999Z</time></trkpt><trkpt lat="40.73249922957539" lon="17.552757816231736"><ele>267.0</ele><time>2026-04-28T17:02:27.999Z</time></trkpt><trkpt lat="40.73246500550788" lon="17.552856677282403"><ele>266.6</ele><time>2026-04-28T17:02:28.999Z</time></trkpt><trkpt lat="40.732452105648676" lon="17.552985705279674"><ele>266.2</ele><time>2026-04-28T17:02:29.998Z</time></trkpt><trkpt lat="40.73244266249436" lon="17.553108620020435"><ele>265.8</ele><time>2026-04-28T17:02:30.998Z</time></trkpt><trkpt lat="40.7324130543773" lon="17.553226156607725"><ele>265.4</ele><time>2026-04-28T17:02:31.998Z</time></trkpt><trkpt lat="40.73238230495748" lon="17.55333872485694"><ele>265.0</ele><time>2026-04-28T17:02:32.998Z</time></trkpt><trkpt lat="40.73234519945752" lon="17.553462310771383"><ele>265.0</ele><time>2026-04-28T17:02:33.998Z</time></trkpt><trkpt lat="40.73230328514848" lon="17.553590337829768"><ele>265.0</ele><time>2026-04-28T17:02:34.998Z</time></trkpt><trkpt lat="40.732261837847275" lon="17.553694983999407"><ele>265.0</ele><time>2026-04-28T17:02:35.998Z</time></trkpt><trkpt lat="40.73221800119298" lon="17.553806033702593"><ele>265.0</ele><time>2026-04-28T17:02:36.998Z</time></trkpt><trkpt lat="40.732178041385026" lon="17.553887875916146"><ele>265.0</ele><time>2026-04-28T17:02:37.998Z</time></trkpt><trkpt lat="40.73211516666711" lon="17.553936191765917"><ele>265.0</ele><time>2026-04-28T17:02:38.998Z</time></trkpt><trkpt lat="40.73203037718942" lon="17.553930919675675"><ele>264.6</ele><time>2026-04-28T17:02:39.998Z</time></trkpt><trkpt lat="40.731939801241005" lon="17.553845464922354"><ele>264.2</ele><time>2026-04-28T17:02:40.998Z</time></trkpt><trkpt lat="40.73186973229366" lon="17.553742804432197"><ele>263.8</ele><time>2026-04-28T17:02:41.998Z</time></trkpt><trkpt lat="40.73179160878831" lon="17.55364872188494"><ele>263.4</ele><time>2026-04-28T17:02:42.998Z</time></trkpt><trkpt lat="40.731725752640735" lon="17.553589370719703"><ele>263.0</ele><time>2026-04-28T17:02:43.998Z</time></trkpt><trkpt lat="40.73164670022094" lon="17.553562855392542"><ele>262.0</ele><time>2026-04-28T17:02:44.998Z</time></trkpt><trkpt lat="40.731551289044475" lon="17.553577633312784"><ele>261.0</ele><time>2026-04-28T17:02:45.998Z</time></trkpt><trkpt lat="40.73147208055872" lon="17.55363343545169"><ele>260.0</ele><time>2026-04-28T17:02:46.998Z</time></trkpt><trkpt lat="40.731399459080805" lon="17.55371442625678"><ele>259.0</ele><time>2026-04-28T17:02:47.998Z</time></trkpt><trkpt lat="40.731333915616965" lon="17.553819999468196"><ele>258.0</ele><time>2026-04-28T17:02:48.998Z</time></trkpt><trkpt lat="40.73127384415767" lon="17.553925144394825"><ele>258.0</ele><time>2026-04-28T17:02:49.998Z</time></trkpt><trkpt lat="40.73120419424308" lon="17.554019116400333"><ele>258.0</ele><time>2026-04-28T17:02:50.998Z</time></trkpt><trkpt lat="40.731151800418836" lon="17.554129670813797"><ele>258.0</ele><time>2026-04-28T17:02:51.998Z</time></trkpt><trkpt lat="40.731101923608975" lon="17.554231144286874"><ele>258.0</ele><time>2026-04-28T17:02:52.998Z</time></trkpt><trkpt lat="40.73104408118719" lon="17.55435282590586"><ele>258.0</ele><time>2026-04-28T17:02:53.998Z</time></trkpt><trkpt lat="40.73098994586854" lon="17.554451137600005"><ele>256.4</ele><time>2026-04-28T17:02:54.998Z</time></trkpt><trkpt lat="40.730951175974546" lon="17.554565605710447"><ele>254.8</ele><time>2026-04-28T17:02:55.998Z</time></trkpt><trkpt lat="40.730906493484376" lon="17.554666135338355"><ele>253.2</ele><time>2026-04-28T17:02:57Z</time></trkpt><trkpt lat="40.7308466994854" lon="17.554763263174973"><ele>251.6</ele><time>2026-04-28T17:02:58Z</time></trkpt><trkpt lat="40.73079136750331" lon="17.554850515032523"><ele>250.0</ele><time>2026-04-28T17:02:59Z</time></trkpt><trkpt lat="40.73073302758014" lon="17.554936798752895"><ele>249.99999999999997</ele><time>2026-04-28T17:03:00Z</time></trkpt><trkpt lat="40.73068648635686" lon="17.555012047765835"><ele>250.0</ele><time>2026-04-28T17:03:01Z</time></trkpt><trkpt lat="40.73064852674972" lon="17.55509935165968"><ele>250.0</ele><time>2026-04-28T17:03:02Z</time></trkpt><trkpt lat="40.730601595202046" lon="17.555181681166893"><ele>250.0</ele><time>2026-04-28T17:03:03Z</time></trkpt><trkpt lat="40.730565517958304" lon="17.55528200970375"><ele>249.99999999999997</ele><time>2026-04-28T17:03:04Z</time></trkpt><trkpt lat="40.73053275014165" lon="17.55540151799583"><ele>250.0</ele><time>2026-04-28T17:03:05Z</time></trkpt><trkpt lat="40.730503622941804" lon="17.555492753472723"><ele>250.42857142857142</ele><time>2026-04-28T17:03:06Z</time></trkpt><trkpt lat="40.730467184709454" lon="17.55559352146613"><ele>250.8571428571429</ele><time>2026-04-28T17:03:07Z</time></trkpt><trkpt lat="40.730437687512996" lon="17.55568168419286"><ele>251.2857142857143</ele><time>2026-04-28T17:03:08Z</time></trkpt><trkpt lat="40.73040663634425" lon="17.55576694253603"><ele>251.71428571428572</ele><time>2026-04-28T17:03:09Z</time></trkpt><trkpt lat="40.73037377609306" lon="17.555848588869388"><ele>252.14285714285717</ele><time>2026-04-28T17:03:10Z</time></trkpt><trkpt lat="40.730348163500665" lon="17.555928805571522"><ele>252.5714285714286</ele><time>2026-04-28T17:03:11Z</time></trkpt><trkpt lat="40.73032403859002" lon="17.556015643275675"><ele>253.00000000000003</ele><time>2026-04-28T17:03:12Z</time></trkpt><trkpt lat="40.73029717008243" lon="17.5560952871676"><ele>252.8</ele><time>2026-04-28T17:03:13Z</time></trkpt><trkpt lat="40.730236673025026" lon="17.556237563590052"><ele>252.60000000000002</ele><time>2026-04-28T17:03:15Z</time></trkpt><trkpt lat="40.73021215397434" lon="17.556316551368035"><ele>252.39999999999998</ele><time>2026-04-28T17:03:16Z</time></trkpt><trkpt lat="40.73016057913149" lon="17.55646203174219"><ele>252.2</ele><time>2026-04-28T17:03:18Z</time></trkpt><trkpt lat="40.73009013277663" lon="17.556596884577544"><ele>252.0</ele><time>2026-04-28T17:03:20Z</time></trkpt><trkpt lat="40.730044189983786" lon="17.556654036667428"><ele>250.33333333333334</ele><time>2026-04-28T17:03:21Z</time></trkpt><trkpt lat="40.72998132003413" lon="17.556699051800724"><ele>248.66666666666669</ele><time>2026-04-28T17:03:22Z</time></trkpt><trkpt lat="40.729911238271114" lon="17.556740989250294"><ele>247.0</ele><time>2026-04-28T17:03:23Z</time></trkpt><trkpt lat="40.729839726834" lon="17.55678279490436"><ele>245.33333333333334</ele><time>2026-04-28T17:03:24Z</time></trkpt><trkpt lat="40.72976792881179" lon="17.556831969847842"><ele>243.66666666666669</ele><time>2026-04-28T17:03:25Z</time></trkpt><trkpt lat="40.729695562431075" lon="17.556887093300247"><ele>242.0</ele><time>2026-04-28T17:03:26Z</time></trkpt><trkpt lat="40.72962421028042" lon="17.55693065500185"><ele>242.00000000000003</ele><time>2026-04-28T17:03:27Z</time></trkpt><trkpt lat="40.72955698675093" lon="17.55697214352606"><ele>242.0</ele><time>2026-04-28T17:03:28Z</time></trkpt><trkpt lat="40.729486120475464" lon="17.557018466686163"><ele>242.0</ele><time>2026-04-28T17:03:29Z</time></trkpt><trkpt lat="40.729419744606936" lon="17.557065901418007"><ele>242.0</ele><time>2026-04-28T17:03:30Z</time></trkpt><trkpt lat="40.72934743206859" lon="17.557112839425717"><ele>242.00000000000003</ele><time>2026-04-28T17:03:31Z</time></trkpt><trkpt lat="40.72928097415856" lon="17.55716004595319"><ele>242.0</ele><time>2026-04-28T17:03:32Z</time></trkpt><trkpt lat="40.72916852737315" lon="17.557233260128466"><ele>240.5</ele><time>2026-04-28T17:03:34Z</time></trkpt><trkpt lat="40.72905958078427" lon="17.557300247680445"><ele>239.0</ele><time>2026-04-28T17:03:36Z</time></trkpt><trkpt lat="40.72895398573517" lon="17.55737250028843"><ele>237.5</ele><time>2026-04-28T17:03:37.999Z</time></trkpt><trkpt lat="40.728871101988695" lon="17.55745899713167"><ele>236.0</ele><time>2026-04-28T17:03:39.999Z</time></trkpt><trkpt lat="40.728788432902405" lon="17.557567169701457"><ele>236.0</ele><time>2026-04-28T17:03:41.999Z</time></trkpt><trkpt lat="40.72875512332007" lon="17.557718154566523"><ele>236.00000000000003</ele><time>2026-04-28T17:03:43.999Z</time></trkpt><trkpt lat="40.72875308377088" lon="17.557869084330445"><ele>236.00000000000003</ele><time>2026-04-28T17:03:45.999Z</time></trkpt><trkpt lat="40.72874564315287" lon="17.558028327498107"><ele>236.0</ele><time>2026-04-28T17:03:47.999Z</time></trkpt><trkpt lat="40.72873470025148" lon="17.558115314659965"><ele>236.0</ele><time>2026-04-28T17:03:48.999Z</time></trkpt><trkpt lat="40.728717300893095" lon="17.558196715693757"><ele>236.0</ele><time>2026-04-28T17:03:49.999Z</time></trkpt><trkpt lat="40.72869672610995" lon="17.558282313583355"><ele>236.00000000000003</ele><time>2026-04-28T17:03:50.999Z</time></trkpt><trkpt lat="40.72866799361022" lon="17.558362452328662"><ele>236.00000000000003</ele><time>2026-04-28T17:03:51.999Z</time></trkpt><trkpt lat="40.728605307148946" lon="17.55850851474147"><ele>236.0</ele><time>2026-04-28T17:03:53.999Z</time></trkpt><trkpt lat="40.728545526596626" lon="17.558653013079862"><ele>236.0</ele><time>2026-04-28T17:03:55.999Z</time></trkpt><trkpt lat="40.72851750523881" lon="17.558728165940728"><ele>235.00000000000003</ele><time>2026-04-28T17:03:56.999Z</time></trkpt><trkpt lat="40.728492221938744" lon="17.558823031249418"><ele>234.0</ele><time>2026-04-28T17:03:57.999Z</time></trkpt><trkpt lat="40.72845633529451" lon="17.558891890115813"><ele>233.0</ele><time>2026-04-28T17:03:58.999Z</time></trkpt><trkpt lat="40.72842377096022" lon="17.558977474285893"><ele>232.0</ele><time>2026-04-28T17:03:59.999Z</time></trkpt><trkpt lat="40.72838869745678" lon="17.559071285091164"><ele>231.00000000000003</ele><time>2026-04-28T17:04:00.999Z</time></trkpt><trkpt lat="40.72835202433464" lon="17.559167150347083"><ele>230.0</ele><time>2026-04-28T17:04:01.999Z</time></trkpt><trkpt lat="40.72828279882468" lon="17.55925749625725"><ele>230.00000000000003</ele><time>2026-04-28T17:04:02.999Z</time></trkpt><trkpt lat="40.72824335934103" lon="17.55935490899818"><ele>230.0</ele><time>2026-04-28T17:04:03.999Z</time></trkpt><trkpt lat="40.72820078498645" lon="17.559459899188802"><ele>230.0</ele><time>2026-04-28T17:04:04.999Z</time></trkpt><trkpt lat="40.72816188465105" lon="17.559553480261894"><ele>230.0</ele><time>2026-04-28T17:04:05.999Z</time></trkpt><trkpt lat="40.72811639820695" lon="17.55966222350147"><ele>230.00000000000003</ele><time>2026-04-28T17:04:06.999Z</time></trkpt><trkpt lat="40.72807475939123" lon="17.559766521261583"><ele>230.0</ele><time>2026-04-28T17:04:07.999Z</time></trkpt><trkpt lat="40.728042361702684" lon="17.5598510705482"><ele>229.66666666666669</ele><time>2026-04-28T17:04:08.999Z</time></trkpt><trkpt lat="40.727999735918104" lon="17.559959458434612"><ele>229.33333333333334</ele><time>2026-04-28T17:04:09.999Z</time></trkpt><trkpt lat="40.72795248693721" lon="17.560065574510688"><ele>229.0</ele><time>2026-04-28T17:04:10.999Z</time></trkpt><trkpt lat="40.72786979753435" lon="17.56010749818842"><ele>228.66666666666669</ele><time>2026-04-28T17:04:11.999Z</time></trkpt><trkpt lat="40.72779269546904" lon="17.56013689424036"><ele>228.33333333333334</ele><time>2026-04-28T17:04:12.999Z</time></trkpt><trkpt lat="40.72773123162818" lon="17.560164066200297"><ele>228.0</ele><time>2026-04-28T17:04:13.999Z</time></trkpt><trkpt lat="40.727663767295326" lon="17.560197083978814"><ele>228.0</ele><time>2026-04-28T17:04:16.999Z</time></trkpt><trkpt lat="40.72761112306145" lon="17.560269256386327"><ele>228.0</ele><time>2026-04-28T17:04:19.999Z</time></trkpt><trkpt lat="40.72762116100976" lon="17.560401450761134"><ele>228.0</ele><time>2026-04-28T17:04:21.999Z</time></trkpt><trkpt lat="40.72765481881479" lon="17.560525927545143"><ele>228.0</ele><time>2026-04-28T17:04:23.999Z</time></trkpt><trkpt lat="40.727710263843214" lon="17.56066667778121"><ele>228.0</ele><time>2026-04-28T17:04:25.999Z</time></trkpt><trkpt lat="40.7277359446481" lon="17.56075292073993"><ele>226.83333333333334</ele><time>2026-04-28T17:04:26.999Z</time></trkpt><trkpt lat="40.727766311761066" lon="17.560840664514796"><ele>225.66666666666669</ele><time>2026-04-28T17:04:27.999Z</time></trkpt><trkpt lat="40.727801393876625" lon="17.560934319405316"><ele>224.5</ele><time>2026-04-28T17:04:28.999Z</time></trkpt><trkpt lat="40.727840125384986" lon="17.561029679421406"><ele>223.33333333333334</ele><time>2026-04-28T17:04:29.999Z</time></trkpt><trkpt lat="40.727875033125336" lon="17.56112325057035"><ele>222.16666666666669</ele><time>2026-04-28T17:04:30.999Z</time></trkpt><trkpt lat="40.727909536808816" lon="17.561235437565248"><ele>221.0</ele><time>2026-04-28T17:04:31.999Z</time></trkpt><trkpt lat="40.7279494614667" lon="17.5613451725437"><ele>220.66666666666669</ele><time>2026-04-28T17:04:32.998Z</time></trkpt><trkpt lat="40.727989702104175" lon="17.561466955656105"><ele>220.33333333333334</ele><time>2026-04-28T17:04:33.998Z</time></trkpt><trkpt lat="40.72801040839612" lon="17.56158702212076"><ele>220.0</ele><time>2026-04-28T17:04:34.998Z</time></trkpt><trkpt lat="40.728020751718475" lon="17.56170674818804"><ele>219.66666666666669</ele><time>2026-04-28T17:04:35.998Z</time></trkpt><trkpt lat="40.72801532250878" lon="17.561815124350815"><ele>219.33333333333334</ele><time>2026-04-28T17:04:36.998Z</time></trkpt><trkpt lat="40.72799462139946" lon="17.561910509637034"><ele>219.0</ele><time>2026-04-28T17:04:37.998Z</time></trkpt><trkpt lat="40.72798258993414" lon="17.562011492154653"><ele>219.0</ele><time>2026-04-28T17:04:38.998Z</time></trkpt><trkpt lat="40.72797668809168" lon="17.562112088457745"><ele>218.99999999999997</ele><time>2026-04-28T17:04:39.998Z</time></trkpt><trkpt lat="40.72797933285229" lon="17.562203381669548"><ele>218.99999999999997</ele><time>2026-04-28T17:04:40.998Z</time></trkpt><trkpt lat="40.72799420151882" lon="17.562350964246274"><ele>219.0</ele><time>2026-04-28T17:04:42.998Z</time></trkpt><trkpt lat="40.72803030470032" lon="17.562504420585885"><ele>219.0</ele><time>2026-04-28T17:04:44.998Z</time></trkpt><trkpt lat="40.728050838982114" lon="17.56264463355815"><ele>219.0</ele><time>2026-04-28T17:04:46.998Z</time></trkpt><trkpt lat="40.72808305298819" lon="17.562783093414712"><ele>218.99999999999997</ele><time>2026-04-28T17:04:48.998Z</time></trkpt><trkpt lat="40.72809993320005" lon="17.562922675000713"><ele>218.99999999999997</ele><time>2026-04-28T17:04:50.998Z</time></trkpt><trkpt lat="40.72813501273966" lon="17.5630660073733"><ele>219.0</ele><time>2026-04-28T17:04:52.998Z</time></trkpt><trkpt lat="40.72816731944074" lon="17.563206830222832"><ele>219.0</ele><time>2026-04-28T17:04:54.998Z</time></trkpt><trkpt lat="40.72819059705587" lon="17.563351848128626"><ele>219.39999999999998</ele><time>2026-04-28T17:04:56.998Z</time></trkpt><trkpt lat="40.72820418907565" lon="17.56343351887819"><ele>219.79999999999998</ele><time>2026-04-28T17:04:57.998Z</time></trkpt><trkpt lat="40.728224988772425" lon="17.56359086131041"><ele>220.20000000000002</ele><time>2026-04-28T17:04:59.998Z</time></trkpt><trkpt lat="40.72823541024395" lon="17.56374105409847"><ele>220.60000000000002</ele><time>2026-04-28T17:05:01.998Z</time></trkpt><trkpt lat="40.72822913594805" lon="17.56388564699237"><ele>221.0</ele><time>2026-04-28T17:05:04Z</time></trkpt><trkpt lat="40.728211492239005" lon="17.564018822738714"><ele>222.75</ele><time>2026-04-28T17:05:06Z</time></trkpt><trkpt lat="40.72820211051914" lon="17.564166084753875"><ele>224.5</ele><time>2026-04-28T17:05:08Z</time></trkpt><trkpt lat="40.72821015479241" lon="17.564310194665474"><ele>226.25</ele><time>2026-04-28T17:05:10Z</time></trkpt><trkpt lat="40.72821914215978" lon="17.564463493071003"><ele>228.0</ele><time>2026-04-28T17:05:12Z</time></trkpt><trkpt lat="40.728225014832425" lon="17.56462485181869"><ele>228.8</ele><time>2026-04-28T17:05:14Z</time></trkpt><trkpt lat="40.72823007674124" lon="17.564783870041783"><ele>229.60000000000002</ele><time>2026-04-28T17:05:16Z</time></trkpt><trkpt lat="40.728222810152275" lon="17.564867238242705"><ele>230.39999999999998</ele><time>2026-04-28T17:05:17Z</time></trkpt><trkpt lat="40.72819501507033" lon="17.5650107111645"><ele>231.2</ele><time>2026-04-28T17:05:19Z</time></trkpt><trkpt lat="40.728152454035964" lon="17.56514175377187"><ele>232.0</ele><time>2026-04-28T17:05:21Z</time></trkpt><trkpt lat="40.72811852649753" lon="17.565217699357024"><ele>231.99999999999997</ele><time>2026-04-28T17:05:22Z</time></trkpt><trkpt lat="40.72805737368081" lon="17.56532676915196"><ele>232.0</ele><time>2026-04-28T17:05:24Z</time></trkpt><trkpt lat="40.727991284224196" lon="17.565420123786048"><ele>232.0</ele><time>2026-04-28T17:05:26Z</time></trkpt><trkpt lat="40.727934729556026" lon="17.56549369387879"><ele>232.0</ele><time>2026-04-28T17:05:28Z</time></trkpt><trkpt lat="40.727872410129876" lon="17.56558035174964"><ele>231.99999999999997</ele><time>2026-04-28T17:05:30Z</time></trkpt><trkpt lat="40.727802882644276" lon="17.565613126695904"><ele>232.0</ele><time>2026-04-28T17:05:32Z</time></trkpt><trkpt lat="40.72774835058634" lon="17.565656310803856"><ele>233.0</ele><time>2026-04-28T17:05:34Z</time></trkpt><trkpt lat="40.72769019714557" lon="17.5657157221862"><ele>234.0</ele><time>2026-04-28T17:05:36Z</time></trkpt><trkpt lat="40.727619543509626" lon="17.565778032042743"><ele>235.0</ele><time>2026-04-28T17:05:38Z</time></trkpt><trkpt lat="40.72753762267329" lon="17.56585857401514"><ele>236.0</ele><time>2026-04-28T17:05:40Z</time></trkpt><trkpt lat="40.727453292924906" lon="17.565939043310706"><ele>237.0</ele><time>2026-04-28T17:05:42Z</time></trkpt><trkpt lat="40.727372892841075" lon="17.56601311979432"><ele>237.0</ele><time>2026-04-28T17:05:44Z</time></trkpt><trkpt lat="40.72731867982497" lon="17.566065743689208"><ele>237.0</ele><time>2026-04-28T17:05:45Z</time></trkpt><trkpt lat="40.72726662814716" lon="17.56613123849615"><ele>237.0</ele><time>2026-04-28T17:05:46.999Z</time></trkpt><trkpt lat="40.72720461760923" lon="17.566188859175302"><ele>237.0</ele><time>2026-04-28T17:05:48.999Z</time></trkpt><trkpt lat="40.72716312994913" lon="17.56626357821852"><ele>237.0</ele><time>2026-04-28T17:05:50.999Z</time></trkpt><trkpt lat="40.7271638960682" lon="17.56638275515999"><ele>237.0</ele><time>2026-04-28T17:05:52.999Z</time></trkpt><trkpt lat="40.72716631935057" lon="17.56648689981022"><ele>236.83333333333334</ele><time>2026-04-28T17:05:54.999Z</time></trkpt><trkpt lat="40.727178032734464" lon="17.566601525769325"><ele>236.66666666666669</ele><time>2026-04-28T17:05:56.999Z</time></trkpt><trkpt lat="40.72720023679711" lon="17.566711391371214"><ele>236.5</ele><time>2026-04-28T17:05:58.999Z</time></trkpt><trkpt lat="40.72724357599873" lon="17.5668118010825"><ele>236.33333333333334</ele><time>2026-04-28T17:06:00.999Z</time></trkpt><trkpt lat="40.727294468475144" lon="17.566893220514466"><ele>236.16666666666669</ele><time>2026-04-28T17:06:02.999Z</time></trkpt><trkpt lat="40.727341788802214" lon="17.566982432386123"><ele>236.0</ele><time>2026-04-28T17:06:04.999Z</time></trkpt><trkpt lat="40.727407903410004" lon="17.567063113958284"><ele>235.60000000000002</ele><time>2026-04-28T17:06:06.999Z</time></trkpt><trkpt lat="40.72747976868486" lon="17.567146890930136"><ele>235.20000000000002</ele><time>2026-04-28T17:06:08.999Z</time></trkpt><trkpt lat="40.72754728766728" lon="17.567235570282786"><ele>234.79999999999998</ele><time>2026-04-28T17:06:10.999Z</time></trkpt><trkpt lat="40.72763073216756" lon="17.567313296666484"><ele>234.39999999999998</ele><time>2026-04-28T17:06:12.999Z</time></trkpt><trkpt lat="40.727712089552945" lon="17.5674083187394"><ele>234.0</ele><time>2026-04-28T17:06:14.999Z</time></trkpt><trkpt lat="40.72778700506862" lon="17.56753888956402"><ele>234.0</ele><time>2026-04-28T17:06:16.999Z</time></trkpt><trkpt lat="40.727831296558335" lon="17.567705864479382"><ele>233.99999999999997</ele><time>2026-04-28T17:06:18.999Z</time></trkpt><trkpt lat="40.72787392868639" lon="17.56785294637199"><ele>233.99999999999997</ele><time>2026-04-28T17:06:20.999Z</time></trkpt><trkpt lat="40.727895717348744" lon="17.567932920935682"><ele>234.0</ele><time>2026-04-28T17:06:21.999Z</time></trkpt><trkpt lat="40.72791673575913" lon="17.56801274947061"><ele>234.0</ele><time>2026-04-28T17:06:22.999Z</time></trkpt><trkpt lat="40.727949882206765" lon="17.568163095978097"><ele>233.6</ele><time>2026-04-28T17:06:24.999Z</time></trkpt><trkpt lat="40.72797157212781" lon="17.5683069528424"><ele>233.2</ele><time>2026-04-28T17:06:26.999Z</time></trkpt><trkpt lat="40.72799278750707" lon="17.568455685930438"><ele>232.79999999999998</ele><time>2026-04-28T17:06:28.999Z</time></trkpt><trkpt lat="40.72803639810486" lon="17.568526474447648"><ele>232.39999999999998</ele><time>2026-04-28T17:06:29.999Z</time></trkpt><trkpt lat="40.72805841010857" lon="17.568683409561444"><ele>232.0</ele><time>2026-04-28T17:06:31.999Z</time></trkpt><trkpt lat="40.728100155866784" lon="17.56881436380255"><ele>231.8</ele><time>2026-04-28T17:06:33.999Z</time></trkpt><trkpt lat="40.72812324376942" lon="17.568961124977456"><ele>231.6</ele><time>2026-04-28T17:06:35.999Z</time></trkpt><trkpt lat="40.72814222165511" lon="17.569105226414727"><ele>231.40000000000003</ele><time>2026-04-28T17:06:37.999Z</time></trkpt><trkpt lat="40.72817445702695" lon="17.569247513156025"><ele>231.20000000000002</ele><time>2026-04-28T17:06:39.998Z</time></trkpt><trkpt lat="40.728214568252525" lon="17.56937248840056"><ele>231.0</ele><time>2026-04-28T17:06:41.998Z</time></trkpt><trkpt lat="40.728233464021784" lon="17.569521084429706"><ele>231.4</ele><time>2026-04-28T17:06:43.998Z</time></trkpt><trkpt lat="40.72826021254871" lon="17.56967198767844"><ele>231.8</ele><time>2026-04-28T17:06:45.998Z</time></trkpt><trkpt lat="40.728275608536585" lon="17.569794117292872"><ele>232.20000000000002</ele><time>2026-04-28T17:06:47.998Z</time></trkpt><trkpt lat="40.72828445889827" lon="17.569926484200728"><ele>232.60000000000002</ele><time>2026-04-28T17:06:49.998Z</time></trkpt><trkpt lat="40.72828066345668" lon="17.57003659727588"><ele>233.0</ele><time>2026-04-28T17:06:51.998Z</time></trkpt><trkpt lat="40.72825003721867" lon="17.570144146418894"><ele>233.00000000000003</ele><time>2026-04-28T17:06:53.998Z</time></trkpt><trkpt lat="40.72819004428582" lon="17.57023154884196"><ele>233.0</ele><time>2026-04-28T17:06:55.998Z</time></trkpt><trkpt lat="40.728135064834845" lon="17.57029217949741"><ele>233.0</ele><time>2026-04-28T17:06:57.998Z</time></trkpt><trkpt lat="40.72808356094904" lon="17.570387974102673"><ele>233.0</ele><time>2026-04-28T17:06:59.998Z</time></trkpt><trkpt lat="40.72804377070888" lon="17.570473076699795"><ele>233.00000000000003</ele><time>2026-04-28T17:07:01.998Z</time></trkpt><trkpt lat="40.728046864644824" lon="17.570583910811784"><ele>233.0</ele><time>2026-04-28T17:07:03.998Z</time></trkpt><trkpt lat="40.72808616882254" lon="17.570670625236616"><ele>233.0</ele><time>2026-04-28T17:07:05.998Z</time></trkpt><trkpt lat="40.728136794652855" lon="17.570773275484"><ele>233.0</ele><time>2026-04-28T17:07:07.998Z</time></trkpt><trkpt lat="40.72817415248719" lon="17.570879682486904"><ele>233.0</ele><time>2026-04-28T17:07:10Z</time></trkpt><trkpt lat="40.72819975874591" lon="17.571020205311964"><ele>233.0</ele><time>2026-04-28T17:07:12Z</time></trkpt><trkpt lat="40.728211421139804" lon="17.571157705124968"><ele>233.0</ele><time>2026-04-28T17:07:14Z</time></trkpt><trkpt lat="40.72823735386933" lon="17.571278791681593"><ele>232.8</ele><time>2026-04-28T17:07:16Z</time></trkpt><trkpt lat="40.72825344292476" lon="17.571395025799763"><ele>232.60000000000002</ele><time>2026-04-28T17:07:18Z</time></trkpt><trkpt lat="40.7282338303944" lon="17.57147446054624"><ele>232.39999999999998</ele><time>2026-04-28T17:07:19Z</time></trkpt><trkpt lat="40.72826042286285" lon="17.57160056408558"><ele>232.2</ele><time>2026-04-28T17:07:21Z</time></trkpt><trkpt lat="40.72828407581748" lon="17.571736731139847"><ele>232.0</ele><time>2026-04-28T17:07:23Z</time></trkpt><trkpt lat="40.72826085118354" lon="17.571871567546427"><ele>232.0</ele><time>2026-04-28T17:07:25Z</time></trkpt><trkpt lat="40.72825765860438" lon="17.57199690278526"><ele>232.0</ele><time>2026-04-28T17:07:27Z</time></trkpt><trkpt lat="40.72826254228729" lon="17.57213093763046"><ele>232.0</ele><time>2026-04-28T17:07:29Z</time></trkpt><trkpt lat="40.728262360898995" lon="17.57225584364287"><ele>232.0</ele><time>2026-04-28T17:07:31Z</time></trkpt><trkpt lat="40.72825920823201" lon="17.572374350299153"><ele>232.0</ele><time>2026-04-28T17:07:33Z</time></trkpt><trkpt lat="40.72824104494264" lon="17.57249416647673"><ele>231.8</ele><time>2026-04-28T17:07:35Z</time></trkpt><trkpt lat="40.72819719380613" lon="17.572607001182593"><ele>231.6</ele><time>2026-04-28T17:07:37Z</time></trkpt><trkpt lat="40.72818095431425" lon="17.57276112855749"><ele>231.40000000000003</ele><time>2026-04-28T17:07:39Z</time></trkpt><trkpt lat="40.72820454807464" lon="17.57289444000098"><ele>231.20000000000002</ele><time>2026-04-28T17:07:41Z</time></trkpt><trkpt lat="40.72822238378976" lon="17.57303123476008"><ele>231.0</ele><time>2026-04-28T17:07:43Z</time></trkpt><trkpt lat="40.72822870306497" lon="17.57317306603759"><ele>231.4</ele><time>2026-04-28T17:07:45Z</time></trkpt><trkpt lat="40.72820298618583" lon="17.573293886807793"><ele>231.8</ele><time>2026-04-28T17:07:47Z</time></trkpt><trkpt lat="40.728164324519284" lon="17.573397653365962"><ele>232.20000000000002</ele><time>2026-04-28T17:07:49Z</time></trkpt><trkpt lat="40.728116148143165" lon="17.573504786942124"><ele>232.60000000000002</ele><time>2026-04-28T17:07:51Z</time></trkpt><trkpt lat="40.728072237684074" lon="17.573621379937077"><ele>233.0</ele><time>2026-04-28T17:07:53Z</time></trkpt><trkpt lat="40.728027249395645" lon="17.573737191560053"><ele>233.33333333333334</ele><time>2026-04-28T17:07:54.999Z</time></trkpt><trkpt lat="40.72797354482235" lon="17.57384643617015"><ele>233.66666666666669</ele><time>2026-04-28T17:07:56.999Z</time></trkpt><trkpt lat="40.72792762580028" lon="17.57392730848512"><ele>234.0</ele><time>2026-04-28T17:07:58.999Z</time></trkpt><trkpt lat="40.72789494968924" lon="17.574017944002012"><ele>234.33333333333331</ele><time>2026-04-28T17:08:00.999Z</time></trkpt><trkpt lat="40.72787377361283" lon="17.574107750790322"><ele>234.66666666666666</ele><time>2026-04-28T17:08:02.999Z</time></trkpt><trkpt lat="40.72784540206909" lon="17.57419494876986"><ele>235.0</ele><time>2026-04-28T17:08:04.999Z</time></trkpt><trkpt lat="40.72780690066532" lon="17.574284187367436"><ele>234.99999999999997</ele><time>2026-04-28T17:08:06.999Z</time></trkpt><trkpt lat="40.727772303236705" lon="17.574368725177564"><ele>235.0</ele><time>2026-04-28T17:08:08.999Z</time></trkpt><trkpt lat="40.72772696065605" lon="17.57447398284335"><ele>235.0</ele><time>2026-04-28T17:08:10.999Z</time></trkpt><trkpt lat="40.72771161959825" lon="17.574566614795806"><ele>235.0</ele><time>2026-04-28T17:08:12.999Z</time></trkpt><trkpt lat="40.727672885367255" lon="17.5746437357048"><ele>234.99999999999997</ele><time>2026-04-28T17:08:14.999Z</time></trkpt><trkpt lat="40.72763385301898" lon="17.574718066067323"><ele>235.0</ele><time>2026-04-28T17:08:16.999Z</time></trkpt><trkpt lat="40.72761874581242" lon="17.57482223573251"><ele>235.57142857142856</ele><time>2026-04-28T17:08:18.999Z</time></trkpt><trkpt lat="40.72760502732264" lon="17.57491667517838"><ele>236.1428571428571</ele><time>2026-04-28T17:08:20.999Z</time></trkpt><trkpt lat="40.727549443295096" lon="17.57499544793136"><ele>236.71428571428572</ele><time>2026-04-28T17:08:22.999Z</time></trkpt><trkpt lat="40.72751231940464" lon="17.57507067730026"><ele>237.28571428571428</ele><time>2026-04-28T17:08:24.999Z</time></trkpt><trkpt lat="40.72747972576443" lon="17.575151723687302"><ele>237.85714285714286</ele><time>2026-04-28T17:08:26.999Z</time></trkpt><trkpt lat="40.72744622581253" lon="17.5752338906386"><ele>238.42857142857144</ele><time>2026-04-28T17:08:28.999Z</time></trkpt><trkpt lat="40.72741608659988" lon="17.57531308581469"><ele>239.00000000000003</ele><time>2026-04-28T17:08:30.999Z</time></trkpt><trkpt lat="40.727373339485965" lon="17.5754246475844"><ele>239.50000000000003</ele><time>2026-04-28T17:08:33.999Z</time></trkpt><trkpt lat="40.7273357262125" lon="17.575540461428037"><ele>240.0</ele><time>2026-04-28T17:08:36.999Z</time></trkpt><trkpt lat="40.72729917108053" lon="17.575629478281357"><ele>240.5</ele><time>2026-04-28T17:08:38.999Z</time></trkpt><trkpt lat="40.72726402158656" lon="17.575706119655564"><ele>241.0</ele><time>2026-04-28T17:08:40.999Z</time></trkpt><trkpt lat="40.72722860917434" lon="17.575787324865843"><ele>241.50000000000003</ele><time>2026-04-28T17:08:42.999Z</time></trkpt><trkpt lat="40.727202369783036" lon="17.57587164032707"><ele>242.0</ele><time>2026-04-28T17:08:44.999Z</time></trkpt><trkpt lat="40.72716430059654" lon="17.575980876529556"><ele>242.0</ele><time>2026-04-28T17:08:47.999Z</time></trkpt><trkpt lat="40.72714821745104" lon="17.57609826586754"><ele>241.99999999999997</ele><time>2026-04-28T17:08:50.998Z</time></trkpt><trkpt lat="40.72710950687814" lon="17.576167697222395"><ele>242.0</ele><time>2026-04-28T17:08:52.998Z</time></trkpt><trkpt lat="40.72708190359432" lon="17.57624823661098"><ele>242.0</ele><time>2026-04-28T17:08:54.998Z</time></trkpt><trkpt lat="40.72704069752646" lon="17.576337599906427"><ele>241.99999999999997</ele><time>2026-04-28T17:08:57.998Z</time></trkpt><trkpt lat="40.7270137906478" lon="17.57641791619434"><ele>242.0</ele><time>2026-04-28T17:08:59.998Z</time></trkpt><trkpt lat="40.726956751984645" lon="17.576492971083702"><ele>242.0</ele><time>2026-04-28T17:09:02.998Z</time></trkpt><trkpt lat="40.72693564835029" lon="17.576580727225974"><ele>242.00000000000003</ele><time>2026-04-28T17:09:05.998Z</time></trkpt><trkpt lat="40.72689376021413" lon="17.576700247503826"><ele>242.0</ele><time>2026-04-28T17:09:09.998Z</time></trkpt><trkpt lat="40.72687786350378" lon="17.576788867877138"><ele>242.0</ele><time>2026-04-28T17:09:16Z</time></trkpt><trkpt lat="40.72684834836342" lon="17.576882680988646"><ele>242.0</ele><time>2026-04-28T17:09:19Z</time></trkpt><trkpt lat="40.72681162019711" lon="17.57696649968939"><ele>242.00000000000003</ele><time>2026-04-28T17:09:21Z</time></trkpt><trkpt lat="40.72676498634799" lon="17.577056920846157"><ele>242.0</ele><time>2026-04-28T17:09:23Z</time></trkpt><trkpt lat="40.726726227616616" lon="17.577157807311"><ele>242.00000000000003</ele><time>2026-04-28T17:09:25Z</time></trkpt><trkpt lat="40.726691322243354" lon="17.57722764500087"><ele>242.0</ele><time>2026-04-28T17:09:27Z</time></trkpt><trkpt lat="40.72667706923284" lon="17.57733286313145"><ele>242.0</ele><time>2026-04-28T17:09:30Z</time></trkpt><trkpt lat="40.72674316036753" lon="17.577371062181392"><ele>242.0</ele><time>2026-04-28T17:09:33Z</time></trkpt><trkpt lat="40.72683198221119" lon="17.577415415348607"><ele>242.00000000000003</ele><time>2026-04-28T17:09:36Z</time></trkpt><trkpt lat="40.72689882724331" lon="17.577429205252468"><ele>242.0</ele><time>2026-04-28T17:09:38Z</time></trkpt><trkpt lat="40.72700912793394" lon="17.577470867463596"><ele>242.00000000000003</ele><time>2026-04-28T17:09:40Z</time></trkpt><trkpt lat="40.72709798951487" lon="17.57749881034586"><ele>242.0</ele><time>2026-04-28T17:09:42Z</time></trkpt><trkpt lat="40.727166127878256" lon="17.5775721155713"><ele>242.0</ele><time>2026-04-28T17:09:44Z</time></trkpt><trkpt lat="40.72717986189632" lon="17.577659750298917"><ele>242.0</ele><time>2026-04-28T17:09:46Z</time></trkpt><trkpt lat="40.72719958376822" lon="17.577764853791514"><ele>242.00000000000003</ele><time>2026-04-28T17:09:48Z</time></trkpt><trkpt lat="40.72723516255126" lon="17.57785197380416"><ele>242.0</ele><time>2026-04-28T17:09:50Z</time></trkpt><trkpt lat="40.72723254499028" lon="17.577984468438057"><ele>241.83333333333334</ele><time>2026-04-28T17:09:52Z</time></trkpt><trkpt lat="40.72716941957136" lon="17.578065095173958"><ele>241.66666666666669</ele><time>2026-04-28T17:09:54Z</time></trkpt><trkpt lat="40.72712899173739" lon="17.57815834630863"><ele>241.5</ele><time>2026-04-28T17:09:55Z</time></trkpt><trkpt lat="40.72708814409556" lon="17.5782269491292"><ele>241.33333333333331</ele><time>2026-04-28T17:09:56Z</time></trkpt><trkpt lat="40.72705161818539" lon="17.578314721537573"><ele>241.16666666666666</ele><time>2026-04-28T17:09:57Z</time></trkpt><trkpt lat="40.72696978732585" lon="17.578443246575585"><ele>241.0</ele><time>2026-04-28T17:09:58.999Z</time></trkpt><trkpt lat="40.726895473580555" lon="17.578581990641528"><ele>240.8</ele><time>2026-04-28T17:10:00.999Z</time></trkpt><trkpt lat="40.72683809780588" lon="17.578717234097773"><ele>240.60000000000002</ele><time>2026-04-28T17:10:02.999Z</time></trkpt><trkpt lat="40.72679467955408" lon="17.578795014012613"><ele>240.4</ele><time>2026-04-28T17:10:04.999Z</time></trkpt><trkpt lat="40.72673450714237" lon="17.578877792876693"><ele>240.2</ele><time>2026-04-28T17:10:09.999Z</time></trkpt><trkpt lat="40.726693568448624" lon="17.57899218907849"><ele>240.0</ele><time>2026-04-28T17:10:11.999Z</time></trkpt><trkpt lat="40.72664744440614" lon="17.579073599798836"><ele>240.0</ele><time>2026-04-28T17:10:13.999Z</time></trkpt><trkpt lat="40.72665071820851" lon="17.57923910307646"><ele>240.0</ele><time>2026-04-28T17:10:15.999Z</time></trkpt><trkpt lat="40.72659370048301" lon="17.579329518591887"><ele>240.0</ele><time>2026-04-28T17:10:18.999Z</time></trkpt><trkpt lat="40.72655374085409" lon="17.57944522921963"><ele>240.0</ele><time>2026-04-28T17:10:21.999Z</time></trkpt><trkpt lat="40.726453311491035" lon="17.57939523716484"><ele>240.0</ele><time>2026-04-28T17:12:27.999Z</time></trkpt><trkpt lat="40.7264455283178" lon="17.57929539249788"><ele>240.0</ele><time>2026-04-28T17:12:33.999Z</time></trkpt></trkseg></trk></gpx>